# Wetter Temperatur Luftdruck Luftfeuchtigkeit Sichtweite Windgeschwindigkeit Windrichtung Zeit
1 Clouds 3 1010 84 10000 8.23 260 16:45 01.02.2023
2 Rain 6 1009 71 10000 8.94 360 14:21 01.02.2023
3 Rain 6 1009 71 10000 8.94 360 14:21 01.02.2023
4 Clouds 7 1010 68 10000 7.72 260 13:19 01.02.2023
5 Clouds 6 1011 68 10000 9.77 270 12:26 01.02.2023
6 Clouds 6 1011 71 10000 9.77 270 11:35 01.02.2023
7 Clouds 5 1011 80 10000 8.23 260 08:41 01.02.2023
8 Clouds 5 1014 71 10000 8.75 280 22:59 31.01.2023
9 Clouds 6 1014 73 10000 8.75 280 21:20 31.01.2023
10 Clouds 6 1013 80 10000 7.72 270 19:24 31.01.2023
11 Drizzle 6 1013 82 10000 8.75 250 17:54 31.01.2023
12 Mist 5 1013 86 5000 8.75 250 15:36 31.01.2023
13 Mist 5 1013 85 3300 8.23 250 15:18 31.01.2023
14 Drizzle 5 1013 80 10000 8.75 250 13:43 31.01.2023
15 Rain 6 1015 72 10000 8.75 250 11:28 31.01.2023
16 Clouds 5 1016 72 10000 7.72 250 10:26 31.01.2023
17 Clouds 5 1017 83 10000 6.69 250 09:44 31.01.2023
18 Clouds 4 1017 78 10000 6.17 250 08:56 31.01.2023
19 Clouds 4 1018 79 10000 5.66 260 07:59 31.01.2023
20 Clouds 4 1018 80 10000 6.17 270 04:52 31.01.2023
21 Clouds 4 1017 77 10000 7.2 280 23:36 30.01.2023
22 Clouds 5 1016 76 10000 8.23 290 22:50 30.01.2023
23 Clouds 5 1015 74 10000 7.72 280 21:48 30.01.2023
24 Clouds 5 1014 75 10000 8.75 280 20:45 30.01.2023
25 Clouds 5 1013 82 10000 8.75 290 18:55 30.01.2023
26 Clouds 5 1011 77 10000 9.26 280 17:26 30.01.2023
27 Clouds 6 1008 82 10000 12.35 280 14:57 30.01.2023
28 Clouds 6 1007 73 10000 8.23 280 13:56 30.01.2023
29 Clouds 6 1008 66 10000 8.75 280 12:21 30.01.2023
30 Clouds 6 1008 66 10000 8.75 280 12:21 30.01.2023
31 Clouds 6 1008 72 10000 8.23 280 10:30 30.01.2023
32 Clouds 6 1008 75 10000 7.2 270 09:54 30.01.2023
33 Clouds 5 1008 84 10000 9.26 270 08:40 30.01.2023
34 Rain 4 1008 83 6000 8.75 250 06:23 30.01.2023
35 Clouds 2 1012 77 10000 7.2 240 01:35 30.01.2023
36 Clouds 2 1015 77 10000 5.66 230 23:34 29.01.2023
37 Clouds 1 1016 77 10000 6.69 230 22:37 29.01.2023
38 Clouds 1 1017 86 10000 5.66 230 21:20 29.01.2023
39 Clouds 2 1018 77 10000 6.17 230 20:36 29.01.2023
40 Clouds 2 1019 76 10000 5.14 240 19:33 29.01.2023
41 Clouds 1 1020 76 10000 6.17 240 18:41 29.01.2023
42 Clouds 2 1021 73 9000 5.66 240 17:28 29.01.2023
43 Clouds 2 1021 70 8000 4.63 240 16:20 29.01.2023
44 Clouds 2 1021 70 8000 4.63 240 16:20 29.01.2023
45 Clouds 2 1023 73 8000 5.14 240 14:21 29.01.2023
46 Clouds 2 1023 73 10000 4.12 230 13:25 29.01.2023
47 Clouds 1 1024 73 10000 4.63 240 12:39 29.01.2023
48 Clouds 1 1024 74 10000 4.63 240 12:20 29.01.2023
49 Clouds 1 1024 75 10000 4.12 240 11:42 29.01.2023
50 Clouds 1 1024 76 10000 4.63 240 11:23 29.01.2023
51 Clouds 0 1026 76 10000 4.63 240 08:55 29.01.2023
52 Clouds -1 1025 77 10000 3.6 250 06:49 29.01.2023
53 Clouds -1 1028 76 10000 1.54 230 00:36 29.01.2023
54 Clouds -2 1028 78 10000 2.06 270 21:50 28.01.2023
55 Clouds -2 1029 76 10000 2.06 250 20:34 28.01.2023
56 Clouds -2 1028 75 10000 1.54 270 19:47 28.01.2023
57 Clouds -1 1028 73 10000 2.06 280 18:23 28.01.2023
58 Clouds 0 1028 67 10000 3.09 270 16:59 28.01.2023
59 Clouds 1 1028 65 10000 3.09 260 16:20 28.01.2023
60 Clouds 1 1028 65 10000 3.09 260 16:20 28.01.2023
61 Clouds 1 1028 65 10000 3.09 260 16:20 28.01.2023
62 Clouds 1 1028 63 10000 3.09 300 15:49 28.01.2023
63 Clouds 1 1028 61 10000 2.06 290 14:26 28.01.2023
64 Clouds 1 1029 65 10000 2.57 290 12:50 28.01.2023
65 Clouds 1 1029 65 10000 2.57 320 11:54 28.01.2023
66 Clouds 1 1029 64 10000 0.51 0 10:34 28.01.2023
67 Clouds 0 1028 75 10000 1.03 0 07:21 28.01.2023
68 Clouds -1 1027 85 10000 1.03 0 01:42 28.01.2023
69 Clouds 1 1028 80 10000 1.54 20 00:25 28.01.2023
70 Clouds 2 1027 79 10000 1.79 360 21:27 27.01.2023
71 Clouds 2 1027 83 10000 2.06 40 18:53 27.01.2023
72 Clouds 2 1026 79 10000 2.57 30 17:58 27.01.2023
73 Clouds 2 1026 82 10000 2.24 360 17:19 27.01.2023
74 Clouds 3 1025 81 10000 2.57 30 16:35 27.01.2023
75 Clouds 3 1025 91 10000 3.09 40 14:58 27.01.2023
76 Clouds 3 1024 90 10000 2.57 20 14:25 27.01.2023
77 Drizzle 3 1024 92 10000 3.58 360 13:31 27.01.2023
78 Drizzle 3 1023 90 3100 2.57 0 08:47 27.01.2023
79 Clouds 2 1023 89 2700 0.51 0 06:21 27.01.2023
80 Snow 1 1021 90 3600 1.54 330 00:24 27.01.2023
81 Snow 1 1021 89 1200 1.54 320 21:52 26.01.2023
82 Fog 0 1021 90 800 2.06 310 20:40 26.01.2023
83 Snow 1 1021 88 2400 1.54 290 19:57 26.01.2023
84 Snow 0 1021 90 3900 2.06 290 17:56 26.01.2023
85 Mist 0 1021 87 2500 3.09 290 16:30 26.01.2023
86 Mist 0 1021 87 3900 3.09 290 15:59 26.01.2023
87 Mist 0 1021 90 3900 3.09 290 15:41 26.01.2023
88 Mist 0 1020 87 2700 2.06 280 15:22 26.01.2023
89 Mist 0 1020 88 2100 2.57 290 13:47 26.01.2023
90 Mist 0 1021 86 3000 2.06 260 12:31 26.01.2023
91 Mist -1 1022 87 2500 2.57 260 10:35 26.01.2023
92 Mist -1 1022 88 3000 1.54 260 09:58 26.01.2023
93 Mist -1 1022 88 3000 1.54 260 09:34 26.01.2023
94 Clouds -2 1022 89 2900 2.06 270 06:39 26.01.2023
95 Clouds -1 1024 91 8000 3.6 260 23:41 25.01.2023
96 Clouds -1 1024 90 4900 2.57 250 22:51 25.01.2023
97 Clouds -1 1025 89 4400 2.57 280 21:41 25.01.2023
98 Clouds -1 1025 89 2000 2.57 260 21:18 25.01.2023
99 Clouds -1 1027 89 2800 2.57 240 18:30 25.01.2023
100 Mist 0 1028 87 2200 1.54 220 16:22 25.01.2023
101 Mist 0 1028 87 2200 1.54 220 16:22 25.01.2023
102 Mist 0 1029 86 2900 2.06 260 15:21 25.01.2023
103 Mist 0 1032 89 2100 2.57 240 12:37 25.01.2023
104 Mist 0 1033 87 3100 1.34 360 09:54 25.01.2023
105 Mist 0 1034 87 4300 1.54 130 09:29 25.01.2023
106 Clouds 0 1034 86 6000 2.57 140 06:52 25.01.2023
107 Clouds 1 1037 87 10000 2.06 120 00:42 25.01.2023
108 Clouds 1 1038 76 10000 1.03 0 22:45 24.01.2023
109 Clouds 0 1038 86 10000 0 0 21:29 24.01.2023
110 Clouds 0 1038 78 10000 2.57 120 19:40 24.01.2023
111 Clouds 0 1038 85 10000 2.57 110 18:31 24.01.2023
112 Clouds 0 1038 85 10000 2.57 110 18:31 24.01.2023
113 Clouds 1 1038 76 10000 1.54 110 17:19 24.01.2023
114 Clouds 1 1038 77 10000 2.57 90 16:52 24.01.2023
115 Clouds 1 1038 77 10000 2.06 110 14:50 24.01.2023
116 Clouds 2 1039 82 10000 1.54 60 12:56 24.01.2023
117 Clouds 1 1039 83 10000 1.54 40 11:20 24.01.2023
118 Clouds 1 1039 87 10000 2.06 90 08:22 24.01.2023
119 Clouds 1 1039 88 10000 2.24 360 07:51 24.01.2023
120 Clouds 1 1038 93 10000 2.06 80 05:31 24.01.2023
121 Clouds 1 1039 93 7000 0.51 120 01:29 24.01.2023
122 Clouds 1 1039 93 6000 1.03 0 23:51 23.01.2023
123 Clouds 1 1038 95 6000 2.06 80 22:27 23.01.2023
124 Clouds 1 1037 94 6000 2.57 70 19:53 23.01.2023
125 Clouds 1 1037 94 8000 2.24 97 18:26 23.01.2023
126 Clouds 2 1037 90 10000 1.79 66 16:21 23.01.2023
127 Clouds 2 1037 91 10000 2.06 70 14:50 23.01.2023
128 Clouds 2 1037 93 9000 2.24 67 13:44 23.01.2023
129 Clouds 2 1037 93 9000 2.24 67 13:44 23.01.2023
130 Clouds 2 1037 91 8000 1.54 80 12:55 23.01.2023
131 Mist 1 1037 92 4500 2.06 90 11:45 23.01.2023
132 Mist 1 1036 92 4300 2.06 80 10:25 23.01.2023
133 Clouds 1 1036 90 10000 1.34 71 08:22 23.01.2023
134 Clouds 1 1033 90 9000 2.06 70 23:51 22.01.2023
135 Clouds 1 1032 92 7000 1.03 0 21:49 22.01.2023
136 Clouds 1 1032 93 6000 1.03 0 20:58 22.01.2023
137 Clouds 1 1032 92 7000 1.54 80 19:54 22.01.2023
138 Clouds 1 1032 92 10000 2.06 70 19:20 22.01.2023
139 Clouds 1 1031 91 10000 2.06 50 18:25 22.01.2023
140 Clouds 1 1031 92 10000 1.54 60 17:55 22.01.2023
141 Clouds 1 1031 92 10000 1.34 67 17:23 22.01.2023
142 Clouds 1 1030 92 10000 2.06 70 15:23 22.01.2023
143 Snow 1 1030 89 10000 2.06 70 14:20 22.01.2023
144 Snow 1 1029 89 10000 2.57 70 13:26 22.01.2023
145 Snow 1 1030 89 10000 3.09 60 12:28 22.01.2023
146 Snow 1 1030 92 10000 1.54 30 11:23 22.01.2023
147 Snow 1 1029 92 10000 1.54 20 09:34 22.01.2023
148 Snow 0 1027 92 7000 3.09 360 02:59 22.01.2023
149 Snow 0 1028 88 6000 2.68 360 23:44 21.01.2023
150 Snow 1 1028 93 4400 3.6 350 22:55 21.01.2023
151 Snow 1 1028 81 4400 3.6 360 21:29 21.01.2023
152 Clouds 2 1029 79 10000 3.6 350 18:53 21.01.2023
153 Clouds 2 1029 79 10000 3.6 350 18:53 21.01.2023
154 Clouds 2 1028 75 10000 2.68 360 15:57 21.01.2023
155 Clouds 2 1029 76 10000 2.57 350 13:56 21.01.2023
156 Clouds 1 1029 77 10000 2.06 350 12:57 21.01.2023
157 Clouds 1 1029 82 10000 2.57 330 11:40 21.01.2023
158 Clouds 0 1029 86 10000 3.09 330 10:49 21.01.2023
159 Clouds -1 1029 84 10000 1.03 0 08:47 21.01.2023
160 Clouds -1 1026 84 8000 0.51 0 04:31 21.01.2023
161 Clouds -2 1022 80 6000 0 0 22:28 20.01.2023
162 Clouds -2 1022 82 9000 1.03 0 21:38 20.01.2023
163 Clouds -2 1021 81 10000 1.03 0 20:55 20.01.2023
164 Clouds -1 1020 80 10000 1.03 0 19:20 20.01.2023
165 Clouds 1 1018 71 10000 0.58 156 16:39 20.01.2023
166 Clouds 3 1016 71 10000 1.54 250 14:46 20.01.2023
167 Clouds 3 1016 71 10000 2.06 260 13:51 20.01.2023
168 Clouds -1 1015 82 10000 0 0 10:24 20.01.2023
169 Clear -2 1013 78 10000 0 0 08:53 20.01.2023
170 Clouds -2 1011 83 10000 1.79 360 05:54 20.01.2023
171 Clouds -2 1011 83 10000 1.79 360 05:54 20.01.2023
172 Clouds -1 1009 84 10000 1.34 360 02:30 20.01.2023
173 Clouds -1 1009 84 10000 1.34 360 02:30 20.01.2023
174 Clouds 0 1007 83 10000 2.06 250 22:35 19.01.2023
175 Clear 0 1006 83 10000 3.6 250 20:44 19.01.2023
176 Clear 1 1006 83 10000 3.6 250 19:29 19.01.2023
177 Clouds 2 1004 81 10000 3.6 240 16:51 19.01.2023
178 Clouds 2 1002 72 10000 5.14 230 13:29 19.01.2023
179 Clouds 1 1001 70 10000 5.14 190 09:37 19.01.2023
180 Clouds 0 1000 71 10000 3.6 190 02:59 19.01.2023
181 Clouds -1 1000 73 10000 3.09 190 22:26 18.01.2023
182 Clear -1 999 76 10000 1.54 160 20:20 18.01.2023
183 Clear -1 999 75 10000 2.06 180 19:38 18.01.2023
184 Clear -1 999 76 10000 2.06 200 19:20 18.01.2023
185 Clear 1 996 74 10000 2.57 240 15:57 18.01.2023
186 Clear 2 995 74 10000 2.57 240 13:54 18.01.2023
187 Clear -1 995 76 10000 0.51 0 11:46 18.01.2023
188 Clear -3 993 85 10000 1.03 80 09:28 18.01.2023
189 Clouds -3 992 74 10000 1.03 0 06:22 18.01.2023
190 Clouds -2 990 75 10000 2.57 170 00:37 18.01.2023
191 Clouds -2 989 80 10000 1.54 160 21:38 17.01.2023
192 Clear -1 988 75 10000 0.45 360 19:42 17.01.2023
193 Clear 0 988 71 10000 1.03 0 18:51 17.01.2023
194 Clear 1 988 67 10000 1.54 220 17:40 17.01.2023
195 Clouds 4 987 59 10000 6.17 240 15:27 17.01.2023
196 Clouds 4 986 61 10000 5.66 250 14:45 17.01.2023
197 Clear 4 986 60 10000 3.58 360 13:33 17.01.2023
198 Clouds 3 985 77 10000 6.17 250 11:47 17.01.2023
199 Clouds 2 984 85 10000 5.66 260 09:36 17.01.2023
200 Clouds 2 984 86 10000 6.69 260 08:55 17.01.2023
201 Rain 3 982 83 9000 7.2 250 07:33 17.01.2023
202 Rain 4 979 87 10000 5.14 230 03:47 17.01.2023
203 Rain 4 977 79 10000 3.13 360 00:48 17.01.2023
204 Clouds 5 978 65 10000 5.14 130 22:38 16.01.2023
205 Clouds 5 978 72 10000 5.14 130 21:43 16.01.2023
206 Clear 5 980 62 10000 6.69 150 19:55 16.01.2023
207 Clear 5 980 63 10000 6.17 140 19:18 16.01.2023
208 Clear 5 981 63 10000 6.17 140 18:48 16.01.2023
209 Clear 5 981 63 10000 4.12 140 18:18 16.01.2023
210 Clouds 5 982 66 10000 5.66 150 17:20 16.01.2023
211 Clear 6 985 69 10000 6.17 140 14:19 16.01.2023
212 Clear 6 985 70 10000 5.14 130 13:36 16.01.2023
213 Clouds 5 991 70 10000 4.12 150 10:25 16.01.2023
214 Clouds 3 992 76 10000 2.57 120 08:32 16.01.2023
215 Clouds 6 999 62 10000 5.36 360 22:49 15.01.2023
216 Clouds 7 999 67 10000 9.26 240 21:24 15.01.2023
217 Rain 7 999 58 10000 8.75 230 20:31 15.01.2023
218 Clouds 7 999 58 10000 7.72 230 19:34 15.01.2023
219 Clouds 7 998 57 10000 9.26 230 17:38 15.01.2023
220 Clouds 7 998 55 10000 10.29 240 14:59 15.01.2023
221 Clear 6 997 69 10000 10.29 240 12:25 15.01.2023
222 Clouds 6 998 67 10000 6.69 220 11:29 15.01.2023
223 Clouds 6 997 68 10000 3.6 200 10:27 15.01.2023
224 Clouds 6 997 73 10000 4.12 220 08:54 15.01.2023
225 Rain 10 995 79 9000 6.69 220 00:35 15.01.2023
226 Clouds 10 996 77 10000 8.23 210 22:44 14.01.2023
227 Clouds 10 996 78 10000 7.72 210 21:55 14.01.2023
228 Clouds 10 996 78 10000 7.72 210 21:36 14.01.2023
229 Clouds 10 996 78 10000 7.72 210 21:36 14.01.2023
230 Clouds 9 996 79 10000 8.75 210 21:18 14.01.2023
231 Clouds 9 996 79 10000 8.75 210 21:18 14.01.2023
232 Clouds 9 997 80 10000 7.72 200 20:28 14.01.2023
233 Rain 9 998 81 10000 7.2 190 18:19 14.01.2023
234 Rain 7 1002 78 10000 5.14 170 15:43 14.01.2023
235 Rain 7 1003 79 10000 5.14 170 15:24 14.01.2023
236 Rain 7 1005 78 10000 4.63 170 14:24 14.01.2023
237 Rain 7 1006 76 10000 4.63 180 13:32 14.01.2023
238 Clear 7 1010 70 10000 5.66 200 10:51 14.01.2023
239 Clouds 6 1012 73 10000 4.12 200 09:56 14.01.2023
240 Clouds 7 1012 72 10000 6.69 250 02:50 14.01.2023
241 Clouds 8 1010 70 10000 7.72 250 23:21 13.01.2023
242 Clouds 8 1009 70 10000 8.75 240 22:45 13.01.2023
243 Clouds 7 1009 75 10000 7.72 240 21:58 13.01.2023
244 Clouds 7 1008 72 10000 8.75 250 20:52 13.01.2023
245 Clouds 7 1007 70 10000 7.2 240 19:36 13.01.2023
246 Clouds 8 1006 70 10000 7.2 240 17:59 13.01.2023
247 Clouds 8 1005 70 10000 6.69 250 16:24 13.01.2023
248 Clouds 9 1003 57 10000 8.23 230 12:51 13.01.2023
249 Clouds 9 1003 57 10000 8.75 240 12:19 13.01.2023
250 Clouds 9 1003 65 10000 6.69 230 10:24 13.01.2023
251 Clouds 8 1003 66 10000 4.63 220 09:45 13.01.2023
252 Clouds 8 1003 71 10000 6.69 220 08:52 13.01.2023
253 Clouds 8 1003 72 10000 3.09 210 08:20 13.01.2023
254 Clouds 9 1003 74 10000 4.12 240 06:52 13.01.2023
255 Clouds 9 1003 78 10000 6.17 240 04:43 13.01.2023
256 Rain 9 1003 86 10000 5.66 230 23:58 12.01.2023
257 Rain 10 1003 86 10000 5.14 230 22:41 12.01.2023
258 Rain 10 1003 84 10000 6.17 220 20:55 12.01.2023
259 Rain 10 1004 83 10000 6.17 210 19:44 12.01.2023
260 Rain 10 1004 83 10000 5.14 220 17:35 12.01.2023
261 Drizzle 10 1004 81 10000 6.69 220 16:25 12.01.2023
262 Clouds 10 1004 76 10000 8.75 230 14:45 12.01.2023
263 Clouds 10 1004 77 10000 7.72 220 14:22 12.01.2023
264 Clouds 9 1004 82 10000 8.75 230 12:50 12.01.2023
265 Drizzle 9 1004 73 10000 8.75 220 10:38 12.01.2023
266 Drizzle 8 1005 75 10000 7.72 210 08:37 12.01.2023
267 Clouds 8 1008 76 10000 6.69 220 05:26 12.01.2023
268 Clouds 7 1010 74 10000 5.14 210 23:59 11.01.2023
269 Clouds 7 1010 74 10000 5.14 210 23:41 11.01.2023
270 Clouds 7 1010 75 10000 4.02 242 23:21 11.01.2023
271 Clouds 7 1011 77 10000 3.6 200 21:47 11.01.2023
272 Clouds 7 1011 78 10000 3.09 200 20:32 11.01.2023
273 Clouds 8 1011 79 10000 6.17 240 18:39 11.01.2023
274 Clouds 8 1010 82 10000 6.17 250 17:24 11.01.2023
275 Clouds 9 1009 86 10000 4.63 240 15:23 11.01.2023
276 Rain 9 1008 87 10000 5.14 220 13:51 11.01.2023
277 Rain 9 1007 83 10000 6.69 200 12:21 11.01.2023
278 Rain 9 1008 81 10000 5.66 220 10:45 11.01.2023
279 Rain 9 1007 75 10000 6.17 220 08:21 11.01.2023
280 Clouds 8 1007 75 10000 5.66 210 07:26 11.01.2023
281 Clouds 7 1009 74 10000 7.2 200 03:56 11.01.2023
282 Clouds 6 1013 76 10000 4.63 200 22:46 10.01.2023
283 Rain 6 1013 73 10000 5.66 200 22:18 10.01.2023
284 Clear 6 1015 67 10000 3.6 180 20:43 10.01.2023
285 Clear 6 1015 69 10000 3.6 180 19:51 10.01.2023
286 Clear 6 1016 79 10000 4.12 190 18:48 10.01.2023
287 Clear 6 1016 79 10000 4.12 190 18:48 10.01.2023
288 Clouds 6 1016 82 10000 3.6 190 17:59 10.01.2023
289 Clouds 7 1017 72 10000 3.09 200 16:54 10.01.2023
290 Clouds 7 1017 71 10000 4.12 230 15:33 10.01.2023
291 Clouds 8 1017 73 10000 4.63 240 14:35 10.01.2023
292 Clouds 7 1017 75 10000 5.14 230 12:47 10.01.2023
293 Clouds 5 1016 83 10000 4.12 250 09:43 10.01.2023
294 Clouds 5 1016 83 10000 4.12 250 09:43 10.01.2023
295 Clouds 5 1015 90 10000 4.63 250 08:37 10.01.2023
296 Clouds 6 1015 82 10000 4.12 260 07:55 10.01.2023
297 Clouds 6 1012 83 10000 4.12 260 05:33 10.01.2023
298 Clouds 6 1007 89 10000 4.63 250 00:19 10.01.2023
299 Rain 6 1004 82 10000 3.09 270 21:58 09.01.2023
300 Rain 6 1003 80 10000 6.17 260 20:50 09.01.2023
301 Rain 7 1002 79 10000 4.12 240 19:54 09.01.2023
302 Clouds 7 1001 74 10000 5.66 240 18:30 09.01.2023
303 Clouds 8 1000 69 10000 4.63 240 17:49 09.01.2023
304 Clouds 8 999 70 10000 3.09 210 16:34 09.01.2023
305 Clouds 9 998 68 10000 4.12 220 15:36 09.01.2023
306 Clouds 9 998 69 10000 3.6 210 14:59 09.01.2023
307 Clouds 9 998 69 10000 3.6 210 14:59 09.01.2023
308 Clouds 9 998 69 10000 3.6 210 14:41 09.01.2023
309 Clouds 9 998 72 10000 4.12 220 12:54 09.01.2023
310 Clouds 9 998 72 10000 4.12 220 12:54 09.01.2023
311 Clear 8 998 75 10000 5.14 240 11:54 09.01.2023
312 Clear 7 998 79 10000 3.6 230 11:19 09.01.2023
313 Rain 7 995 88 10000 2.57 150 06:58 09.01.2023
314 Rain 6 996 81 10000 3.09 110 02:55 09.01.2023
315 Clouds 6 996 79 10000 4.12 150 01:49 09.01.2023
316 Clouds 7 998 76 10000 3.6 180 22:29 08.01.2023
317 Clouds 8 999 75 10000 2.57 170 21:22 08.01.2023
318 Clouds 8 999 77 10000 3.09 170 20:53 08.01.2023
319 Clear 8 1000 75 10000 3.09 180 18:51 08.01.2023
320 Clouds 9 1000 74 10000 3.6 180 17:23 08.01.2023
321 Clouds 10 1001 73 10000 3.09 210 16:46 08.01.2023
322 Clouds 10 1001 71 10000 4.12 200 15:36 08.01.2023
323 Clouds 10 1002 76 10000 4.12 200 13:59 08.01.2023
324 Clouds 10 1002 76 10000 4.12 200 13:31 08.01.2023
325 Clouds 10 1003 78 10000 4.63 200 12:54 08.01.2023
326 Clouds 9 1004 86 10000 3.09 180 10:52 08.01.2023
327 Rain 9 1004 82 10000 3.09 180 09:37 08.01.2023
328 Rain 9 1004 73 10000 3.6 220 07:50 08.01.2023
329 Clouds 9 1006 68 10000 3.09 170 00:30 08.01.2023
330 Clouds 9 1007 68 10000 3.09 170 22:49 07.01.2023
331 Clouds 9 1007 68 10000 2.57 170 22:24 07.01.2023
332 Clouds 9 1008 68 10000 2.06 90 21:49 07.01.2023
333 Clouds 9 1008 69 10000 2.06 140 20:54 07.01.2023
334 Clouds 9 1009 70 10000 3.09 140 20:24 07.01.2023
335 Clouds 9 1009 68 10000 3.09 140 19:18 07.01.2023
336 Clouds 9 1010 70 10000 3.09 120 17:59 07.01.2023
337 Clouds 9 1010 70 10000 3.09 120 17:39 07.01.2023
338 Clouds 10 1011 76 10000 3.09 150 16:38 07.01.2023
339 Clouds 10 1011 66 10000 3.09 180 15:52 07.01.2023
340 Clouds 10 1012 65 10000 5.66 190 15:31 07.01.2023
341 Clouds 11 1012 65 10000 2.57 180 14:50 07.01.2023
342 Clouds 11 1012 66 10000 4.63 200 13:58 07.01.2023
343 Clouds 11 1013 67 10000 4.63 200 13:39 07.01.2023
344 Clouds 11 1014 71 10000 3.6 200 12:35 07.01.2023
345 Clouds 11 1014 73 10000 3.09 170 11:59 07.01.2023
346 Clear 9 1015 83 10000 3.09 170 10:27 07.01.2023
347 Clouds 8 1015 85 10000 3.6 190 08:48 07.01.2023
348 Clouds 8 1015 86 10000 2.06 180 07:58 07.01.2023
349 Clouds 8 1015 86 10000 2.06 180 07:40 07.01.2023
350 Clouds 9 1016 85 10000 3.6 220 05:21 07.01.2023
351 Clouds 7 1017 81 10000 2.06 200 22:57 06.01.2023
352 Clouds 7 1017 81 10000 2.06 200 22:20 06.01.2023
353 Clouds 7 1017 81 10000 2.06 200 21:44 06.01.2023
354 Clear 7 1017 81 10000 1.54 160 20:33 06.01.2023
355 Clear 8 1017 79 10000 2.57 230 19:54 06.01.2023
356 Clear 8 1017 79 10000 2.57 230 19:36 06.01.2023
357 Clouds 8 1017 77 10000 4.12 240 19:18 06.01.2023
358 Clouds 9 1016 77 10000 3.6 250 17:44 06.01.2023
359 Clouds 10 1016 74 10000 5.14 250 16:52 06.01.2023
360 Clouds 10 1016 72 10000 5.14 260 16:21 06.01.2023
361 Clouds 11 1016 72 10000 6.17 250 15:51 06.01.2023
362 Clouds 11 1016 75 10000 7.2 250 15:27 06.01.2023
363 Clouds 10 1015 79 10000 6.69 240 13:38 06.01.2023
364 Clouds 10 1015 77 10000 6.69 230 11:49 06.01.2023
365 Clouds 10 1015 75 10000 5.36 360 10:33 06.01.2023
366 Clouds 10 1015 82 10000 4.63 210 08:34 06.01.2023
367 Clouds 8 1016 88 10000 2.57 170 05:20 06.01.2023
368 Clouds 8 1019 88 10000 1.54 130 22:56 05.01.2023
369 Clouds 7 1019 88 10000 1.03 140 22:20 05.01.2023
370 Mist 8 1019 88 3200 3.09 250 20:24 05.01.2023
371 Clouds 8 1019 83 10000 4.63 280 17:30 05.01.2023
372 Clouds 8 1018 83 10000 4.63 290 16:37 05.01.2023
373 Clouds 8 1017 82 10000 5.14 280 15:48 05.01.2023
374 Clouds 8 1017 83 10000 5.14 280 14:56 05.01.2023
375 Rain 9 1016 79 10000 5.66 280 13:34 05.01.2023
376 Rain 8 1016 81 10000 5.14 290 12:39 05.01.2023
377 Rain 9 1014 83 7000 7.72 280 10:19 05.01.2023
378 Rain 9 1013 83 10000 8.23 270 09:36 05.01.2023
379 Clouds 9 1011 81 10000 9.26 270 07:26 05.01.2023
380 Clouds 9 1011 81 10000 8.75 270 06:38 05.01.2023
381 Clouds 9 1011 81 10000 8.75 270 06:38 05.01.2023
382 Rain 10 1009 79 10000 7.72 270 00:32 05.01.2023
383 Clouds 11 1008 74 10000 6.69 260 22:23 04.01.2023
384 Clouds 12 1008 73 10000 8.23 260 21:30 04.01.2023
385 Clouds 12 1009 81 10000 9.77 240 19:58 04.01.2023
386 Rain 12 1009 80 10000 9.77 240 19:37 04.01.2023
387 Rain 12 1009 75 10000 7.72 240 19:18 04.01.2023
388 Drizzle 11 1009 80 10000 9.26 250 17:38 04.01.2023
389 Clouds 10 1009 85 10000 7.2 230 16:30 04.01.2023
390 Clouds 9 1010 83 10000 6.69 230 14:49 04.01.2023
391 Rain 9 1012 79 10000 6.69 220 12:19 04.01.2023
392 Clouds 8 1013 79 10000 8.23 230 11:23 04.01.2023
393 Rain 8 1013 78 10000 9.26 220 10:44 04.01.2023
394 Clouds 8 1013 76 10000 9.26 230 10:24 04.01.2023
395 Clouds 8 1013 82 10000 9.26 220 09:24 04.01.2023
396 Rain 8 1017 71 10000 7.72 200 05:38 04.01.2023
397 Clouds 6 1023 75 10000 4.63 200 01:20 04.01.2023
398 Clouds 6 1024 76 10000 3.6 180 23:37 03.01.2023
399 Clouds 6 1024 78 10000 3.6 190 22:56 03.01.2023
400 Clouds 6 1025 87 10000 2.57 180 21:37 03.01.2023
401 Clouds 7 1026 76 10000 1.54 160 20:28 03.01.2023
402 Clouds 7 1026 83 10000 3.09 210 18:22 03.01.2023
403 Clouds 8 1026 69 10000 2.57 210 16:39 03.01.2023
404 Clear 9 1026 66 10000 3.09 240 14:23 03.01.2023
405 Clear 9 1026 65 10000 3.6 250 13:33 03.01.2023
406 Clear 9 1026 65 10000 3.6 250 13:32 03.01.2023
407 Clouds 8 1027 67 10000 3.6 260 12:59 03.01.2023
408 Clouds 8 1027 69 10000 4.12 240 12:31 03.01.2023
409 Clouds 7 1027 72 10000 3.6 260 11:56 03.01.2023
410 Clouds 6 1027 80 10000 3.6 250 09:26 03.01.2023
411 Clouds 6 1025 77 10000 4.12 270 04:28 03.01.2023
412 Clouds 6 1024 77 10000 4.12 270 03:49 03.01.2023
413 Clouds 7 1024 76 10000 5.14 280 03:28 03.01.2023
414 Clouds 8 1021 78 10000 4.63 260 23:19 02.01.2023
415 Clouds 8 1021 80 10000 5.66 260 22:39 02.01.2023
416 Clouds 9 1019 75 10000 4.12 270 20:59 02.01.2023
417 Clear 9 1019 76 10000 3.6 260 20:31 02.01.2023
418 Clouds 10 1018 78 10000 4.12 280 18:49 02.01.2023
419 Clouds 11 1016 71 10000 4.63 270 16:20 02.01.2023
420 Clouds 12 1015 71 10000 7.2 250 14:26 02.01.2023
421 Clouds 14 1013 64 10000 5.66 230 12:56 02.01.2023
422 Clear 15 1012 58 10000 6.69 230 11:27 02.01.2023
423 Rain 14 1012 61 10000 4.63 210 08:55 02.01.2023
424 Clouds 14 1011 60 10000 5.14 210 05:43 02.01.2023
425 Clouds 12 1015 76 10000 2.57 170 23:32 01.01.2023
426 Rain 12 1016 72 10000 2.06 190 21:55 01.01.2023
427 Clouds 12 1016 71 10000 2.57 190 20:50 01.01.2023
428 Clouds 12 1016 71 10000 2.06 180 20:18 01.01.2023
429 Clouds 12 1016 71 10000 2.06 180 20:18 01.01.2023
430 Clouds 11 1017 73 10000 2.57 180 18:54 01.01.2023
431 Rain 11 1016 77 10000 1.54 90 17:39 01.01.2023
432 Rain 10 1016 78 10000 1.03 90 17:19 01.01.2023
433 Clouds 12 1016 74 10000 1.03 0 15:46 01.01.2023
434 Clouds 13 1015 72 10000 4.12 260 13:50 01.01.2023
435 Clouds 13 1015 77 10000 6.69 280 13:18 01.01.2023
436 Clouds 14 1014 58 10000 5.14 230 11:45 01.01.2023
437 Clouds 14 1014 58 10000 5.66 230 11:21 01.01.2023
438 Clouds 14 1013 58 10000 6.69 210 09:38 01.01.2023
439 Clouds 14 1012 56 10000 5.66 210 08:44 01.01.2023
440 Clouds 14 1012 56 10000 5.66 210 08:18 01.01.2023
441 Clouds 14 1011 55 10000 6.17 210 06:50 01.01.2023
442 Clouds 15 1009 58 10000 5.66 210 00:19 01.01.2023
443 Clouds 15 1008 58 10000 5.81 360 23:39 31.12.2022
444 Clouds 15 1008 61 10000 6.69 210 22:30 31.12.2022
445 Clouds 15 1008 64 10000 6.69 210 21:25 31.12.2022
446 Clouds 15 1007 64 10000 7.2 220 20:33 31.12.2022
447 Clouds 16 1007 63 10000 6.17 230 18:59 31.12.2022
448 Clouds 16 1007 62 10000 6.17 230 18:39 31.12.2022
449 Clouds 17 1007 61 10000 7.72 240 17:58 31.12.2022
450 Clouds 17 1007 62 10000 7.72 240 17:34 31.12.2022
451 Clouds 17 1007 64 10000 7.2 230 16:32 31.12.2022
452 Rain 17 1007 66 10000 6.69 230 15:54 31.12.2022
453 Rain 17 1006 63 10000 7.72 250 14:35 31.12.2022
454 Clouds 17 1006 65 10000 9.26 240 13:28 31.12.2022
455 Clouds 16 1005 72 10000 6.17 220 12:38 31.12.2022
456 Clouds 16 1005 77 10000 4.92 360 12:18 31.12.2022
457 Clouds 16 1005 77 10000 4.92 360 12:18 31.12.2022
458 Clouds 15 1005 82 10000 4.47 360 11:43 31.12.2022
459 Clouds 14 1005 80 4500 4.02 360 10:23 31.12.2022
460 Clouds 14 1005 79 10000 5.36 360 09:51 31.12.2022
461 Clouds 12 1004 83 5000 2.57 250 08:44 31.12.2022
462 Clouds 14 1003 79 10000 6.17 210 06:51 31.12.2022
463 Clouds 11 1005 77 10000 6.17 220 00:35 31.12.2022
464 Clouds 11 1004 75 10000 6.17 210 23:40 30.12.2022
465 Clouds 10 1003 74 10000 7.72 210 22:22 30.12.2022
466 Clouds 10 1003 73 10000 7.2 210 21:42 30.12.2022
467 Clouds 10 1003 72 10000 6.69 200 21:21 30.12.2022
468 Clouds 9 1003 72 10000 5.14 150 18:57 30.12.2022
469 Rain 9 1004 64 10000 6.17 140 17:35 30.12.2022
470 Clear 8 1005 65 10000 5.14 140 16:51 30.12.2022
471 Clear 9 1007 64 10000 4.12 150 15:22 30.12.2022
472 Clear 9 1009 69 10000 4.12 170 13:36 30.12.2022
473 Clear 6 1012 72 10000 4.12 200 09:32 30.12.2022
474 Clouds 7 1011 69 10000 4.12 230 06:44 30.12.2022
475 Clouds 8 1009 66 10000 6.69 240 02:41 30.12.2022
476 Clouds 8 1008 75 10000 7.72 250 00:53 30.12.2022
477 Clouds 9 1007 67 10000 6.69 240 22:41 29.12.2022
478 Clouds 10 1006 64 10000 6.69 220 21:29 29.12.2022
479 Clouds 10 1005 65 10000 5.14 220 20:53 29.12.2022
480 Clouds 9 1005 68 10000 3.6 220 19:55 29.12.2022
481 Clouds 10 1005 68 10000 6.69 250 17:57 29.12.2022
482 Clouds 10 1005 73 10000 7.2 250 17:28 29.12.2022
483 Clouds 11 1004 62 10000 8.23 240 16:55 29.12.2022
484 Clouds 11 1004 62 10000 5.81 360 15:58 29.12.2022
485 Clouds 11 1003 66 10000 6.17 230 14:37 29.12.2022
486 Clouds 12 1002 67 10000 6.17 220 12:41 29.12.2022
487 Clouds 11 1002 76 10000 5.14 280 11:19 29.12.2022
488 Clouds 11 1001 71 10000 5.66 210 07:39 29.12.2022
489 Rain 10 1004 68 10000 5.66 210 23:34 28.12.2022
490 Clouds 9 1005 68 10000 5.66 200 22:33 28.12.2022
491 Clouds 9 1006 68 10000 5.14 190 21:20 28.12.2022
492 Clouds 9 1007 68 10000 6.17 200 20:24 28.12.2022
493 Clouds 9 1008 71 10000 4.12 200 19:23 28.12.2022
494 Clouds 9 1009 74 10000 5.14 210 16:43 28.12.2022
495 Clouds 9 1010 76 10000 4.92 360 14:38 28.12.2022
496 Clouds 9 1010 74 10000 6.69 220 12:54 28.12.2022
497 Clouds 8 1011 74 10000 6.17 220 11:52 28.12.2022
498 Clouds 7 1011 75 10000 7.2 220 10:39 28.12.2022
499 Rain 6 1012 76 10000 6.17 210 08:42 28.12.2022
500 Clouds 6 1013 74 10000 5.66 190 06:50 28.12.2022
501 Clouds 5 1016 73 10000 3.6 200 03:45 28.12.2022
502 Clouds 6 1020 74 10000 5.66 210 23:23 27.12.2022
503 Clouds 5 1021 78 10000 2.06 170 19:58 27.12.2022
504 Clouds 4 1022 78 10000 1.79 360 19:27 27.12.2022
505 Clouds 4 1022 74 10000 3.6 240 17:20 27.12.2022
506 Clouds 5 1022 72 10000 4.12 250 16:39 27.12.2022
507 Clouds 6 1023 71 10000 6.17 250 15:25 27.12.2022
508 Rain 6 1022 71 10000 6.17 260 12:29 27.12.2022
509 Clouds 6 1022 72 10000 6.17 250 11:28 27.12.2022
510 Clouds 5 1021 80 10000 7.2 260 09:46 27.12.2022
511 Clouds 5 1021 74 10000 7.2 250 09:23 27.12.2022
512 Clouds 4 1019 76 10000 6.69 240 06:49 27.12.2022
513 Clouds 3 1019 75 10000 5.66 240 04:30 27.12.2022
514 Clouds 4 1016 78 10000 3.6 260 22:21 26.12.2022
515 Clouds 4 1015 78 10000 4.63 270 20:55 26.12.2022
516 Clouds 4 1015 78 10000 4.63 270 20:34 26.12.2022
517 Clouds 6 1014 78 10000 6.17 280 18:44 26.12.2022
518 Clouds 7 1013 87 10000 6.17 280 17:44 26.12.2022
519 Rain 9 1011 79 6000 7.72 270 16:20 26.12.2022
520 Clouds 11 1010 77 10000 5.14 250 13:46 26.12.2022
521 Clouds 11 1010 84 10000 3.6 220 12:45 26.12.2022
522 Clouds 10 1009 90 10000 3.09 240 07:29 26.12.2022
523 Clouds 11 1008 86 10000 5.14 220 23:56 25.12.2022
524 Clouds 11 1008 86 10000 5.14 220 23:35 25.12.2022
525 Clouds 11 1008 87 10000 4.12 220 22:27 25.12.2022
526 Clouds 10 1008 89 10000 4.12 220 21:37 25.12.2022
527 Rain 8 1009 91 10000 2.06 110 18:50 25.12.2022
528 Rain 8 1010 91 10000 2.57 110 17:52 25.12.2022
529 Rain 8 1010 91 10000 2.57 110 17:34 25.12.2022
530 Rain 8 1012 90 10000 2.24 360 15:21 25.12.2022
531 Clouds 7 1014 89 10000 2.06 100 12:26 25.12.2022
532 Clouds 5 1015 89 10000 2.06 130 08:44 25.12.2022
533 Clouds 5 1016 90 10000 0 0 23:40 24.12.2022
534 Clouds 6 1015 89 10000 2.06 240 21:41 24.12.2022
535 Clouds 7 1014 89 10000 3.09 250 18:32 24.12.2022
536 Clouds 8 1013 90 10000 4.12 260 16:45 24.12.2022
537 Clouds 9 1011 87 10000 4.12 250 14:53 24.12.2022
538 Clouds 10 1010 85 10000 5.66 250 12:43 24.12.2022
539 Clouds 9 1009 85 10000 5.14 250 11:26 24.12.2022
540 Rain 9 1009 85 10000 5.14 260 10:21 24.12.2022
541 Clouds 9 1008 85 10000 6.17 260 09:36 24.12.2022
542 Clouds 9 1005 90 10000 7.72 250 06:21 24.12.2022
543 Rain 6 1003 92 10000 2.06 90 02:50 24.12.2022
544 Clouds 7 1001 92 4200 2.06 60 23:37 23.12.2022
545 Clouds 7 1000 91 5000 2.57 60 22:27 23.12.2022
546 Rain 7 1000 91 9000 3.6 90 20:41 23.12.2022
547 Rain 7 1000 91 6000 4.63 100 19:39 23.12.2022
548 Rain 7 1001 91 7000 3.6 90 19:21 23.12.2022
549 Rain 7 1001 91 8000 4.63 90 18:46 23.12.2022
550 Rain 7 1001 91 6000 2.57 100 18:20 23.12.2022
551 Rain 7 1003 94 6000 2.06 80 16:35 23.12.2022
552 Clouds 8 1003 94 10000 1.54 120 15:37 23.12.2022
553 Drizzle 8 1005 94 7000 2.57 290 11:58 23.12.2022
554 Mist 7 1004 90 3900 2.06 260 09:37 23.12.2022
555 Clouds 7 1004 91 10000 3.6 310 08:45 23.12.2022
556 Clouds 8 1003 90 10000 3.6 290 07:19 23.12.2022
557 Rain 8 1002 96 7000 2.06 270 06:48 23.12.2022
558 Rain 6 1003 93 10000 2.06 160 23:23 22.12.2022
559 Rain 6 1003 89 10000 2.06 170 22:57 22.12.2022
560 Clouds 6 1004 87 10000 2.06 210 21:26 22.12.2022
561 Clear 6 1005 88 10000 2.06 210 19:43 22.12.2022
562 Clear 6 1005 88 10000 3.09 240 19:18 22.12.2022
563 Clouds 6 1005 90 10000 3.09 260 17:31 22.12.2022
564 Clouds 7 1005 88 10000 3.09 260 16:39 22.12.2022
565 Clouds 8 1004 89 10000 4.63 290 15:35 22.12.2022
566 Drizzle 9 1004 89 10000 4.12 280 14:53 22.12.2022
567 Clouds 9 1003 92 10000 4.12 280 13:54 22.12.2022
568 Clouds 9 1002 90 9000 3.09 280 13:19 22.12.2022
569 Drizzle 8 1001 89 3700 1.03 0 11:34 22.12.2022
570 Rain 8 1001 88 10000 0.51 0 10:31 22.12.2022
571 Rain 8 1001 88 10000 2.06 160 09:22 22.12.2022
572 Clouds 8 1001 88 10000 2.06 150 08:35 22.12.2022
573 Clouds 8 1002 89 10000 2.06 160 07:24 22.12.2022
574 Clouds 8 1004 87 10000 2.06 180 04:18 22.12.2022
575 Rain 7 1006 85 10000 3.09 180 00:25 22.12.2022
576 Clouds 6 1008 85 10000 1.54 180 22:26 21.12.2022
577 Clouds 6 1008 85 10000 1.54 180 21:35 21.12.2022
578 Clouds 6 1008 85 10000 0.89 360 20:57 21.12.2022
579 Clear 6 1008 86 10000 2.57 220 20:31 21.12.2022
580 Clear 7 1009 85 10000 3.6 220 19:46 21.12.2022
581 Clouds 7 1009 86 10000 4.12 230 19:27 21.12.2022
582 Clouds 7 1009 85 10000 4.12 240 18:51 21.12.2022
583 Clouds 7 1009 85 10000 4.12 240 18:33 21.12.2022
584 Clouds 9 1009 86 10000 3.09 260 15:50 21.12.2022
585 Drizzle 9 1008 87 9000 2.06 200 13:52 21.12.2022
586 Clouds 9 1009 86 10000 3.09 220 11:48 21.12.2022
587 Clouds 9 1009 86 10000 1.54 210 11:20 21.12.2022
588 Clouds 8 1009 88 10000 2.57 200 10:26 21.12.2022
589 Clouds 8 1010 87 9000 2.57 220 08:48 21.12.2022
590 Clouds 8 1009 86 10000 3.09 240 06:30 21.12.2022
591 Clouds 9 1009 76 10000 4.63 220 00:25 21.12.2022
592 Clouds 9 1010 72 10000 2.57 200 21:47 20.12.2022
593 Clouds 9 1010 75 10000 4.12 210 20:51 20.12.2022
594 Clouds 9 1011 74 10000 4.63 210 19:54 20.12.2022
595 Clouds 10 1011 74 10000 4.63 230 18:47 20.12.2022
596 Clouds 11 1011 67 10000 4.12 210 18:22 20.12.2022
597 Clouds 11 1011 67 10000 4.63 220 17:48 20.12.2022
598 Clouds 11 1011 68 10000 4.63 210 17:24 20.12.2022
599 Clear 11 1011 66 10000 5.14 200 15:55 20.12.2022
600 Clear 11 1011 67 10000 4.12 200 14:55 20.12.2022
601 Clear 11 1012 67 10000 4.12 200 14:35 20.12.2022
602 Clear 11 1012 68 10000 6.69 210 13:26 20.12.2022
603 Clear 11 1013 69 10000 5.14 210 12:34 20.12.2022
604 Clear 10 1013 71 10000 6.17 210 11:54 20.12.2022
605 Clouds 9 1014 76 10000 3.6 220 09:57 20.12.2022
606 Rain 9 1014 73 10000 5.14 210 06:58 20.12.2022
607 Clouds 7 1016 72 10000 5.66 210 00:20 20.12.2022
608 Clouds 7 1016 72 10000 5.14 210 22:22 19.12.2022
609 Rain 7 1016 79 10000 6.17 210 21:22 19.12.2022
610 Clear 6 1016 76 10000 5.66 210 19:41 19.12.2022
611 Clear 6 1016 77 10000 4.02 360 18:44 19.12.2022
612 Clouds 6 1016 80 10000 4.63 210 17:38 19.12.2022
613 Clouds 6 1017 83 10000 5.14 220 15:52 19.12.2022
614 Clouds 4 1017 87 6000 4.63 200 12:47 19.12.2022
615 Rain 4 1018 85 10000 4.63 200 11:36 19.12.2022
616 Rain 1 1019 79 10000 1.79 360 07:50 19.12.2022
617 Snow 0 1020 81 10000 1.34 360 06:42 19.12.2022
618 Clouds -2 1023 72 10000 3.6 110 00:50 19.12.2022
619 Clouds -3 1025 73 10000 3.58 360 21:49 18.12.2022
620 Clouds -3 1025 73 10000 4.02 360 21:27 18.12.2022
621 Clouds -3 1025 72 10000 2.68 360 20:54 18.12.2022
622 Clouds -3 1026 73 10000 4.47 360 19:44 18.12.2022
623 Clouds -4 1027 77 10000 3.58 360 18:59 18.12.2022
624 Clear -4 1027 73 10000 3.58 360 17:52 18.12.2022
625 Clear -3 1029 73 10000 2.68 360 15:43 18.12.2022
626 Clear -3 1029 74 10000 2.68 360 15:24 18.12.2022
627 Clear -2 1029 72 10000 2.24 360 14:58 18.12.2022
628 Clear -2 1029 73 10000 2.06 90 13:29 18.12.2022
629 Clear -3 1030 74 10000 2.57 90 12:50 18.12.2022
630 Clear -4 1031 80 10000 2.06 110 11:51 18.12.2022
631 Clear -7 1032 81 10000 0.51 0 09:47 18.12.2022
632 Clear -9 1031 78 10000 2.06 90 08:46 18.12.2022
633 Clouds -8 1030 81 10000 2.06 100 06:51 18.12.2022
634 Clouds -8 1030 78 10000 1.03 130 06:18 18.12.2022
635 Clouds -7 1030 70 10000 1.54 90 01:53 18.12.2022
636 Clear -6 1030 73 10000 1.54 90 23:32 17.12.2022
637 Clear -5 1029 79 10000 1.79 360 21:18 17.12.2022
638 Clear -3 1027 80 10000 1.34 360 17:55 17.12.2022
639 Clear 0 1027 80 10000 1.03 110 15:48 17.12.2022
640 Clear 0 1026 74 10000 1.03 230 13:20 17.12.2022
641 Clear -1 1026 85 10000 0 0 11:23 17.12.2022
642 Clouds -2 1025 84 9000 0.51 0 10:44 17.12.2022
643 Mist -3 1025 89 5000 1.03 0 09:40 17.12.2022
644 Clouds -3 1023 85 6000 0.51 100 07:24 17.12.2022
645 Clouds -3 1023 85 6000 0 0 06:45 17.12.2022
646 Clouds -3 1023 85 6000 0 0 06:45 17.12.2022
647 Clouds -3 1020 84 5000 1.03 290 23:32 16.12.2022
648 Clouds -3 1019 83 6000 1.03 330 20:34 16.12.2022
649 Clouds -2 1017 82 6000 0 0 18:42 16.12.2022
650 Clouds -1 1016 81 10000 1.03 0 15:37 16.12.2022
651 Clouds -1 1015 81 10000 1.54 340 14:47 16.12.2022
652 Clouds -2 1015 81 10000 1.03 330 13:40 16.12.2022
653 Clouds -3 1014 78 10000 0.51 0 11:57 16.12.2022
654 Clouds -6 1013 82 10000 0.51 0 09:53 16.12.2022
655 Clouds -7 1013 87 10000 0 0 09:24 16.12.2022
656 Clouds -8 1011 73 10000 0 0 07:55 16.12.2022
657 Clouds -8 1011 72 10000 0 0 07:25 16.12.2022
658 Clear -6 1009 76 10000 1.54 100 23:24 15.12.2022
659 Clear -5 1009 78 10000 0 0 22:20 15.12.2022
660 Clear -4 1009 76 10000 1.03 0 20:33 15.12.2022
661 Clear -4 1009 79 10000 1.03 0 19:36 15.12.2022
662 Clear -3 1008 77 10000 1.03 0 17:59 15.12.2022
663 Clear -3 1008 78 10000 0.51 190 17:20 15.12.2022
664 Clear 0 1008 77 10000 2.57 230 15:35 15.12.2022
665 Clear 1 1007 71 10000 2.57 230 13:30 15.12.2022
666 Clear -1 1008 73 10000 3.09 230 12:25 15.12.2022
667 Clear -5 1007 75 10000 1.03 0 09:36 15.12.2022
668 Clear -6 1007 86 10000 1.54 240 08:53 15.12.2022
669 Clouds -6 1005 77 10000 2.06 250 06:19 15.12.2022
670 Clouds -7 1005 74 10000 1.54 240 04:40 15.12.2022
671 Clear -7 1003 84 10000 0.51 0 21:25 14.12.2022
672 Clear -7 1003 83 10000 0.51 0 20:59 14.12.2022
673 Clear -7 1003 83 9000 2.06 90 20:29 14.12.2022
674 Clear -6 1002 74 10000 0.89 360 18:26 14.12.2022
675 Clear -5 1002 76 10000 1.03 110 16:57 14.12.2022
676 Clear -3 1001 73 10000 2.06 100 15:40 14.12.2022
677 Clear -2 1002 73 10000 2.57 100 13:53 14.12.2022
678 Clear -3 1002 79 10000 1.34 164 12:21 14.12.2022
679 Clear -5 1003 71 10000 1.54 110 10:36 14.12.2022
680 Clear -7 1003 79 10000 3.13 360 08:54 14.12.2022
681 Clouds -7 1008 82 10000 1.03 90 00:51 14.12.2022
682 Clouds -6 1010 82 8000 1.03 90 21:49 13.12.2022
683 Clear -6 1010 69 10000 1.03 90 21:19 13.12.2022
684 Clouds -6 1009 77 9000 1.54 80 20:46 13.12.2022
685 Clear -4 1010 78 10000 1.34 172 18:40 13.12.2022
686 Clear -3 1011 76 10000 1.54 130 16:22 13.12.2022
687 Clear -1 1011 71 10000 1.03 0 14:53 13.12.2022
688 Clear -2 1011 75 10000 1.54 200 12:43 13.12.2022
689 Clear -5 1012 71 10000 1.03 0 10:39 13.12.2022
690 Clouds -6 1012 75 10000 1.03 0 09:45 13.12.2022
691 Clouds -7 1012 72 10000 1.54 100 07:52 13.12.2022
692 Clear -5 1013 71 8000 0 0 22:23 12.12.2022
693 Clear -5 1013 71 7000 0.51 0 21:39 12.12.2022
694 Mist -5 1013 77 5000 0 0 19:33 12.12.2022
695 Clouds -4 1012 83 5000 0.51 110 17:39 12.12.2022
696 Clouds -1 1012 78 10000 1.03 0 15:23 12.12.2022
697 Clouds -2 1012 79 9000 1.54 250 12:50 12.12.2022
698 Clouds -4 1012 86 6000 2.57 290 09:20 12.12.2022
699 Clouds -5 1011 86 6000 2.06 270 07:37 12.12.2022
700 Clouds -6 1010 87 9000 1.54 280 03:53 12.12.2022
701 Clouds -5 1010 84 7000 1.54 290 23:51 11.12.2022
702 Clouds -4 1010 81 10000 1.03 350 21:43 11.12.2022
703 Clouds -3 1010 79 10000 0 0 20:29 11.12.2022
704 Clouds -3 1010 79 10000 0.51 0 19:37 11.12.2022
705 Clouds -3 1010 77 10000 0.45 234 18:29 11.12.2022
706 Clear -3 1010 76 10000 1.03 0 17:33 11.12.2022
707 Clear -3 1010 74 10000 1.03 0 16:52 11.12.2022
708 Clear -2 1009 78 10000 2.06 270 15:56 11.12.2022
709 Clear -1 1009 77 10000 2.06 270 15:35 11.12.2022
710 Clouds -1 1009 73 10000 1.54 100 13:33 11.12.2022
711 Clear -1 1009 73 10000 1.54 110 12:40 11.12.2022
712 Clouds -2 1010 77 10000 1.54 240 10:19 11.12.2022
713 Clouds -2 1011 82 10000 1.03 0 00:49 11.12.2022
714 Clouds -2 1011 83 10000 1.03 0 00:21 11.12.2022
715 Clouds -2 1011 84 10000 1.03 0 22:34 10.12.2022
716 Clouds -2 1011 86 10000 1.03 0 21:29 10.12.2022
717 Clouds -2 1011 86 10000 0.51 0 20:41 10.12.2022
718 Clouds -2 1011 86 10000 1.03 0 20:18 10.12.2022
719 Clouds -2 1011 87 10000 1.54 50 17:44 10.12.2022
720 Clouds -1 1011 87 10000 1.03 0 16:37 10.12.2022
721 Clouds -1 1010 88 10000 1.54 340 15:41 10.12.2022
722 Clouds -1 1010 86 10000 1.03 0 15:20 10.12.2022
723 Clouds -1 1010 90 10000 1.54 350 13:38 10.12.2022
724 Clouds -1 1009 88 10000 1.03 0 12:21 10.12.2022
725 Clouds -1 1010 88 9000 2.24 82 10:52 10.12.2022
726 Clouds -1 1009 88 10000 1.03 0 09:43 10.12.2022
727 Clouds -1 1008 89 7000 1.03 0 07:22 10.12.2022
728 Clouds -1 1008 90 10000 1.54 20 06:51 10.12.2022
729 Clouds -1 1007 91 7000 3.09 80 23:38 09.12.2022
730 Clouds 0 1007 89 6000 2.57 70 22:42 09.12.2022
731 Clouds 0 1006 90 6000 2.57 90 21:29 09.12.2022
732 Mist 0 1006 90 5000 2.57 80 20:58 09.12.2022
733 Clouds 0 1006 92 9000 2.06 90 19:46 09.12.2022
734 Clouds 1 1006 91 10000 1.54 70 17:56 09.12.2022
735 Clouds 1 1006 90 10000 2.06 90 17:18 09.12.2022
736 Clouds 1 1006 90 10000 2.06 90 16:18 09.12.2022
737 Clouds 1 1006 94 10000 2.06 90 15:29 09.12.2022
738 Mist 1 1006 91 2100 2.06 180 12:41 09.12.2022
739 Clouds 0 1006 89 7000 1.54 110 10:50 09.12.2022
740 Clouds 0 1006 91 8000 1.03 0 10:22 09.12.2022
741 Clouds -1 1006 90 6000 1.54 90 05:38 09.12.2022
742 Clouds -1 1007 89 2100 1.54 90 03:18 09.12.2022
743 Clouds -1 1006 89 5000 0 0 22:51 08.12.2022
744 Mist 0 1006 92 4300 0 0 20:55 08.12.2022
745 Clouds 1 1006 88 10000 0 0 18:57 08.12.2022
746 Clouds 2 1005 88 10000 2.57 260 16:38 08.12.2022
747 Clouds 3 1005 90 10000 4.63 260 14:30 08.12.2022
748 Drizzle 3 1005 91 8000 4.12 270 12:28 08.12.2022
749 Drizzle 3 1005 88 10000 3.13 268 10:37 08.12.2022
750 Drizzle 3 1005 86 10000 5.14 240 09:31 08.12.2022
751 Drizzle 2 1005 87 10000 3.6 230 07:18 08.12.2022
752 Clouds 2 1009 90 10000 1.03 0 22:44 07.12.2022
753 Clouds 2 1009 89 10000 1.54 290 22:18 07.12.2022
754 Clouds 2 1009 90 10000 2.06 230 21:46 07.12.2022
755 Rain 2 1010 89 9000 3.6 260 20:24 07.12.2022
756 Rain 2 1010 87 10000 3.6 280 18:23 07.12.2022
757 Clouds 4 1010 89 10000 4.12 260 15:43 07.12.2022
758 Clouds 4 1011 90 10000 5.66 280 13:28 07.12.2022
759 Clouds 3 1011 93 10000 5.14 280 10:50 07.12.2022
760 Clouds 3 1012 93 10000 4.63 280 09:58 07.12.2022
761 Clouds 3 1012 94 10000 5.66 290 09:30 07.12.2022
762 Rain 3 1011 93 10000 4.63 280 07:22 07.12.2022
763 Clouds 4 1011 96 10000 5.14 270 05:25 07.12.2022
764 Clouds 2 1013 92 10000 3.6 240 00:56 07.12.2022
765 Clouds 2 1014 95 10000 2.06 280 21:50 06.12.2022
766 Clouds 3 1015 94 10000 3.09 290 19:33 06.12.2022
767 Clouds 3 1015 94 10000 3.6 280 17:19 06.12.2022
768 Clouds 3 1015 98 10000 3.6 280 16:29 06.12.2022
769 Clouds 3 1015 98 10000 3.6 290 15:37 06.12.2022
770 Drizzle 3 1015 95 9000 4.12 290 14:39 06.12.2022
771 Drizzle 3 1015 95 10000 4.63 300 14:19 06.12.2022
772 Drizzle 3 1015 91 1900 3.6 300 12:41 06.12.2022
773 Mist 3 1015 91 1700 2.57 270 11:58 06.12.2022
774 Clouds 1 1015 94 8000 3.6 270 07:50 06.12.2022
775 Clouds 1 1016 95 9000 3.09 250 03:25 06.12.2022
776 Clouds 2 1017 91 2200 2.57 260 23:45 05.12.2022
777 Clouds 1 1018 92 10000 2.06 260 21:56 05.12.2022
778 Clouds 1 1018 90 10000 2.06 260 20:54 05.12.2022
779 Clouds 1 1018 90 10000 1.54 280 20:23 05.12.2022
780 Clouds 1 1018 90 10000 1.54 260 19:37 05.12.2022
781 Clouds 1 1017 90 10000 0 0 16:55 05.12.2022
782 Clouds 1 1017 91 10000 0 0 15:31 05.12.2022
783 Snow 1 1017 91 10000 0 0 14:56 05.12.2022
784 Snow 1 1017 92 6000 0 0 12:58 05.12.2022
785 Snow 1 1017 92 6000 0 0 12:38 05.12.2022
786 Snow 1 1017 90 7000 0 0 11:45 05.12.2022
787 Snow 1 1017 91 2200 1.03 0 09:32 05.12.2022
788 Clouds 1 1017 94 5000 3.09 60 00:19 05.12.2022
789 Clouds 1 1017 93 4500 2.57 70 22:44 04.12.2022
790 Clouds 1 1017 90 4400 2.57 70 22:20 04.12.2022
791 Clouds 1 1018 92 4700 2.57 80 21:39 04.12.2022
792 Clouds 1 1017 90 5000 2.57 70 20:26 04.12.2022
793 Clouds 1 1018 90 4100 3.09 70 19:25 04.12.2022
794 Clouds 1 1018 89 3800 2.57 70 18:40 04.12.2022
795 Mist 1 1018 91 4200 3.09 80 17:23 04.12.2022
796 Mist 0 1017 98 4100 2.57 80 16:37 04.12.2022
797 Mist 0 1017 98 3500 2.06 80 16:19 04.12.2022
798 Mist 1 1017 93 3100 2.24 360 15:54 04.12.2022
799 Mist 1 1018 90 2600 3.09 80 14:43 04.12.2022
800 Mist 0 1018 92 3000 2.57 80 13:26 04.12.2022
801 Mist 0 1018 91 3000 3.09 70 12:42 04.12.2022
802 Mist 0 1019 92 2600 3.09 80 11:51 04.12.2022
803 Mist 0 1019 88 4000 3.09 80 09:20 04.12.2022
804 Clouds 0 1019 91 5000 3.13 360 07:27 04.12.2022
805 Clouds -1 1020 95 4100 2.57 80 00:45 04.12.2022
806 Clouds -1 1020 90 4400 2.57 80 23:33 03.12.2022
807 Clouds -1 1020 95 4600 3.6 80 22:19 03.12.2022
808 Clouds -1 1020 94 5000 3.09 80 21:21 03.12.2022
809 Clouds -1 1020 94 6000 2.57 80 20:22 03.12.2022
810 Clouds -1 1021 88 7000 3.09 80 18:39 03.12.2022
811 Clouds -1 1021 91 7000 2.24 360 15:54 03.12.2022
812 Clouds -1 1021 87 7000 3.09 80 14:27 03.12.2022
813 Clouds -1 1022 88 6000 3.09 80 12:54 03.12.2022
814 Mist -1 1022 88 4200 3.09 80 12:23 03.12.2022
815 Mist -1 1023 90 4700 2.57 80 10:21 03.12.2022
816 Clouds -1 1023 89 6000 4.12 80 07:39 03.12.2022
817 Clouds 0 1024 92 4700 3.6 80 01:30 03.12.2022
818 Clouds 0 1024 91 7000 3.6 80 22:50 02.12.2022
819 Clouds 0 1024 93 6000 4.12 80 20:54 02.12.2022
820 Clouds 0 1024 93 6000 4.12 80 20:54 02.12.2022
821 Clouds 0 1024 93 5000 2.57 60 19:26 02.12.2022
822 Clouds 1 1024 92 5000 2.68 360 15:59 02.12.2022
823 Snow 1 1024 91 7000 3.6 70 14:44 02.12.2022
824 Snow 1 1024 94 9000 3.09 70 14:26 02.12.2022
825 Clouds 1 1024 91 4000 2.57 70 13:26 02.12.2022
826 Clouds 1 1024 91 7000 3.6 80 11:43 02.12.2022
827 Mist 0 1025 92 4800 2.57 80 09:45 02.12.2022
828 Snow 0 1024 92 3900 2.06 70 07:25 02.12.2022
829 Clouds 1 1026 90 3400 2.06 70 23:54 01.12.2022
830 Mist 1 1027 91 4300 2.06 70 21:59 01.12.2022
831 Mist 1 1027 91 4300 2.06 70 21:38 01.12.2022
832 Mist 1 1027 91 4300 2.57 80 20:30 01.12.2022
833 Clouds 2 1027 97 5000 3.09 80 18:55 01.12.2022
834 Mist 2 1027 92 3600 2.06 60 16:22 01.12.2022
835 Clouds 2 1027 88 5000 2.06 80 13:22 01.12.2022
836 Mist 2 1028 91 3100 2.57 90 10:42 01.12.2022
837 Mist 2 1027 89 3400 3.6 90 09:54 01.12.2022
838 Mist 1 1027 92 3400 3.6 90 09:36 01.12.2022
839 Clouds 2 1026 93 5000 3.09 90 05:34 01.12.2022
840 Clouds 4 1025 90 6000 2.57 80 22:40 30.11.2022
841 Clouds 4 1025 88 6000 2.06 60 21:20 30.11.2022
842 Clouds 4 1025 88 6000 1.54 70 20:48 30.11.2022
843 Clouds 4 1025 90 5000 2.06 80 20:23 30.11.2022
844 Clouds 5 1024 90 5000 2.57 80 18:35 30.11.2022
845 Clouds 5 1024 90 5000 2.57 80 17:39 30.11.2022
846 Mist 5 1023 89 3400 2.06 70 16:20 30.11.2022
847 Mist 5 1023 89 2600 2.57 80 14:41 30.11.2022
848 Mist 5 1023 89 1600 2.57 80 14:23 30.11.2022
849 Mist 5 1022 89 1000 2.06 70 11:38 30.11.2022
850 Mist 5 1022 93 1000 2.06 80 08:41 30.11.2022
851 Mist 5 1022 93 3600 1.54 70 07:59 30.11.2022
852 Clouds 5 1021 89 2300 1.54 70 04:56 30.11.2022
853 Clouds 5 1020 86 3500 2.06 80 23:22 29.11.2022
854 Clouds 5 1020 91 5000 2.06 90 21:48 29.11.2022
855 Mist 5 1020 90 4800 2.06 80 20:50 29.11.2022
856 Mist 5 1020 84 1700 1.54 70 19:46 29.11.2022
857 Clouds 5 1019 84 5000 2.57 80 17:52 29.11.2022
858 Clouds 5 1019 83 6000 2.57 80 16:31 29.11.2022
859 Clouds 6 1018 82 8000 2.06 100 15:21 29.11.2022
860 Clouds 6 1018 87 8000 1.54 70 13:50 29.11.2022
861 Clouds 6 1017 81 7000 2.06 90 12:36 29.11.2022
862 Clouds 5 1017 82 10000 1.54 90 11:31 29.11.2022
863 Clouds 5 1017 82 10000 2.06 90 10:26 29.11.2022
864 Clouds 5 1016 82 10000 1.54 80 09:26 29.11.2022
865 Clouds 5 1015 82 10000 2.06 90 06:46 29.11.2022
866 Clouds 5 1013 86 10000 1.54 80 00:27 29.11.2022
867 Clouds 5 1013 80 10000 1.54 100 23:23 28.11.2022
868 Clouds 5 1013 87 10000 2.06 80 21:56 28.11.2022
869 Clouds 5 1013 86 10000 2.06 80 21:38 28.11.2022
870 Clear 4 1012 80 10000 1.03 110 20:24 28.11.2022
871 Clear 4 1012 78 10000 2.57 90 19:25 28.11.2022
872 Clear 5 1012 77 10000 1.54 60 18:28 28.11.2022
873 Clear 5 1012 75 10000 1.54 90 17:23 28.11.2022
874 Clear 6 1012 72 10000 2.57 100 14:57 28.11.2022
875 Clear 6 1011 73 10000 2.68 360 13:55 28.11.2022
876 Clear 6 1012 72 10000 2.57 100 13:18 28.11.2022
877 Clear 5 1012 74 10000 3.6 110 11:32 28.11.2022
878 Clear 5 1012 76 10000 3.09 100 08:20 28.11.2022
879 Clouds 5 1013 80 10000 4.12 90 04:57 28.11.2022
880 Clouds 5 1014 81 10000 4.47 360 04:38 28.11.2022
881 Rain 5 1014 75 10000 2.68 360 03:21 28.11.2022
882 Clouds 5 1015 77 10000 2.68 360 00:29 28.11.2022
883 Clouds 6 1016 77 10000 3.13 360 22:24 27.11.2022
884 Clouds 6 1017 79 10000 3.6 110 20:49 27.11.2022
885 Clouds 5 1019 80 10000 3.13 360 18:39 27.11.2022
886 Clear 6 1020 78 10000 2.24 360 16:25 27.11.2022
887 Clear 7 1022 80 10000 2.24 360 13:55 27.11.2022
888 Clear 6 1023 82 10000 2.57 100 12:25 27.11.2022
889 Clear 4 1025 79 10000 0 0 10:23 27.11.2022
890 Clouds 2 1026 83 10000 1.54 100 07:30 27.11.2022
891 Clouds 2 1026 83 10000 1.54 100 07:30 27.11.2022
892 Clouds 5 1028 85 10000 1.54 180 23:37 26.11.2022
893 Clouds 5 1028 92 10000 2.06 170 21:43 26.11.2022
894 Clouds 5 1029 86 10000 1.54 150 19:57 26.11.2022
895 Clouds 5 1029 87 10000 0.45 360 18:42 26.11.2022
896 Clouds 7 1029 84 10000 2.06 230 16:40 26.11.2022
897 Clouds 9 1029 81 10000 2.06 250 15:37 26.11.2022
898 Clouds 9 1028 82 10000 4.12 240 12:54 26.11.2022
899 Clouds 8 1028 87 10000 3.09 260 10:54 26.11.2022
900 Clouds 6 1028 90 9000 1.79 360 09:43 26.11.2022
901 Clouds 5 1027 97 2700 2.06 280 08:39 26.11.2022
902 Clouds 8 1021 90 10000 2.06 250 22:59 25.11.2022
903 Clouds 8 1020 88 8000 2.57 260 21:38 25.11.2022
904 Clouds 7 1019 88 10000 2.06 260 20:33 25.11.2022
905 Clouds 7 1018 88 10000 2.06 220 19:24 25.11.2022
906 Clouds 8 1016 87 10000 2.24 360 15:42 25.11.2022
907 Rain 7 1014 87 10000 1.54 210 12:20 25.11.2022
908 Clouds 5 1014 81 10000 0.45 360 08:56 25.11.2022
909 Clouds 5 1013 82 10000 0.89 0 08:37 25.11.2022
910 Clear 3 1013 84 10000 2.06 100 06:48 25.11.2022
911 Clouds 4 1014 82 1800 1.54 90 01:26 25.11.2022
912 Clouds 5 1014 80 10000 2.06 160 23:41 24.11.2022
913 Clouds 5 1014 84 2500 2.06 90 22:35 24.11.2022
914 Clouds 6 1013 82 10000 2.06 90 21:42 24.11.2022
915 Clouds 7 1013 79 10000 2.57 210 19:48 24.11.2022
916 Clouds 8 1012 77 10000 2.06 260 17:48 24.11.2022
917 Clouds 8 1012 77 10000 3.09 250 17:24 24.11.2022
918 Clouds 9 1012 75 10000 3.6 240 16:40 24.11.2022
919 Clouds 10 1010 74 10000 2.57 230 14:24 24.11.2022
920 Clouds 10 1010 79 10000 3.6 220 13:19 24.11.2022
921 Clouds 9 1009 78 10000 3.6 220 11:38 24.11.2022
922 Clouds 6 1008 82 10000 1.54 90 08:59 24.11.2022
923 Clouds 6 1007 81 10000 2.06 150 06:23 24.11.2022
924 Clouds 6 1004 70 10000 3.09 150 00:41 24.11.2022
925 Clouds 4 1004 78 10000 2.06 120 23:32 23.11.2022
926 Clear 4 1003 76 10000 3.09 110 21:53 23.11.2022
927 Clear 4 1002 82 10000 2.68 360 21:18 23.11.2022
928 Clear 4 1002 80 10000 2.06 110 19:55 23.11.2022
929 Clear 6 1002 77 10000 2.57 110 18:57 23.11.2022
930 Clear 6 1002 77 10000 2.57 110 18:57 23.11.2022
931 Clear 6 1001 74 10000 3.13 360 18:20 23.11.2022
932 Clear 9 1000 66 10000 3.6 160 15:55 23.11.2022
933 Clouds 10 1001 70 10000 3.6 180 13:25 23.11.2022
934 Clear 9 1001 75 10000 3.09 180 12:48 23.11.2022
935 Clear 9 1001 74 10000 4.12 170 11:53 23.11.2022
936 Clear 8 1001 77 10000 3.6 150 10:59 23.11.2022
937 Clear 7 1001 78 10000 3.6 150 10:40 23.11.2022
938 Clear 6 1001 86 10000 3.09 130 09:41 23.11.2022
939 Clear 5 1001 82 10000 2.57 130 09:22 23.11.2022
940 Clear 5 1000 83 10000 2.57 140 08:36 23.11.2022
941 Clouds 3 1000 85 10000 3.09 130 05:21 23.11.2022
942 Clouds 4 999 86 10000 3.09 120 01:57 23.11.2022
943 Clouds 3 999 84 10000 2.57 100 22:38 22.11.2022
944 Clouds 3 999 81 10000 2.57 90 21:52 22.11.2022
945 Clouds 3 999 79 10000 2.57 90 21:32 22.11.2022
946 Clouds 2 999 82 9000 3.13 360 20:45 22.11.2022
947 Clear 2 999 88 10000 3.09 90 19:52 22.11.2022
948 Clouds 3 998 83 10000 2.57 100 17:55 22.11.2022
949 Clear 3 998 82 10000 3.09 100 16:48 22.11.2022
950 Clear 4 997 81 10000 2.57 100 14:56 22.11.2022
951 Clouds 4 997 84 10000 2.57 90 13:24 22.11.2022
952 Clouds 2 998 88 10000 3.09 120 10:25 22.11.2022
953 Clouds 2 997 89 7000 3.6 110 09:00 22.11.2022
954 Clouds 1 996 88 6000 3.6 100 07:18 22.11.2022
955 Clouds 0 997 86 5000 4.63 110 01:38 22.11.2022
956 Clouds 0 998 86 3900 4.12 100 23:36 21.11.2022
957 Clouds -1 999 83 10000 4.02 360 22:31 21.11.2022
958 Clouds -1 999 84 10000 3.58 360 21:58 21.11.2022
959 Clear -1 999 83 10000 3.09 100 20:36 21.11.2022
960 Clouds -1 999 83 10000 3.6 80 19:41 21.11.2022
961 Clear -1 1000 82 10000 3.09 90 18:54 21.11.2022
962 Clear -1 1001 89 10000 2.06 100 17:46 21.11.2022
963 Clear -1 1001 85 10000 2.57 130 16:53 21.11.2022
964 Clear 0 1002 84 10000 2.57 130 16:34 21.11.2022
965 Clear 1 1002 79 10000 2.57 130 15:24 21.11.2022
966 Clouds 2 1003 74 10000 2.57 160 13:59 21.11.2022
967 Clouds 2 1003 74 10000 2.57 160 13:40 21.11.2022
968 Fog -1 1005 83 800 2.06 240 10:27 21.11.2022
969 Clouds -3 1005 84 250 0 0 08:39 21.11.2022
970 Clouds -2 1004 85 8000 1.03 340 06:39 21.11.2022
971 Clouds -1 1005 78 10000 1.54 80 22:26 20.11.2022
972 Snow -1 1005 80 10000 1.54 100 21:34 20.11.2022
973 Clouds -1 1006 75 10000 0.45 231 20:24 20.11.2022
974 Clouds -1 1007 82 10000 1.03 340 18:25 20.11.2022
975 Clouds 0 1008 70 10000 3.6 260 16:23 20.11.2022
976 Clouds 1 1008 66 10000 4.12 280 15:29 20.11.2022
977 Clouds 1 1008 66 10000 3.09 270 14:41 20.11.2022
978 Clouds 1 1009 67 10000 4.12 250 13:32 20.11.2022
979 Clouds 1 1009 69 10000 4.12 250 12:33 20.11.2022
980 Clouds -1 1009 72 10000 3.6 250 11:25 20.11.2022
981 Clouds -1 1010 72 10000 2.57 230 10:40 20.11.2022
982 Clouds -3 1010 80 10000 2.06 230 09:23 20.11.2022
983 Clouds -2 1010 78 10000 2.06 230 08:35 20.11.2022
984 Clouds -3 1010 80 10000 2.06 220 07:30 20.11.2022
985 Clouds -3 1011 91 10000 1.54 270 04:26 20.11.2022
986 Clouds -3 1012 82 10000 2.06 250 01:21 20.11.2022
987 Clouds -4 1012 82 10000 2.06 260 00:42 20.11.2022
988 Clouds -4 1012 82 10000 2.06 260 00:42 20.11.2022
989 Clouds -4 1012 92 10000 2.06 260 00:23 20.11.2022
990 Clouds -4 1012 83 10000 0.51 0 23:51 19.11.2022
991 Clouds -3 1012 82 10000 1.03 0 23:25 19.11.2022
992 Clouds -3 1013 81 10000 1.54 260 22:40 19.11.2022
993 Clouds -3 1013 81 10000 2.06 260 21:32 19.11.2022
994 Clouds -3 1013 88 10000 2.06 280 20:57 19.11.2022
995 Clouds -3 1013 88 10000 2.06 280 20:33 19.11.2022
996 Clouds -2 1013 79 10000 2.06 280 19:25 19.11.2022
997 Clear -2 1013 83 10000 1.54 270 17:41 19.11.2022
998 Clear -1 1013 81 10000 2.06 270 17:21 19.11.2022
999 Clear 0 1013 77 10000 2.06 270 16:28 19.11.2022
1000 Clear 2 1013 62 10000 2.06 260 14:40 19.11.2022
1001 Clear 1 1014 68 10000 1.54 330 12:31 19.11.2022
1002 Clear -1 1014 82 10000 1.03 0 10:57 19.11.2022
1003 Clear -3 1015 91 10000 0 0 09:31 19.11.2022
1004 Clouds -6 1014 84 10000 1.03 80 07:52 19.11.2022
1005 Clear -4 1013 83 10000 2.06 80 04:43 19.11.2022
1006 Clouds -3 1012 88 10000 3.09 90 00:24 19.11.2022
1007 Clouds -2 1012 84 10000 3.6 80 23:26 18.11.2022
1008 Clouds -2 1011 85 10000 3.09 80 22:18 18.11.2022
1009 Clouds -2 1011 85 10000 3.09 80 22:18 18.11.2022
1010 Clouds -1 1011 85 10000 2.57 80 21:34 18.11.2022
1011 Clouds -1 1011 86 10000 3.6 90 20:55 18.11.2022
1012 Clouds -1 1010 86 10000 4.63 90 19:47 18.11.2022
1013 Clouds -1 1009 87 10000 5.14 90 19:22 18.11.2022
1014 Clouds 0 1009 89 10000 4.12 90 17:45 18.11.2022
1015 Clouds 1 1006 91 10000 5.14 80 14:44 18.11.2022
1016 Drizzle 1 1005 93 6000 5.14 90 11:48 18.11.2022
1017 Clouds 2 1004 97 8000 4.47 360 09:35 18.11.2022
1018 Clouds 3 1002 92 6000 4.63 90 07:52 18.11.2022
1019 Clouds 3 1001 90 5000 4.63 80 05:27 18.11.2022
1020 Rain 4 999 90 7000 4.63 100 01:57 18.11.2022
1021 Clouds 5 998 90 10000 6.69 100 22:51 17.11.2022
1022 Clouds 5 997 91 10000 6.69 100 20:48 17.11.2022
1023 Rain 5 997 90 8000 5.14 100 19:51 17.11.2022
1024 Rain 5 997 90 10000 5.14 100 19:20 17.11.2022
1025 Rain 5 997 90 10000 5.66 100 18:27 17.11.2022
1026 Rain 5 996 90 10000 6.69 100 17:30 17.11.2022
1027 Rain 5 996 92 10000 6.69 100 15:42 17.11.2022
1028 Rain 5 996 92 10000 7.72 110 12:19 17.11.2022
1029 Rain 4 997 88 10000 8.75 110 10:29 17.11.2022
1030 Clouds 4 998 85 10000 9.26 110 07:20 17.11.2022
1031 Clouds 6 1001 89 10000 6.69 110 00:52 17.11.2022
1032 Clouds 6 1002 90 10000 5.14 110 22:44 16.11.2022
1033 Clouds 6 1002 89 10000 5.66 100 21:54 16.11.2022
1034 Mist 6 1002 91 4400 4.63 90 20:31 16.11.2022
1035 Drizzle 6 1003 94 10000 4.12 100 18:48 16.11.2022
1036 Drizzle 6 1003 97 10000 4.12 110 18:27 16.11.2022
1037 Drizzle 7 1003 91 8000 4.12 110 15:35 16.11.2022
1038 Drizzle 6 1003 87 10000 6.17 100 10:56 16.11.2022
1039 Rain 7 1003 80 10000 5.14 100 06:54 16.11.2022
1040 Clouds 11 1003 72 10000 4.12 80 01:38 16.11.2022
1041 Clouds 11 1005 71 10000 3.09 100 23:31 15.11.2022
1042 Rain 11 1006 71 10000 3.09 90 21:28 15.11.2022
1043 Rain 12 1006 73 10000 3.6 100 19:48 15.11.2022
1044 Clear 12 1007 81 10000 3.6 90 18:51 15.11.2022
1045 Clear 12 1007 80 10000 4.12 100 17:36 15.11.2022
1046 Clear 13 1008 72 10000 2.57 90 16:20 15.11.2022
1047 Clear 13 1008 72 10000 2.57 90 16:20 15.11.2022
1048 Clear 13 1008 71 10000 2.57 80 15:37 15.11.2022
1049 Clouds 14 1009 67 10000 2.57 180 13:57 15.11.2022
1050 Clear 14 1009 69 10000 3.09 130 12:54 15.11.2022
1051 Clear 12 1010 79 10000 2.57 150 11:22 15.11.2022
1052 Clouds 11 1011 76 10000 2.06 130 09:39 15.11.2022
1053 Clouds 7 1011 80 10000 2.24 360 00:44 15.11.2022
1054 Clouds 7 1012 80 10000 1.54 110 00:24 15.11.2022
1055 Clear 8 1012 83 10000 2.68 360 22:33 14.11.2022
1056 Clear 7 1012 82 10000 2.68 360 20:44 14.11.2022
1057 Clear 7 1013 79 10000 1.79 360 19:46 14.11.2022
1058 Clear 8 1013 84 10000 3.58 360 18:27 14.11.2022
1059 Clear 10 1016 69 10000 3.6 110 13:20 14.11.2022
1060 Clouds 8 1016 76 10000 5.66 100 11:49 14.11.2022
1061 Clouds 7 1016 87 9000 5.14 100 11:25 14.11.2022
1062 Mist 5 1017 91 4800 6.69 110 08:34 14.11.2022
1063 Mist 5 1017 91 4800 6.69 110 08:34 14.11.2022
1064 Mist 5 1017 91 4800 6.69 110 08:34 14.11.2022
1065 Mist 5 1017 91 4700 6.17 110 07:52 14.11.2022
1066 Clouds 5 1018 91 5000 4.63 100 04:31 14.11.2022
1067 Clouds 6 1020 92 5000 4.12 90 23:23 13.11.2022
1068 Clouds 5 1022 87 3600 3.6 80 21:42 13.11.2022
1069 Clouds 5 1022 84 4200 1.54 110 20:54 13.11.2022
1070 Clouds 7 1023 88 9000 5.14 90 18:59 13.11.2022
1071 Clouds 7 1023 88 6000 4.63 100 17:50 13.11.2022
1072 Mist 7 1024 93 5000 5.14 100 16:56 13.11.2022
1073 Clouds 10 1024 100 6000 5.66 90 14:54 13.11.2022
1074 Clouds 13 1024 93 10000 4.12 80 13:24 13.11.2022
1075 Clouds 10 1025 79 10000 5.14 90 12:34 13.11.2022
1076 Clouds 10 1025 79 10000 5.14 90 12:34 13.11.2022
1077 Clouds 10 1025 79 10000 5.14 90 12:34 13.11.2022
1078 Clouds 9 1026 83 6000 4.12 100 10:48 13.11.2022
1079 Clouds 6 1027 62 10000 3.3 114 06:31 13.11.2022
1080 Clouds 7 1029 74 10000 0.89 0 00:34 13.11.2022
1081 Clouds 6 1030 72 10000 3.01 121 21:59 12.11.2022
1082 Clear 6 1030 76 10000 0 0 21:23 12.11.2022
1083 Clouds 6 1030 72 10000 1.03 80 19:53 12.11.2022
1084 Clear 8 1030 63 10000 0 0 17:53 12.11.2022
1085 Clear 11 1030 62 10000 0.89 360 16:22 12.11.2022
1086 Clear 13 1031 57 10000 1.54 100 14:59 12.11.2022
1087 Clouds 13 1031 64 10000 1.77 153 11:24 12.11.2022
1088 Clouds 5 1032 84 10000 1.54 90 08:47 12.11.2022
1089 Clouds 8 1032 65 10000 0.51 0 01:59 12.11.2022
1090 Clear 9 1031 77 10000 2.57 230 21:46 11.11.2022
1091 Clear 9 1030 68 10000 2.06 260 20:45 11.11.2022
1092 Clear 10 1030 66 10000 3.09 230 19:39 11.11.2022
1093 Clear 10 1030 64 10000 3.09 230 19:19 11.11.2022
1094 Clear 11 1030 61 10000 3.6 230 17:54 11.11.2022
1095 Clear 14 1030 55 10000 4.63 230 16:20 11.11.2022
1096 Clear 15 1029 53 10000 5.14 230 14:20 11.11.2022
1097 Clear 14 1029 55 10000 4.12 220 13:29 11.11.2022
1098 Clear 10 1029 69 10000 5.66 240 09:48 11.11.2022
1099 Clear 8 1028 74 10000 3.6 230 08:27 11.11.2022
1100 Clouds 9 1027 73 10000 3.6 230 05:44 11.11.2022
1101 Clouds 10 1027 79 10000 3.6 230 23:22 10.11.2022
1102 Clouds 10 1026 73 10000 3.6 220 22:38 10.11.2022
1103 Clouds 10 1026 74 10000 3.6 220 21:34 10.11.2022
1104 Clear 11 1026 73 10000 4.12 220 20:52 10.11.2022
1105 Clear 11 1026 73 10000 3.6 220 20:22 10.11.2022
1106 Clear 11 1026 73 10000 3.6 220 19:44 10.11.2022
1107 Clear 11 1025 71 10000 3.09 220 18:33 10.11.2022
1108 Clear 13 1025 63 10000 5.14 250 16:26 10.11.2022
1109 Clouds 15 1023 60 10000 7.2 240 14:21 10.11.2022
1110 Clouds 14 1023 62 10000 7.72 250 13:18 10.11.2022
1111 Clouds 11 1021 78 10000 2.57 220 09:19 10.11.2022
1112 Clouds 9 1019 88 10000 4.12 250 06:40 10.11.2022
1113 Clouds 12 1015 69 10000 5.14 250 00:56 10.11.2022
1114 Clouds 12 1013 67 10000 4.63 250 22:47 09.11.2022
1115 Clouds 11 1012 71 10000 4.63 240 21:21 09.11.2022
1116 Clouds 11 1011 71 10000 4.12 220 20:40 09.11.2022
1117 Clear 11 1011 70 10000 4.12 220 19:59 09.11.2022
1118 Clear 11 1011 73 10000 3.6 220 19:25 09.11.2022
1119 Clear 12 1010 76 10000 3.6 230 17:45 09.11.2022
1120 Rain 14 1009 75 10000 4.12 270 14:57 09.11.2022
1121 Clouds 15 1008 74 10000 4.12 270 14:28 09.11.2022
1122 Clouds 15 1008 72 10000 3.09 250 13:58 09.11.2022
1123 Clouds 14 1008 73 10000 5.14 260 12:53 09.11.2022
1124 Clear 14 1008 68 10000 5.14 210 09:40 09.11.2022
1125 Clear 14 1008 68 10000 6.17 220 07:47 09.11.2022
1126 Clouds 14 1007 65 10000 5.14 220 06:55 09.11.2022
1127 Clouds 15 1008 54 10000 4.63 200 22:46 08.11.2022
1128 Clear 15 1008 54 10000 5.14 200 21:43 08.11.2022
1129 Clear 15 1008 61 10000 4.12 190 21:21 08.11.2022
1130 Clear 15 1008 53 10000 3.6 200 20:30 08.11.2022
1131 Clear 15 1008 58 10000 5.14 180 19:28 08.11.2022
1132 Clear 15 1008 50 10000 2.57 180 17:37 08.11.2022
1133 Clear 16 1007 48 10000 3.6 160 15:38 08.11.2022
1134 Clear 17 1008 48 10000 4.12 170 14:51 08.11.2022
1135 Clear 17 1008 49 10000 4.63 190 13:34 08.11.2022
1136 Clear 15 1009 62 10000 4.63 140 11:54 08.11.2022
1137 Clear 10 1011 78 10000 2.57 150 07:45 08.11.2022
1138 Clear 10 1011 79 10000 3.09 170 06:29 08.11.2022
1139 Clouds 13 1012 70 10000 3.6 210 23:52 07.11.2022
1140 Clouds 13 1012 69 10000 5.66 210 22:21 07.11.2022
1141 Clouds 13 1012 71 10000 4.63 210 21:20 07.11.2022
1142 Clear 13 1012 71 10000 4.12 210 19:59 07.11.2022
1143 Clouds 13 1012 73 10000 3.09 210 17:44 07.11.2022
1144 Clouds 13 1011 70 10000 5.66 220 16:27 07.11.2022
1145 Clouds 14 1011 66 10000 6.69 230 15:34 07.11.2022
1146 Clouds 14 1011 61 10000 5.36 360 14:18 07.11.2022
1147 Clouds 14 1011 64 10000 4.63 220 12:34 07.11.2022
1148 Clear 12 1011 67 10000 5.66 220 10:48 07.11.2022
1149 Clear 11 1010 78 10000 5.14 210 09:25 07.11.2022
1150 Clouds 10 1010 70 10000 5.66 210 07:29 07.11.2022
1151 Clouds 10 1009 70 10000 6.17 220 03:39 07.11.2022
1152 Clouds 9 1008 76 10000 5.66 210 01:19 07.11.2022
1153 Clear 9 1008 69 10000 2.57 180 22:18 06.11.2022
1154 Rain 9 1008 59 10000 3.09 180 21:19 06.11.2022
1155 Rain 9 1008 58 10000 3.09 120 20:23 06.11.2022
1156 Clouds 9 1009 58 10000 3.09 130 19:33 06.11.2022
1157 Clouds 9 1010 58 10000 3.09 150 18:39 06.11.2022
1158 Clouds 9 1010 59 10000 3.09 130 18:19 06.11.2022
1159 Clear 10 1010 60 10000 2.06 150 17:20 06.11.2022
1160 Clear 11 1010 69 10000 2.57 140 16:40 06.11.2022
1161 Clear 12 1010 54 10000 2.06 150 15:43 06.11.2022
1162 Clear 13 1013 56 10000 4.12 190 12:48 06.11.2022
1163 Clear 12 1013 57 10000 3.6 180 12:28 06.11.2022
1164 Clear 11 1014 64 10000 4.63 210 10:45 06.11.2022
1165 Clear 8 1015 74 10000 4.63 220 08:29 06.11.2022
1166 Clouds 8 1017 68 10000 3.09 210 00:50 06.11.2022
1167 Clouds 7 1017 72 10000 2.57 160 22:54 05.11.2022
1168 Clear 7 1017 72 10000 1.03 0 19:28 05.11.2022
1169 Clear 8 1017 71 10000 2.06 230 17:45 05.11.2022
1170 Clear 11 1017 61 10000 5.14 250 15:53 05.11.2022
1171 Clouds 12 1017 69 10000 5.14 250 14:33 05.11.2022
1172 Clouds 11 1017 76 10000 4.63 230 12:51 05.11.2022
1173 Clear 9 1016 82 10000 3.13 360 10:31 05.11.2022
1174 Clouds 6 1015 74 10000 1.54 260 08:47 05.11.2022
1175 Clouds 4 1014 84 10000 2.06 240 06:57 05.11.2022
1176 Clouds 6 1013 88 9000 2.06 260 03:49 05.11.2022
1177 Clouds 8 1011 79 10000 2.06 280 23:35 04.11.2022
1178 Clouds 8 1010 80 10000 2.06 290 22:31 04.11.2022
1179 Clear 10 1009 75 10000 1.54 280 20:21 04.11.2022
1180 Clouds 10 1008 73 10000 1.54 280 17:46 04.11.2022
1181 Clouds 11 1007 68 10000 2.06 290 16:34 04.11.2022
1182 Clouds 12 1006 64 10000 5.14 260 13:39 04.11.2022
1183 Clouds 12 1005 73 10000 5.66 250 12:25 04.11.2022
1184 Clear 10 1005 73 10000 2.06 240 09:41 04.11.2022
1185 Clouds 10 1004 77 10000 4.63 240 08:29 04.11.2022
1186 Clouds 10 1004 76 10000 3.09 240 07:42 04.11.2022
1187 Clouds 11 1001 72 10000 3.09 110 02:28 04.11.2022
1188 Rain 11 1002 73 10000 3.13 360 22:44 03.11.2022
1189 Clear 11 1003 66 10000 3.09 130 20:50 03.11.2022
1190 Clear 12 1004 65 10000 4.12 110 19:44 03.11.2022
1191 Clear 12 1004 64 10000 4.63 130 19:18 03.11.2022
1192 Clear 12 1006 64 10000 3.09 100 17:43 03.11.2022
1193 Clear 12 1006 74 10000 4.12 120 16:51 03.11.2022
1194 Clear 14 1009 61 10000 4.12 140 14:18 03.11.2022
1195 Clear 15 1011 66 10000 4.63 150 12:38 03.11.2022
1196 Clear 14 1012 62 10000 4.63 150 11:44 03.11.2022
1197 Clear 10 1014 78 10000 3.6 130 09:19 03.11.2022
1198 Clear 8 1015 72 10000 4.12 150 07:43 03.11.2022
1199 Clouds 8 1020 75 10000 2.06 140 21:29 02.11.2022
1200 Clear 8 1020 74 10000 2.06 140 20:39 02.11.2022
1201 Clear 8 1021 66 10000 1.03 0 19:55 02.11.2022
1202 Clear 13 1020 53 10000 4.63 250 16:51 02.11.2022
1203 Clouds 14 1020 50 10000 5.66 270 15:50 02.11.2022
1204 Clear 14 1019 49 10000 8.75 260 14:32 02.11.2022
1205 Clouds 15 1019 56 10000 9.77 250 12:44 02.11.2022
1206 Clouds 14 1018 59 10000 7.2 240 11:25 02.11.2022
1207 Clear 11 1017 68 10000 4.63 200 08:52 02.11.2022
1208 Clouds 12 1016 65 10000 5.14 220 05:30 02.11.2022
1209 Clouds 11 1017 70 10000 4.02 360 00:21 02.11.2022
1210 Clear 10 1018 67 10000 1.54 110 22:19 01.11.2022
1211 Clear 10 1017 65 10000 1.54 120 21:37 01.11.2022
1212 Clear 10 1017 65 10000 2.57 100 20:26 01.11.2022
1213 Clear 11 1017 64 10000 1.03 0 19:43 01.11.2022
1214 Clear 11 1017 62 10000 0 0 18:49 01.11.2022
1215 Clear 13 1016 56 10000 2.06 240 17:31 01.11.2022
1216 Clear 16 1016 49 10000 3.6 270 16:20 01.11.2022
1217 Clear 18 1015 50 10000 6.17 250 14:22 01.11.2022
1218 Clouds 18 1014 70 10000 5.66 230 12:27 01.11.2022
1219 Clear 18 1014 73 10000 4.12 220 11:24 01.11.2022
1220 Clear 17 1014 76 10000 5.14 220 10:56 01.11.2022
1221 Clouds 15 1013 86 10000 2.57 150 08:43 01.11.2022
1222 Clouds 13 1012 83 5000 2.06 140 07:30 01.11.2022
1223 Clouds 13 1012 83 5000 2.06 140 07:30 01.11.2022
1224 Clouds 13 1012 83 5000 2.06 140 07:30 01.11.2022
1225 Clouds 13 1012 85 4800 1.54 110 06:47 01.11.2022
1226 Clouds 12 1012 89 3900 1.54 100 05:57 01.11.2022
1227 Clouds 12 1012 89 1100 1.03 0 03:38 01.11.2022
1228 Clouds 13 1015 89 4600 3.09 110 21:57 31.10.2022
1229 Clouds 14 1016 87 4100 4.63 100 20:50 31.10.2022
1230 Mist 14 1016 86 4800 4.12 100 19:55 31.10.2022
1231 Clear 15 1018 80 10000 3.6 90 17:58 31.10.2022
1232 Clear 16 1018 74 10000 2.57 80 16:43 31.10.2022
1233 Clear 18 1020 68 10000 2.06 120 13:29 31.10.2022
1234 Clouds 17 1021 79 8000 1.03 0 11:54 31.10.2022
1235 Clouds 13 1021 83 9000 0 0 09:18 31.10.2022
1236 Clouds 13 1020 82 10000 2.06 270 05:34 31.10.2022
1237 Clouds 13 1019 75 10000 0.45 360 02:27 31.10.2022
1238 Clouds 15 1018 72 10000 2.06 260 23:19 30.10.2022
1239 Clouds 16 1018 72 10000 2.06 230 21:44 30.10.2022
1240 Clouds 15 1018 69 10000 0 0 20:37 30.10.2022
1241 Clear 16 1017 68 10000 1.54 80 18:40 30.10.2022
1242 Clear 20 1016 57 10000 1.03 110 16:18 30.10.2022
1243 Clear 22 1017 48 10000 1.54 250 14:22 30.10.2022
1244 Clear 22 1017 49 10000 3.09 240 13:23 30.10.2022
1245 Clear 21 1018 54 10000 2.57 230 11:48 30.10.2022
1246 Clear 18 1017 55 10000 2.06 240 09:40 30.10.2022
1247 Clouds 15 1018 70 10000 1.03 90 08:40 30.10.2022
1248 Clouds 14 1017 70 10000 1.03 0 07:24 30.10.2022
1249 Clouds 15 1018 74 10000 1.54 110 00:29 30.10.2022
1250 Clouds 15 1018 75 10000 0.45 360 23:45 29.10.2022
1251 Clouds 15 1018 76 10000 1.03 90 21:44 29.10.2022
1252 Clear 18 1019 71 10000 1.54 190 18:35 29.10.2022
1253 Clear 18 1019 71 10000 1.54 190 18:35 29.10.2022
1254 Clear 20 1018 63 10000 2.06 270 17:21 29.10.2022
1255 Clear 21 1019 69 10000 1.54 180 15:38 29.10.2022
1256 Clear 21 1019 63 10000 2.06 140 14:51 29.10.2022
1257 Clear 19 1020 72 10000 1.54 150 12:36 29.10.2022
1258 Clear 18 1021 73 10000 1.54 180 11:55 29.10.2022
1259 Clouds 14 1021 81 10000 2.47 228 07:39 29.10.2022
1260 Clouds 14 1021 91 10000 2.42 232 06:47 29.10.2022
1261 Clouds 14 1020 79 10000 2.55 233 05:53 29.10.2022
1262 Clouds 18 1020 63 10000 0.89 360 23:43 28.10.2022
1263 Clouds 20 1018 64 10000 0.89 241 21:31 28.10.2022
1264 Clear 20 1018 57 10000 2.06 190 19:46 28.10.2022
1265 Clear 20 1017 57 10000 3.09 210 18:32 28.10.2022
1266 Clear 21 1017 64 10000 2.57 210 17:39 28.10.2022
1267 Clear 24 1017 46 10000 4.12 220 14:51 28.10.2022
1268 Clear 23 1018 46 10000 4.63 240 13:43 28.10.2022
1269 Clear 22 1019 51 10000 4.12 230 11:55 28.10.2022
1270 Clear 22 1019 52 10000 4.12 230 11:32 28.10.2022
1271 Clear 19 1018 54 10000 2.06 200 10:45 28.10.2022
1272 Clear 18 1018 58 10000 2.57 160 09:36 28.10.2022
1273 Clear 15 1019 73 10000 0.51 0 07:19 28.10.2022
1274 Clouds 16 1020 72 10000 0 0 02:30 28.10.2022
1275 Clouds 16 1020 74 10000 2.57 160 23:47 27.10.2022
1276 Clouds 16 1021 72 10000 2.06 170 22:37 27.10.2022
1277 Clouds 15 1021 78 10000 3.6 140 21:21 27.10.2022
1278 Clear 17 1021 70 10000 2.57 140 18:33 27.10.2022
1279 Clouds 20 1021 60 10000 2.06 120 17:26 27.10.2022
1280 Clear 20 1024 67 10000 3.09 150 13:32 27.10.2022
1281 Clear 12 1024 85 10000 1.03 0 08:31 27.10.2022
1282 Clouds 12 1023 83 10000 1.54 110 02:59 27.10.2022
1283 Clouds 13 1022 79 10000 1.03 0 23:54 26.10.2022
1284 Clouds 13 1021 81 10000 2.57 260 22:46 26.10.2022
1285 Clouds 13 1020 79 10000 0.45 360 21:56 26.10.2022
1286 Clear 15 1018 72 10000 2.06 210 18:42 26.10.2022
1287 Clear 18 1017 65 10000 2.06 140 16:31 26.10.2022
1288 Clear 17 1016 72 10000 2.57 150 13:35 26.10.2022
1289 Clear 16 1016 78 10000 2.06 150 12:36 26.10.2022
1290 Clouds 11 1016 83 10000 1.34 360 09:31 26.10.2022
1291 Clear 9 1015 86 10000 2.06 110 08:53 26.10.2022
1292 Clear 9 1015 86 10000 2.06 110 08:53 26.10.2022
1293 Clear 9 1015 86 10000 2.57 110 08:22 26.10.2022
1294 Clouds 10 1017 91 10000 1.54 140 00:45 26.10.2022
1295 Clouds 10 1017 84 10000 1.03 0 00:20 26.10.2022
1296 Clouds 11 1017 91 10000 0 0 21:47 25.10.2022
1297 Clear 11 1017 81 10000 2.06 220 20:53 25.10.2022
1298 Clear 12 1016 78 10000 3.09 230 19:40 25.10.2022
1299 Clouds 15 1016 70 10000 3.6 260 17:51 25.10.2022
1300 Clouds 17 1015 64 10000 7.2 250 14:37 25.10.2022
1301 Clouds 15 1015 79 10000 4.63 230 11:38 25.10.2022
1302 Clouds 14 1014 83 10000 4.12 230 10:37 25.10.2022
1303 Clouds 13 1013 87 10000 3.6 220 09:44 25.10.2022
1304 Clouds 13 1013 84 10000 3.6 220 08:19 25.10.2022
1305 Rain 13 1012 86 10000 2.57 220 07:54 25.10.2022
1306 Clouds 13 1012 86 3400 4.12 220 06:56 25.10.2022
1307 Rain 13 1011 78 10000 5.14 230 03:48 25.10.2022
1308 Rain 15 1011 69 10000 4.12 230 00:40 25.10.2022
1309 Clouds 14 1010 68 10000 3.09 230 23:49 24.10.2022
1310 Clouds 15 1010 65 10000 4.63 230 22:24 24.10.2022
1311 Clear 15 1010 67 10000 2.57 220 21:33 24.10.2022
1312 Clear 16 1009 73 10000 3.6 220 20:42 24.10.2022
1313 Clear 17 1009 69 10000 3.09 220 18:53 24.10.2022
1314 Clear 18 1008 62 10000 2.06 230 17:51 24.10.2022
1315 Clouds 19 1008 64 10000 5.14 240 16:45 24.10.2022
1316 Clouds 20 1007 54 10000 7.72 220 14:23 24.10.2022
1317 Clouds 20 1008 55 10000 6.69 210 13:41 24.10.2022
1318 Clear 19 1007 59 10000 5.66 210 11:55 24.10.2022
1319 Clear 15 1007 80 10000 4.12 160 08:50 24.10.2022
1320 Clouds 14 1008 83 10000 2.57 170 00:52 24.10.2022
1321 Rain 16 1009 81 10000 2.06 140 21:24 23.10.2022
1322 Clear 15 1008 75 10000 3.09 100 19:53 23.10.2022
1323 Clear 17 1009 73 10000 3.6 120 18:25 23.10.2022
1324 Rain 18 1009 68 10000 2.57 110 17:27 23.10.2022
1325 Clear 19 1011 66 10000 3.6 140 15:21 23.10.2022
1326 Clear 17 1013 80 10000 1.54 110 13:22 23.10.2022
1327 Clear 15 1013 81 10000 2.06 100 11:18 23.10.2022
1328 Clouds 10 1015 83 10000 2.06 90 08:19 23.10.2022
1329 Clouds 12 1016 82 10000 0.51 260 00:33 23.10.2022
1330 Clouds 14 1016 88 10000 2.57 230 22:32 22.10.2022
1331 Clouds 14 1016 89 10000 0 0 21:42 22.10.2022
1332 Clouds 14 1015 78 10000 2.57 250 20:55 22.10.2022
1333 Clear 15 1015 80 10000 2.06 220 19:46 22.10.2022
1334 Clear 14 1015 79 10000 2.57 220 19:27 22.10.2022
1335 Clouds 16 1014 74 10000 5.14 280 17:37 22.10.2022
1336 Rain 18 1013 76 10000 4.63 230 15:57 22.10.2022
1337 Clouds 19 1013 70 10000 5.66 230 14:46 22.10.2022
1338 Clear 19 1013 74 10000 4.63 230 13:53 22.10.2022
1339 Clear 14 1012 91 10000 0.89 360 10:26 22.10.2022
1340 Clear 13 1012 93 10000 0.45 360 09:39 22.10.2022
1341 Clouds 12 1011 92 3200 0 0 08:30 22.10.2022
1342 Clouds 13 1010 89 10000 0.45 360 03:42 22.10.2022
1343 Clouds 13 1010 88 10000 2.57 170 00:18 22.10.2022
1344 Clouds 13 1009 87 10000 0.51 0 21:41 21.10.2022
1345 Clouds 13 1009 87 10000 0.45 0 21:23 21.10.2022
1346 Clear 14 1009 89 10000 1.03 0 19:56 21.10.2022
1347 Rain 15 1008 86 6000 4.12 230 17:21 21.10.2022
1348 Clear 17 1008 78 10000 3.09 190 14:30 21.10.2022
1349 Clear 17 1008 79 10000 3.6 210 13:22 21.10.2022
1350 Clear 16 1008 79 10000 2.06 190 11:45 21.10.2022
1351 Clear 14 1009 91 10000 2.06 160 10:22 21.10.2022
1352 Clouds 11 1009 87 9000 1.54 100 08:39 21.10.2022
1353 Clear 11 1009 87 10000 1.54 100 08:19 21.10.2022
1354 Clear 11 1009 87 10000 1.54 100 08:19 21.10.2022
1355 Clear 10 1012 83 10000 1.79 360 02:32 21.10.2022
1356 Clouds 11 1013 80 10000 2.06 160 22:36 20.10.2022
1357 Rain 12 1013 80 10000 3.6 140 20:53 20.10.2022
1358 Rain 12 1014 73 10000 3.09 130 19:42 20.10.2022
1359 Clear 12 1014 65 10000 4.02 360 18:19 20.10.2022
1360 Clear 13 1015 64 10000 5.66 100 17:38 20.10.2022
1361 Clear 13 1017 53 10000 4.63 90 13:32 20.10.2022
1362 Clear 12 1019 67 10000 5.66 100 12:31 20.10.2022
1363 Clear 10 1019 79 10000 5.66 110 11:26 20.10.2022
1364 Clear 8 1019 75 10000 5.14 100 10:51 20.10.2022
1365 Clear 6 1020 81 10000 5.14 100 08:55 20.10.2022
1366 Clouds 6 1021 88 9000 2.57 90 05:54 20.10.2022
1367 Clouds 6 1024 81 3000 3.6 80 01:57 20.10.2022
1368 Clouds 6 1025 80 6000 2.57 90 22:52 19.10.2022
1369 Clouds 7 1025 77 10000 2.06 80 22:23 19.10.2022
1370 Rain 7 1026 84 10000 1.54 90 21:20 19.10.2022
1371 Clear 9 1026 79 10000 1.03 100 19:53 19.10.2022
1372 Clouds 12 1026 59 10000 2.57 150 17:44 19.10.2022
1373 Clouds 13 1027 57 10000 2.57 130 16:24 19.10.2022
1374 Clouds 13 1027 58 10000 2.57 80 14:20 19.10.2022
1375 Clouds 12 1028 64 10000 1.54 40 11:42 19.10.2022
1376 Clouds 10 1028 83 10000 0 0 08:47 19.10.2022
1377 Clouds 10 1027 82 10000 1.54 300 07:23 19.10.2022
1378 Clouds 10 1027 91 10000 2.06 280 01:33 19.10.2022
1379 Clouds 9 1027 83 10000 2.57 290 23:22 18.10.2022
1380 Clear 10 1027 87 10000 1.54 270 21:49 18.10.2022
1381 Clear 10 1027 87 10000 1.54 270 21:49 18.10.2022
1382 Clear 11 1027 77 10000 2.57 300 21:24 18.10.2022
1383 Clear 12 1027 75 10000 3.09 300 20:26 18.10.2022
1384 Clear 14 1026 70 10000 2.06 290 18:58 18.10.2022
1385 Clouds 18 1025 59 10000 5.14 280 16:56 18.10.2022
1386 Clouds 18 1025 81 10000 4.12 290 15:22 18.10.2022
1387 Clouds 17 1025 91 10000 3.6 280 13:39 18.10.2022
1388 Clouds 16 1025 96 6000 2.06 270 11:47 18.10.2022
1389 Mist 15 1025 97 4300 1.54 270 10:36 18.10.2022
1390 Rain 15 1025 95 4500 1.03 270 09:26 18.10.2022
1391 Rain 15 1024 91 6000 0.51 0 06:38 18.10.2022
1392 Rain 17 1024 81 10000 3.09 260 23:40 17.10.2022
1393 Rain 18 1023 84 10000 3.09 270 21:31 17.10.2022
1394 Clouds 19 1023 70 10000 3.09 280 20:49 17.10.2022
1395 Rain 19 1023 69 10000 3.09 280 20:29 17.10.2022
1396 Clouds 20 1022 66 10000 2.57 280 19:42 17.10.2022
1397 Clear 22 1021 58 10000 3.6 270 17:49 17.10.2022
1398 Clear 23 1020 52 10000 5.14 230 16:22 17.10.2022
1399 Clear 23 1020 58 10000 6.17 230 15:20 17.10.2022
1400 Clear 22 1020 57 10000 6.69 220 13:35 17.10.2022
1401 Clear 16 1020 83 10000 2.06 140 09:28 17.10.2022
1402 Clouds 13 1019 83 10000 3.09 100 02:37 17.10.2022
1403 Clear 13 1020 77 10000 2.06 100 22:54 16.10.2022
1404 Clear 13 1020 77 10000 2.06 100 22:54 16.10.2022
1405 Clouds 12 1019 86 10000 1.54 80 21:22 16.10.2022
1406 Clear 13 1018 74 10000 0.51 0 19:56 16.10.2022
1407 Clear 13 1018 72 10000 0.51 0 19:38 16.10.2022
1408 Clouds 18 1017 63 10000 2.06 220 17:47 16.10.2022
1409 Clear 20 1016 51 10000 5.14 250 16:32 16.10.2022
1410 Clear 20 1016 52 10000 6.69 240 15:56 16.10.2022
1411 Clouds 19 1015 71 10000 5.66 230 12:49 16.10.2022
1412 Clear 17 1015 74 10000 5.14 220 11:41 16.10.2022
1413 Clear 16 1014 84 10000 4.12 210 10:26 16.10.2022
1414 Clouds 13 1012 85 10000 2.57 170 07:39 16.10.2022
1415 Clouds 16 1010 82 10000 4.63 220 23:47 15.10.2022
1416 Rain 16 1008 78 10000 4.12 220 22:18 15.10.2022
1417 Clouds 16 1008 83 10000 3.09 190 21:21 15.10.2022
1418 Clouds 17 1007 72 10000 3.6 180 19:55 15.10.2022
1419 Clouds 18 1006 63 10000 3.6 200 17:26 15.10.2022
1420 Clouds 19 1007 59 10000 3.6 180 15:45 15.10.2022
1421 Clouds 18 1007 62 10000 3.13 360 14:21 15.10.2022
1422 Clouds 16 1008 85 10000 2.57 210 11:52 15.10.2022
1423 Clear 14 1008 90 10000 0 0 10:26 15.10.2022
1424 Clouds 11 1007 85 700 0 0 08:31 15.10.2022
1425 Clouds 14 1007 87 10000 2.06 190 01:55 15.10.2022
1426 Clouds 14 1008 83 10000 2.57 150 23:31 14.10.2022
1427 Rain 14 1008 81 10000 1.54 130 22:23 14.10.2022
1428 Clouds 15 1008 76 10000 2.57 130 21:27 14.10.2022
1429 Clouds 15 1008 76 10000 2.57 130 21:27 14.10.2022
1430 Clouds 15 1009 71 10000 2.06 120 19:44 14.10.2022
1431 Clouds 17 1011 63 10000 3.09 200 16:26 14.10.2022
1432 Clouds 17 1012 68 10000 3.09 210 13:26 14.10.2022
1433 Clouds 16 1013 74 10000 3.09 210 12:18 14.10.2022
1434 Clouds 13 1014 82 10000 2.06 220 09:29 14.10.2022
1435 Clouds 12 1014 82 10000 1.03 0 06:55 14.10.2022
1436 Clouds 12 1014 85 10000 1.54 160 06:18 14.10.2022
1437 Clouds 12 1014 82 10000 1.54 180 05:42 14.10.2022
1438 Clouds 12 1015 84 10000 0 0 03:44 14.10.2022
1439 Clouds 11 1015 80 10000 0 0 23:58 13.10.2022
1440 Clouds 12 1016 75 10000 1.03 0 22:22 13.10.2022
1441 Clouds 13 1016 72 10000 1.03 180 21:25 13.10.2022
1442 Clear 14 1016 69 10000 2.06 170 20:18 13.10.2022
1443 Clear 14 1016 67 10000 2.57 160 19:37 13.10.2022
1444 Clear 15 1016 63 10000 2.06 200 18:43 13.10.2022
1445 Clouds 17 1015 55 10000 3.6 220 17:20 13.10.2022
1446 Clear 17 1016 63 10000 4.63 250 15:48 13.10.2022
1447 Clear 17 1016 58 10000 4.63 240 14:23 13.10.2022
1448 Clouds 16 1017 67 10000 3.09 220 12:50 13.10.2022
1449 Clouds 14 1017 73 10000 2.57 170 11:36 13.10.2022
1450 Clear 11 1018 85 10000 2.06 180 09:40 13.10.2022
1451 Clear 9 1018 87 10000 0.51 0 08:32 13.10.2022
1452 Clear 8 1019 86 10000 0.51 0 07:35 13.10.2022
1453 Clouds 8 1020 75 10000 1.54 110 01:53 13.10.2022
1454 Clouds 9 1020 81 10000 2.06 80 00:57 13.10.2022
1455 Clouds 8 1021 73 10000 2.06 80 22:57 12.10.2022
1456 Clouds 8 1021 72 10000 2.06 80 22:36 12.10.2022
1457 Clouds 9 1021 77 10000 0.45 360 21:22 12.10.2022
1458 Clear 9 1021 81 10000 1.54 90 20:52 12.10.2022
1459 Clear 10 1021 68 10000 0 0 19:38 12.10.2022
1460 Clear 14 1021 56 10000 2.06 90 18:26 12.10.2022
1461 Clear 14 1022 54 10000 1.54 120 17:47 12.10.2022
1462 Clear 16 1022 53 10000 3.6 130 15:50 12.10.2022
1463 Clear 16 1024 50 10000 4.12 140 13:57 12.10.2022
1464 Clear 15 1024 50 10000 4.12 130 13:22 12.10.2022
1465 Clear 8 1025 75 10000 1.54 90 09:48 12.10.2022
1466 Clear 4 1025 83 10000 1.54 90 07:59 12.10.2022
1467 Clear 4 1025 83 10000 1.54 90 07:41 12.10.2022
1468 Clouds 4 1025 83 10000 1.54 90 06:43 12.10.2022
1469 Clouds 5 1026 78 10000 1.54 90 01:32 12.10.2022
1470 Clouds 6 1026 92 10000 1.54 90 22:39 11.10.2022
1471 Clear 7 1026 78 10000 1.54 90 20:55 11.10.2022
1472 Clear 9 1026 73 10000 0 0 19:56 11.10.2022
1473 Clear 14 1025 61 10000 3.09 310 17:28 11.10.2022
1474 Clouds 15 1026 52 10000 4.12 270 14:48 11.10.2022
1475 Clouds 15 1026 61 10000 3.09 250 13:28 11.10.2022
1476 Clear 10 1026 84 10000 3.6 260 10:31 11.10.2022
1477 Clear 10 1026 84 10000 3.6 260 10:31 11.10.2022
1478 Clear 9 1025 95 10000 3.09 270 09:50 11.10.2022
1479 Clear 6 1024 88 10000 2.06 270 08:22 11.10.2022
1480 Clear 9 1022 86 10000 2.57 270 02:39 11.10.2022
1481 Clouds 10 1020 83 10000 3.09 280 00:34 11.10.2022
1482 Clouds 13 1018 87 10000 4.63 280 21:47 10.10.2022
1483 Rain 15 1017 74 10000 7.2 290 20:32 10.10.2022
1484 Clear 16 1015 59 10000 2.06 260 18:50 10.10.2022
1485 Clear 18 1014 52 10000 4.63 280 17:24 10.10.2022
1486 Clear 18 1014 51 10000 5.66 240 16:22 10.10.2022
1487 Clear 17 1014 51 10000 4.63 240 13:31 10.10.2022
1488 Clear 16 1014 67 10000 3.6 210 12:22 10.10.2022
1489 Clear 7 1015 91 10000 2.06 80 09:26 10.10.2022
1490 Clear 5 1016 80 10000 3.13 360 05:53 10.10.2022
1491 Clear 5 1016 82 10000 2.68 360 05:32 10.10.2022
1492 Clouds 8 1019 84 10000 1.79 360 01:25 10.10.2022
1493 Clouds 9 1019 69 10000 2.06 100 23:36 09.10.2022
1494 Clouds 10 1020 65 10000 3.09 110 22:26 09.10.2022
1495 Clouds 10 1020 73 10000 3.6 100 21:27 09.10.2022
1496 Clear 11 1020 62 10000 3.09 100 20:43 09.10.2022
1497 Clear 12 1021 60 10000 3.09 100 19:48 09.10.2022
1498 Clear 13 1021 61 10000 3.09 110 18:50 09.10.2022
1499 Clear 16 1021 48 10000 4.12 120 17:44 09.10.2022
1500 Clear 17 1022 44 10000 4.12 120 16:48 09.10.2022
1501 Clear 17 1022 45 10000 3.09 110 16:20 09.10.2022
1502 Clear 17 1023 48 10000 2.57 160 14:56 09.10.2022
1503 Clear 16 1024 48 10000 3.09 130 14:26 09.10.2022
1504 Clear 15 1025 67 10000 2.06 140 12:50 09.10.2022
1505 Clear 12 1026 76 10000 1.54 140 11:27 09.10.2022
1506 Clear 7 1026 77 10000 1.55 196 08:33 09.10.2022
1507 Clear 5 1025 80 10000 2.41 210 06:46 09.10.2022
1508 Clear 6 1025 80 10000 2.65 234 03:29 09.10.2022
1509 Clear 6 1024 82 10000 2.73 236 01:54 09.10.2022
1510 Clear 7 1024 80 10000 3.09 250 23:56 08.10.2022
1511 Clear 8 1023 78 10000 3.24 252 22:52 08.10.2022
1512 Clear 10 1022 74 10000 2.57 270 20:45 08.10.2022
1513 Clear 11 1022 72 10000 2.57 260 19:51 08.10.2022
1514 Clouds 13 1020 65 10000 4.12 280 17:55 08.10.2022
1515 Clouds 15 1018 75 10000 3.09 260 15:41 08.10.2022
1516 Clouds 16 1018 66 10000 6.17 250 13:53 08.10.2022
1517 Clouds 14 1018 68 10000 5.66 250 12:31 08.10.2022
1518 Drizzle 12 1017 79 10000 4.12 240 10:36 08.10.2022
1519 Clouds 11 1016 75 10000 4.63 240 09:50 08.10.2022
1520 Clouds 11 1015 72 10000 4.63 220 07:50 08.10.2022
1521 Clouds 8 1016 79 10000 1.03 0 02:53 08.10.2022
1522 Clouds 8 1016 77 10000 1.03 0 00:34 08.10.2022
1523 Clouds 10 1017 71 10000 0 0 23:20 07.10.2022
1524 Clouds 10 1017 72 10000 1.03 0 22:32 07.10.2022
1525 Clear 10 1018 84 10000 0 0 20:50 07.10.2022
1526 Clear 13 1018 62 10000 1.03 0 19:28 07.10.2022
1527 Clear 17 1019 47 10000 3.09 240 17:37 07.10.2022
1528 Clear 18 1019 46 10000 3.6 220 16:40 07.10.2022
1529 Clear 18 1021 46 10000 4.63 220 14:54 07.10.2022
1530 Clear 17 1023 59 10000 4.12 250 12:35 07.10.2022
1531 Clear 11 1025 76 10000 2.57 170 09:37 07.10.2022
1532 Clear 9 1025 79 10000 3.09 160 09:18 07.10.2022
1533 Clouds 7 1026 77 10000 3.09 150 06:58 07.10.2022
1534 Clear 7 1028 80 10000 0 0 01:34 07.10.2022
1535 Clear 9 1029 84 10000 1.54 100 22:51 06.10.2022
1536 Clear 10 1029 82 10000 0 0 21:46 06.10.2022
1537 Clear 10 1029 81 10000 0 0 21:25 06.10.2022
1538 Clear 11 1029 66 10000 0 0 20:30 06.10.2022
1539 Clear 15 1028 60 10000 3.6 260 18:39 06.10.2022
1540 Clear 16 1028 51 10000 5.14 250 18:19 06.10.2022
1541 Clear 18 1028 47 10000 6.17 260 15:33 06.10.2022
1542 Clouds 15 1027 59 10000 7.72 260 11:45 06.10.2022
1543 Clouds 13 1023 75 10000 4.12 250 07:55 06.10.2022
1544 Clouds 15 1019 71 10000 10.29 270 03:38 06.10.2022
1545 Clouds 17 1016 68 10000 6.17 230 00:39 06.10.2022
1546 Clear 17 1015 65 10000 5.66 230 21:41 05.10.2022
1547 Clear 17 1014 62 10000 2.06 190 19:31 05.10.2022
1548 Clear 18 1014 58 10000 4.63 210 17:36 05.10.2022
1549 Clouds 18 1014 57 10000 6.17 230 16:20 05.10.2022
1550 Clouds 18 1015 64 10000 6.17 220 14:48 05.10.2022
1551 Clouds 18 1016 65 10000 6.69 220 14:19 05.10.2022
1552 Clouds 16 1016 65 10000 5.14 240 12:26 05.10.2022
1553 Clear 14 1017 71 10000 3.6 230 09:51 05.10.2022
1554 Clear 12 1017 74 10000 3.6 210 07:51 05.10.2022
1555 Clouds 12 1017 79 10000 3.09 220 06:22 05.10.2022
1556 Clouds 12 1018 74 10000 3.09 220 04:35 05.10.2022
1557 Clouds 13 1018 69 10000 2.57 220 01:22 05.10.2022
1558 Clouds 13 1018 69 10000 2.57 220 00:27 05.10.2022
1559 Clouds 13 1019 69 10000 1.54 220 22:39 04.10.2022
1560 Clear 13 1019 70 10000 2.06 190 20:40 04.10.2022
1561 Clear 14 1019 67 10000 2.06 190 19:47 04.10.2022
1562 Clear 17 1019 56 10000 2.57 200 18:39 04.10.2022
1563 Clear 18 1019 53 10000 3.09 220 17:51 04.10.2022
1564 Clear 18 1019 58 10000 3.6 200 16:50 04.10.2022
1565 Clouds 17 1021 55 10000 4.63 240 13:52 04.10.2022
1566 Clear 12 1022 81 10000 2.06 240 09:52 04.10.2022
1567 Clear 10 1022 87 10000 0 0 07:48 04.10.2022
1568 Clouds 10 1022 92 10000 0 0 04:42 04.10.2022
1569 Clouds 12 1023 77 10000 3.09 270 23:48 03.10.2022
1570 Clouds 13 1023 83 10000 3.09 280 22:19 03.10.2022
1571 Clouds 13 1023 81 10000 3.09 270 21:27 03.10.2022
1572 Clouds 13 1023 81 10000 3.09 270 21:27 03.10.2022
1573 Clouds 14 1023 80 10000 3.09 280 20:33 03.10.2022
1574 Clouds 14 1023 69 10000 5.14 290 18:52 03.10.2022
1575 Clouds 16 1023 72 10000 5.14 280 17:32 03.10.2022
1576 Clouds 16 1023 62 10000 6.17 290 15:59 03.10.2022
1577 Clouds 16 1024 77 10000 5.66 290 14:26 03.10.2022
1578 Clouds 15 1024 71 10000 5.66 280 12:36 03.10.2022
1579 Clouds 13 1024 81 10000 4.63 290 10:59 03.10.2022
1580 Clear 12 1024 85 10000 4.12 280 09:56 03.10.2022
1581 Clouds 10 1023 88 10000 3.6 290 08:46 03.10.2022
1582 Clouds 11 1022 86 10000 3.6 270 04:41 03.10.2022
1583 Clouds 11 1020 84 10000 3.6 270 23:51 02.10.2022
1584 Clouds 11 1019 84 10000 3.6 280 22:19 02.10.2022
1585 Clear 12 1017 82 10000 3.6 280 19:52 02.10.2022
1586 Clouds 14 1015 72 10000 5.14 260 17:56 02.10.2022
1587 Clear 16 1014 66 10000 5.66 280 16:57 02.10.2022
1588 Clouds 16 1014 68 10000 5.14 280 16:32 02.10.2022
1589 Clouds 16 1014 62 10000 5.14 270 15:39 02.10.2022
1590 Clouds 17 1014 57 10000 7.2 270 13:46 02.10.2022
1591 Clouds 16 1013 73 10000 7.2 270 12:42 02.10.2022
1592 Clouds 16 1014 73 10000 7.72 280 12:20 02.10.2022
1593 Clouds 15 1014 80 10000 6.69 260 11:34 02.10.2022
1594 Clouds 13 1013 84 10000 4.12 250 10:20 02.10.2022
1595 Clouds 12 1013 90 10000 4.12 240 08:31 02.10.2022
1596 Clear 11 1012 83 10000 3.09 230 05:23 02.10.2022
1597 Clear 11 1011 80 10000 4.63 250 01:29 02.10.2022
1598 Clear 11 1011 81 10000 3.6 250 00:38 02.10.2022
1599 Clear 11 1011 81 10000 3.6 250 00:38 02.10.2022
1600 Clear 11 1010 81 10000 3.13 249 23:29 01.10.2022
1601 Clouds 11 1009 91 10000 4.63 260 21:58 01.10.2022
1602 Clear 11 1006 92 10000 4.63 260 19:30 01.10.2022
1603 Thunderstorm 12 1004 74 10000 7.72 270 17:46 01.10.2022
1604 Clouds 16 1003 66 10000 6.69 240 16:24 01.10.2022
1605 Clouds 14 1003 70 10000 7.2 230 14:19 01.10.2022
1606 Drizzle 12 1002 78 10000 7.2 220 12:35 01.10.2022
1607 Clouds 11 1002 82 10000 5.66 210 11:57 01.10.2022
1608 Clouds 11 1002 84 10000 5.66 200 11:18 01.10.2022
1609 Rain 10 1002 85 10000 5.14 180 10:30 01.10.2022
1610 Rain 10 1002 85 10000 5.14 180 10:30 01.10.2022
1611 Rain 10 1003 83 9000 4.63 180 09:26 01.10.2022
1612 Rain 10 1003 77 10000 4.63 170 08:40 01.10.2022
1613 Clouds 10 1007 70 10000 3.6 160 03:52 01.10.2022
1614 Clouds 10 1007 69 10000 3.6 150 03:28 01.10.2022
1615 Clear 9 1009 79 10000 2.57 160 23:33 30.09.2022
1616 Clear 9 1009 66 10000 2.57 140 22:19 30.09.2022
1617 Clear 9 1009 66 10000 2.57 140 22:19 30.09.2022
1618 Clear 10 1010 75 10000 2.06 140 21:22 30.09.2022
1619 Clear 10 1010 66 10000 2.06 140 20:42 30.09.2022
1620 Clear 12 1010 58 10000 1.54 190 19:30 30.09.2022
1621 Clear 16 1010 51 10000 4.12 230 17:27 30.09.2022
1622 Clouds 16 1010 52 10000 4.12 240 15:26 30.09.2022
1623 Clouds 16 1010 52 10000 2.57 240 13:27 30.09.2022
1624 Clear 14 1010 70 10000 2.57 200 11:56 30.09.2022
1625 Clear 10 1010 83 10000 2.06 200 10:18 30.09.2022
1626 Clear 6 1009 83 10000 0.51 0 08:22 30.09.2022
1627 Clouds 7 1008 74 10000 0.51 0 04:55 30.09.2022
1628 Clouds 9 1008 64 10000 2.6 219 02:31 30.09.2022
1629 Fog 9 1006 90 10000 1.03 0 22:26 29.09.2022
1630 Clear 9 1005 93 10000 1.54 90 21:26 29.09.2022
1631 Clear 9 1004 86 10000 1.03 90 20:35 29.09.2022
1632 Clouds 13 1004 69 10000 2.06 230 18:32 29.09.2022
1633 Clear 14 1003 57 10000 1.54 290 17:23 29.09.2022
1634 Clouds 14 1002 63 10000 3.6 240 16:28 29.09.2022
1635 Clear 14 1002 64 10000 2.06 240 15:35 29.09.2022
1636 Clouds 14 1002 60 10000 3.09 240 14:25 29.09.2022
1637 Clear 8 1001 95 10000 1.54 210 09:57 29.09.2022
1638 Clear 4 1000 95 10000 0 0 06:46 29.09.2022
1639 Clouds 7 999 87 10000 0 0 02:47 29.09.2022
1640 Clouds 9 999 84 10000 1.54 240 23:54 28.09.2022
1641 Clouds 9 999 91 10000 1.54 250 22:42 28.09.2022
1642 Clouds 9 998 92 10000 2.06 250 21:29 28.09.2022
1643 Clouds 9 998 92 10000 1.54 290 20:22 28.09.2022
1644 Clouds 10 997 85 10000 2.57 270 18:31 28.09.2022
1645 Rain 10 996 89 10000 3.58 296 14:52 28.09.2022
1646 Rain 9 995 92 10000 0.51 0 12:56 28.09.2022
1647 Drizzle 9 995 90 9000 2.06 130 10:51 28.09.2022
1648 Rain 8 994 93 10000 1.54 130 09:18 28.09.2022
1649 Rain 7 994 87 10000 2.06 90 07:19 28.09.2022
1650 Clouds 8 996 86 10000 2.06 200 02:36 28.09.2022
1651 Clouds 9 996 84 10000 2.06 220 01:33 28.09.2022
1652 Clouds 9 996 92 10000 2.57 230 23:20 27.09.2022
1653 Clouds 9 997 92 10000 2.57 250 21:44 27.09.2022
1654 Clouds 9 996 85 10000 2.57 230 20:38 27.09.2022
1655 Drizzle 9 996 84 10000 3.6 250 19:48 27.09.2022
1656 Rain 9 996 79 10000 4.12 250 18:45 27.09.2022
1657 Rain 10 996 76 10000 5.14 250 17:45 27.09.2022
1658 Clouds 11 995 75 10000 7.2 270 15:40 27.09.2022
1659 Clouds 12 995 79 10000 5.14 260 14:55 27.09.2022
1660 Clouds 11 994 85 10000 5.14 260 12:53 27.09.2022
1661 Clouds 10 994 87 10000 5.66 260 11:34 27.09.2022
1662 Rain 10 993 87 10000 4.63 270 09:34 27.09.2022
1663 Rain 10 992 92 10000 2.57 210 06:56 27.09.2022
1664 Clouds 10 993 89 10000 2.06 160 02:41 27.09.2022
1665 Rain 11 994 75 10000 3.09 180 01:35 27.09.2022
1666 Clouds 12 995 66 10000 5.14 190 23:35 26.09.2022
1667 Clouds 12 996 71 10000 4.12 180 22:40 26.09.2022
1668 Rain 13 997 63 10000 4.12 190 20:46 26.09.2022
1669 Clear 13 998 62 10000 4.12 190 19:32 26.09.2022
1670 Clouds 13 998 70 10000 4.12 170 18:34 26.09.2022
1671 Drizzle 14 999 70 10000 4.63 210 16:41 26.09.2022
1672 Rain 15 1001 59 10000 5.14 210 14:41 26.09.2022
1673 Clear 14 1003 63 10000 6.17 230 11:36 26.09.2022
1674 Clouds 13 1003 70 10000 3.09 200 10:41 26.09.2022
1675 Clouds 12 1004 72 10000 3.58 242 10:21 26.09.2022
1676 Clear 12 1003 75 10000 2.06 200 09:56 26.09.2022
1677 Clear 11 1004 81 10000 2.06 190 09:24 26.09.2022
1678 Clear 11 1004 83 10000 2.57 190 08:57 26.09.2022
1679 Clouds 9 1008 83 10000 0.51 0 02:59 26.09.2022
1680 Clouds 9 1009 75 10000 0 0 01:31 26.09.2022
1681 Clouds 9 1009 86 10000 0 0 23:20 25.09.2022
1682 Clouds 11 1010 82 10000 0 0 21:44 25.09.2022
1683 Clear 11 1010 80 10000 0 0 20:54 25.09.2022
1684 Clear 12 1010 79 10000 0 0 20:31 25.09.2022
1685 Clouds 14 1010 68 10000 2.06 340 18:44 25.09.2022
1686 Clouds 15 1010 76 10000 3.09 340 18:21 25.09.2022
1687 Clouds 15 1011 71 10000 3.09 310 16:55 25.09.2022
1688 Clouds 15 1011 76 10000 4.63 290 15:48 25.09.2022
1689 Clouds 14 1011 84 10000 4.63 270 14:31 25.09.2022
1690 Clouds 14 1011 84 10000 4.63 270 14:31 25.09.2022
1691 Clouds 14 1012 87 10000 4.63 270 13:45 25.09.2022
1692 Clouds 12 1012 89 10000 3.6 280 10:37 25.09.2022
1693 Mist 12 1012 90 5000 3.09 260 09:21 25.09.2022
1694 Clouds 12 1012 89 9000 2.57 240 06:28 25.09.2022
1695 Clouds 12 1012 89 10000 1.54 190 04:28 25.09.2022
1696 Clouds 12 1012 87 10000 2.06 150 23:36 24.09.2022
1697 Rain 13 1013 85 10000 1.54 170 21:19 24.09.2022
1698 Rain 13 1012 89 10000 1.54 190 19:33 24.09.2022
1699 Rain 14 1012 77 10000 0 0 18:44 24.09.2022
1700 Clear 15 1012 62 10000 2.57 280 16:43 24.09.2022
1701 Clear 16 1012 59 10000 2.57 270 15:23 24.09.2022
1702 Clear 17 1013 65 10000 1.03 0 14:27 24.09.2022
1703 Clear 16 1013 69 10000 1.54 100 12:59 24.09.2022
1704 Clear 15 1013 72 10000 1.54 100 12:22 24.09.2022
1705 Clear 13 1012 83 10000 0 0 09:58 24.09.2022
1706 Clouds 11 1012 79 10000 0 0 08:56 24.09.2022
1707 Clouds 11 1012 83 10000 0 0 07:41 24.09.2022
1708 Rain 12 1012 83 10000 0 0 04:52 24.09.2022
1709 Clouds 12 1012 79 10000 1.03 90 03:48 24.09.2022
1710 Clouds 13 1013 72 10000 1.54 90 22:54 23.09.2022
1711 Clouds 13 1014 77 10000 1.03 90 21:33 23.09.2022
1712 Clear 14 1014 66 10000 1.54 80 20:57 23.09.2022
1713 Clear 14 1014 65 10000 1.54 80 20:37 23.09.2022
1714 Clear 15 1014 58 10000 0 0 19:19 23.09.2022
1715 Clear 18 1015 40 10000 4.12 230 15:31 23.09.2022
1716 Clear 18 1017 48 10000 3.09 210 12:39 23.09.2022
1717 Clear 11 1018 77 10000 1.54 120 09:36 23.09.2022
1718 Clouds 7 1018 74 10000 1.54 90 06:51 23.09.2022
1719 Clouds 8 1020 84 10000 2.06 110 00:44 23.09.2022
1720 Clouds 9 1021 73 10000 2.06 90 23:28 22.09.2022
1721 Clouds 10 1021 70 10000 2.06 90 22:27 22.09.2022
1722 Clouds 11 1021 78 10000 2.06 90 21:23 22.09.2022
1723 Clear 12 1021 64 10000 1.03 90 20:18 22.09.2022
1724 Clear 16 1021 50 10000 2.06 100 18:30 22.09.2022
1725 Clouds 18 1023 52 10000 2.57 160 14:48 22.09.2022
1726 Clear 13 1024 76 10000 1.54 120 10:38 22.09.2022
1727 Clear 12 1024 79 10000 1.54 130 10:18 22.09.2022
1728 Fog 6 1024 85 4600 1.54 90 07:48 22.09.2022
1729 Clouds 6 1025 93 3400 0 0 04:37 22.09.2022
1730 Clouds 8 1026 74 10000 1.54 80 00:25 22.09.2022
1731 Clouds 10 1026 90 10000 0 0 22:28 21.09.2022
1732 Clear 11 1025 71 10000 0 0 20:55 21.09.2022
1733 Clear 16 1025 48 10000 2.06 270 18:34 21.09.2022
1734 Clear 17 1025 47 10000 2.57 320 17:39 21.09.2022
1735 Clear 17 1025 58 10000 2.06 0 15:35 21.09.2022
1736 Clouds 16 1026 61 10000 2.06 290 13:39 21.09.2022
1737 Clouds 13 1026 79 10000 1.54 0 11:34 21.09.2022
1738 Clouds 12 1026 81 10000 2.06 270 10:52 21.09.2022
1739 Clouds 10 1027 80 10000 2.06 270 09:39 21.09.2022
1740 Fog 6 1026 94 6000 0 0 08:24 21.09.2022
1741 Clouds 6 1025 91 400 1.03 0 03:51 21.09.2022
1742 Clear 7 1025 92 1100 0 0 02:38 21.09.2022
1743 Clear 7 1024 85 10000 1.03 0 01:52 21.09.2022
1744 Clouds 8 1024 84 10000 0 0 00:19 21.09.2022
1745 Clouds 9 1023 88 10000 0 0 21:52 20.09.2022
1746 Clear 10 1023 78 10000 0 0 20:32 20.09.2022
1747 Clouds 13 1021 66 10000 0.89 258 18:41 20.09.2022
1748 Clouds 15 1020 63 10000 3.09 260 15:37 20.09.2022
1749 Clouds 15 1021 64 10000 2.57 310 14:18 20.09.2022
1750 Clouds 12 1021 82 10000 4.12 290 11:51 20.09.2022
1751 Mist 10 1019 86 3000 3.09 300 08:44 20.09.2022
1752 Mist 9 1019 88 2500 3.09 280 08:23 20.09.2022
1753 Clouds 9 1018 88 10000 3.6 280 04:37 20.09.2022
1754 Clouds 9 1017 85 10000 3.09 270 02:24 20.09.2022
1755 Rain 10 1017 85 10000 3.6 270 22:44 19.09.2022
1756 Rain 11 1017 81 10000 1.54 260 21:28 19.09.2022
1757 Clouds 11 1017 81 10000 3.09 270 20:40 19.09.2022
1758 Clouds 11 1016 84 10000 2.06 10 19:20 19.09.2022
1759 Clouds 13 1015 75 10000 4.63 280 17:37 19.09.2022
1760 Clouds 16 1014 62 10000 5.66 290 13:49 19.09.2022
1761 Clouds 15 1014 77 10000 5.14 290 12:26 19.09.2022
1762 Clouds 12 1014 82 10000 4.63 280 10:31 19.09.2022
1763 Clouds 10 1013 90 10000 4.12 280 08:41 19.09.2022
1764 Clouds 10 1010 87 10000 4.63 300 04:26 19.09.2022
1765 Clouds 10 1009 85 10000 4.63 290 01:18 19.09.2022
1766 Clouds 9 1007 86 10000 6.69 280 22:49 18.09.2022
1767 Rain 9 1007 83 10000 4.12 260 21:30 18.09.2022
1768 Rain 9 1007 81 10000 4.12 250 19:58 18.09.2022
1769 Clouds 10 1008 83 10000 5.14 250 17:53 18.09.2022
1770 Rain 11 1008 75 10000 5.66 270 16:59 18.09.2022
1771 Rain 11 1009 67 10000 4.12 270 15:34 18.09.2022
1772 Clouds 13 1008 74 10000 8.23 270 13:47 18.09.2022
1773 Clouds 13 1008 82 10000 7.2 270 12:33 18.09.2022
1774 Rain 12 1009 77 10000 6.69 270 10:45 18.09.2022
1775 Clouds 9 1009 86 10000 5.66 280 03:40 18.09.2022
1776 Clouds 10 1008 83 10000 7.2 280 01:24 18.09.2022
1777 Clouds 10 1008 86 10000 7.2 280 00:23 18.09.2022
1778 Rain 10 1007 92 10000 7.2 290 21:39 17.09.2022
1779 Rain 10 1007 92 10000 6.17 280 19:42 17.09.2022
1780 Clouds 10 1006 83 10000 7.2 270 18:57 17.09.2022
1781 Rain 11 1008 81 10000 4.63 310 15:58 17.09.2022
1782 Rain 15 1007 47 10000 4.02 360 13:56 17.09.2022
1783 Clouds 13 1007 63 10000 7.2 280 10:57 17.09.2022
1784 Clouds 11 1007 84 10000 6.69 280 09:27 17.09.2022
1785 Clouds 11 1006 88 10000 6.17 280 06:25 17.09.2022
1786 Clouds 12 1005 73 10000 6.69 270 00:20 17.09.2022
1787 Clouds 12 1005 68 10000 7.2 270 22:54 16.09.2022
1788 Clouds 13 1004 70 10000 7.2 270 21:23 16.09.2022
1789 Clear 13 1004 57 10000 6.69 260 19:51 16.09.2022
1790 Clouds 15 1005 53 10000 5.66 260 16:56 16.09.2022
1791 Clouds 16 1005 53 10000 7.72 260 15:34 16.09.2022
1792 Clouds 17 1005 44 10000 9.26 270 13:57 16.09.2022
1793 Clouds 15 1006 54 10000 7.72 260 11:43 16.09.2022
1794 Clouds 12 1006 77 10000 4.63 270 08:26 16.09.2022
1795 Clouds 11 1006 80 10000 3.6 260 07:19 16.09.2022
1796 Clouds 11 1006 85 10000 3.6 260 06:47 16.09.2022
1797 Clouds 11 1006 78 10000 4.12 260 02:52 16.09.2022
1798 Clouds 13 1006 73 10000 2.68 360 22:57 15.09.2022
1799 Clouds 14 1005 79 10000 3.58 360 21:19 15.09.2022
1800 Clear 15 1005 66 10000 3.6 290 19:57 15.09.2022
1801 Clear 17 1004 50 10000 6.69 290 18:30 15.09.2022
1802 Clouds 17 1005 52 10000 4.12 320 17:33 15.09.2022
1803 Clouds 17 1005 50 10000 7.72 280 16:51 15.09.2022
1804 Clouds 17 1005 54 10000 6.17 280 14:41 15.09.2022
1805 Clouds 17 1004 60 10000 6.17 270 12:48 15.09.2022
1806 Clouds 14 1004 82 10000 4.63 270 10:21 15.09.2022
1807 Clouds 12 1004 94 7000 2.57 270 07:51 15.09.2022
1808 Clouds 12 1004 86 10000 2.57 270 03:58 15.09.2022
1809 Clouds 13 1004 85 10000 2.06 260 01:27 15.09.2022
1810 Clouds 14 1004 79 10000 2.06 250 22:26 14.09.2022
1811 Clear 15 1003 74 10000 0 0 19:59 14.09.2022
1812 Clear 16 1003 70 10000 0 0 19:26 14.09.2022
1813 Clear 18 1003 59 10000 1.03 0 17:25 14.09.2022
1814 Clear 18 1004 59 10000 0 0 15:56 14.09.2022
1815 Clear 18 1005 56 10000 0.51 0 14:34 14.09.2022
1816 Clear 17 1006 74 10000 0.45 98 11:54 14.09.2022
1817 Clear 14 1006 83 10000 0 0 09:48 14.09.2022
1818 Clear 12 1007 90 10000 0 0 07:39 14.09.2022
1819 Clear 11 1006 90 10000 0 0 06:47 14.09.2022
1820 Clouds 12 1007 92 10000 0 0 04:52 14.09.2022
1821 Clouds 13 1008 88 10000 0 0 01:51 14.09.2022
1822 Clouds 13 1008 88 10000 0 0 01:29 14.09.2022
1823 Clouds 13 1008 88 10000 0 0 01:29 14.09.2022
1824 Clouds 13 1008 81 10000 0 0 00:52 14.09.2022
1825 Clouds 14 1008 78 10000 0.45 360 23:54 13.09.2022
1826 Clouds 14 1008 79 10000 0 0 23:36 13.09.2022
1827 Clouds 14 1008 77 10000 0.89 352 23:18 13.09.2022
1828 Clouds 15 1008 82 10000 2.57 310 22:21 13.09.2022
1829 Clear 18 1008 78 10000 2.06 290 20:21 13.09.2022
1830 Clouds 21 1008 64 10000 5.14 280 18:20 13.09.2022
1831 Clouds 20 1008 69 10000 3.09 300 15:56 13.09.2022
1832 Clouds 20 1008 68 10000 3.6 320 14:36 13.09.2022
1833 Clouds 20 1008 67 10000 3.13 360 13:20 13.09.2022
1834 Clouds 17 1008 85 10000 2.06 240 09:23 13.09.2022
1835 Clouds 15 1009 78 10000 2.06 210 06:59 13.09.2022
1836 Clouds 15 1011 75 10000 2.57 120 00:30 13.09.2022
1837 Clouds 15 1012 80 10000 1.54 100 22:51 12.09.2022
1838 Clouds 15 1012 79 10000 2.06 100 22:22 12.09.2022
1839 Clear 17 1013 64 10000 1.54 90 20:42 12.09.2022
1840 Clear 21 1013 59 10000 1.54 140 18:52 12.09.2022
1841 Clear 22 1014 43 10000 2.06 150 17:42 12.09.2022
1842 Clear 22 1015 46 10000 2.06 100 14:54 12.09.2022
1843 Clouds 20 1016 67 10000 1.54 0 11:51 12.09.2022
1844 Clear 16 1017 81 10000 1.03 0 09:57 12.09.2022
1845 Clouds 11 1017 92 8000 1.03 90 05:50 12.09.2022
1846 Clouds 12 1018 82 8000 1.03 100 04:30 12.09.2022
1847 Clouds 14 1018 86 10000 0 0 23:58 11.09.2022
1848 Clouds 15 1018 83 10000 1.54 250 22:43 11.09.2022
1849 Clouds 16 1018 73 10000 0 0 21:19 11.09.2022
1850 Clear 16 1018 71 10000 1.03 0 20:42 11.09.2022
1851 Clear 19 1017 65 10000 4.12 290 19:26 11.09.2022
1852 Clouds 20 1017 66 10000 4.12 310 18:38 11.09.2022
1853 Clouds 20 1018 58 10000 5.14 280 16:57 11.09.2022
1854 Clouds 20 1018 61 10000 4.63 280 15:44 11.09.2022
1855 Clouds 20 1018 72 10000 3.09 290 13:18 11.09.2022
1856 Drizzle 15 1018 92 2800 2.06 320 10:35 11.09.2022
1857 Clouds 13 1016 91 2300 2.57 320 07:49 11.09.2022
1858 Clouds 13 1015 88 10000 1.54 320 04:36 11.09.2022
1859 Clouds 16 1013 79 10000 0 0 23:48 10.09.2022
1860 Clouds 17 1013 75 10000 0 0 21:38 10.09.2022
1861 Clear 18 1012 67 10000 2.06 270 20:24 10.09.2022
1862 Clear 19 1012 63 10000 2.57 260 19:43 10.09.2022
1863 Clouds 19 1012 62 10000 3.09 250 19:24 10.09.2022
1864 Clouds 20 1011 57 10000 2.06 0 17:27 10.09.2022
1865 Clear 21 1011 65 10000 3.09 220 15:35 10.09.2022
1866 Clouds 21 1011 61 10000 3.6 200 13:36 10.09.2022
1867 Clouds 21 1011 61 10000 2.57 230 12:29 10.09.2022
1868 Clouds 18 1012 69 10000 2.57 210 10:28 10.09.2022
1869 Clouds 16 1011 80 10000 2.57 250 08:41 10.09.2022
1870 Clouds 15 1011 86 10000 1.54 230 08:20 10.09.2022
1871 Clouds 14 1011 86 10000 1.34 360 03:48 10.09.2022
1872 Clouds 16 1011 73 10000 0 0 23:36 09.09.2022
1873 Clouds 16 1010 74 10000 1.54 90 22:36 09.09.2022
1874 Clear 17 1010 69 10000 2.57 90 20:50 09.09.2022
1875 Clear 18 1009 67 10000 2.06 110 20:19 09.09.2022
1876 Clear 20 1009 66 10000 1.54 90 19:22 09.09.2022
1877 Clear 21 1009 63 10000 2.57 300 17:29 09.09.2022
1878 Clouds 22 1009 55 10000 3.09 270 15:19 09.09.2022
1879 Clouds 22 1009 62 10000 3.6 210 13:31 09.09.2022
1880 Clear 19 1010 76 10000 3.09 190 10:42 09.09.2022
1881 Clear 19 1010 76 10000 3.09 190 10:42 09.09.2022
1882 Clear 14 1009 90 10000 2.57 170 07:57 09.09.2022
1883 Clouds 14 1009 92 10000 1.03 0 03:37 09.09.2022
1884 Clouds 15 1009 90 10000 2.57 170 22:40 08.09.2022
1885 Clouds 15 1009 98 2900 1.54 120 21:51 08.09.2022
1886 Clouds 15 1008 92 10000 0.51 0 20:49 08.09.2022
1887 Clear 15 1008 96 10000 1.03 230 20:27 08.09.2022
1888 Clouds 17 1008 89 10000 3.09 280 19:18 08.09.2022
1889 Rain 17 1008 91 10000 3.09 260 17:29 08.09.2022
1890 Rain 17 1007 93 8000 3.09 270 15:53 08.09.2022
1891 Rain 17 1007 91 6000 2.06 210 13:30 08.09.2022
1892 Rain 18 1007 88 6000 1.03 0 12:42 08.09.2022
1893 Rain 18 1007 90 9000 0 0 11:24 08.09.2022
1894 Clouds 17 1007 91 7000 1.54 120 09:57 08.09.2022
1895 Mist 15 1008 90 2300 1.54 70 07:38 08.09.2022
1896 Clouds 15 1009 90 10000 1.65 89 04:53 08.09.2022
1897 Clouds 16 1010 94 10000 0.85 176 02:36 08.09.2022
1898 Clouds 16 1010 93 10000 1.03 186 02:18 08.09.2022
1899 Clouds 18 1011 86 10000 0.45 26 00:21 08.09.2022
1900 Rain 19 1011 75 10000 0.89 99 21:58 07.09.2022
1901 Clouds 19 1011 74 10000 0.89 76 21:38 07.09.2022
1902 Rain 19 1012 74 2000 5.14 10 20:30 07.09.2022
1903 Clouds 21 1011 65 10000 1.54 0 19:26 07.09.2022
1904 Rain 26 1011 51 10000 1.54 40 17:22 07.09.2022
1905 Clear 20 1013 77 10000 1.03 0 11:32 07.09.2022
1906 Clear 18 1013 80 10000 2.57 190 10:36 07.09.2022
1907 Clear 17 1013 81 10000 1.54 100 08:33 07.09.2022
1908 Clouds 17 1013 78 10000 3.6 110 06:50 07.09.2022
1909 Clouds 18 1015 62 10000 4.12 100 00:53 07.09.2022
1910 Clear 19 1016 65 10000 4.12 100 22:28 06.09.2022
1911 Clear 20 1016 64 10000 3.09 90 21:38 06.09.2022
1912 Clear 23 1015 50 10000 4.63 90 19:57 06.09.2022
1913 Clear 25 1016 48 10000 4.63 90 18:42 06.09.2022
1914 Clear 26 1015 35 10000 4.63 90 17:56 06.09.2022
1915 Clear 26 1015 40 10000 5.66 90 17:20 06.09.2022
1916 Clear 26 1015 39 10000 5.66 100 16:37 06.09.2022
1917 Clear 25 1017 37 10000 4.12 90 14:55 06.09.2022
1918 Clear 23 1017 51 10000 4.63 100 13:44 06.09.2022
1919 Clear 23 1017 51 10000 4.63 100 13:44 06.09.2022
1920 Clear 23 1017 51 10000 4.63 100 13:44 06.09.2022
1921 Clear 21 1018 49 10000 4.63 80 13:20 06.09.2022
1922 Clear 18 1019 68 10000 3.6 90 11:29 06.09.2022
1923 Clear 18 1018 60 10000 4.12 110 10:33 06.09.2022
1924 Clear 16 1018 57 10000 5.14 110 08:29 06.09.2022
1925 Clouds 16 1018 58 10000 5.14 90 06:58 06.09.2022
1926 Clouds 18 1019 59 10000 3.09 110 02:34 06.09.2022
1927 Clear 20 1020 48 10000 4.63 90 23:21 05.09.2022
1928 Clear 21 1020 57 10000 5.66 100 21:50 05.09.2022
1929 Rain 22 1020 54 10000 4.63 100 20:32 05.09.2022
1930 Clear 25 1020 48 10000 5.14 100 19:18 05.09.2022
1931 Clear 26 1020 42 10000 5.14 90 18:44 05.09.2022
1932 Clear 26 1020 35 10000 5.14 90 18:21 05.09.2022
1933 Clear 27 1020 35 10000 5.14 110 16:35 05.09.2022
1934 Clear 27 1020 40 10000 5.66 110 15:46 05.09.2022
1935 Clear 26 1021 39 10000 6.17 110 13:25 05.09.2022
1936 Clear 25 1022 42 10000 5.66 110 12:27 05.09.2022
1937 Clear 20 1023 60 10000 6.17 100 09:44 05.09.2022
1938 Clouds 16 1022 68 10000 4.63 90 06:41 05.09.2022
1939 Clouds 18 1021 58 10000 3.09 90 02:19 05.09.2022
1940 Clouds 20 1021 48 10000 3.09 100 23:18 04.09.2022
1941 Clouds 20 1021 47 10000 3.13 360 22:27 04.09.2022
1942 Clear 22 1020 46 10000 2.06 80 20:50 04.09.2022
1943 Clear 24 1020 40 10000 3.6 100 19:38 04.09.2022
1944 Clear 25 1020 39 10000 3.6 90 18:19 04.09.2022
1945 Clear 26 1019 37 10000 3.09 100 16:56 04.09.2022
1946 Clear 26 1019 37 10000 4.63 100 14:33 04.09.2022
1947 Clear 25 1019 38 10000 5.14 110 13:49 04.09.2022
1948 Clear 23 1020 48 10000 4.63 110 12:18 04.09.2022
1949 Clear 20 1020 48 10000 3.6 110 10:47 04.09.2022
1950 Clouds 14 1019 74 10000 3.6 80 08:20 04.09.2022
1951 Clouds 12 1017 73 10000 3.09 90 05:36 04.09.2022
1952 Clouds 15 1016 54 10000 2.06 90 00:53 04.09.2022
1953 Clouds 17 1016 45 10000 3.09 90 22:26 03.09.2022
1954 Clouds 19 1015 47 10000 3.09 80 21:23 03.09.2022
1955 Clear 21 1015 40 10000 4.63 90 19:56 03.09.2022
1956 Clear 24 1014 30 10000 6.17 110 17:29 03.09.2022
1957 Clear 24 1014 30 10000 5.66 120 16:33 03.09.2022
1958 Clear 23 1015 31 10000 6.17 110 14:46 03.09.2022
1959 Clear 23 1015 31 10000 6.17 130 14:26 03.09.2022
1960 Clear 23 1015 35 10000 7.72 110 13:21 03.09.2022
1961 Clear 20 1016 42 10000 5.66 100 10:55 03.09.2022
1962 Clouds 15 1016 53 10000 4.12 100 08:41 03.09.2022
1963 Clear 12 1016 68 10000 2.57 90 06:59 03.09.2022
1964 Clouds 13 1016 63 10000 2.57 90 04:40 03.09.2022
1965 Clouds 16 1017 57 10000 3.09 90 00:46 03.09.2022
1966 Clouds 17 1017 54 10000 3.09 90 23:28 02.09.2022
1967 Clear 17 1017 43 10000 2.57 80 21:33 02.09.2022
1968 Clear 19 1016 39 10000 4.12 100 20:39 02.09.2022
1969 Clear 21 1016 38 10000 5.66 100 19:35 02.09.2022
1970 Clear 22 1016 36 10000 6.69 100 18:43 02.09.2022
1971 Clear 23 1016 32 10000 4.63 130 18:24 02.09.2022
1972 Clear 23 1017 34 10000 5.66 100 16:51 02.09.2022
1973 Clear 24 1017 31 10000 5.66 120 15:48 02.09.2022
1974 Clear 22 1018 35 10000 6.17 110 12:56 02.09.2022
1975 Clear 20 1020 55 10000 4.12 100 10:37 02.09.2022
1976 Clear 17 1020 64 10000 3.6 100 09:41 02.09.2022
1977 Clear 15 1020 67 10000 3.6 100 08:42 02.09.2022
1978 Clear 11 1020 82 10000 2.57 80 06:43 02.09.2022
1979 Clouds 11 1020 73 10000 1.54 90 04:58 02.09.2022
1980 Clear 15 1021 55 10000 1.79 360 22:58 01.09.2022
1981 Clear 16 1021 49 10000 2.57 80 21:46 01.09.2022
1982 Clear 16 1021 55 10000 1.54 80 21:26 01.09.2022
1983 Clear 18 1021 51 10000 1.54 50 20:49 01.09.2022
1984 Clear 21 1020 38 10000 3.6 90 19:24 01.09.2022
1985 Clear 22 1021 35 10000 4.63 90 18:18 01.09.2022
1986 Clear 23 1021 31 10000 3.09 60 16:47 01.09.2022
1987 Clear 23 1022 37 10000 4.12 90 14:51 01.09.2022
1988 Clear 22 1022 40 10000 4.12 90 13:21 01.09.2022
1989 Clear 22 1022 41 10000 3.6 100 12:50 01.09.2022
1990 Clear 21 1023 43 10000 3.6 90 11:51 01.09.2022
1991 Clear 20 1023 46 10000 3.6 100 11:19 01.09.2022
1992 Clear 15 1023 66 10000 2.06 80 09:31 01.09.2022
1993 Clouds 11 1022 88 10000 0 0 06:31 01.09.2022
1994 Clear 12 1023 71 10000 1.54 70 02:34 01.09.2022
1995 Clouds 13 1023 69 10000 1.54 40 01:30 01.09.2022
1996 Clouds 13 1023 69 10000 1.54 40 01:30 01.09.2022
1997 Clouds 15 1022 59 10000 1.03 0 22:22 31.08.2022
1998 Clear 19 1022 48 10000 2.57 80 20:35 31.08.2022
1999 Clear 22 1021 39 10000 4.02 55 18:45 31.08.2022
2000 Clear 23 1022 39 10000 3.6 70 16:36 31.08.2022
2001 Clear 23 1022 40 10000 4.63 120 15:21 31.08.2022
2002 Clear 21 1023 51 10000 3.6 70 12:58 31.08.2022
2003 Clouds 20 1024 62 10000 3.6 80 11:54 31.08.2022
2004 Clear 16 1023 66 10000 3.09 90 09:35 31.08.2022
2005 Clear 13 1023 75 10000 1.54 70 07:31 31.08.2022
2006 Clouds 15 1022 75 10000 2.57 80 02:47 31.08.2022
2007 Clouds 17 1021 60 10000 2.57 70 22:21 30.08.2022
2008 Clouds 18 1021 63 10000 2.57 70 21:28 30.08.2022
2009 Clear 19 1021 55 10000 2.57 70 20:26 30.08.2022
2010 Clouds 24 1020 43 10000 1.79 59 16:48 30.08.2022
2011 Clouds 23 1022 56 10000 1.54 0 13:51 30.08.2022
2012 Clouds 20 1022 73 10000 1.54 90 11:58 30.08.2022
2013 Clouds 18 1023 73 10000 0.51 0 11:20 30.08.2022
2014 Clouds 16 1022 87 8000 1.03 0 09:39 30.08.2022
2015 Clouds 13 1021 87 550 1.03 0 06:48 30.08.2022
2016 Clouds 15 1021 78 10000 1.03 0 01:18 30.08.2022
2017 Clouds 17 1020 68 10000 2.57 50 22:38 29.08.2022
2018 Clouds 19 1020 69 10000 2.57 50 21:54 29.08.2022
2019 Clear 20 1020 62 10000 1.03 0 20:47 29.08.2022
2020 Clear 23 1018 46 10000 2.06 310 19:35 29.08.2022
2021 Clouds 24 1019 42 10000 3.09 260 17:39 29.08.2022
2022 Clear 24 1019 42 10000 3.09 0 17:18 29.08.2022
2023 Clouds 23 1020 55 10000 4.12 310 15:38 29.08.2022
2024 Clouds 22 1021 54 10000 3.6 300 13:58 29.08.2022
2025 Clouds 21 1021 68 10000 3.09 250 12:34 29.08.2022
2026 Clouds 18 1021 75 10000 3.6 280 10:49 29.08.2022
2027 Clouds 16 1021 69 10000 3.6 280 09:30 29.08.2022
2028 Clouds 14 1020 73 10000 3.6 260 07:35 29.08.2022
2029 Clear 12 1019 73 10000 2.06 280 02:42 29.08.2022
2030 Clear 14 1019 63 10000 2.06 270 23:50 28.08.2022
2031 Clear 16 1019 57 10000 0.45 330 22:22 28.08.2022
2032 Clear 16 1019 61 10000 2.06 310 21:32 28.08.2022
2033 Clear 19 1019 42 10000 3.6 310 20:39 28.08.2022
2034 Clear 22 1018 38 10000 5.14 320 18:51 28.08.2022
2035 Clear 22 1017 38 10000 5.66 310 18:19 28.08.2022
2036 Clear 23 1017 38 10000 5.66 300 16:57 28.08.2022
2037 Clear 23 1017 45 10000 5.66 310 15:50 28.08.2022
2038 Clouds 22 1018 42 10000 5.66 290 14:21 28.08.2022
2039 Clouds 20 1018 52 10000 4.63 320 12:31 28.08.2022
2040 Clouds 17 1018 63 10000 4.63 310 10:42 28.08.2022
2041 Clouds 17 1018 67 10000 4.12 300 09:41 28.08.2022
2042 Clouds 15 1017 81 10000 4.12 290 08:36 28.08.2022
2043 Clouds 14 1017 84 10000 3.09 290 07:41 28.08.2022
2044 Clouds 15 1016 72 10000 3.09 290 02:31 28.08.2022
2045 Clouds 17 1016 74 10000 3.6 320 00:25 28.08.2022
2046 Clouds 19 1016 64 10000 3.09 310 22:32 27.08.2022
2047 Clouds 19 1015 65 10000 1.54 300 21:24 27.08.2022
2048 Clouds 21 1015 59 10000 4.12 320 19:40 27.08.2022
2049 Clouds 21 1014 70 10000 3.6 310 16:48 27.08.2022
2050 Clouds 20 1014 72 10000 4.12 320 15:52 27.08.2022
2051 Clouds 20 1014 74 10000 4.12 320 15:23 27.08.2022
2052 Clouds 20 1014 80 10000 4.12 300 12:23 27.08.2022
2053 Clouds 19 1014 88 10000 3.09 300 11:24 27.08.2022
2054 Clouds 19 1014 86 10000 4.12 300 09:42 27.08.2022
2055 Clouds 18 1013 86 10000 4.63 310 07:31 27.08.2022
2056 Clouds 19 1013 87 10000 3.6 310 02:34 27.08.2022
2057 Clouds 19 1013 86 10000 1.54 310 23:55 26.08.2022
2058 Clouds 20 1012 78 10000 1.54 0 22:37 26.08.2022
2059 Clouds 22 1012 76 10000 1.79 360 20:42 26.08.2022
2060 Clouds 22 1012 65 10000 3.09 100 19:23 26.08.2022
2061 Clouds 27 1011 53 10000 3.6 10 16:46 26.08.2022
2062 Clouds 29 1011 48 10000 2.06 320 15:31 26.08.2022
2063 Clear 29 1012 50 10000 1.03 0 14:29 26.08.2022
2064 Clear 28 1012 56 10000 1.54 0 12:49 26.08.2022
2065 Clear 26 1013 58 10000 1.54 0 11:27 26.08.2022
2066 Clear 26 1014 61 10000 1.03 0 10:29 26.08.2022
2067 Clear 19 1013 80 10000 2.06 90 07:28 26.08.2022
2068 Clear 19 1013 80 10000 2.06 90 07:28 26.08.2022
2069 Clouds 21 1014 71 10000 2.57 90 01:41 26.08.2022
2070 Clouds 22 1015 76 10000 2.06 90 23:41 25.08.2022
2071 Clear 24 1015 56 10000 2.06 70 21:36 25.08.2022
2072 Clear 26 1015 55 10000 2.57 80 20:30 25.08.2022
2073 Clear 28 1014 44 10000 4.63 110 18:55 25.08.2022
2074 Clear 29 1015 43 10000 5.14 100 17:50 25.08.2022
2075 Clear 29 1015 44 10000 5.14 90 17:31 25.08.2022
2076 Clouds 29 1016 44 10000 5.14 100 15:43 25.08.2022
2077 Clouds 29 1016 44 10000 5.66 100 15:25 25.08.2022
2078 Clouds 26 1018 59 10000 4.12 100 11:55 25.08.2022
2079 Clear 25 1019 58 10000 3.09 90 10:48 25.08.2022
2080 Clear 21 1019 81 10000 3.09 90 09:20 25.08.2022
2081 Clear 17 1019 87 10000 2.57 70 05:39 25.08.2022
2082 Clear 18 1020 66 10000 2.57 80 01:42 25.08.2022
2083 Clouds 20 1020 68 10000 2.06 90 23:26 24.08.2022
2084 Clouds 22 1020 53 10000 2.06 80 22:41 24.08.2022
2085 Clear 23 1020 46 10000 2.06 80 21:36 24.08.2022
2086 Clear 25 1019 39 10000 3.09 80 20:55 24.08.2022
2087 Clear 29 1019 35 10000 3.6 100 19:19 24.08.2022
2088 Clear 30 1019 33 10000 3.6 0 16:47 24.08.2022
2089 Clear 31 1019 29 10000 4.12 100 15:52 24.08.2022
2090 Clear 29 1019 31 10000 2.57 0 13:46 24.08.2022
2091 Clear 27 1020 37 10000 3.6 0 11:50 24.08.2022
2092 Clear 25 1020 48 10000 3.09 130 10:34 24.08.2022
2093 Clear 18 1020 76 10000 2.57 90 08:25 24.08.2022
2094 Clouds 17 1018 65 10000 2.06 100 03:32 24.08.2022
2095 Clouds 20 1019 53 10000 2.06 80 23:35 23.08.2022
2096 Clouds 22 1018 46 10000 2.57 90 22:33 23.08.2022
2097 Clouds 23 1018 42 10000 1.34 360 21:39 23.08.2022
2098 Clear 25 1017 36 10000 3.09 110 20:31 23.08.2022
2099 Clear 28 1017 32 10000 3.6 110 18:53 23.08.2022
2100 Clear 28 1017 31 10000 3.6 140 17:51 23.08.2022
2101 Clear 28 1017 31 10000 3.6 110 17:18 23.08.2022
2102 Clear 28 1017 31 10000 4.12 120 15:49 23.08.2022
2103 Clear 27 1017 35 10000 4.63 110 13:36 23.08.2022
2104 Clear 26 1018 38 10000 5.14 110 12:45 23.08.2022
2105 Clear 24 1018 51 10000 4.12 120 10:53 23.08.2022
2106 Clear 24 1018 52 10000 4.12 120 10:32 23.08.2022
2107 Clear 20 1018 67 10000 2.06 110 08:55 23.08.2022
2108 Clear 17 1018 76 10000 2.57 100 08:22 23.08.2022
2109 Clear 17 1017 70 10000 0.89 360 07:48 23.08.2022
2110 Clear 15 1017 83 10000 1.54 90 07:22 23.08.2022
2111 Clear 14 1017 81 10000 1.34 360 06:19 23.08.2022
2112 Clouds 18 1016 59 10000 2.57 90 01:43 23.08.2022
2113 Clouds 19 1016 63 10000 2.57 90 00:26 23.08.2022
2114 Clouds 20 1016 60 10000 3.09 100 23:30 22.08.2022
2115 Clouds 21 1016 54 10000 2.06 80 22:19 22.08.2022
2116 Clear 26 1015 39 10000 4.63 100 19:56 22.08.2022
2117 Clear 26 1015 36 10000 4.63 100 19:36 22.08.2022
2118 Clear 27 1014 31 10000 3.6 110 18:36 22.08.2022
2119 Clear 28 1015 30 10000 3.09 0 15:45 22.08.2022
2120 Clear 27 1015 31 10000 3.09 90 14:48 22.08.2022
2121 Clear 25 1016 36 10000 2.06 0 11:39 22.08.2022
2122 Clear 18 1016 72 10000 1.54 100 09:24 22.08.2022
2123 Clouds 13 1015 83 10000 0 0 05:44 22.08.2022
2124 Clouds 15 1016 81 10000 0 0 00:56 22.08.2022
2125 Clouds 15 1016 78 10000 0 0 00:36 22.08.2022
2126 Clouds 17 1015 64 10000 0 0 23:21 21.08.2022
2127 Clouds 19 1015 66 10000 1.03 0 21:55 21.08.2022
2128 Clouds 20 1015 61 10000 1.03 0 21:18 21.08.2022
2129 Clear 24 1014 38 10000 3.6 310 19:58 21.08.2022
2130 Clear 26 1014 34 10000 4.12 310 18:36 21.08.2022
2131 Clear 26 1014 36 10000 2.06 310 16:50 21.08.2022
2132 Clear 26 1014 32 10000 3.09 250 15:52 21.08.2022
2133 Clear 26 1015 35 10000 4.12 260 14:51 21.08.2022
2134 Clear 25 1015 41 10000 3.13 259 13:50 21.08.2022
2135 Clear 24 1015 51 10000 4.12 300 12:56 21.08.2022
2136 Clear 22 1016 53 10000 3.09 180 10:40 21.08.2022
2137 Clouds 17 1016 79 10000 2.06 90 08:57 21.08.2022
2138 Clouds 16 1016 75 10000 2.06 90 08:39 21.08.2022
2139 Clouds 15 1016 79 10000 1.54 100 08:18 21.08.2022
2140 Clouds 13 1016 79 1700 1.03 90 06:37 21.08.2022
2141 Clouds 17 1016 73 10000 1.54 40 01:50 21.08.2022
2142 Clouds 18 1017 81 10000 2.06 50 23:34 20.08.2022
2143 Clouds 20 1016 67 10000 0 0 21:55 20.08.2022
2144 Clear 21 1016 59 10000 0 0 20:56 20.08.2022
2145 Clear 23 1015 56 10000 0.51 0 19:44 20.08.2022
2146 Clear 23 1015 63 10000 1.54 40 18:50 20.08.2022
2147 Clear 23 1015 66 10000 2.06 360 18:26 20.08.2022
2148 Clear 24 1015 55 10000 3.6 350 17:21 20.08.2022
2149 Clouds 23 1015 60 10000 3.09 360 16:20 20.08.2022
2150 Clouds 24 1015 56 10000 2.57 320 14:26 20.08.2022
2151 Clouds 23 1015 71 10000 2.57 300 12:19 20.08.2022
2152 Clear 22 1015 72 10000 2.06 300 11:42 20.08.2022
2153 Clear 19 1014 80 10000 2.57 330 09:20 20.08.2022
2154 Clouds 17 1014 90 10000 0.45 0 07:31 20.08.2022
2155 Clouds 17 1013 89 10000 1.03 110 05:22 20.08.2022
2156 Clouds 19 1013 76 10000 0 0 00:58 20.08.2022
2157 Clouds 19 1013 74 10000 0 0 23:51 19.08.2022
2158 Clouds 19 1013 73 10000 1.03 90 22:45 19.08.2022
2159 Clouds 21 1012 65 10000 1.03 80 21:30 19.08.2022
2160 Clear 24 1012 52 10000 2.06 360 19:40 19.08.2022
2161 Clouds 26 1012 48 10000 0.89 308 16:28 19.08.2022
2162 Clouds 24 1012 63 10000 4.12 310 14:22 19.08.2022
2163 Clouds 21 1013 68 10000 4.12 280 12:19 19.08.2022
2164 Clouds 19 1013 81 10000 3.6 290 10:41 19.08.2022
2165 Clouds 19 1013 75 10000 3.09 300 09:36 19.08.2022
2166 Clouds 19 1011 77 10000 3.09 300 04:56 19.08.2022
2167 Clouds 21 1011 82 10000 3.09 330 00:43 19.08.2022
2168 Clouds 21 1011 75 10000 2.57 320 00:20 19.08.2022
2169 Clouds 21 1011 74 10000 2.06 300 22:59 18.08.2022
2170 Clouds 21 1011 75 10000 2.06 280 22:26 18.08.2022
2171 Clouds 21 1011 74 10000 2.57 290 21:51 18.08.2022
2172 Clear 22 1011 72 10000 2.06 310 20:56 18.08.2022
2173 Rain 23 1011 74 10000 2.57 290 19:54 18.08.2022
2174 Clear 23 1011 69 10000 2.06 320 19:21 18.08.2022
2175 Rain 23 1011 60 10000 1.54 340 17:41 18.08.2022
2176 Rain 25 1012 61 10000 3.09 300 16:19 18.08.2022
2177 Clouds 25 1012 45 10000 4.12 290 14:22 18.08.2022
2178 Clear 25 1012 50 10000 4.12 300 13:45 18.08.2022
2179 Clouds 25 1012 57 10000 4.63 310 12:31 18.08.2022
2180 Clouds 24 1012 60 10000 3.6 310 11:21 18.08.2022
2181 Clouds 22 1012 71 10000 4.12 290 09:43 18.08.2022
2182 Clear 19 1011 78 10000 1.54 280 08:31 18.08.2022
2183 Clear 18 1011 81 10000 0 0 07:18 18.08.2022
2184 Clouds 18 1011 79 10000 1.03 100 02:59 18.08.2022
2185 Clouds 20 1010 80 10000 1.03 0 22:51 17.08.2022
2186 Clear 23 1010 64 10000 1.03 0 21:28 17.08.2022
2187 Clear 26 1010 51 10000 2.57 340 19:59 17.08.2022
2188 Clear 28 1009 45 10000 4.63 290 18:58 17.08.2022
2189 Clear 30 1009 33 10000 3.09 100 17:28 17.08.2022
2190 Clear 30 1010 34 10000 3.6 130 16:21 17.08.2022
2191 Clear 31 1010 30 10000 4.12 110 15:18 17.08.2022
2192 Clear 30 1011 38 10000 3.6 120 12:52 17.08.2022
2193 Clear 29 1011 40 10000 3.6 110 11:36 17.08.2022
2194 Clear 24 1011 62 10000 1.54 100 09:31 17.08.2022
2195 Clouds 21 1012 68 10000 1.5 126 07:36 17.08.2022
2196 Clouds 19 1010 68 10000 1.54 100 02:24 17.08.2022
2197 Clouds 20 1011 67 10000 1.03 80 23:49 16.08.2022
2198 Clear 22 1010 69 10000 0 0 21:59 16.08.2022
2199 Clear 25 1009 54 10000 0 0 20:52 16.08.2022
2200 Clear 28 1009 38 10000 2.57 320 19:53 16.08.2022
2201 Clear 29 1008 39 10000 4.12 320 18:34 16.08.2022
2202 Clear 29 1008 40 10000 3.6 260 17:41 16.08.2022
2203 Clear 29 1008 37 10000 3.09 260 15:47 16.08.2022
2204 Clear 29 1008 41 10000 3.09 220 14:55 16.08.2022
2205 Clear 29 1008 41 10000 3.09 220 14:37 16.08.2022
2206 Clouds 27 1008 42 10000 2.57 270 12:44 16.08.2022
2207 Clear 25 1008 52 10000 2.57 250 10:37 16.08.2022
2208 Clear 24 1008 66 10000 3.6 220 09:50 16.08.2022
2209 Clear 21 1008 70 10000 1.34 213 08:47 16.08.2022
2210 Clear 18 1007 80 10000 0.45 218 07:33 16.08.2022
2211 Clouds 19 1006 93 10000 2.06 170 02:19 16.08.2022
2212 Clouds 20 1005 81 6000 0 0 22:31 15.08.2022
2213 Clouds 20 1005 93 10000 0 0 21:55 15.08.2022
2214 Clouds 20 1005 92 10000 0.45 360 21:34 15.08.2022
2215 Clear 21 1004 77 10000 0 0 20:20 15.08.2022
2216 Clear 22 1004 87 10000 1.54 270 18:43 15.08.2022
2217 Clear 22 1004 74 10000 4.12 310 17:46 15.08.2022
2218 Thunderstorm 22 1004 76 10000 2.57 170 16:22 15.08.2022
2219 Clouds 31 1003 39 10000 1.03 0 14:31 15.08.2022
2220 Clear 31 1003 39 10000 3.09 0 12:54 15.08.2022
2221 Clear 28 1004 48 10000 2.57 110 10:23 15.08.2022
2222 Clear 22 1004 53 10000 1.54 190 08:52 15.08.2022
2223 Clouds 19 1004 66 10000 2.06 100 06:34 15.08.2022
2224 Clouds 21 1005 67 10000 1.54 100 03:34 15.08.2022
2225 Clear 24 1006 51 10000 1.03 0 23:27 14.08.2022
2226 Clear 25 1007 44 10000 1.54 100 21:43 14.08.2022
2227 Clear 27 1006 38 10000 2.06 60 20:41 14.08.2022
2228 Clear 29 1006 35 10000 2.06 70 19:45 14.08.2022
2229 Clear 31 1007 30 10000 4.12 120 18:32 14.08.2022
2230 Clear 31 1007 35 10000 4.12 110 17:37 14.08.2022
2231 Clear 31 1008 38 10000 4.63 140 16:23 14.08.2022
2232 Clear 31 1009 38 10000 5.14 160 15:34 14.08.2022
2233 Clear 30 1010 40 10000 5.14 110 13:52 14.08.2022
2234 Clear 30 1010 38 10000 5.14 110 13:33 14.08.2022
2235 Clouds 29 1011 47 10000 4.12 130 12:45 14.08.2022
2236 Clear 27 1011 47 10000 4.12 120 11:30 14.08.2022
2237 Clear 26 1012 57 10000 3.6 110 10:18 14.08.2022
2238 Clouds 21 1012 79 10000 2.57 100 08:18 14.08.2022
2239 Clouds 18 1013 89 10000 1.54 90 06:18 14.08.2022
2240 Clouds 19 1015 71 10000 1.54 110 01:48 14.08.2022
2241 Clouds 19 1015 79 10000 0 0 23:23 13.08.2022
2242 Clouds 21 1015 63 10000 1.54 80 22:28 13.08.2022
2243 Clear 23 1015 65 10000 1.54 90 20:56 13.08.2022
2244 Clear 25 1015 50 10000 1.54 90 19:50 13.08.2022
2245 Clouds 26 1015 41 10000 0.89 56 19:19 13.08.2022
2246 Clear 28 1016 43 10000 5.14 120 17:22 13.08.2022
2247 Clear 30 1017 40 10000 5.66 90 15:18 13.08.2022
2248 Clear 29 1017 36 10000 5.14 100 14:24 13.08.2022
2249 Clear 29 1017 35 10000 3.09 70 13:37 13.08.2022
2250 Clear 28 1018 36 10000 4.12 100 11:49 13.08.2022
2251 Clear 24 1018 45 10000 2.06 90 09:43 13.08.2022
2252 Clear 19 1019 63 10000 0 0 07:50 13.08.2022
2253 Clear 17 1019 53 10000 1.03 100 02:33 13.08.2022
2254 Clear 18 1019 53 10000 1.54 120 23:46 12.08.2022
2255 Clear 22 1019 41 10000 1.03 0 21:40 12.08.2022
2256 Clear 28 1018 27 10000 4.12 100 19:51 12.08.2022
2257 Clear 28 1018 26 10000 3.09 90 19:26 12.08.2022
2258 Clear 30 1018 24 10000 3.09 90 18:37 12.08.2022
2259 Clear 31 1019 22 10000 4.63 100 16:28 12.08.2022
2260 Clear 30 1019 23 10000 3.6 70 15:31 12.08.2022
2261 Clear 30 1020 24 10000 5.14 90 14:27 12.08.2022
2262 Clear 29 1020 26 10000 4.63 120 12:51 12.08.2022
2263 Clear 25 1021 39 10000 2.06 150 09:52 12.08.2022
2264 Clouds 20 1021 43 10000 2.74 127 07:47 12.08.2022
2265 Clouds 17 1021 49 10000 2.63 128 06:31 12.08.2022
2266 Clouds 17 1021 62 10000 1.03 0 02:22 12.08.2022
2267 Clouds 19 1021 56 10000 1.34 360 00:24 12.08.2022
2268 Clouds 20 1021 46 10000 1.03 100 23:35 11.08.2022
2269 Clouds 22 1020 44 10000 2.06 80 22:24 11.08.2022
2270 Clouds 23 1020 39 10000 2.06 80 21:40 11.08.2022
2271 Clear 26 1020 34 10000 2.06 70 20:45 11.08.2022
2272 Clear 27 1020 29 10000 2.06 70 20:18 11.08.2022
2273 Clear 29 1020 27 10000 3.09 0 19:32 11.08.2022
2274 Clear 31 1020 23 10000 3.6 80 17:48 11.08.2022
2275 Clear 31 1021 25 10000 3.09 0 16:35 11.08.2022
2276 Clear 31 1021 24 10000 2.06 0 15:21 11.08.2022
2277 Clear 29 1023 32 10000 3.09 0 12:44 11.08.2022
2278 Clear 24 1024 43 10000 2.06 120 10:27 11.08.2022
2279 Clear 19 1024 52 10000 1.7 115 07:38 11.08.2022
2280 Clouds 15 1024 57 10000 1.03 0 03:53 11.08.2022
2281 Clear 17 1024 58 10000 2.06 100 00:50 11.08.2022
2282 Clear 20 1024 54 10000 1.03 0 22:32 10.08.2022
2283 Clear 21 1024 49 10000 1.54 60 21:34 10.08.2022
2284 Clear 24 1024 40 10000 1.54 60 20:55 10.08.2022
2285 Clear 27 1024 29 10000 2.68 63 19:31 10.08.2022
2286 Clear 28 1024 29 10000 2.68 27 18:23 10.08.2022
2287 Clear 28 1025 32 10000 2.06 120 16:41 10.08.2022
2288 Clear 27 1026 31 10000 2.57 0 13:36 10.08.2022
2289 Clear 26 1027 33 10000 2.57 130 12:46 10.08.2022
2290 Clear 23 1028 52 10000 3.09 100 09:55 10.08.2022
2291 Clear 18 1028 68 10000 2.57 90 08:35 10.08.2022
2292 Clear 14 1028 71 10000 1.03 110 07:20 10.08.2022
2293 Clouds 14 1028 79 10000 2.06 80 03:32 10.08.2022
2294 Clouds 17 1028 55 10000 1.54 80 23:58 09.08.2022
2295 Clouds 18 1027 52 10000 1.54 0 23:25 09.08.2022
2296 Clouds 21 1027 48 10000 1.03 0 21:37 09.08.2022
2297 Clear 24 1027 33 10000 2.06 40 20:40 09.08.2022
2298 Clear 26 1026 32 10000 2.06 0 18:45 09.08.2022
2299 Clear 27 1026 32 10000 2.06 0 17:31 09.08.2022
2300 Clear 27 1026 32 10000 3.09 50 16:42 09.08.2022
2301 Clear 26 1027 38 10000 2.24 39 15:59 09.08.2022
2302 Clear 26 1027 36 10000 3.6 340 14:29 09.08.2022
2303 Clear 23 1028 48 10000 2.24 115 10:45 09.08.2022
2304 Clear 18 1028 67 10000 0.89 54 08:51 09.08.2022
2305 Clear 16 1027 77 10000 1.03 350 07:54 09.08.2022
2306 Clear 13 1027 73 10000 1.68 42 04:43 09.08.2022
2307 Clear 17 1026 59 10000 0.45 0 23:58 08.08.2022
2308 Clear 18 1026 55 10000 1.34 6 22:58 08.08.2022
2309 Clear 18 1026 51 10000 1.34 0 22:35 08.08.2022
2310 Clear 21 1025 53 10000 3.68 45 21:40 08.08.2022
2311 Clear 24 1025 34 10000 3.09 360 19:58 08.08.2022
2312 Clear 25 1024 33 10000 3.13 357 19:31 08.08.2022
2313 Clear 26 1024 32 10000 2.06 0 17:47 08.08.2022
2314 Clear 26 1024 29 10000 3.6 300 15:47 08.08.2022
2315 Clear 26 1024 31 10000 2.57 0 14:46 08.08.2022
2316 Clear 24 1025 32 10000 2.06 0 12:30 08.08.2022
2317 Clear 21 1025 44 10000 1.03 0 10:26 08.08.2022
2318 Clear 15 1024 74 10000 0 0 07:51 08.08.2022
2319 Clear 12 1024 70 10000 1.03 0 03:42 08.08.2022
2320 Clouds 16 1023 61 10000 1.03 110 23:28 07.08.2022
2321 Clouds 18 1023 50 10000 1.03 0 21:41 07.08.2022
2322 Clear 21 1023 42 10000 1.03 0 20:55 07.08.2022
2323 Clear 23 1022 36 10000 2.06 350 20:18 07.08.2022
2324 Clear 23 1022 33 10000 2.06 340 19:51 07.08.2022
2325 Clouds 24 1022 31 10000 1.34 4 19:22 07.08.2022
2326 Clear 25 1022 33 10000 2.24 61 17:31 07.08.2022
2327 Clouds 25 1023 34 10000 0.89 337 16:52 07.08.2022
2328 Clear 25 1023 31 10000 2.57 0 15:39 07.08.2022
2329 Clear 23 1024 34 10000 3.09 280 13:58 07.08.2022
2330 Clear 22 1025 36 10000 2.06 0 12:41 07.08.2022
2331 Clear 21 1026 52 10000 1.54 0 10:51 07.08.2022
2332 Clear 19 1026 52 10000 1.54 0 10:20 07.08.2022
2333 Clouds 10 1026 79 10000 0 0 04:38 07.08.2022
2334 Clear 11 1027 77 10000 1.54 110 02:25 07.08.2022
2335 Clear 15 1027 61 10000 1.03 0 22:39 06.08.2022
2336 Clear 15 1027 61 10000 1.03 0 22:18 06.08.2022
2337 Clear 21 1026 42 10000 3.6 320 19:46 06.08.2022
2338 Clear 22 1026 34 10000 4.12 330 18:50 06.08.2022
2339 Clear 23 1025 34 10000 3.09 300 17:48 06.08.2022
2340 Clear 22 1026 36 10000 3.09 340 16:29 06.08.2022
2341 Clouds 21 1026 39 10000 2.57 0 13:51 06.08.2022
2342 Clouds 21 1027 51 10000 2.57 310 12:46 06.08.2022
2343 Clear 19 1027 50 10000 0.89 326 11:21 06.08.2022
2344 Clear 17 1027 64 10000 2.57 290 09:49 06.08.2022
2345 Clear 12 1026 90 10000 2.06 260 07:35 06.08.2022
2346 Clouds 12 1023 75 10000 1.54 280 02:22 06.08.2022
2347 Clouds 16 1021 56 10000 4.12 310 22:40 05.08.2022
2348 Clouds 18 1020 59 10000 4.63 310 21:36 05.08.2022
2349 Clouds 19 1019 65 10000 3.6 290 19:29 05.08.2022
2350 Clear 19 1019 66 10000 3.6 300 18:44 05.08.2022
2351 Clouds 19 1018 70 10000 3.6 310 17:26 05.08.2022
2352 Clouds 18 1018 81 10000 3.09 330 16:43 05.08.2022
2353 Clouds 22 1016 68 10000 4.12 330 15:21 05.08.2022
2354 Clouds 24 1014 71 10000 3.6 310 13:53 05.08.2022
2355 Clouds 24 1014 71 10000 3.6 300 13:22 05.08.2022
2356 Clouds 23 1015 70 9000 2.57 330 12:24 05.08.2022
2357 Clouds 20 1014 84 8000 1.54 60 10:35 05.08.2022
2358 Clouds 19 1014 87 10000 0.45 280 07:58 05.08.2022
2359 Rain 19 1014 83 10000 2.57 260 05:32 05.08.2022
2360 Rain 23 1014 60 10000 2.06 350 00:30 05.08.2022
2361 Clouds 24 1013 58 10000 1.54 290 22:26 04.08.2022
2362 Clouds 26 1012 50 10000 1.54 310 21:26 04.08.2022
2363 Clear 27 1012 47 10000 3.09 320 20:42 04.08.2022
2364 Rain 30 1011 46 10000 5.14 300 19:40 04.08.2022
2365 Clouds 33 1010 43 10000 4.86 265 18:36 04.08.2022
2366 Rain 35 1011 27 10000 4.12 230 17:38 04.08.2022
2367 Clear 36 1012 25 10000 3.6 180 14:23 04.08.2022
2368 Clear 35 1012 28 10000 3.6 160 12:57 04.08.2022
2369 Clear 33 1013 28 10000 2.68 138 11:18 04.08.2022
2370 Clear 25 1013 58 10000 0 0 07:54 04.08.2022
2371 Clear 20 1014 77 10000 1.54 90 06:40 04.08.2022
2372 Clear 20 1014 67 10000 2.06 100 02:33 04.08.2022
2373 Clouds 22 1014 62 10000 1.54 110 23:45 03.08.2022
2374 Clouds 23 1014 63 10000 1.54 100 22:59 03.08.2022
2375 Clear 28 1014 47 10000 0.45 0 20:50 03.08.2022
2376 Clear 30 1014 45 10000 1.54 290 19:46 03.08.2022
2377 Clear 31 1014 33 10000 1.03 0 18:37 03.08.2022
2378 Clear 33 1014 29 10000 3.6 270 16:26 03.08.2022
2379 Clear 33 1015 30 10000 2.57 220 15:45 03.08.2022
2380 Clear 31 1016 38 10000 4.12 250 12:44 03.08.2022
2381 Clear 27 1016 46 10000 2.57 200 09:51 03.08.2022
2382 Clouds 18 1016 73 10000 1.34 171 06:29 03.08.2022
2383 Clouds 18 1016 67 10000 1.03 0 04:21 03.08.2022
2384 Clear 19 1016 65 10000 1.54 100 02:35 03.08.2022
2385 Clouds 21 1016 59 10000 1.54 100 23:54 02.08.2022
2386 Clouds 22 1016 56 10000 0 0 21:59 02.08.2022
2387 Clouds 22 1016 54 10000 0 0 21:41 02.08.2022
2388 Clear 26 1016 39 10000 4.12 240 20:25 02.08.2022
2389 Clear 27 1016 34 10000 4.63 250 16:52 02.08.2022
2390 Clear 27 1017 36 10000 4.12 210 14:33 02.08.2022
2391 Clear 22 1018 56 10000 2.06 0 10:44 02.08.2022
2392 Clear 16 1019 72 10000 1.54 110 08:38 02.08.2022
2393 Clouds 14 1019 90 10000 0.51 100 07:51 02.08.2022
2394 Clouds 11 1019 83 10000 0.51 0 04:57 02.08.2022
2395 Clouds 12 1019 89 10000 1.03 310 03:30 02.08.2022
2396 Clouds 17 1019 73 10000 2.24 340 23:26 01.08.2022
2397 Clouds 19 1018 59 10000 2.06 320 21:49 01.08.2022
2398 Clouds 21 1017 55 10000 3.09 310 20:34 01.08.2022
2399 Clouds 22 1017 54 10000 3.6 310 19:22 01.08.2022
2400 Clouds 23 1017 54 10000 3.6 320 17:22 01.08.2022
2401 Clouds 23 1017 53 10000 4.63 300 16:49 01.08.2022
2402 Clouds 23 1016 55 10000 4.63 310 15:48 01.08.2022
2403 Clouds 23 1016 60 10000 4.63 310 15:28 01.08.2022
2404 Clouds 21 1017 64 10000 5.66 310 13:39 01.08.2022
2405 Clouds 20 1016 74 10000 4.63 310 11:38 01.08.2022
2406 Clouds 19 1015 87 8000 4.12 320 09:38 01.08.2022
2407 Clouds 19 1015 88 10000 4.12 300 08:20 01.08.2022
2408 Clouds 19 1013 89 7000 3.09 270 04:44 01.08.2022
2409 Clouds 18 1013 87 10000 3.09 240 02:31 01.08.2022
2410 Rain 18 1014 79 10000 1.54 120 22:54 31.07.2022
2411 Rain 18 1014 79 10000 1.54 120 22:36 31.07.2022
2412 Clouds 19 1014 82 10000 2.57 240 20:49 31.07.2022
2413 Rain 23 1014 49 10000 4.12 260 19:25 31.07.2022
2414 Clear 26 1014 41 10000 4.12 240 17:43 31.07.2022
2415 Clear 27 1014 37 10000 2.57 280 15:30 31.07.2022
2416 Clear 26 1015 41 10000 2.57 260 13:31 31.07.2022
2417 Clear 24 1016 48 10000 2.57 260 11:45 31.07.2022
2418 Clear 19 1017 75 10000 1.54 220 09:27 31.07.2022
2419 Clouds 16 1018 82 3500 0.45 251 06:43 31.07.2022
2420 Clouds 17 1018 83 4500 0.89 261 02:57 31.07.2022
2421 Clouds 19 1018 77 10000 1.03 0 23:30 30.07.2022
2422 Clouds 19 1018 75 10000 0.45 215 22:19 30.07.2022
2423 Clouds 19 1018 74 10000 0.45 215 21:47 30.07.2022
2424 Clouds 20 1017 73 10000 0.51 0 20:56 30.07.2022
2425 Rain 21 1017 72 10000 4.12 220 19:58 30.07.2022
2426 Rain 23 1017 63 10000 2.68 242 18:51 30.07.2022
2427 Clear 24 1017 51 10000 1.54 100 17:41 30.07.2022
2428 Clear 25 1016 59 10000 4.63 170 15:49 30.07.2022
2429 Clear 24 1016 61 10000 4.12 150 15:21 30.07.2022
2430 Clear 22 1017 68 10000 2.57 290 12:55 30.07.2022
2431 Clouds 21 1017 71 10000 2.06 0 11:55 30.07.2022
2432 Drizzle 18 1017 83 10000 2.57 290 10:28 30.07.2022
2433 Rain 18 1017 84 10000 3.6 260 09:47 30.07.2022
2434 Rain 16 1017 85 10000 2.06 210 07:54 30.07.2022
2435 Clouds 19 1015 55 10000 1.54 10 02:37 30.07.2022
2436 Clouds 20 1015 56 10000 2.57 280 01:49 30.07.2022
2437 Clouds 21 1015 48 10000 1.54 20 22:25 29.07.2022
2438 Clouds 23 1015 44 10000 1.54 10 21:23 29.07.2022
2439 Clear 25 1014 37 10000 1.54 360 19:57 29.07.2022
2440 Clear 26 1015 36 10000 1.54 60 17:59 29.07.2022
2441 Clear 26 1016 31 10000 4.12 110 15:27 29.07.2022
2442 Clear 25 1017 36 10000 3.13 84 13:18 29.07.2022
2443 Clear 22 1017 45 10000 3.09 80 11:22 29.07.2022
2444 Clear 17 1018 60 10000 2.57 80 08:50 29.07.2022
2445 Clear 15 1018 60 10000 2.57 80 07:54 29.07.2022
2446 Clouds 13 1019 60 10000 2.06 90 01:52 29.07.2022
2447 Clouds 17 1018 54 10000 2.57 80 22:49 28.07.2022
2448 Clear 20 1018 43 10000 2.06 70 21:28 28.07.2022
2449 Clear 21 1018 39 10000 1.54 60 20:32 28.07.2022
2450 Clear 23 1017 36 10000 3.09 80 19:43 28.07.2022
2451 Clear 23 1017 35 10000 3.09 90 19:24 28.07.2022
2452 Clear 25 1017 32 10000 2.57 70 17:44 28.07.2022
2453 Clear 24 1018 33 10000 3.13 117 16:57 28.07.2022
2454 Clear 24 1018 32 10000 3.09 130 16:36 28.07.2022
2455 Clear 22 1019 39 10000 2.06 0 13:35 28.07.2022
2456 Clear 20 1020 43 10000 2.57 0 11:42 28.07.2022
2457 Clouds 10 1021 77 10000 1.03 80 06:46 28.07.2022
2458 Clouds 8 1021 81 10000 0 0 05:33 28.07.2022
2459 Clouds 9 1020 76 10000 0 0 03:53 28.07.2022
2460 Clear 15 1019 58 10000 1.34 341 22:56 27.07.2022
2461 Clear 18 1019 49 10000 2.06 340 21:29 27.07.2022
2462 Clear 20 1018 40 10000 3.6 320 19:46 27.07.2022
2463 Clear 20 1018 39 10000 4.12 310 18:49 27.07.2022
2464 Clear 22 1018 36 10000 6.17 290 16:31 27.07.2022
2465 Clear 22 1018 36 10000 6.17 310 15:41 27.07.2022
2466 Clear 21 1018 42 10000 5.14 320 14:41 27.07.2022
2467 Clear 21 1018 35 10000 4.12 270 13:29 27.07.2022
2468 Clear 16 1019 57 10000 4.12 290 09:28 27.07.2022
2469 Clear 14 1019 68 10000 3.09 280 07:40 27.07.2022
2470 Clouds 13 1018 78 10000 2.06 290 03:57 27.07.2022
2471 Clouds 18 1017 51 10000 2.57 320 22:49 26.07.2022
2472 Clear 18 1017 57 10000 4.12 300 21:49 26.07.2022
2473 Clouds 19 1016 51 10000 4.63 310 20:49 26.07.2022
2474 Clouds 20 1016 49 10000 4.12 330 19:22 26.07.2022
2475 Clouds 21 1016 49 10000 5.14 310 18:40 26.07.2022
2476 Clouds 21 1015 51 10000 4.12 330 17:47 26.07.2022
2477 Clouds 21 1015 65 10000 6.69 300 15:43 26.07.2022
2478 Clouds 21 1015 59 10000 5.14 320 14:38 26.07.2022
2479 Clouds 20 1014 63 10000 6.17 320 12:32 26.07.2022
2480 Clouds 21 1013 68 10000 6.17 260 09:59 26.07.2022
2481 Clear 20 1012 62 10000 6.17 260 08:27 26.07.2022
2482 Clouds 19 1011 77 10000 3.6 290 01:52 26.07.2022
2483 Clouds 19 1011 77 10000 3.6 290 01:52 26.07.2022
2484 Clouds 20 1011 83 10000 2.57 300 00:20 26.07.2022
2485 Clouds 21 1010 75 10000 2.06 330 22:40 25.07.2022
2486 Clouds 21 1010 72 10000 0.51 0 21:43 25.07.2022
2487 Rain 23 1008 64 10000 5.14 320 20:43 25.07.2022
2488 Clear 24 1007 64 10000 7.2 320 20:24 25.07.2022
2489 Clear 27 1006 52 10000 8.75 270 19:25 25.07.2022
2490 Clear 31 1006 31 10000 5.14 230 17:56 25.07.2022
2491 Clear 31 1005 34 10000 4.63 270 17:20 25.07.2022
2492 Clear 34 1007 29 10000 5.14 250 13:36 25.07.2022
2493 Clear 32 1009 30 10000 4.47 219 10:55 25.07.2022
2494 Clear 23 1010 41 10000 2.24 162 07:59 25.07.2022
2495 Clouds 20 1014 49 10000 2.24 155 01:44 25.07.2022
2496 Clouds 21 1015 51 10000 2.06 100 23:46 24.07.2022
2497 Clouds 23 1015 52 10000 2.24 136 22:49 24.07.2022
2498 Clouds 23 1015 56 10000 1.79 124 22:24 24.07.2022
2499 Clouds 26 1015 38 10000 0.89 128 21:18 24.07.2022
2500 Clear 28 1015 30 10000 2.06 260 20:45 24.07.2022
2501 Clear 29 1015 29 10000 2.57 250 19:37 24.07.2022
2502 Clear 31 1016 28 10000 2.06 0 18:27 24.07.2022
2503 Clear 30 1017 32 10000 3.6 280 15:57 24.07.2022
2504 Clear 30 1018 34 10000 3.09 0 15:32 24.07.2022
2505 Clear 29 1019 31 10000 3.6 250 13:51 24.07.2022
2506 Clear 27 1019 35 10000 2.06 0 12:52 24.07.2022
2507 Clear 25 1020 39 10000 2.06 0 11:37 24.07.2022
2508 Clear 24 1020 41 10000 3.09 200 10:48 24.07.2022
2509 Clouds 18 1021 67 10000 2.57 150 08:30 24.07.2022
2510 Clouds 16 1021 73 10000 1.03 0 07:46 24.07.2022
2511 Clear 11 1021 76 10000 1.54 100 04:45 24.07.2022
2512 Clear 15 1021 63 10000 0 0 23:51 23.07.2022
2513 Clear 21 1019 49 10000 4.63 310 20:59 23.07.2022
2514 Clear 23 1019 39 10000 5.14 310 19:44 23.07.2022
2515 Clear 24 1018 38 10000 5.14 320 18:50 23.07.2022
2516 Clear 25 1018 42 10000 4.63 280 17:28 23.07.2022
2517 Clear 24 1018 42 10000 5.66 300 16:33 23.07.2022
2518 Clouds 24 1018 44 10000 5.66 280 15:22 23.07.2022
2519 Clouds 24 1018 46 10000 5.66 300 14:58 23.07.2022
2520 Clouds 24 1017 44 10000 5.14 290 14:27 23.07.2022
2521 Clouds 24 1017 44 10000 5.14 270 13:26 23.07.2022
2522 Clouds 20 1018 60 10000 3.09 280 10:45 23.07.2022
2523 Clouds 19 1018 67 10000 3.09 310 10:21 23.07.2022
2524 Clear 17 1018 83 10000 1.03 0 08:39 23.07.2022
2525 Clouds 14 1018 90 10000 0 0 03:39 23.07.2022
2526 Clouds 15 1018 76 10000 0 0 01:27 23.07.2022
2527 Clouds 16 1018 69 10000 1.54 300 22:56 22.07.2022
2528 Clouds 19 1018 57 10000 2.57 340 20:56 22.07.2022
2529 Clouds 20 1018 56 10000 3.09 320 19:41 22.07.2022
2530 Clouds 20 1018 41 10000 3.85 272 18:28 22.07.2022
2531 Clouds 20 1019 55 10000 3.6 280 17:28 22.07.2022
2532 Clouds 20 1020 59 10000 4.12 320 14:55 22.07.2022
2533 Clouds 19 1020 64 10000 5.14 280 11:49 22.07.2022
2534 Clouds 17 1020 79 10000 4.12 290 09:27 22.07.2022
2535 Clouds 17 1020 81 10000 4.63 300 08:43 22.07.2022
2536 Clouds 17 1019 82 10000 4.63 300 07:21 22.07.2022
2537 Clouds 18 1018 77 10000 3.6 240 03:59 22.07.2022
2538 Clouds 20 1018 69 10000 5.66 240 22:53 21.07.2022
2539 Clouds 21 1018 59 10000 4.12 240 21:35 21.07.2022
2540 Clear 23 1017 65 10000 5.14 260 19:31 21.07.2022
2541 Clouds 24 1017 62 10000 5.14 270 18:28 21.07.2022
2542 Clouds 25 1017 45 10000 5.66 250 17:20 21.07.2022
2543 Clouds 26 1017 46 10000 5.14 240 15:39 21.07.2022
2544 Clouds 27 1017 44 10000 5.14 240 14:44 21.07.2022
2545 Clouds 24 1018 56 10000 5.14 270 12:54 21.07.2022
2546 Clouds 23 1018 61 10000 3.09 270 11:23 21.07.2022
2547 Clouds 22 1017 67 10000 5.14 270 09:44 21.07.2022
2548 Clear 21 1017 82 10000 3.09 260 08:53 21.07.2022
2549 Clear 19 1017 80 10000 3.09 260 07:50 21.07.2022
2550 Rain 21 1017 64 10000 0.89 0 06:26 21.07.2022
2551 Clouds 23 1015 44 10000 3.13 293 02:23 21.07.2022
2552 Clouds 27 1013 37 10000 6.24 9 22:32 20.07.2022
2553 Clear 28 1013 36 10000 5.58 353 21:49 20.07.2022
2554 Clear 32 1013 27 10000 5.14 120 20:46 20.07.2022
2555 Clear 36 1013 20 10000 5.14 120 19:46 20.07.2022
2556 Clear 38 1013 18 10000 5.14 120 18:53 20.07.2022
2557 Clear 38 1014 18 10000 5.14 130 18:30 20.07.2022
2558 Clear 39 1014 18 10000 5.66 120 17:24 20.07.2022
2559 Clear 39 1015 18 10000 4.63 130 15:33 20.07.2022
2560 Clouds 39 1015 19 10000 4.63 150 14:36 20.07.2022
2561 Clear 37 1016 21 10000 2.24 132 12:54 20.07.2022
2562 Clear 35 1016 28 10000 3.09 150 10:57 20.07.2022
2563 Clouds 20 1016 53 10000 1.79 159 06:21 20.07.2022
2564 Clouds 23 1017 43 10000 2.57 90 01:40 20.07.2022
2565 Clouds 22 1017 47 10000 1.54 90 00:41 20.07.2022
2566 Clouds 25 1017 35 10000 2.06 80 22:36 19.07.2022
2567 Clouds 27 1017 32 10000 0.51 0 21:54 19.07.2022
2568 Clear 31 1017 24 10000 1.54 60 20:50 19.07.2022
2569 Clear 34 1017 19 10000 3.09 70 19:32 19.07.2022
2570 Clear 35 1017 19 10000 2.06 70 18:42 19.07.2022
2571 Clear 36 1017 18 10000 1.54 0 17:55 19.07.2022
2572 Clear 37 1018 17 10000 2.06 0 15:49 19.07.2022
2573 Clear 35 1019 20 10000 1.54 0 13:46 19.07.2022
2574 Clear 31 1020 27 10000 2.06 0 11:34 19.07.2022
2575 Clear 27 1020 40 10000 1.03 0 09:54 19.07.2022
2576 Clear 24 1020 48 10000 1.03 0 08:48 19.07.2022
2577 Clear 23 1020 54 10000 1.54 90 08:21 19.07.2022
2578 Clear 18 1020 76 10000 1.54 90 07:18 19.07.2022
2579 Clear 15 1020 68 10000 1.54 100 05:20 19.07.2022
2580 Clear 15 1020 67 10000 1.54 90 04:40 19.07.2022
2581 Clouds 19 1020 57 10000 1.54 110 00:21 19.07.2022
2582 Clouds 20 1020 61 10000 1.54 110 23:21 18.07.2022
2583 Clouds 21 1020 50 10000 1.54 80 22:51 18.07.2022
2584 Clear 24 1020 42 10000 0 0 21:50 18.07.2022
2585 Clear 27 1020 31 10000 1.54 260 20:50 18.07.2022
2586 Clear 31 1020 24 10000 2.57 260 19:24 18.07.2022
2587 Clear 31 1021 23 10000 3.09 270 16:52 18.07.2022
2588 Clear 31 1022 25 10000 3.09 280 15:42 18.07.2022
2589 Clouds 30 1023 27 10000 1.79 186 14:24 18.07.2022
2590 Clear 27 1024 31 10000 2.57 0 12:38 18.07.2022
2591 Clear 24 1024 36 10000 2.57 170 10:37 18.07.2022
2592 Clear 21 1024 53 10000 2.06 130 08:51 18.07.2022
2593 Clouds 15 1025 57 10000 1.28 169 06:58 18.07.2022
2594 Clouds 14 1026 64 10000 0 0 00:42 18.07.2022
2595 Clouds 17 1026 51 10000 0 0 22:37 17.07.2022
2596 Clouds 19 1025 53 10000 0 0 21:49 17.07.2022
2597 Clouds 20 1025 49 10000 1.03 0 21:21 17.07.2022
2598 Clear 22 1025 34 10000 2.06 330 20:44 17.07.2022
2599 Clear 23 1024 30 10000 3.09 300 19:32 17.07.2022
2600 Clear 24 1025 29 10000 3.09 280 18:30 17.07.2022
2601 Clear 25 1025 28 10000 2.57 330 17:38 17.07.2022
2602 Clear 25 1025 29 10000 3.09 320 16:51 17.07.2022
2603 Clear 24 1026 32 10000 3.6 320 16:26 17.07.2022
2604 Clear 23 1014 36 10000 6.17 310 14:58 17.07.2022
2605 Clear 22 1014 40 10000 3.09 280 13:31 17.07.2022
2606 Clouds 20 1014 42 10000 2.57 290 11:50 17.07.2022
2607 Clear 16 1008 68 10000 3.09 250 09:30 17.07.2022
2608 Clouds 8 1008 76 10000 0 0 05:54 17.07.2022
2609 Clouds 10 1007 70 10000 1.03 320 02:33 17.07.2022
2610 Clouds 13 1025 67 10000 2.06 330 23:21 16.07.2022
2611 Clear 16 1024 51 10000 3.6 320 21:47 16.07.2022
2612 Clear 20 1023 43 10000 5.66 310 19:53 16.07.2022
2613 Clear 21 1023 30 10000 6.69 310 18:35 16.07.2022
2614 Clear 22 1021 30 10000 6.69 320 17:19 16.07.2022
2615 Clear 22 1020 37 10000 7.2 310 14:31 16.07.2022
2616 Clouds 19 1020 49 10000 6.17 300 11:54 16.07.2022
2617 Clouds 16 1019 71 10000 5.66 280 09:37 16.07.2022
2618 Clouds 15 1019 77 10000 5.14 290 08:48 16.07.2022
2619 Clouds 15 1018 73 10000 4.12 280 08:29 16.07.2022
2620 Clouds 15 1018 68 10000 4.12 260 05:59 16.07.2022
2621 Clouds 15 1018 56 10000 3.09 210 03:31 16.07.2022
2622 Clouds 14 1020 60 10000 0 0 23:51 15.07.2022
2623 Clouds 15 1020 55 10000 1.54 270 22:43 15.07.2022
2624 Clouds 16 1020 51 10000 3.6 300 21:31 15.07.2022
2625 Clouds 16 1020 51 10000 3.6 300 21:31 15.07.2022
2626 Clear 17 1020 49 10000 3.6 310 20:32 15.07.2022
2627 Clouds 19 1021 51 10000 5.66 290 18:46 15.07.2022
2628 Clouds 19 1021 45 10000 4.63 300 17:49 15.07.2022
2629 Clouds 20 1021 47 10000 6.17 280 15:41 15.07.2022
2630 Clear 18 1021 49 10000 4.63 280 13:22 15.07.2022
2631 Clouds 18 1021 54 10000 5.14 290 12:22 15.07.2022
2632 Clouds 17 1021 47 10000 5.66 300 10:51 15.07.2022
2633 Clear 13 1020 68 10000 3.09 260 07:47 15.07.2022
2634 Clear 12 1020 89 10000 2.57 280 02:47 15.07.2022
2635 Clouds 14 1019 73 10000 3.6 290 00:39 15.07.2022
2636 Clear 16 1019 51 10000 3.6 290 22:55 14.07.2022
2637 Clear 17 1019 45 10000 4.12 310 21:59 14.07.2022
2638 Clear 17 1019 44 10000 4.12 310 21:37 14.07.2022
2639 Clear 17 1018 45 10000 5.66 310 21:18 14.07.2022
2640 Clear 18 1018 44 10000 6.17 320 20:42 14.07.2022
2641 Clear 18 1018 46 10000 6.17 320 20:18 14.07.2022
2642 Clear 23 1016 33 10000 5.66 300 17:59 14.07.2022
2643 Clear 23 1016 34 10000 5.14 320 16:19 14.07.2022
2644 Clear 24 1016 33 10000 4.12 330 14:55 14.07.2022
2645 Clouds 24 1017 34 10000 3.6 0 13:51 14.07.2022
2646 Clouds 23 1017 39 10000 2.57 0 12:34 14.07.2022
2647 Clear 20 1019 52 10000 2.57 0 11:26 14.07.2022
2648 Clouds 19 1019 46 10000 3.6 340 10:52 14.07.2022
2649 Clear 17 1020 57 10000 1.54 350 08:58 14.07.2022
2650 Clouds 14 1020 85 10000 1.54 310 04:45 14.07.2022
2651 Clouds 19 1019 68 10000 2.57 300 01:21 14.07.2022
2652 Clouds 20 1019 64 10000 2.57 290 00:51 14.07.2022
2653 Clouds 23 1018 53 10000 4.63 330 22:31 13.07.2022
2654 Clouds 24 1017 50 10000 3.6 330 21:47 13.07.2022
2655 Clear 26 1017 32 10000 4.63 330 20:41 13.07.2022
2656 Clear 28 1015 32 10000 6.17 310 18:40 13.07.2022
2657 Clear 28 1015 34 10000 6.17 290 17:34 13.07.2022
2658 Clear 29 1015 32 10000 4.63 260 16:19 13.07.2022
2659 Clear 30 1017 30 10000 6.17 240 14:54 13.07.2022
2660 Clear 27 1017 33 10000 4.63 250 11:56 13.07.2022
2661 Clear 25 1018 36 10000 3.6 240 10:45 13.07.2022
2662 Clear 24 1018 40 10000 4.12 240 09:56 13.07.2022
2663 Clear 23 1019 51 10000 2.57 240 09:20 13.07.2022
2664 Clouds 18 1020 59 10000 0 0 05:52 13.07.2022
2665 Clouds 17 1022 60 10000 0 0 01:27 13.07.2022
2666 Clouds 18 1023 57 10000 0 0 23:39 12.07.2022
2667 Clear 22 1022 51 10000 2.06 310 21:55 12.07.2022
2668 Clear 23 1022 47 10000 2.57 320 21:19 12.07.2022
2669 Clear 24 1022 42 10000 2.57 330 20:41 12.07.2022
2670 Clear 27 1011 31 10000 3.6 310 19:25 12.07.2022
2671 Clear 27 1011 33 10000 4.12 300 17:49 12.07.2022
2672 Clear 26 1011 36 10000 3.09 300 15:57 12.07.2022
2673 Clear 25 1012 42 10000 3.09 270 14:31 12.07.2022
2674 Clouds 23 1006 52 10000 2.24 248 12:29 12.07.2022
2675 Clouds 21 1012 56 10000 3.09 230 11:26 12.07.2022
2676 Clouds 18 1007 66 10000 2.06 260 09:42 12.07.2022
2677 Clouds 15 1007 80 10000 2.57 290 08:23 12.07.2022
2678 Clouds 14 1007 85 10000 1.54 310 06:49 12.07.2022
2679 Clouds 13 1006 84 10000 1.03 300 05:42 12.07.2022
2680 Clouds 13 1006 82 10000 1.03 320 02:52 12.07.2022
2681 Clouds 17 1006 81 10000 2.57 290 23:30 11.07.2022
2682 Clouds 17 1006 66 10000 3.6 300 22:31 11.07.2022
2683 Clouds 20 1006 60 10000 4.63 290 20:41 11.07.2022
2684 Clouds 20 1006 57 10000 5.14 270 19:50 11.07.2022
2685 Clouds 21 1006 55 10000 4.63 290 18:32 11.07.2022
2686 Clouds 21 1006 62 10000 5.14 290 17:53 11.07.2022
2687 Clouds 22 1010 59 10000 4.63 290 16:21 11.07.2022
2688 Clouds 22 1010 47 10000 4.63 310 14:49 11.07.2022
2689 Clouds 20 1010 61 10000 4.12 300 12:18 11.07.2022
2690 Clouds 18 1006 65 10000 3.09 330 10:42 11.07.2022
2691 Clouds 17 1006 64 10000 2.57 320 09:54 11.07.2022
2692 Clouds 15 1006 73 10000 2.57 330 08:36 11.07.2022
2693 Clouds 14 1006 81 10000 2.06 300 07:32 11.07.2022
2694 Clouds 12 1006 72 10000 2.06 290 00:54 11.07.2022
2695 Clouds 14 1022 66 10000 3.09 290 23:53 10.07.2022
2696 Clouds 15 1022 72 10000 2.57 290 22:34 10.07.2022
2697 Clouds 17 1005 61 10000 5.66 290 20:55 10.07.2022
2698 Clouds 18 1005 53 10000 4.63 290 20:24 10.07.2022
2699 Clouds 19 1005 51 10000 6.17 290 19:28 10.07.2022
2700 Clouds 19 1005 47 10000 6.69 290 17:59 10.07.2022
2701 Clouds 19 1005 46 10000 7.2 300 16:59 10.07.2022
2702 Clouds 20 1021 39 10000 6.69 300 16:20 10.07.2022
2703 Clear 20 1005 47 10000 5.66 310 14:44 10.07.2022
2704 Clouds 19 1021 53 10000 5.14 310 13:29 10.07.2022
2705 Clouds 17 1006 53 10000 6.17 300 11:39 10.07.2022
2706 Clouds 15 990 62 10000 4.02 0 09:45 10.07.2022
2707 Clouds 14 1006 73 10000 4.12 290 08:43 10.07.2022
2708 Clouds 13 1006 78 10000 3.6 290 07:19 10.07.2022
2709 Clouds 15 1006 58 10000 4.63 310 23:50 09.07.2022
2710 Clouds 16 1006 54 10000 4.63 310 22:26 09.07.2022
2711 Clouds 16 1006 54 10000 4.63 310 22:26 09.07.2022
2712 Clouds 16 1006 53 10000 4.63 320 21:41 09.07.2022
2713 Clouds 19 1006 60 10000 7.2 320 19:44 09.07.2022
2714 Clouds 21 1006 56 10000 7.2 320 18:28 09.07.2022
2715 Clouds 20 1011 65 10000 4.12 290 17:32 09.07.2022
2716 Clouds 20 1022 66 10000 3.6 290 16:34 09.07.2022
2717 Rain 21 1011 62 10000 6.17 310 15:39 09.07.2022
2718 Clouds 22 1011 49 10000 5.66 280 14:24 09.07.2022
2719 Clouds 22 1011 52 10000 6.17 270 13:48 09.07.2022
2720 Clouds 20 1006 59 10000 5.14 280 12:29 09.07.2022
2721 Clouds 18 1007 67 10000 3.6 280 10:42 09.07.2022
2722 Clouds 18 1007 68 10000 4.12 280 10:21 09.07.2022
2723 Clouds 15 1007 81 10000 1.54 280 07:44 09.07.2022
2724 Clouds 14 1007 83 10000 1.54 270 04:53 09.07.2022
2725 Clouds 14 1026 91 10000 1.03 280 00:43 09.07.2022
2726 Clouds 17 1027 82 10000 2.06 270 22:42 08.07.2022
2727 Clouds 18 1008 76 10000 3.6 280 21:31 08.07.2022
2728 Clouds 19 1008 63 10000 3.09 290 20:40 08.07.2022
2729 Clouds 20 1008 62 10000 4.12 290 19:48 08.07.2022
2730 Clouds 19 1008 71 10000 5.14 290 18:19 08.07.2022
2731 Clouds 20 1008 55 10000 6.17 300 16:39 08.07.2022
2732 Clouds 19 1008 54 10000 5.14 300 14:51 08.07.2022
2733 Clouds 20 1015 53 10000 5.14 300 13:24 08.07.2022
2734 Clouds 20 1015 53 10000 5.14 300 13:24 08.07.2022
2735 Clouds 18 1008 52 10000 5.66 280 11:25 08.07.2022
2736 Clouds 16 1008 57 10000 5.66 290 10:27 08.07.2022
2737 Clouds 15 1008 67 10000 5.14 290 08:26 08.07.2022
2738 Clouds 14 1008 68 10000 4.12 290 06:47 08.07.2022
2739 Clouds 15 1007 66 10000 5.14 300 01:19 08.07.2022
2740 Clouds 15 1006 62 10000 5.66 300 22:57 07.07.2022
2741 Clouds 15 1006 60 10000 5.14 300 22:28 07.07.2022
2742 Clouds 16 1005 57 10000 5.14 310 20:22 07.07.2022
2743 Clouds 17 1005 68 10000 5.14 310 18:20 07.07.2022
2744 Clouds 19 1004 65 10000 5.66 300 16:46 07.07.2022
2745 Clouds 18 1003 80 10000 5.66 310 14:34 07.07.2022
2746 Rain 18 1003 77 10000 5.14 280 13:18 07.07.2022
2747 Rain 17 1003 86 10000 4.12 280 12:24 07.07.2022
2748 Rain 17 1003 86 10000 4.12 280 12:24 07.07.2022
2749 Drizzle 17 1003 88 10000 4.63 270 11:45 07.07.2022
2750 Drizzle 17 1003 88 10000 4.63 260 11:24 07.07.2022
2751 Drizzle 16 1003 88 9000 4.63 240 10:41 07.07.2022
2752 Drizzle 16 1003 87 10000 4.12 240 10:23 07.07.2022
2753 Rain 14 1003 85 7000 4.12 230 06:49 07.07.2022
2754 Clouds 14 1004 73 10000 3.09 240 01:43 07.07.2022
2755 Rain 17 990 47 10000 1.79 0 23:36 06.07.2022
2756 Clouds 16 1005 54 10000 2.06 280 23:18 06.07.2022
2757 Clouds 17 1005 51 10000 2.06 280 22:52 06.07.2022
2758 Clouds 17 1005 53 10000 2.06 280 22:34 06.07.2022
2759 Clear 19 1005 50 10000 3.6 290 20:36 06.07.2022
2760 Clear 20 1005 41 10000 4.63 280 19:35 06.07.2022
2761 Clear 20 1006 39 10000 5.14 290 17:32 06.07.2022
2762 Clear 19 1006 41 10000 4.02 275 15:59 06.07.2022
2763 Clear 19 1006 42 10000 4.63 280 14:33 06.07.2022
2764 Clouds 18 1006 46 10000 4.63 280 12:31 06.07.2022
2765 Clouds 18 1006 49 10000 4.12 290 11:48 06.07.2022
2766 Clear 17 1006 54 10000 4.12 290 10:18 06.07.2022
2767 Clear 15 1006 65 10000 4.12 290 07:44 06.07.2022
2768 Clear 15 1006 65 10000 4.12 290 07:44 06.07.2022
2769 Clear 14 1006 65 10000 3.09 290 07:20 06.07.2022
2770 Clouds 14 1006 66 10000 2.06 300 02:55 06.07.2022
2771 Clouds 18 1021 52 10000 2.57 320 22:45 05.07.2022
2772 Clouds 20 1020 43 10000 2.57 340 21:36 05.07.2022
2773 Clear 22 1020 37 10000 3.09 320 20:38 05.07.2022
2774 Clear 23 1005 32 10000 3.6 300 19:41 05.07.2022
2775 Clear 23 1005 32 10000 4.12 310 19:22 05.07.2022
2776 Clear 24 1009 32 10000 5.14 290 17:47 05.07.2022
2777 Clear 24 1010 33 10000 5.14 290 16:44 05.07.2022
2778 Clear 24 1010 34 10000 5.66 300 15:25 05.07.2022
2779 Clear 24 1010 37 10000 6.17 290 13:53 05.07.2022
2780 Clouds 23 1010 40 10000 4.12 290 12:42 05.07.2022
2781 Clouds 22 1010 48 10000 3.09 260 11:32 05.07.2022
2782 Clouds 20 1005 55 10000 3.09 320 10:34 05.07.2022
2783 Clouds 17 1005 71 10000 0 0 08:26 05.07.2022
2784 Clear 15 1005 79 10000 0 0 07:31 05.07.2022
2785 Clouds 12 1005 87 10000 0 0 04:49 05.07.2022
2786 Clouds 13 1005 76 10000 0 0 04:21 05.07.2022
2787 Clouds 16 1004 72 10000 0 0 23:45 04.07.2022
2788 Clouds 18 1004 54 10000 0 0 23:25 04.07.2022
2789 Clouds 19 1004 47 10000 1.54 300 22:25 04.07.2022
2790 Clouds 22 1004 47 10000 2.57 280 21:30 04.07.2022
2791 Clear 23 1004 37 10000 3.09 270 20:52 04.07.2022
2792 Clear 23 1018 30 10000 3.09 270 20:33 04.07.2022
2793 Clear 23 1004 36 10000 3.6 290 19:52 04.07.2022
2794 Clear 24 1018 34 10000 3.6 290 19:34 04.07.2022
2795 Clear 25 1008 35 10000 3.6 280 17:58 04.07.2022
2796 Clear 25 1008 33 10000 4.47 255 15:50 04.07.2022
2797 Clear 24 1008 34 10000 3.6 290 15:31 04.07.2022
2798 Clear 24 1009 39 10000 4.12 290 13:29 04.07.2022
2799 Clouds 22 1005 46 10000 4.02 282 12:21 04.07.2022
2800 Clouds 20 1005 50 10000 3.6 270 10:34 04.07.2022
2801 Clouds 19 1005 69 10000 2.57 290 09:41 04.07.2022
2802 Clear 16 1004 74 10000 4.12 290 07:33 04.07.2022
2803 Clouds 15 1004 83 10000 2.57 290 03:36 04.07.2022
2804 Clouds 17 1018 78 10000 3.09 310 00:36 04.07.2022
2805 Clouds 19 1016 79 10000 2.57 310 22:59 03.07.2022
2806 Clear 27 1015 32 10000 3.09 290 20:58 03.07.2022
2807 Clear 26 1015 28 10000 3.09 290 20:31 03.07.2022
2808 Clear 26 1015 38 10000 2.06 270 19:27 03.07.2022
2809 Clear 27 1015 34 10000 3.09 280 18:43 03.07.2022
2810 Clear 28 1006 36 10000 4.63 230 17:43 03.07.2022
2811 Clear 29 1006 35 10000 5.14 270 15:51 03.07.2022
2812 Clear 29 1006 32 10000 5.66 260 14:59 03.07.2022
2813 Clear 27 1007 38 10000 4.12 250 14:18 03.07.2022
2814 Clear 28 1007 34 10000 4.12 260 13:48 03.07.2022
2815 Clear 27 1007 40 10000 3.6 0 12:33 03.07.2022
2816 Clear 26 1007 37 10000 4.12 270 11:29 03.07.2022
2817 Clear 26 1007 38 10000 3.6 250 10:39 03.07.2022
2818 Clear 25 1007 42 10000 2.06 210 09:42 03.07.2022
2819 Clear 18 1003 74 10000 1.79 178 07:35 03.07.2022
2820 Clouds 17 1003 52 10000 2.57 120 03:46 03.07.2022
2821 Clear 18 1004 57 10000 2.57 90 00:22 03.07.2022
2822 Clear 20 1004 50 10000 2.24 144 22:34 02.07.2022
2823 Clear 23 1004 42 10000 2.57 130 21:28 02.07.2022
2824 Clear 26 1009 38 10000 3.09 150 19:52 02.07.2022
2825 Clear 27 1009 33 10000 4.12 140 19:23 02.07.2022
2826 Clear 27 1009 35 10000 3.09 190 17:51 02.07.2022
2827 Clear 27 1009 35 10000 3.09 190 17:33 02.07.2022
2828 Clear 26 1011 34 10000 3.09 0 14:52 02.07.2022
2829 Clear 23 1011 43 10000 3.09 250 12:22 02.07.2022
2830 Clear 23 1012 49 10000 2.57 220 11:27 02.07.2022
2831 Clear 22 1012 51 10000 2.06 0 10:46 02.07.2022
2832 Clear 21 1012 58 10000 1.54 230 09:37 02.07.2022
2833 Clear 18 1006 71 10000 1.54 190 08:36 02.07.2022
2834 Clear 17 1006 67 10000 1.54 210 08:18 02.07.2022
2835 Clear 12 1006 89 10000 1.03 0 02:52 02.07.2022
2836 Clouds 14 1005 76 10000 1.54 130 00:27 02.07.2022
2837 Clouds 15 1005 72 10000 0.45 185 22:59 01.07.2022
2838 Clouds 15 1005 70 10000 0.89 169 22:19 01.07.2022
2839 Clouds 16 1020 62 10000 0 0 21:37 01.07.2022
2840 Clear 18 1019 55 10000 2.57 290 20:58 01.07.2022
2841 Clear 19 1019 44 10000 3.09 280 19:48 01.07.2022
2842 Clouds 20 1003 48 10000 4.12 270 19:22 01.07.2022
2843 Rain 17 1004 67 10000 4.12 250 16:38 01.07.2022
2844 Rain 16 1003 86 10000 3.09 290 14:27 01.07.2022
2845 Clouds 15 1003 83 10000 3.09 280 13:23 01.07.2022
2846 Drizzle 15 1003 82 10000 5.14 280 10:53 01.07.2022
2847 Rain 16 1003 79 10000 5.14 270 10:19 01.07.2022
2848 Clouds 16 1001 83 10000 5.14 280 06:21 01.07.2022
2849 Clouds 21 1010 68 10000 2.57 0 02:19 01.07.2022
2850 Clear 23 1010 64 10000 2.57 100 23:44 30.06.2022
2851 Clear 23 1010 84 10000 3.3 121 22:50 30.06.2022
2852 Clear 23 1010 84 10000 3.3 121 22:31 30.06.2022
2853 Clear 28 1010 80 10000 2.53 118 21:53 30.06.2022
2854 Clear 29 1009 42 10000 2.06 90 20:49 30.06.2022
2855 Clear 28 1009 35 10000 3.09 120 20:20 30.06.2022
2856 Clear 29 1008 36 10000 4.12 130 19:47 30.06.2022
2857 Clear 29 1002 38 10000 3.6 130 18:54 30.06.2022
2858 Clear 30 1009 42 10000 2.57 130 17:56 30.06.2022
2859 Clear 29 1009 43 10000 3.09 0 17:18 30.06.2022
2860 Clear 29 1010 45 10000 2.57 80 16:18 30.06.2022
2861 Clouds 30 1000 43 10000 2.57 0 14:20 30.06.2022
2862 Clouds 28 1004 43 10000 2.57 0 13:21 30.06.2022
2863 Clouds 27 1004 46 10000 3.09 140 12:34 30.06.2022
2864 Clear 25 1000 50 10000 2.68 169 10:57 30.06.2022
2865 Clouds 23 1005 55 10000 2.24 116 09:51 30.06.2022
2866 Clouds 21 1001 60 10000 2.57 100 09:26 30.06.2022
2867 Clouds 18 1013 72 10000 2.06 90 07:41 30.06.2022
2868 Clouds 15 1001 72 10000 2.06 90 05:46 30.06.2022
2869 Clouds 17 1002 63 10000 1.54 90 00:26 30.06.2022
2870 Clear 19 1002 56 10000 1.54 80 22:54 29.06.2022
2871 Clear 20 1002 55 10000 1.54 80 22:33 29.06.2022
2872 Clear 23 1002 44 10000 4.12 110 20:56 29.06.2022
2873 Clear 24 1005 42 10000 4.12 110 20:33 29.06.2022
2874 Clear 25 1005 42 10000 4.12 90 19:34 29.06.2022
2875 Clear 25 1006 40 10000 5.66 110 17:40 29.06.2022
2876 Clear 25 1002 40 10000 5.66 130 16:33 29.06.2022
2877 Clear 24 1016 29 10000 6.17 130 14:19 29.06.2022
2878 Clouds 24 1003 48 10000 5.14 120 12:39 29.06.2022
2879 Clear 23 1007 60 10000 5.66 110 10:25 29.06.2022
2880 Clear 22 1003 60 10000 5.14 110 09:31 29.06.2022
2881 Clear 16 1003 64 10000 3.09 90 07:30 29.06.2022
2882 Clouds 13 1004 71 10000 2.06 110 04:50 29.06.2022
2883 Clouds 15 1004 73 10000 0.45 70 00:56 29.06.2022
2884 Clouds 15 1004 72 10000 0.89 70 00:35 29.06.2022
2885 Clouds 19 1004 51 10000 1.03 0 22:53 28.06.2022
2886 Clouds 19 1004 51 10000 1.03 0 22:24 28.06.2022
2887 Clouds 20 1019 44 10000 1.54 30 21:54 28.06.2022
2888 Clouds 21 1019 39 10000 1.54 30 21:32 28.06.2022
2889 Clear 23 1019 42 10000 0.51 0 20:34 28.06.2022
2890 Clear 25 1009 30 10000 1.03 0 19:33 28.06.2022
2891 Clear 25 1009 30 10000 1.03 0 19:33 28.06.2022
2892 Clear 25 1009 36 10000 3.09 130 18:45 28.06.2022
2893 Clear 25 1009 36 10000 3.09 130 18:45 28.06.2022
2894 Clear 25 1009 37 10000 2.06 0 17:40 28.06.2022
2895 Clear 25 1004 39 10000 0.45 259 15:57 28.06.2022
2896 Clear 25 1005 40 10000 0.89 323 15:36 28.06.2022
2897 Clear 24 1010 38 10000 1.54 0 14:20 28.06.2022
2898 Clouds 24 1011 40 10000 1.54 0 13:51 28.06.2022
2899 Clear 23 1011 43 10000 3.09 0 12:57 28.06.2022
2900 Clouds 21 1006 46 10000 3.6 320 11:18 28.06.2022
2901 Clouds 18 1006 65 10000 4.63 270 09:29 28.06.2022
2902 Clouds 17 1006 68 10000 4.12 280 08:43 28.06.2022
2903 Clouds 16 1006 73 10000 4.12 280 07:42 28.06.2022
2904 Clouds 15 1005 74 10000 4.12 280 06:56 28.06.2022
2905 Clouds 17 1004 86 10000 2.57 280 00:58 28.06.2022
2906 Clouds 17 1004 75 10000 2.06 270 23:37 27.06.2022
2907 Clouds 18 1004 73 10000 3.6 300 22:52 27.06.2022
2908 Clouds 19 1004 81 10000 4.63 280 21:38 27.06.2022
2909 Clouds 19 1003 72 10000 4.12 300 20:52 27.06.2022
2910 Clouds 20 1003 68 10000 6.69 280 19:36 27.06.2022
2911 Rain 23 1014 68 10000 7.2 270 18:26 27.06.2022
2912 Clouds 27 1014 47 10000 3.09 260 16:27 27.06.2022
2913 Clear 27 1005 48 10000 3.09 260 15:24 27.06.2022
2914 Clear 27 1005 57 10000 3.09 270 13:39 27.06.2022
2915 Clear 27 1005 60 10000 2.57 310 12:56 27.06.2022
2916 Clear 23 1001 65 10000 1.03 0 10:35 27.06.2022
2917 Clear 21 1001 72 10000 1.03 0 09:23 27.06.2022
2918 Clear 20 1001 73 10000 1.54 40 08:31 27.06.2022
2919 Clouds 20 1001 73 10000 2.57 10 07:38 27.06.2022
2920 Clouds 19 1014 78 10000 3.6 310 04:21 27.06.2022
2921 Clouds 20 1013 78 10000 1.54 60 01:19 27.06.2022
2922 Clouds 24 1014 60 10000 1.03 0 22:27 26.06.2022
2923 Clear 26 1014 53 10000 2.57 310 20:53 26.06.2022
2924 Clear 26 1014 53 10000 3.09 290 19:59 26.06.2022
2925 Clear 28 1014 44 10000 3.6 320 18:32 26.06.2022
2926 Clear 28 1014 43 10000 4.12 290 17:33 26.06.2022
2927 Rain 28 1005 40 10000 3.13 266 15:31 26.06.2022
2928 Clear 29 1005 38 10000 3.09 270 13:55 26.06.2022
2929 Clear 29 1005 39 10000 3.09 0 13:23 26.06.2022
2930 Clear 28 1005 42 10000 4.12 270 11:31 26.06.2022
2931 Clear 27 1005 44 10000 2.06 210 10:29 26.06.2022
2932 Clear 27 1005 44 10000 2.06 210 10:29 26.06.2022
2933 Clear 26 1005 46 10000 2.57 210 09:45 26.06.2022
2934 Clouds 21 1001 74 10000 0.45 159 07:46 26.06.2022
2935 Clouds 18 1001 69 10000 0.45 123 04:29 26.06.2022
2936 Clouds 20 1001 68 10000 2.06 90 00:36 26.06.2022
2937 Clouds 20 1001 68 10000 1.54 90 00:18 26.06.2022
2938 Clouds 21 1001 65 10000 0 0 23:25 25.06.2022
2939 Clouds 22 1001 60 10000 0.89 147 22:28 25.06.2022
2940 Clouds 23 1001 57 10000 1.03 90 21:52 25.06.2022
2941 Clouds 25 1001 59 10000 0.45 148 21:20 25.06.2022
2942 Clear 26 1012 47 10000 1.54 150 20:32 25.06.2022
2943 Clear 27 1001 46 10000 1.54 170 19:56 25.06.2022
2944 Clear 27 1012 41 10000 1.03 0 18:22 25.06.2022
2945 Clear 28 1012 41 10000 2.06 310 17:26 25.06.2022
2946 Clear 28 1004 44 10000 2.57 270 16:25 25.06.2022
2947 Clouds 27 1004 40 10000 3.6 300 14:29 25.06.2022
2948 Clouds 26 1004 50 10000 3.09 270 12:45 25.06.2022
2949 Clear 25 1004 51 10000 3.09 270 11:39 25.06.2022
2950 Clear 23 1001 64 10000 4.12 270 09:24 25.06.2022
2951 Clouds 22 1001 67 10000 3.6 260 08:49 25.06.2022
2952 Clouds 20 1001 73 10000 2.57 260 08:20 25.06.2022
2953 Clouds 18 1000 82 10000 2.06 240 06:34 25.06.2022
2954 Clouds 18 1009 89 10000 2.06 290 00:44 25.06.2022
2955 Clouds 19 1009 85 10000 1.54 290 23:54 24.06.2022
2956 Clear 20 1008 82 10000 2.06 310 22:25 24.06.2022
2957 Clear 23 998 55 10000 2.57 300 21:22 24.06.2022
2958 Rain 24 998 50 10000 2.06 280 20:23 24.06.2022
2959 Clear 24 998 50 10000 3.09 130 19:24 24.06.2022
2960 Clouds 25 998 46 10000 4.12 140 18:51 24.06.2022
2961 Clouds 27 1005 40 10000 1.54 190 18:31 24.06.2022
2962 Clouds 26 998 45 10000 3.58 142 17:49 24.06.2022
2963 Clear 27 1000 47 10000 2.06 130 16:45 24.06.2022
2964 Clear 27 1000 47 10000 2.06 130 16:45 24.06.2022
2965 Clouds 24 998 59 10000 4.63 240 14:30 24.06.2022
2966 Rain 24 998 64 10000 4.12 240 13:59 24.06.2022
2967 Rain 25 1007 53 10000 4.12 240 13:35 24.06.2022
2968 Clear 27 1000 41 10000 2.57 210 11:41 24.06.2022
2969 Clear 27 1001 45 10000 4.12 230 10:36 24.06.2022
2970 Clear 26 1001 40 10000 3.09 140 09:41 24.06.2022
2971 Clear 25 1001 48 10000 2.68 141 08:53 24.06.2022
2972 Clear 22 998 54 10000 3.09 110 07:57 24.06.2022
2973 Clouds 19 999 52 10000 2.68 145 06:43 24.06.2022
2974 Clouds 19 999 51 10000 3.6 90 06:22 24.06.2022
2975 Clouds 19 1008 50 10000 4.63 90 04:46 24.06.2022
2976 Clear 19 1000 62 10000 1.54 100 23:32 23.06.2022
2977 Clear 20 1011 61 10000 2.06 90 22:43 23.06.2022
2978 Clear 28 1011 30 10000 2.57 90 20:59 23.06.2022
2979 Clear 28 1011 30 10000 2.57 90 20:36 23.06.2022
2980 Clear 28 1010 24 10000 5.14 100 19:48 23.06.2022
2981 Clear 30 1001 25 10000 4.63 110 18:27 23.06.2022
2982 Clear 30 1001 26 10000 3.6 100 17:34 23.06.2022
2983 Clear 31 1001 27 10000 3.6 130 16:29 23.06.2022
2984 Clear 30 1001 28 10000 4.12 110 15:26 23.06.2022
2985 Clear 30 1001 27 10000 3.6 100 14:34 23.06.2022
2986 Clear 26 1005 36 10000 3.09 120 11:42 23.06.2022
2987 Clear 25 1006 41 10000 3.09 100 10:41 23.06.2022
2988 Clear 21 1002 57 10000 3.6 90 09:19 23.06.2022
2989 Clouds 12 1002 73 10000 0 0 04:48 23.06.2022
2990 Clouds 16 1001 58 10000 1.03 0 00:27 23.06.2022
2991 Clouds 17 1001 56 10000 2.06 20 23:59 22.06.2022
2992 Clouds 18 1001 54 10000 1.54 20 23:18 22.06.2022
2993 Clouds 18 1001 54 10000 1.54 20 23:18 22.06.2022
2994 Clouds 21 1012 50 10000 1.03 360 21:44 22.06.2022
2995 Clear 24 1012 39 10000 2.57 330 20:52 22.06.2022
2996 Clear 25 1004 34 10000 1.03 0 20:19 22.06.2022
2997 Clear 26 1004 30 10000 1.54 0 19:30 22.06.2022
2998 Clear 26 1004 32 10000 2.24 211 17:40 22.06.2022
2999 Clear 26 1004 34 10000 2.57 250 16:41 22.06.2022
3000 Clear 25 1004 37 10000 2.68 330 15:29 22.06.2022
3001 Clear 25 1004 36 10000 2.06 0 14:51 22.06.2022
3002 Clear 25 1005 34 10000 1.03 0 13:48 22.06.2022
3003 Clear 24 1005 35 10000 2.57 0 13:24 22.06.2022
3004 Clear 24 1005 42 10000 2.06 0 12:18 22.06.2022
3005 Clear 22 1005 44 10000 1.34 343 11:29 22.06.2022
3006 Clear 22 1005 47 10000 2.06 0 10:43 22.06.2022
3007 Clear 19 1002 68 10000 1.03 0 09:18 22.06.2022
3008 Clouds 12 1001 76 10000 0.45 299 06:55 22.06.2022
3009 Clouds 12 1001 75 10000 0.51 0 02:26 22.06.2022
3010 Clouds 12 1001 72 10000 0.51 90 00:57 22.06.2022
3011 Clouds 15 1001 62 10000 0 0 22:53 21.06.2022
3012 Clear 20 1013 43 10000 0.51 0 20:58 21.06.2022
3013 Clear 23 1005 33 10000 2.06 350 19:30 21.06.2022
3014 Clear 23 1005 39 10000 1.03 0 17:56 21.06.2022
3015 Clear 23 1005 34 10000 1.54 0 16:47 21.06.2022
3016 Clouds 19 1003 51 10000 4.63 270 11:59 21.06.2022
3017 Clouds 17 1003 57 10000 4.12 270 10:47 21.06.2022
3018 Clouds 15 1003 67 10000 4.12 280 09:35 21.06.2022
3019 Clear 13 1003 87 10000 3.09 280 07:56 21.06.2022
3020 Clear 9 1003 82 10000 2.06 270 04:59 21.06.2022
3021 Clear 12 1015 79 10000 2.57 290 00:31 21.06.2022
3022 Clouds 15 1002 56 10000 3.6 320 22:21 20.06.2022
3023 Clouds 15 1002 61 10000 3.6 310 21:40 20.06.2022
3024 Clear 17 1001 48 10000 5.14 310 20:30 20.06.2022
3025 Clear 18 1001 45 10000 6.17 310 19:37 20.06.2022
3026 Clear 19 1001 43 10000 6.69 300 18:44 20.06.2022
3027 Clear 19 1001 44 10000 6.17 290 17:50 20.06.2022
3028 Clear 20 1001 45 10000 6.17 300 16:53 20.06.2022
3029 Clear 19 1001 47 10000 5.14 300 15:52 20.06.2022
3030 Clouds 15 1001 82 10000 3.09 280 12:38 20.06.2022
3031 Rain 13 1001 88 10000 3.09 290 10:32 20.06.2022
3032 Clouds 13 1001 88 10000 1.54 290 08:57 20.06.2022
3033 Clouds 13 1001 88 10000 1.54 290 08:57 20.06.2022
3034 Clouds 13 1000 89 10000 1.54 0 08:21 20.06.2022
3035 Rain 14 990 84 10000 0.89 312 05:35 20.06.2022
3036 Clouds 14 990 78 10000 1.17 309 01:33 20.06.2022
3037 Clear 15 990 72 10000 1.34 346 00:26 20.06.2022
3038 Rain 16 990 59 10000 2.24 0 22:50 19.06.2022
3039 Clouds 17 1012 66 10000 2.72 336 21:57 19.06.2022
3040 Clouds 17 1012 68 10000 2.72 336 21:39 19.06.2022
3041 Clear 19 1001 51 10000 3.6 320 20:38 19.06.2022
3042 Clear 20 1000 52 10000 4.63 320 19:47 19.06.2022
3043 Clear 21 1000 55 10000 4.47 324 18:45 19.06.2022
3044 Clear 23 1000 47 10000 5.66 320 17:54 19.06.2022
3045 Clear 25 999 48 10000 4.63 310 17:22 19.06.2022
3046 Clear 27 1002 48 10000 4.12 310 16:35 19.06.2022
3047 Clear 25 999 50 10000 3.09 280 15:41 19.06.2022
3048 Clear 26 1002 42 10000 4.12 310 14:57 19.06.2022
3049 Clear 26 1002 42 10000 5.14 310 14:20 19.06.2022
3050 Clear 26 1002 43 10000 5.14 300 13:23 19.06.2022
3051 Clear 26 1001 46 10000 3.13 300 11:38 19.06.2022
3052 Clear 24 998 54 10000 3.09 340 10:31 19.06.2022
3053 Clouds 21 998 70 10000 3.09 360 08:49 19.06.2022
3054 Clouds 20 998 65 10000 3.09 360 08:19 19.06.2022
3055 Clouds 18 1008 71 10000 3.09 20 05:44 19.06.2022
3056 Clouds 19 1011 76 10000 3.09 100 02:32 19.06.2022
3057 Clouds 21 1013 70 10000 2.57 60 00:26 19.06.2022
3058 Clouds 22 1013 68 10000 1.54 70 23:36 18.06.2022
3059 Clouds 23 1013 64 10000 1.03 0 22:45 18.06.2022
3060 Clouds 25 1013 57 10000 2.06 30 21:43 18.06.2022
3061 Clear 27 1013 45 10000 2.57 360 20:49 18.06.2022
3062 Clear 27 1013 45 10000 2.57 360 20:49 18.06.2022
3063 Clear 30 1012 34 10000 3.6 310 19:40 18.06.2022
3064 Clear 31 1005 34 10000 4.12 310 18:54 18.06.2022
3065 Clear 32 1002 38 10000 4.63 300 17:44 18.06.2022
3066 Clear 32 1002 38 10000 5.66 280 17:22 18.06.2022
3067 Clear 32 1002 39 10000 5.66 270 15:38 18.06.2022
3068 Clear 32 1002 33 10000 5.66 300 14:49 18.06.2022
3069 Clear 31 1002 36 10000 5.66 260 13:54 18.06.2022
3070 Clear 29 1003 39 10000 5.66 240 11:58 18.06.2022
3071 Clear 27 1007 40 10000 5.14 240 10:59 18.06.2022
3072 Clear 25 1007 39 10000 4.63 250 09:29 18.06.2022
3073 Rain 25 1007 45 10000 4.63 240 08:37 18.06.2022
3074 Clouds 21 1003 51 10000 1.54 210 07:33 18.06.2022
3075 Clouds 17 1003 54 10000 0.51 0 04:43 18.06.2022
3076 Clouds 17 1004 72 10000 2.06 130 01:27 18.06.2022
3077 Clouds 17 1005 70 10000 2.06 130 00:55 18.06.2022
3078 Clouds 18 1005 62 10000 2.57 140 00:23 18.06.2022
3079 Clouds 19 1005 59 10000 2.57 120 23:33 17.06.2022
3080 Clouds 20 1005 57 10000 1.54 120 22:27 17.06.2022
3081 Clear 24 1005 48 10000 1.03 0 20:29 17.06.2022
3082 Clear 24 1011 39 10000 1.03 0 19:20 17.06.2022
3083 Clear 25 1011 38 10000 2.57 280 17:56 17.06.2022
3084 Clear 25 1011 35 10000 3.09 0 16:44 17.06.2022
3085 Clear 25 1011 35 10000 3.6 260 16:25 17.06.2022
3086 Clear 26 1011 34 10000 3.09 230 15:37 17.06.2022
3087 Clear 24 1012 39 10000 3.6 220 14:23 17.06.2022
3088 Clear 25 1012 35 10000 3.09 260 13:58 17.06.2022
3089 Clear 24 1012 36 10000 3.09 260 13:38 17.06.2022
3090 Clear 23 1012 38 10000 2.57 280 12:28 17.06.2022
3091 Clear 23 1012 38 10000 2.57 230 11:55 17.06.2022
3092 Clear 23 1012 39 10000 2.57 230 11:33 17.06.2022
3093 Clear 20 1007 54 10000 3.09 250 09:36 17.06.2022
3094 Clear 16 1007 69 10000 2.06 250 08:26 17.06.2022
3095 Clouds 12 1006 79 10000 0.45 0 06:45 17.06.2022
3096 Clouds 10 1006 80 10000 0.45 0 03:59 17.06.2022
3097 Clouds 13 1006 61 10000 0 0 01:56 17.06.2022
3098 Clouds 15 1024 49 10000 1.54 330 23:47 16.06.2022
3099 Clouds 17 1023 48 10000 1.54 330 22:42 16.06.2022
3100 Clouds 20 1022 45 10000 3.09 320 21:22 16.06.2022
3101 Clear 20 1021 40 10000 3.6 320 20:55 16.06.2022
3102 Clear 21 1021 40 10000 3.6 320 20:35 16.06.2022
3103 Clear 22 1021 37 10000 4.63 320 19:41 16.06.2022
3104 Clear 23 1005 32 10000 4.47 333 18:24 16.06.2022
3105 Clear 24 1010 33 10000 4.12 330 17:43 16.06.2022
3106 Clear 24 1010 33 10000 5.14 320 16:35 16.06.2022
3107 Clear 24 1010 35 10000 4.12 300 15:22 16.06.2022
3108 Clear 24 1010 35 10000 4.02 314 14:37 16.06.2022
3109 Clouds 23 1009 39 10000 2.57 0 13:22 16.06.2022
3110 Clouds 22 1009 40 10000 2.57 0 12:36 16.06.2022
3111 Clear 22 1009 44 10000 3.09 360 11:51 16.06.2022
3112 Clear 22 1009 44 10000 3.09 360 11:51 16.06.2022
3113 Clear 20 1005 47 10000 3.09 10 10:55 16.06.2022
3114 Clear 19 1005 51 10000 2.24 345 09:53 16.06.2022
3115 Clear 17 1004 55 10000 3.09 320 09:21 16.06.2022
3116 Clear 16 1004 61 10000 2.06 320 08:30 16.06.2022
3117 Clear 14 1004 67 10000 1.54 310 07:26 16.06.2022
3118 Clouds 13 1018 64 10000 1.54 320 04:50 16.06.2022
3119 Clouds 15 1018 68 10000 0.51 0 02:20 16.06.2022
3120 Clouds 15 1018 71 10000 1.03 0 01:35 16.06.2022
3121 Clouds 15 1018 71 10000 1.03 0 01:35 16.06.2022
3122 Clouds 15 1018 73 10000 2.93 358 00:56 16.06.2022
3123 Clouds 17 1017 65 10000 2.57 350 23:47 15.06.2022
3124 Clouds 17 1017 65 10000 2.57 350 23:47 15.06.2022
3125 Clouds 17 1017 61 10000 1.54 360 22:38 15.06.2022
3126 Clouds 22 1017 41 10000 1.03 360 21:22 15.06.2022
3127 Clear 23 1017 41 10000 2.06 320 20:44 15.06.2022
3128 Clear 23 1017 41 10000 2.06 320 20:44 15.06.2022
3129 Clear 24 1016 29 10000 2.57 320 20:25 15.06.2022
3130 Clear 25 1007 33 10000 2.06 240 19:30 15.06.2022
3131 Clear 26 1007 34 10000 3.09 240 17:56 15.06.2022
3132 Clear 26 1007 32 10000 3.09 240 17:32 15.06.2022
3133 Clear 26 1004 33 10000 2.57 0 15:38 15.06.2022
3134 Clear 25 1004 36 10000 2.24 220 14:23 15.06.2022
3135 Clear 23 1008 39 10000 2.06 120 12:54 15.06.2022
3136 Rain 23 1008 35 10000 2.06 0 12:28 15.06.2022
3137 Clear 21 1009 46 10000 3.09 90 10:27 15.06.2022
3138 Clear 20 1009 57 10000 3.6 100 09:45 15.06.2022
3139 Clear 17 1005 59 10000 3.6 90 08:50 15.06.2022
3140 Clouds 11 990 68 10000 0.45 0 06:42 15.06.2022
3141 Clouds 9 990 75 10000 0.45 0 04:47 15.06.2022
3142 Clear 11 990 80 10000 0.45 0 01:55 15.06.2022
3143 Clear 12 990 66 10000 0.45 1 00:54 15.06.2022
3144 Clear 13 990 63 10000 1.34 0 23:55 14.06.2022
3145 Clear 13 1021 59 10000 0.61 302 23:37 14.06.2022
3146 Clouds 15 990 69 10000 0.45 0 22:28 14.06.2022
3147 Clouds 16 1021 65 10000 1.06 195 21:41 14.06.2022
3148 Clear 19 1021 38 10000 0 0 20:57 14.06.2022
3149 Clear 19 1021 38 10000 0 0 20:34 14.06.2022
3150 Clear 20 1005 40 10000 1.54 0 19:25 14.06.2022
3151 Clear 21 1010 45 10000 1.03 0 18:25 14.06.2022
3152 Clouds 21 1010 40 10000 3.6 270 16:50 14.06.2022
3153 Clouds 20 1011 41 10000 4.12 290 15:52 14.06.2022
3154 Clouds 20 1011 41 10000 4.12 290 15:34 14.06.2022
3155 Clouds 21 1011 41 10000 3.09 0 14:46 14.06.2022
3156 Clouds 19 1011 44 10000 4.12 310 13:53 14.06.2022
3157 Clouds 19 1006 43 10000 2.24 358 12:56 14.06.2022
3158 Clouds 17 1006 49 10000 4.12 290 11:52 14.06.2022
3159 Clouds 16 1006 52 10000 4.63 270 10:50 14.06.2022
3160 Clouds 16 1006 55 10000 3.09 260 10:25 14.06.2022
3161 Clouds 14 1006 66 10000 3.09 260 08:52 14.06.2022
3162 Clouds 13 1006 68 10000 2.57 260 08:23 14.06.2022
3163 Clouds 9 990 89 10000 2.17 265 06:19 14.06.2022
3164 Clouds 9 1006 84 10000 0 0 03:39 14.06.2022
3165 Clouds 10 1023 80 10000 1.03 0 01:36 14.06.2022
3166 Clouds 12 1022 62 10000 3.09 310 23:53 13.06.2022
3167 Clouds 14 1022 62 10000 2.57 320 22:39 13.06.2022
3168 Clouds 14 1022 66 10000 2.06 310 22:19 13.06.2022
3169 Clouds 16 1005 58 10000 2.57 320 21:24 13.06.2022
3170 Clouds 17 1005 47 10000 5.14 300 19:48 13.06.2022
3171 Clouds 18 1005 49 10000 3.6 310 18:54 13.06.2022
3172 Clear 19 1005 46 10000 5.14 310 17:55 13.06.2022
3173 Clear 18 1005 50 10000 4.63 280 17:23 13.06.2022
3174 Clear 18 1005 54 10000 4.12 270 16:30 13.06.2022
3175 Clouds 17 1005 55 10000 7.72 280 14:49 13.06.2022
3176 Clouds 17 1005 56 10000 5.14 310 14:31 13.06.2022
3177 Clear 16 1005 51 10000 7.2 280 13:31 13.06.2022
3178 Clouds 19 1004 50 10000 6.17 280 12:22 13.06.2022
3179 Clouds 18 1004 54 10000 4.63 270 10:37 13.06.2022
3180 Clouds 16 1004 70 10000 3.6 270 09:54 13.06.2022
3181 Clear 15 1004 63 10000 2.57 290 08:40 13.06.2022
3182 Clouds 13 1004 72 10000 1.54 280 06:37 13.06.2022
3183 Clouds 12 1004 72 10000 1.54 330 05:35 13.06.2022
3184 Clouds 15 1019 74 10000 1.03 0 01:55 13.06.2022
3185 Clouds 15 1019 73 10000 1.03 0 01:34 13.06.2022
3186 Clouds 17 1019 67 10000 1.54 350 23:48 12.06.2022
3187 Clouds 18 1018 59 10000 3.09 330 22:39 12.06.2022
3188 Clouds 20 1018 45 10000 2.57 290 21:53 12.06.2022
3189 Clear 21 1018 40 10000 2.57 290 20:53 12.06.2022
3190 Clear 23 1018 31 10000 4.63 280 19:59 12.06.2022
3191 Clear 23 1018 32 10000 4.63 270 19:30 12.06.2022
3192 Clear 24 1019 36 10000 4.63 300 17:40 12.06.2022
3193 Clear 25 1005 40 10000 6.17 280 15:57 12.06.2022
3194 Clear 25 1009 42 10000 4.63 270 14:51 12.06.2022
3195 Clear 25 1009 40 10000 6.17 250 14:20 12.06.2022
3196 Clear 24 1009 36 10000 5.14 260 13:49 12.06.2022
3197 Clouds 24 1004 41 10000 3.13 231 12:35 12.06.2022
3198 Clear 22 1005 44 10000 4.02 260 11:36 12.06.2022
3199 Clear 22 1005 53 10000 3.6 290 10:21 12.06.2022
3200 Clouds 19 1005 62 10000 1.54 260 08:54 12.06.2022
3201 Clouds 19 1005 64 10000 1.54 260 08:35 12.06.2022
3202 Clouds 17 1005 68 10000 1.54 260 07:32 12.06.2022
3203 Clouds 16 1005 73 10000 1.54 280 04:35 12.06.2022
3204 Clouds 17 1005 72 10000 0 0 02:53 12.06.2022
3205 Clouds 16 1005 82 10000 0 0 01:39 12.06.2022
3206 Clouds 16 1005 66 10000 0.51 80 00:58 12.06.2022
3207 Clouds 16 1005 81 10000 0 0 00:20 12.06.2022
3208 Clouds 17 1021 77 10000 0 0 23:40 11.06.2022
3209 Clear 18 1021 71 10000 0 0 22:38 11.06.2022
3210 Clear 21 1021 56 10000 2.06 270 21:42 11.06.2022
3211 Clear 24 1021 43 10000 2.57 280 20:36 11.06.2022
3212 Clear 24 1021 41 10000 3.6 290 19:46 11.06.2022
3213 Clear 24 1021 47 10000 4.63 290 19:25 11.06.2022
3214 Clear 25 1021 38 10000 4.12 300 18:33 11.06.2022
3215 Clear 25 1021 36 10000 5.66 270 17:51 11.06.2022
3216 Clear 25 1010 42 10000 4.12 270 17:26 11.06.2022
3217 Clear 25 1010 41 10000 5.14 260 16:55 11.06.2022
3218 Clear 25 1010 39 10000 4.47 265 16:27 11.06.2022
3219 Clear 25 1010 45 10000 5.14 280 15:31 11.06.2022
3220 Clouds 24 1010 47 10000 5.14 280 13:53 11.06.2022
3221 Clouds 25 1010 44 10000 5.14 260 12:51 11.06.2022
3222 Clouds 22 1006 58 10000 5.14 240 10:48 11.06.2022
3223 Clear 21 1005 55 10000 4.12 250 09:51 11.06.2022
3224 Clear 20 1005 65 10000 4.63 240 09:18 11.06.2022
3225 Clouds 18 1005 72 10000 2.06 210 07:41 11.06.2022
3226 Clouds 17 1005 64 10000 2.57 170 06:30 11.06.2022
3227 Clouds 16 1021 73 10000 2.06 160 04:30 11.06.2022
3228 Clouds 17 1021 61 10000 0.51 0 01:53 11.06.2022
3229 Clouds 17 1021 65 10000 0.51 0 01:33 11.06.2022
3230 Clouds 16 1005 81 10000 1.54 100 00:20 11.06.2022
3231 Clouds 18 1021 73 10000 0 0 22:32 10.06.2022
3232 Clouds 20 1021 60 10000 0 0 21:52 10.06.2022
3233 Clear 21 1021 56 10000 2.06 280 20:42 10.06.2022
3234 Clear 22 1005 54 10000 2.57 290 20:22 10.06.2022
3235 Clear 22 1021 49 10000 3.09 270 19:38 10.06.2022
3236 Clear 22 1021 49 10000 3.6 280 19:18 10.06.2022
3237 Clear 22 1021 49 10000 3.6 280 19:18 10.06.2022
3238 Clear 22 1021 49 10000 3.6 280 19:18 10.06.2022
3239 Clear 23 1021 46 10000 3.09 260 18:18 10.06.2022
3240 Clouds 22 1022 49 10000 4.63 250 17:35 10.06.2022
3241 Clear 22 1022 52 10000 3.6 270 16:51 10.06.2022
3242 Clear 24 1010 42 10000 4.12 280 15:45 10.06.2022
3243 Clear 23 1010 39 10000 4.63 250 14:57 10.06.2022
3244 Clear 23 1011 44 10000 4.63 230 13:41 10.06.2022
3245 Clear 22 1011 49 10000 4.12 280 12:24 10.06.2022
3246 Clear 22 1011 49 10000 3.6 250 11:40 10.06.2022
3247 Clear 20 1006 49 10000 3.09 270 10:37 10.06.2022
3248 Clear 19 1006 61 10000 2.57 250 09:40 10.06.2022
3249 Clear 16 1006 75 10000 2.06 240 08:23 10.06.2022
3250 Clouds 12 1006 84 10000 0.45 331 06:52 10.06.2022
3251 Clouds 11 1006 84 10000 0.45 0 06:32 10.06.2022
3252 Clouds 11 1005 83 10000 0 0 05:45 10.06.2022
3253 Clear 12 1005 79 10000 1.03 290 02:55 10.06.2022
3254 Clouds 13 1005 75 10000 0.89 0 01:38 10.06.2022
3255 Clouds 14 1019 83 10000 2.57 290 00:25 10.06.2022
3256 Clouds 15 1018 80 10000 2.57 280 23:25 09.06.2022
3257 Clouds 16 1017 77 10000 2.06 300 21:47 09.06.2022
3258 Clouds 18 1003 66 10000 2.57 290 21:29 09.06.2022
3259 Clear 18 1016 72 10000 2.57 310 20:54 09.06.2022
3260 Clear 20 1002 48 10000 4.63 280 19:55 09.06.2022
3261 Clear 20 1014 60 10000 3.6 290 18:49 09.06.2022
3262 Clear 21 1014 60 10000 4.63 290 18:21 09.06.2022
3263 Clouds 21 1002 52 10000 3.6 300 16:46 09.06.2022
3264 Clouds 22 1001 57 10000 4.63 270 15:47 09.06.2022
3265 Clouds 21 1001 53 10000 5.14 260 14:35 09.06.2022
3266 Clouds 20 1001 67 10000 4.63 270 13:47 09.06.2022
3267 Clouds 20 1001 59 10000 4.63 260 13:26 09.06.2022
3268 Clouds 18 1001 62 10000 5.14 260 11:53 09.06.2022
3269 Clouds 17 1000 72 10000 4.63 270 10:51 09.06.2022
3270 Clouds 17 1000 73 10000 4.12 270 09:42 09.06.2022
3271 Clouds 17 1000 83 10000 4.63 260 09:23 09.06.2022
3272 Clouds 15 999 85 10000 3.6 250 07:44 09.06.2022
3273 Clouds 14 999 87 10000 3.6 250 05:47 09.06.2022
3274 Rain 15 998 82 10000 1.03 0 01:59 09.06.2022
3275 Rain 16 998 77 10000 1.54 180 23:34 08.06.2022
3276 Rain 16 998 71 10000 2.06 260 22:56 08.06.2022
3277 Rain 16 998 82 10000 2.06 280 22:26 08.06.2022
3278 Rain 16 998 78 10000 3.6 280 21:52 08.06.2022
3279 Clouds 16 1008 77 10000 4.76 252 20:57 08.06.2022
3280 Clouds 19 1006 53 10000 5.14 230 19:55 08.06.2022
3281 Clouds 20 998 56 10000 1.03 0 19:27 08.06.2022
3282 Rain 22 998 58 10000 1.54 180 18:42 08.06.2022
3283 Rain 23 1000 53 10000 2.06 170 16:39 08.06.2022
3284 Clear 24 1000 43 10000 3.09 250 15:27 08.06.2022
3285 Clouds 24 998 48 10000 2.24 250 13:44 08.06.2022
3286 Clouds 22 1002 52 10000 3.09 210 11:51 08.06.2022
3287 Clouds 21 999 55 10000 3.6 230 11:26 08.06.2022
3288 Clouds 19 1000 73 10000 3.6 250 09:55 08.06.2022
3289 Clouds 19 1000 76 10000 3.6 250 09:21 08.06.2022
3290 Clouds 18 1000 71 10000 1.03 0 08:22 08.06.2022
3291 Clouds 13 1000 80 10000 1.03 100 05:47 08.06.2022
3292 Clouds 13 1000 78 10000 0 0 03:52 08.06.2022
3293 Clouds 16 1011 76 10000 2.06 260 00:29 08.06.2022
3294 Clouds 17 1011 67 10000 2.06 270 23:27 07.06.2022
3295 Clouds 18 1011 59 10000 3.09 250 22:44 07.06.2022
3296 Clouds 19 1011 55 10000 3.6 250 22:22 07.06.2022
3297 Clouds 19 1011 55 10000 3.09 260 21:33 07.06.2022
3298 Clear 19 1011 59 10000 3.6 260 20:58 07.06.2022
3299 Clear 19 1011 59 10000 3.6 260 20:32 07.06.2022
3300 Clear 20 1011 57 10000 1.54 290 19:38 07.06.2022
3301 Clear 22 1000 46 10000 4.12 310 18:22 07.06.2022
3302 Clear 22 1000 39 10000 5.14 270 17:26 07.06.2022
3303 Clear 22 1011 36 10000 5.14 260 16:43 07.06.2022
3304 Clear 22 1003 42 10000 6.17 260 15:47 07.06.2022
3305 Clear 22 1010 42 10000 7.2 270 15:26 07.06.2022
3306 Clear 22 1010 42 10000 7.2 270 15:26 07.06.2022
3307 Clear 23 1003 39 10000 7.2 260 14:47 07.06.2022
3308 Clear 22 1011 42 10000 6.69 240 14:29 07.06.2022
3309 Clear 22 1001 42 10000 5.66 260 13:30 07.06.2022
3310 Clear 22 1004 49 10000 5.66 240 12:49 07.06.2022
3311 Clouds 21 1001 42 10000 5.14 240 11:47 07.06.2022
3312 Clear 19 1001 48 10000 6.69 240 10:26 07.06.2022
3313 Clear 18 1001 60 10000 2.68 222 08:49 07.06.2022
3314 Clear 14 1001 75 10000 3.09 170 07:34 07.06.2022
3315 Clouds 12 1001 79 10000 1.54 180 06:18 07.06.2022
3316 Clouds 12 1002 75 10000 1.03 0 03:31 07.06.2022
3317 Clouds 15 1014 72 10000 4.12 260 00:45 07.06.2022
3318 Clouds 15 1013 80 10000 2.06 210 23:41 06.06.2022
3319 Clouds 15 1001 71 10000 2.06 160 22:53 06.06.2022
3320 Clear 16 1001 65 10000 2.06 160 22:28 06.06.2022
3321 Clear 19 1013 53 10000 2.06 200 20:42 06.06.2022
3322 Clear 21 1001 54 10000 3.09 210 19:24 06.06.2022
3323 Clear 21 1002 57 10000 1.54 180 18:48 06.06.2022
3324 Clouds 19 1002 72 10000 1.34 220 17:57 06.06.2022
3325 Rain 21 1001 58 10000 3.13 0 16:57 06.06.2022
3326 Clouds 21 1013 59 10000 2.57 170 15:52 06.06.2022
3327 Clouds 22 990 50 10000 0.45 222 14:59 06.06.2022
3328 Clouds 22 990 50 10000 0.45 222 14:59 06.06.2022
3329 Clouds 21 1014 50 10000 6.17 280 14:26 06.06.2022
3330 Clouds 22 1002 49 10000 4.63 250 13:20 06.06.2022
3331 Clouds 22 1002 50 10000 4.63 260 12:35 06.06.2022
3332 Clouds 21 1002 54 10000 4.63 240 11:49 06.06.2022
3333 Clouds 19 1014 54 10000 4.63 240 10:21 06.06.2022
3334 Clouds 18 1002 62 10000 5.14 240 09:23 06.06.2022
3335 Clouds 18 1001 66 10000 4.63 240 08:31 06.06.2022
3336 Clouds 17 1001 79 10000 4.47 293 07:24 06.06.2022
3337 Clouds 16 1001 81 10000 4.12 230 04:42 06.06.2022
3338 Clouds 18 1001 85 10000 3.13 212 02:27 06.06.2022
3339 Rain 18 1001 85 10000 4.63 220 00:57 06.06.2022
3340 Rain 18 1001 84 10000 4.63 220 00:35 06.06.2022
3341 Rain 19 1000 81 10000 2.06 90 23:28 05.06.2022
3342 Clouds 19 1001 81 10000 2.24 0 22:33 05.06.2022
3343 Rain 20 1013 72 10000 2.06 130 20:40 05.06.2022
3344 Rain 21 1001 65 10000 3.09 130 19:37 05.06.2022
3345 Rain 24 1004 54 10000 3.6 120 18:26 05.06.2022
3346 Rain 24 1012 47 10000 3.6 100 17:51 05.06.2022
3347 Clear 24 1005 42 10000 4.12 110 17:24 05.06.2022
3348 Rain 25 1005 40 10000 5.14 120 16:49 05.06.2022
3349 Clear 25 1005 39 10000 5.66 130 16:30 05.06.2022
3350 Clear 25 1006 39 10000 6.17 120 14:24 05.06.2022
3351 Clouds 24 1002 40 10000 4.92 85 12:49 05.06.2022
3352 Clear 23 1008 44 10000 5.66 100 11:43 05.06.2022
3353 Clear 22 1004 47 10000 5.66 110 10:33 05.06.2022
3354 Clear 20 1004 60 10000 5.14 100 09:59 05.06.2022
3355 Clouds 17 1004 55 10000 4.47 121 08:28 05.06.2022
3356 Clear 16 1004 70 10000 4.12 90 07:41 05.06.2022
3357 Clear 11 1005 74 10000 2.06 100 05:21 05.06.2022
3358 Clear 12 1005 80 10000 3.6 90 03:46 05.06.2022
3359 Clear 13 1021 63 10000 2.57 80 01:32 05.06.2022
3360 Clear 14 1021 72 10000 1.54 70 00:33 05.06.2022
3361 Clear 18 1021 58 10000 1.54 20 22:22 04.06.2022
3362 Clear 23 1020 36 10000 1.54 60 20:31 04.06.2022
3363 Clear 24 1009 38 10000 1.79 342 18:19 04.06.2022
3364 Clear 24 1010 38 10000 1.54 50 16:44 04.06.2022
3365 Clear 24 1010 36 10000 2.06 50 16:18 04.06.2022
3366 Clear 24 1010 42 10000 3.09 60 14:53 04.06.2022
3367 Clear 22 1010 44 10000 3.09 40 12:35 04.06.2022
3368 Clear 20 1005 48 10000 3.09 60 11:19 04.06.2022
3369 Clear 20 1005 51 10000 3.09 50 10:44 04.06.2022
3370 Clear 18 1005 47 10000 3.09 80 09:44 04.06.2022
3371 Clouds 17 1005 59 10000 2.06 50 08:43 04.06.2022
3372 Clouds 15 1005 66 10000 2.06 50 07:41 04.06.2022
3373 Clouds 13 1004 66 10000 1.54 0 05:30 04.06.2022
3374 Clouds 16 1004 59 10000 2.57 60 01:42 04.06.2022
3375 Clouds 18 1004 50 10000 1.54 50 23:59 03.06.2022
3376 Clouds 18 1004 50 10000 2.06 40 22:40 03.06.2022
3377 Clouds 19 1017 44 10000 1.54 40 21:39 03.06.2022
3378 Clear 22 1017 47 10000 2.06 40 20:38 03.06.2022
3379 Clear 23 1007 39 10000 2.57 90 18:54 03.06.2022
3380 Clear 23 1008 39 10000 2.68 72 16:52 03.06.2022
3381 Clear 23 1008 39 10000 3.6 110 15:37 03.06.2022
3382 Clear 22 1009 42 10000 4.12 120 13:48 03.06.2022
3383 Clear 21 1009 44 10000 4.63 110 11:51 03.06.2022
3384 Clear 18 1005 48 10000 4.12 100 09:53 03.06.2022
3385 Clear 17 1005 56 10000 3.6 100 09:28 03.06.2022
3386 Clear 9 1005 92 10000 1.54 100 07:27 03.06.2022
3387 Clear 10 1022 77 10000 2.35 99 06:45 03.06.2022
3388 Clear 7 1005 84 10000 0 0 06:27 03.06.2022
3389 Clouds 8 1005 80 10000 2.06 100 02:24 03.06.2022
3390 Clear 11 1006 68 10000 1.03 90 23:34 02.06.2022
3391 Clouds 13 1022 76 10000 1.21 40 21:57 02.06.2022
3392 Clear 17 1005 55 10000 1.03 0 20:26 02.06.2022
3393 Clear 18 1021 50 10000 2.06 280 19:54 02.06.2022
3394 Clear 18 1021 48 10000 2.06 280 19:36 02.06.2022
3395 Clear 18 1021 50 10000 3.09 280 18:34 02.06.2022
3396 Clouds 18 1006 44 10000 3.09 310 16:28 02.06.2022
3397 Clouds 18 1006 53 10000 3.6 260 15:30 02.06.2022
3398 Clouds 17 1006 47 10000 4.12 270 13:30 02.06.2022
3399 Clouds 17 1006 47 10000 4.12 270 13:30 02.06.2022
3400 Clouds 17 1006 51 10000 4.12 270 12:46 02.06.2022
3401 Clouds 14 1005 63 10000 3.6 280 10:34 02.06.2022
3402 Clouds 13 1005 80 10000 3.6 270 09:29 02.06.2022
3403 Clouds 12 1005 80 10000 4.12 250 08:39 02.06.2022
3404 Clouds 11 1005 78 10000 3.09 260 08:19 02.06.2022
3405 Clear 7 1004 86 10000 2.06 290 06:21 02.06.2022
3406 Clouds 8 1004 90 10000 2.57 270 03:50 02.06.2022
3407 Clouds 10 1003 87 10000 2.57 260 00:47 02.06.2022
3408 Clouds 11 1003 76 10000 1.34 262 22:57 01.06.2022
3409 Clouds 12 1003 72 10000 3.09 290 21:59 01.06.2022
3410 Clouds 12 1002 68 10000 2.57 280 21:24 01.06.2022
3411 Clear 13 1002 66 10000 4.12 260 20:38 01.06.2022
3412 Clear 13 1002 67 10000 4.12 270 19:52 01.06.2022
3413 Clear 14 1002 74 10000 3.6 290 18:37 01.06.2022
3414 Rain 16 1002 60 10000 3.09 280 16:58 01.06.2022
3415 Clouds 16 1001 65 10000 5.66 260 15:45 01.06.2022
3416 Clouds 17 1001 50 10000 6.17 260 14:50 01.06.2022
3417 Clouds 16 990 64 10000 0.89 0 13:26 01.06.2022
3418 Clouds 16 1001 63 10000 4.12 270 11:23 01.06.2022
3419 Clear 13 1001 73 10000 4.12 240 09:30 01.06.2022
3420 Clear 13 1001 85 10000 2.57 250 08:28 01.06.2022
3421 Clear 10 1001 87 10000 0.89 0 07:20 01.06.2022
3422 Clouds 8 1001 85 9000 1.54 100 04:53 01.06.2022
3423 Clouds 10 1001 91 10000 0 0 23:56 31.05.2022
3424 Clouds 11 1001 88 10000 2.57 210 22:43 31.05.2022
3425 Clouds 11 1001 77 10000 1.03 0 22:25 31.05.2022
3426 Clouds 11 1001 77 10000 2.06 90 21:44 31.05.2022
3427 Clouds 12 1001 78 10000 2.06 60 20:44 31.05.2022
3428 Clouds 13 1001 77 10000 4.63 230 19:52 31.05.2022
3429 Rain 15 1001 62 10000 3.13 0 18:44 31.05.2022
3430 Clear 19 1001 37 10000 2.06 0 17:49 31.05.2022
3431 Clear 19 1001 42 10000 2.24 93 16:48 31.05.2022
3432 Clear 20 1001 41 10000 2.57 0 15:40 31.05.2022
3433 Clear 18 1001 44 10000 2.06 0 13:38 31.05.2022
3434 Clear 17 1002 48 10000 4.12 150 12:19 31.05.2022
3435 Clouds 16 1002 54 10000 1.54 0 10:52 31.05.2022
3436 Clear 12 1002 72 10000 2.06 150 08:37 31.05.2022
3437 Clouds 7 1002 77 10000 0.45 159 06:57 31.05.2022
3438 Clouds 5 1002 82 10000 1.54 100 04:46 31.05.2022
3439 Clouds 8 1002 72 10000 0 0 23:53 30.05.2022
3440 Clouds 9 1002 70 10000 0 0 23:25 30.05.2022
3441 Clouds 9 1015 64 10000 0 0 22:48 30.05.2022
3442 Clouds 11 1014 71 10000 0 0 21:51 30.05.2022
3443 Clouds 11 1014 71 10000 0 0 21:32 30.05.2022
3444 Clear 13 1002 54 10000 3.6 300 19:51 30.05.2022
3445 Clouds 13 1002 61 10000 3.09 270 18:34 30.05.2022
3446 Clouds 13 1002 51 10000 3.09 280 17:24 30.05.2022
3447 Clouds 14 1002 51 10000 3.09 280 16:40 30.05.2022
3448 Clouds 13 1001 54 10000 3.09 290 14:23 30.05.2022
3449 Clouds 12 1001 59 10000 2.57 290 12:21 30.05.2022
3450 Clouds 11 1001 64 10000 3.6 300 10:40 30.05.2022
3451 Clouds 10 1001 80 10000 3.09 290 09:19 30.05.2022
3452 Clouds 9 1000 79 10000 2.57 290 06:40 30.05.2022
3453 Clouds 8 1000 79 10000 2.57 280 05:48 30.05.2022
3454 Clouds 9 1000 79 10000 2.57 290 01:33 30.05.2022
3455 Clouds 10 1000 75 10000 3.09 280 22:57 29.05.2022
3456 Clouds 10 1000 74 10000 3.09 280 22:36 29.05.2022
3457 Clouds 11 1000 70 10000 2.57 270 20:54 29.05.2022
3458 Clouds 12 1000 83 10000 3.09 290 19:32 29.05.2022
3459 Rain 13 1000 63 10000 3.6 280 18:44 29.05.2022
3460 Rain 13 1000 63 10000 4.12 280 17:31 29.05.2022
3461 Clouds 14 1000 61 10000 5.66 280 15:48 29.05.2022
3462 Clouds 14 1000 64 10000 4.12 300 14:58 29.05.2022
3463 Rain 13 1001 63 10000 4.63 260 13:53 29.05.2022
3464 Clouds 12 1001 64 10000 4.63 290 11:41 29.05.2022
3465 Clouds 12 1001 67 10000 4.63 270 10:39 29.05.2022
3466 Rain 11 1012 66 10000 5.14 290 09:18 29.05.2022
3467 Clouds 9 1001 76 10000 3.6 260 06:18 29.05.2022
3468 Clouds 9 1001 76 10000 3.6 270 04:45 29.05.2022
3469 Clouds 9 1001 76 10000 3.6 260 03:53 29.05.2022
3470 Clouds 9 1015 72 10000 4.63 290 23:50 28.05.2022
3471 Clouds 10 1002 62 10000 3.09 280 23:26 28.05.2022
3472 Clouds 10 1016 50 10000 3.6 290 22:39 28.05.2022
3473 Clear 11 1003 53 10000 5.14 290 21:38 28.05.2022
3474 Clear 14 1003 47 10000 5.66 300 19:51 28.05.2022
3475 Clear 15 1003 42 10000 6.17 300 18:54 28.05.2022
3476 Clouds 16 1003 42 10000 7.72 300 17:37 28.05.2022
3477 Clouds 16 1002 45 10000 6.69 300 16:50 28.05.2022
3478 Clouds 16 1003 48 10000 5.66 310 15:43 28.05.2022
3479 Clouds 15 1003 62 10000 7.2 270 14:28 28.05.2022
3480 Rain 14 1003 60 10000 6.69 290 13:21 28.05.2022
3481 Clouds 13 1003 63 10000 6.69 300 12:39 28.05.2022
3482 Clouds 13 1003 57 10000 7.72 280 11:23 28.05.2022
3483 Clouds 12 1003 63 10000 6.69 290 10:21 28.05.2022
3484 Clouds 11 1003 67 10000 6.69 280 09:22 28.05.2022
3485 Clouds 10 1002 78 10000 6.17 280 07:23 28.05.2022
3486 Clouds 9 1002 81 10000 4.63 280 06:26 28.05.2022
3487 Rain 8 1002 85 7000 7.2 290 03:48 28.05.2022
3488 Clouds 11 1003 69 10000 6.17 270 00:33 28.05.2022
3489 Clouds 11 1003 60 10000 6.69 270 23:34 27.05.2022
3490 Clouds 13 1003 61 10000 5.66 290 22:23 27.05.2022
3491 Clear 14 1003 47 10000 6.17 290 20:57 27.05.2022
3492 Clear 15 1003 45 10000 8.23 290 20:26 27.05.2022
3493 Clear 15 1016 41 10000 6.69 290 19:55 27.05.2022
3494 Clear 15 1016 40 10000 6.69 290 19:33 27.05.2022
3495 Clear 16 1002 46 10000 8.23 280 18:29 27.05.2022
3496 Clear 18 1003 40 10000 6.69 290 16:42 27.05.2022
3497 Clear 17 1003 51 10000 7.2 300 15:44 27.05.2022
3498 Clear 18 1003 45 10000 9.26 300 14:45 27.05.2022
3499 Clear 18 1003 49 10000 9.77 280 13:30 27.05.2022
3500 Clouds 16 1003 57 10000 6.17 290 11:43 27.05.2022
3501 Clouds 16 1003 51 10000 7.72 290 11:25 27.05.2022
3502 Clouds 15 1003 60 10000 6.69 290 10:35 27.05.2022
3503 Clouds 14 1002 69 10000 4.63 280 09:42 27.05.2022
3504 Clouds 13 1003 92 10000 4.63 280 08:24 27.05.2022
3505 Clouds 12 1003 89 10000 3.09 250 06:50 27.05.2022
3506 Clouds 14 1003 91 9000 5.66 260 02:56 27.05.2022
3507 Rain 15 1003 77 4500 3.6 290 00:54 27.05.2022
3508 Clouds 18 1003 54 10000 4.12 270 22:53 26.05.2022
3509 Clouds 18 1003 61 10000 5.14 250 21:45 26.05.2022
3510 Clouds 18 1003 52 10000 5.14 260 20:59 26.05.2022
3511 Clouds 18 1004 51 10000 5.14 270 19:30 26.05.2022
3512 Clouds 18 1004 52 10000 7.2 250 18:24 26.05.2022
3513 Clouds 18 1004 50 10000 5.14 280 16:59 26.05.2022
3514 Clouds 19 1004 54 10000 7.72 270 15:58 26.05.2022
3515 Clouds 19 1004 53 10000 6.69 270 15:18 26.05.2022
3516 Clouds 19 1004 45 10000 7.2 270 13:46 26.05.2022
3517 Clouds 18 1004 55 10000 6.69 280 11:47 26.05.2022
3518 Clouds 17 1004 61 10000 6.17 260 10:39 26.05.2022
3519 Clouds 16 1003 66 10000 6.17 250 09:37 26.05.2022
3520 Clouds 15 1003 70 10000 5.66 270 08:38 26.05.2022
3521 Clouds 15 1002 60 10000 4.63 260 05:26 26.05.2022
3522 Clouds 16 1002 50 10000 4.63 250 02:19 26.05.2022
3523 Clouds 16 1016 38 10000 5.06 222 23:50 25.05.2022
3524 Clouds 17 1015 45 10000 3.09 250 22:51 25.05.2022
3525 Clouds 18 1015 39 10000 4.63 270 21:41 25.05.2022
3526 Clear 18 1014 36 10000 5.14 260 20:47 25.05.2022
3527 Clear 19 1014 37 10000 6.17 260 19:32 25.05.2022
3528 Clear 19 1014 41 10000 6.69 260 18:47 25.05.2022
3529 Clear 20 1014 40 10000 6.69 280 16:58 25.05.2022
3530 Clear 21 1002 44 10000 5.66 270 16:27 25.05.2022
3531 Clear 20 1002 44 10000 6.69 260 15:36 25.05.2022
3532 Clear 20 1002 44 10000 6.17 240 14:50 25.05.2022
3533 Clear 20 1002 43 10000 6.17 260 14:31 25.05.2022
3534 Clouds 19 1002 50 10000 5.66 250 13:23 25.05.2022
3535 Clear 18 990 45 10000 3.13 257 11:49 25.05.2022
3536 Clouds 17 1002 54 10000 5.14 260 10:41 25.05.2022
3537 Clouds 16 1002 58 10000 4.12 250 09:38 25.05.2022
3538 Clouds 12 990 74 10000 1.79 0 07:36 25.05.2022
3539 Clouds 10 1001 79 10000 1.03 0 05:41 25.05.2022
3540 Clouds 10 990 76 10000 2.65 228 02:41 25.05.2022
3541 Clouds 12 1011 79 10000 1.03 0 23:50 24.05.2022
3542 Clouds 13 1011 71 10000 1.54 310 22:59 24.05.2022
3543 Clouds 13 1011 71 10000 1.54 310 22:59 24.05.2022
3544 Clouds 13 1010 68 10000 2.57 310 21:58 24.05.2022
3545 Clouds 14 1010 62 10000 2.57 310 21:37 24.05.2022
3546 Clouds 15 1009 67 10000 3.6 300 21:19 24.05.2022
3547 Clouds 18 999 53 10000 4.63 270 19:27 24.05.2022
3548 Clear 19 1008 48 10000 5.66 250 18:38 24.05.2022
3549 Clouds 19 998 44 10000 7.2 260 16:40 24.05.2022
3550 Clouds 19 998 48 10000 7.2 260 15:52 24.05.2022
3551 Clouds 18 998 55 10000 6.69 260 14:45 24.05.2022
3552 Clouds 17 997 70 10000 6.17 260 13:48 24.05.2022
3553 Clouds 14 997 87 10000 4.63 270 12:35 24.05.2022
3554 Clear 17 996 62 10000 4.63 240 09:52 24.05.2022
3555 Clouds 17 996 66 10000 4.47 251 09:27 24.05.2022
3556 Clouds 16 996 67 10000 4.12 220 08:42 24.05.2022
3557 Clouds 15 996 81 10000 4.12 270 06:42 24.05.2022
3558 Clouds 16 994 81 10000 6.69 250 03:48 24.05.2022
3559 Clouds 17 994 77 10000 2.57 180 01:48 24.05.2022
3560 Clouds 17 994 84 10000 3.6 160 00:57 24.05.2022
3561 Clear 19 999 55 10000 4.63 120 22:29 23.05.2022
3562 Clear 20 999 49 10000 5.14 120 21:53 23.05.2022
3563 Clear 21 999 46 10000 4.63 120 20:55 23.05.2022
3564 Clear 21 995 56 10000 5.14 130 20:26 23.05.2022
3565 Clear 21 995 48 10000 5.14 130 19:31 23.05.2022
3566 Clear 22 997 47 10000 6.69 130 18:43 23.05.2022
3567 Clear 22 997 46 10000 6.17 120 18:22 23.05.2022
3568 Clear 23 1002 40 10000 7.72 120 16:51 23.05.2022
3569 Clear 23 1004 39 10000 6.69 110 14:52 23.05.2022
3570 Clear 21 1000 46 10000 7.72 110 12:50 23.05.2022
3571 Clear 18 998 60 10000 6.17 110 11:26 23.05.2022
3572 Clear 16 999 58 10000 4.47 119 09:50 23.05.2022
3573 Clear 16 999 59 10000 4.12 100 09:28 23.05.2022
3574 Clear 15 999 67 10000 4.63 90 08:20 23.05.2022
3575 Clouds 12 1000 70 10000 2.57 100 06:45 23.05.2022
3576 Clouds 10 1000 74 10000 3.6 90 05:25 23.05.2022
3577 Clouds 10 1001 71 10000 2.06 110 02:23 23.05.2022
3578 Clouds 11 1001 79 10000 2.06 100 01:37 23.05.2022
3579 Clouds 11 1001 79 10000 2.06 100 00:20 23.05.2022
3580 Clouds 13 990 62 10000 0.89 0 22:36 22.05.2022
3581 Clouds 14 1014 57 10000 0 0 21:55 22.05.2022
3582 Clear 17 1014 55 10000 1.03 50 20:54 22.05.2022
3583 Clear 18 1002 39 10000 1.79 104 20:31 22.05.2022
3584 Clear 18 1014 39 10000 2.06 300 19:56 22.05.2022
3585 Clear 19 1002 42 10000 2.06 0 18:55 22.05.2022
3586 Clear 20 1002 41 10000 1.54 0 18:25 22.05.2022
3587 Clear 20 1002 46 10000 2.06 0 17:34 22.05.2022
3588 Clear 20 1002 44 10000 1.54 0 16:36 22.05.2022
3589 Clouds 19 1003 48 10000 2.57 0 14:53 22.05.2022
3590 Clouds 18 1003 53 10000 3.6 240 13:54 22.05.2022
3591 Clouds 17 1003 57 10000 3.09 280 12:52 22.05.2022
3592 Clouds 16 1003 50 10000 3.6 300 11:47 22.05.2022
3593 Clouds 15 1003 69 10000 3.13 344 10:24 22.05.2022
3594 Clouds 14 1004 67 10000 2.06 310 09:18 22.05.2022
3595 Clouds 11 1004 78 10000 0.45 342 07:22 22.05.2022
3596 Clouds 9 1004 90 10000 1.54 280 06:27 22.05.2022
3597 Clouds 11 1018 85 10000 0 0 02:50 22.05.2022
3598 Clouds 12 1019 82 10000 1.54 300 00:44 22.05.2022
3599 Clouds 12 1019 76 10000 2.06 290 23:56 21.05.2022
3600 Clouds 12 1019 76 10000 2.57 290 23:22 21.05.2022
3601 Clouds 14 1018 74 10000 2.57 300 21:55 21.05.2022
3602 Clouds 14 1003 70 10000 3.6 300 21:30 21.05.2022
3603 Clouds 16 1004 55 10000 4.63 280 20:29 21.05.2022
3604 Clouds 16 1004 56 10000 3.6 280 19:43 21.05.2022
3605 Clouds 16 1004 71 10000 4.63 270 18:45 21.05.2022
3606 Clouds 17 1004 67 10000 5.66 290 16:57 21.05.2022
3607 Rain 16 1004 65 10000 5.66 290 14:39 21.05.2022
3608 Clouds 16 1004 74 10000 6.69 260 13:55 21.05.2022
3609 Clouds 16 1004 59 10000 8.23 260 13:19 21.05.2022
3610 Clouds 16 1004 59 10000 6.69 260 12:38 21.05.2022
3611 Clouds 15 1018 75 10000 6.69 240 11:25 21.05.2022
3612 Clouds 13 1004 67 10000 5.66 260 09:57 21.05.2022
3613 Clouds 13 990 66 10000 3.58 0 08:59 21.05.2022
3614 Clouds 13 990 65 10000 3.58 0 08:38 21.05.2022
3615 Clouds 11 990 85 10000 2.24 0 06:20 21.05.2022
3616 Clouds 14 990 71 10000 4.92 0 01:41 21.05.2022
3617 Clouds 16 1013 90 10000 11.02 263 23:32 20.05.2022
3618 Clouds 18 990 72 10000 5.36 260 22:30 20.05.2022
3619 Clouds 18 990 91 10000 1.79 240 21:56 20.05.2022
3620 Clouds 19 1000 83 10000 2.06 360 21:19 20.05.2022
3621 Clouds 19 1000 83 10000 2.06 360 20:47 20.05.2022
3622 Clouds 19 1001 80 10000 1.54 70 19:45 20.05.2022
3623 Rain 20 1001 86 10000 1.54 100 18:53 20.05.2022
3624 Rain 22 1001 73 10000 2.57 90 18:18 20.05.2022
3625 Clear 23 1006 51 10000 2.57 110 16:23 20.05.2022
3626 Clear 24 1006 58 10000 1.54 0 15:54 20.05.2022
3627 Clear 23 1003 57 10000 3.13 67 15:20 20.05.2022
3628 Clear 23 1004 56 10000 2.06 0 14:27 20.05.2022
3629 Clear 21 1004 60 10000 2.06 0 12:37 20.05.2022
3630 Clouds 19 1005 60 10000 2.06 320 10:47 20.05.2022
3631 Clouds 16 1005 69 10000 4.12 290 09:27 20.05.2022
3632 Clouds 16 1005 75 10000 4.12 290 08:27 20.05.2022
3633 Clouds 15 1005 91 10000 3.6 280 06:43 20.05.2022
3634 Clouds 15 1005 90 10000 3.09 290 05:40 20.05.2022
3635 Clouds 16 1005 83 10000 2.57 270 02:41 20.05.2022
3636 Clouds 17 1004 78 10000 4.12 240 23:47 19.05.2022
3637 Clouds 17 1004 78 10000 3.6 230 22:37 19.05.2022
3638 Clouds 17 1004 80 10000 1.54 190 21:51 19.05.2022
3639 Clouds 18 1004 79 10000 1.03 0 21:24 19.05.2022
3640 Clear 18 1004 76 10000 2.06 300 20:52 19.05.2022
3641 Rain 18 1005 71 10000 4.63 280 19:54 19.05.2022
3642 Rain 22 1019 61 10000 6.69 310 19:19 19.05.2022
3643 Clouds 28 1015 31 10000 3.46 218 17:46 19.05.2022
3644 Clear 28 1016 34 10000 4.12 0 15:58 19.05.2022
3645 Clear 28 1016 35 10000 5.14 150 14:50 19.05.2022
3646 Clear 27 1017 36 10000 4.12 150 14:21 19.05.2022
3647 Clear 27 1017 36 10000 4.12 150 14:21 19.05.2022
3648 Clear 26 1019 41 10000 3.6 140 12:19 19.05.2022
3649 Clear 25 1019 38 10000 3.6 200 10:31 19.05.2022
3650 Clear 21 1020 51 10000 1.54 160 08:46 19.05.2022
3651 Clear 18 1020 56 10000 1.54 90 07:33 19.05.2022
3652 Clouds 16 1020 68 10000 2.57 110 04:23 19.05.2022
3653 Clouds 18 1021 59 10000 2.57 110 01:28 19.05.2022
3654 Clouds 18 1021 64 10000 2.06 120 23:49 18.05.2022
3655 Clouds 19 1021 56 10000 2.06 110 22:45 18.05.2022
3656 Clouds 21 1021 67 10000 2.57 110 21:45 18.05.2022
3657 Clouds 22 1021 60 10000 3.09 120 21:24 18.05.2022
3658 Clear 24 1021 57 10000 4.12 130 20:23 18.05.2022
3659 Clear 26 1021 42 10000 4.12 140 19:32 18.05.2022
3660 Clear 27 1020 42 10000 4.12 150 18:20 18.05.2022
3661 Clear 27 1020 42 10000 4.63 150 17:41 18.05.2022
3662 Clear 27 1020 41 10000 3.09 150 17:22 18.05.2022
3663 Clear 27 1021 42 10000 3.09 150 15:59 18.05.2022
3664 Clear 27 1021 42 10000 3.09 150 15:38 18.05.2022
3665 Clouds 26 1021 44 10000 3.09 0 14:30 18.05.2022
3666 Clouds 26 1021 44 10000 3.09 0 14:30 18.05.2022
3667 Clear 25 1022 47 10000 3.6 150 12:59 18.05.2022
3668 Clear 25 1022 54 10000 3.6 150 12:39 18.05.2022
3669 Clear 23 1006 62 10000 4.12 150 11:34 18.05.2022
3670 Clear 23 1006 65 10000 4.63 160 10:52 18.05.2022
3671 Clear 23 1006 65 10000 4.63 160 10:52 18.05.2022
3672 Clear 18 1006 73 10000 3.13 124 08:53 18.05.2022
3673 Clear 16 1006 84 10000 2.57 100 07:29 18.05.2022
3674 Clouds 15 1006 83 10000 2.57 100 05:21 18.05.2022
3675 Clouds 16 1006 77 10000 2.06 100 00:52 18.05.2022
3676 Clouds 16 1005 86 10000 1.54 110 00:20 18.05.2022
3677 Clouds 17 1021 79 10000 1.03 0 21:39 17.05.2022
3678 Clouds 18 1005 76 10000 2.06 90 21:19 17.05.2022
3679 Clear 21 1005 56 10000 3.6 90 19:52 17.05.2022
3680 Clouds 22 1004 56 10000 4.12 100 19:27 17.05.2022
3681 Clouds 22 1005 59 10000 4.12 90 17:50 17.05.2022
3682 Clouds 23 1005 53 10000 4.47 62 16:58 17.05.2022
3683 Clear 24 1020 37 10000 4.63 270 16:29 17.05.2022
3684 Clear 24 1020 38 10000 4.63 290 15:24 17.05.2022
3685 Clouds 24 1020 47 10000 5.14 280 14:30 17.05.2022
3686 Clouds 22 1020 56 10000 4.63 290 13:32 17.05.2022
3687 Clouds 21 1020 66 10000 2.57 300 11:37 17.05.2022
3688 Clouds 18 1005 74 10000 3.09 290 09:27 17.05.2022
3689 Clouds 16 1005 81 10000 2.06 290 08:25 17.05.2022
3690 Clouds 15 1004 83 4000 0.89 0 06:46 17.05.2022
3691 Clouds 15 1004 81 10000 4.12 270 03:20 17.05.2022
3692 Clouds 18 1018 79 10000 4.12 280 00:43 17.05.2022
3693 Clouds 17 1017 83 10000 2.57 260 22:43 16.05.2022
3694 Clouds 18 1016 85 10000 2.06 270 21:41 16.05.2022
3695 Rain 18 1003 68 10000 0 0 20:47 16.05.2022
3696 Rain 20 1002 67 10000 0 0 19:46 16.05.2022
3697 Rain 22 1006 53 10000 3.6 270 18:20 16.05.2022
3698 Clear 24 1014 36 10000 3.6 130 15:50 16.05.2022
3699 Clear 24 1015 32 10000 5.14 100 14:26 16.05.2022
3700 Clear 24 1006 38 10000 5.66 110 13:23 16.05.2022
3701 Clear 22 1017 44 10000 6.69 110 11:25 16.05.2022
3702 Clear 19 1003 52 10000 4.63 100 09:47 16.05.2022
3703 Clouds 11 1003 62 10000 5.14 90 06:58 16.05.2022
3704 Clouds 10 1004 65 10000 2.06 100 03:58 16.05.2022
3705 Clouds 13 1004 55 10000 2.57 90 23:44 15.05.2022
3706 Clouds 14 1019 67 10000 1.54 90 22:34 15.05.2022
3707 Clouds 16 1019 55 10000 1.54 80 21:47 15.05.2022
3708 Clear 20 1019 42 10000 1.54 90 20:59 15.05.2022
3709 Clear 22 1019 35 10000 2.57 90 19:53 15.05.2022
3710 Clear 22 1019 41 10000 2.57 0 17:52 15.05.2022
3711 Clear 23 1019 35 10000 2.57 0 16:35 15.05.2022
3712 Clear 21 1010 45 10000 2.06 0 14:18 15.05.2022
3713 Clear 20 1006 46 10000 2.06 0 13:23 15.05.2022
3714 Clear 19 1006 51 10000 2.06 0 11:55 15.05.2022
3715 Clear 18 1006 47 10000 2.57 80 10:35 15.05.2022
3716 Clear 14 1006 63 10000 3.09 100 08:52 15.05.2022
3717 Clear 8 1006 80 6000 1.03 110 06:59 15.05.2022
3718 Clear 10 1022 64 10000 1.45 106 06:38 15.05.2022
3719 Clear 9 1006 80 10000 0 0 01:43 15.05.2022
3720 Clear 11 1021 58 10000 1.03 0 23:52 14.05.2022
3721 Clear 11 1021 58 10000 1.03 0 23:33 14.05.2022
3722 Clear 15 1021 58 10000 0 0 21:45 14.05.2022
3723 Clear 15 1021 61 10000 1.54 360 21:19 14.05.2022
3724 Clear 20 1020 40 10000 5.14 290 19:40 14.05.2022
3725 Clear 19 1020 45 10000 3.09 320 19:40 14.05.2022
3726 Clear 19 1020 44 10000 5.14 290 19:20 14.05.2022
3727 Clear 20 1020 44 10000 4.12 320 18:47 14.05.2022
3728 Clear 20 1020 44 10000 5.14 300 17:36 14.05.2022
3729 Clear 20 1005 47 10000 5.14 300 15:47 14.05.2022
3730 Clouds 21 1009 40 10000 6.69 280 14:37 14.05.2022
3731 Clouds 18 1005 59 10000 5.66 290 12:51 14.05.2022
3732 Clouds 18 1005 53 10000 5.14 280 11:37 14.05.2022
3733 Clear 16 1020 65 10000 5.14 260 10:24 14.05.2022
3734 Clear 16 1005 68 10000 4.12 280 09:56 14.05.2022
3735 Clear 15 1005 58 10000 4.63 280 09:19 14.05.2022
3736 Clouds 12 1004 62 10000 4.12 250 07:23 14.05.2022
3737 Clouds 10 1019 64 10000 0 0 03:45 14.05.2022
3738 Clouds 11 1019 78 10000 2.57 280 00:25 14.05.2022
3739 Clouds 12 1019 75 10000 2.57 270 23:24 13.05.2022
3740 Clouds 12 1019 74 10000 2.57 270 22:54 13.05.2022
3741 Clouds 13 1019 67 10000 3.09 260 22:20 13.05.2022
3742 Clear 17 1018 51 10000 4.63 260 20:58 13.05.2022
3743 Clear 17 1018 51 10000 4.63 260 20:32 13.05.2022
3744 Clear 17 1018 42 10000 5.14 270 19:51 13.05.2022
3745 Clear 17 1004 53 10000 6.17 260 18:47 13.05.2022
3746 Clear 18 1004 45 10000 7.2 290 17:30 13.05.2022
3747 Clouds 18 990 42 10000 2.68 292 16:29 13.05.2022
3748 Clouds 18 1004 43 10000 7.2 260 15:45 13.05.2022
3749 Clouds 17 1004 44 10000 8.23 270 14:38 13.05.2022
3750 Clouds 17 990 56 10000 4.47 316 12:51 13.05.2022
3751 Clouds 16 1003 49 10000 8.75 260 11:54 13.05.2022
3752 Clouds 14 1003 54 10000 5.66 270 09:55 13.05.2022
3753 Clouds 14 1003 56 10000 5.66 260 09:26 13.05.2022
3754 Clouds 12 1003 66 10000 0.45 0 07:51 13.05.2022
3755 Clouds 10 1003 77 10000 0.89 0 06:50 13.05.2022
3756 Clouds 10 1016 60 10000 0.51 0 05:23 13.05.2022
3757 Clouds 11 1003 65 10000 0.45 0 00:59 13.05.2022
3758 Clouds 13 1003 68 10000 0.45 0 23:23 12.05.2022
3759 Clouds 14 1017 51 10000 2.06 280 22:34 12.05.2022
3760 Clouds 16 1016 59 10000 2.06 270 21:26 12.05.2022
3761 Clear 18 1017 38 10000 4.12 270 19:51 12.05.2022
3762 Clear 19 1003 40 10000 5.14 270 18:27 12.05.2022
3763 Clear 19 1003 39 10000 5.14 270 16:45 12.05.2022
3764 Clear 19 1004 39 10000 6.69 260 14:57 12.05.2022
3765 Clouds 18 1004 48 10000 5.66 270 13:50 12.05.2022
3766 Clouds 17 1004 48 10000 5.66 260 12:29 12.05.2022
3767 Clouds 15 1004 69 10000 5.66 270 10:34 12.05.2022
3768 Clouds 13 1003 61 10000 6.17 280 08:56 12.05.2022
3769 Clouds 13 1003 62 10000 6.17 280 08:35 12.05.2022
3770 Clouds 12 1002 65 10000 6.17 290 07:25 12.05.2022
3771 Clouds 14 1000 78 10000 5.81 0 04:45 12.05.2022
3772 Rain 17 1008 56 10000 3.09 290 01:37 12.05.2022
3773 Clouds 19 1008 52 10000 1.54 280 23:36 11.05.2022
3774 Clouds 21 1008 49 10000 3.09 290 22:22 11.05.2022
3775 Clouds 23 1007 43 10000 3.09 290 21:27 11.05.2022
3776 Clear 24 1007 41 10000 4.12 290 20:45 11.05.2022
3777 Clear 26 1007 33 10000 5.66 270 17:54 11.05.2022
3778 Clear 25 1007 33 10000 6.17 280 16:47 11.05.2022
3779 Clear 25 1002 39 10000 7.72 260 14:49 11.05.2022
3780 Clear 26 1002 43 10000 8.23 260 14:25 11.05.2022
3781 Clear 25 1002 42 10000 8.23 250 13:44 11.05.2022
3782 Clear 24 1003 49 10000 5.14 240 11:50 11.05.2022
3783 Clear 19 1000 64 10000 3.09 150 09:39 11.05.2022
3784 Clouds 16 1001 77 10000 3.09 160 07:53 11.05.2022
3785 Rain 16 1001 75 10000 1.54 160 04:43 11.05.2022
3786 Clouds 17 1015 72 10000 1.54 330 00:41 11.05.2022
3787 Clouds 22 1013 46 10000 3.6 230 22:30 10.05.2022
3788 Clouds 21 1013 49 10000 3.6 230 21:45 10.05.2022
3789 Clear 23 1013 38 10000 5.14 220 20:52 10.05.2022
3790 Clouds 24 1013 33 10000 4.63 220 19:25 10.05.2022
3791 Clear 24 1013 35 10000 5.66 220 17:47 10.05.2022
3792 Clear 24 1014 31 10000 5.66 220 16:41 10.05.2022
3793 Clear 24 1007 37 10000 6.17 260 14:33 10.05.2022
3794 Clear 24 1004 37 10000 4.63 240 12:37 10.05.2022
3795 Clear 23 1008 44 10000 5.66 250 11:49 10.05.2022
3796 Clear 22 1008 39 10000 4.63 250 11:18 10.05.2022
3797 Clear 20 1004 51 10000 2.06 190 09:59 10.05.2022
3798 Clear 18 1005 64 10000 3.09 190 09:25 10.05.2022
3799 Clouds 12 1005 62 10000 2.06 100 06:44 10.05.2022
3800 Clouds 11 1005 60 10000 2.06 90 03:29 10.05.2022
3801 Clear 12 1023 74 10000 2.06 110 00:34 10.05.2022
3802 Clear 14 1023 66 10000 2.06 90 22:44 09.05.2022
3803 Clear 15 1023 58 10000 2.06 100 21:50 09.05.2022
3804 Clear 21 1023 37 10000 2.06 130 20:30 09.05.2022
3805 Clear 21 1024 33 10000 2.57 0 18:43 09.05.2022
3806 Clear 21 1024 30 10000 2.57 130 17:44 09.05.2022
3807 Clear 22 1025 30 10000 2.06 0 16:30 09.05.2022
3808 Clear 22 1025 30 10000 2.06 0 16:30 09.05.2022
3809 Clear 21 1024 30 10000 3.09 0 15:51 09.05.2022
3810 Clear 21 1025 32 10000 3.09 0 15:21 09.05.2022
3811 Clear 21 1007 37 10000 4.12 110 14:29 09.05.2022
3812 Clear 20 1014 38 10000 3.6 0 13:40 09.05.2022
3813 Clear 19 1008 39 10000 4.12 110 12:21 09.05.2022
3814 Clear 18 1028 37 10000 2.57 100 11:18 09.05.2022
3815 Clear 17 1008 44 10000 2.57 110 10:42 09.05.2022
3816 Clear 12 1008 61 10000 3.09 90 08:45 09.05.2022
3817 Clear 9 1008 80 10000 1.54 100 07:54 09.05.2022
3818 Clouds 6 1054 64 10000 2.06 90 03:21 09.05.2022
3819 Clear 10 1053 49 10000 1.54 60 23:34 08.05.2022
3820 Clear 10 1053 53 10000 0.51 0 22:55 08.05.2022
3821 Clear 11 1027 57 10000 1.03 0 21:55 08.05.2022
3822 Clear 17 1026 29 10000 1.54 40 20:35 08.05.2022
3823 Clear 19 1026 27 10000 1.54 30 19:45 08.05.2022
3824 Clear 18 1026 24 10000 1.54 0 18:54 08.05.2022
3825 Clear 19 1053 28 10000 2.06 0 18:18 08.05.2022
3826 Clear 18 1053 29 10000 2.57 330 16:44 08.05.2022
3827 Clear 18 1053 33 10000 3.09 0 15:39 08.05.2022
3828 Clear 17 1053 38 10000 2.57 0 14:57 08.05.2022
3829 Clear 15 1053 48 10000 3.09 290 12:33 08.05.2022
3830 Clear 12 1053 64 10000 2.57 0 10:32 08.05.2022
3831 Clear 11 1053 57 10000 2.57 320 09:58 08.05.2022
3832 Clear 11 1053 57 10000 2.57 320 09:58 08.05.2022
3833 Clouds 10 1053 62 10000 2.57 330 08:57 08.05.2022
3834 Clouds 9 1053 68 10000 1.54 330 07:31 08.05.2022
3835 Clouds 11 1052 71 10000 3.6 350 03:55 08.05.2022
3836 Clouds 11 1052 82 10000 2.57 350 02:51 08.05.2022
3837 Clear 13 1024 82 10000 1.03 330 00:28 08.05.2022
3838 Clouds 13 1024 82 10000 0 0 23:51 07.05.2022
3839 Clouds 14 1023 78 10000 1.54 360 22:51 07.05.2022
3840 Clouds 14 1023 77 10000 1.54 360 22:33 07.05.2022
3841 Clouds 15 1023 72 10000 2.06 360 21:34 07.05.2022
3842 Clear 16 1022 59 10000 3.6 340 20:42 07.05.2022
3843 Clouds 17 1022 84 10000 3.74 352 19:58 07.05.2022
3844 Clear 21 1021 48 10000 3.09 320 17:43 07.05.2022
3845 Clouds 21 1051 50 10000 3.6 290 15:51 07.05.2022
3846 Clouds 21 1022 52 10000 3.09 320 14:19 07.05.2022
3847 Clouds 17 1023 59 10000 2.57 310 10:57 07.05.2022
3848 Clear 16 1023 48 10000 2.57 250 09:22 07.05.2022
3849 Clouds 13 1051 74 10000 0.45 0 07:52 07.05.2022
3850 Clouds 12 1022 72 10000 0 0 06:43 07.05.2022
3851 Clouds 13 1022 61 10000 2.11 248 05:22 07.05.2022
3852 Clouds 12 1022 47 10000 0 0 02:21 07.05.2022
3853 Clouds 13 1051 60 10000 0.45 0 23:38 06.05.2022
3854 Clouds 16 1051 49 10000 0 0 22:31 06.05.2022
3855 Clouds 16 1051 46 10000 0 0 21:44 06.05.2022
3856 Clear 18 1023 49 10000 0 0 20:35 06.05.2022
3857 Clear 19 1023 39 10000 1.54 280 19:40 06.05.2022
3858 Clear 19 1023 43 10000 1.54 260 19:00 06.05.2022
3859 Clear 20 1023 37 10000 2.06 300 18:23 06.05.2022
3860 Clear 21 1051 41 10000 2.57 0 16:53 06.05.2022
3861 Clear 20 1052 41 10000 1.79 32 15:42 06.05.2022
3862 Clear 20 1052 44 10000 1.54 0 14:53 06.05.2022
3863 Clouds 19 1052 51 10000 2.06 0 12:56 06.05.2022
3864 Clouds 19 1052 49 10000 2.24 297 12:37 06.05.2022
3865 Clear 18 1052 53 10000 2.57 0 11:45 06.05.2022
3866 Clear 16 1052 50 10000 1.03 0 10:30 06.05.2022
3867 Clear 15 1052 56 10000 1.03 0 09:46 06.05.2022
3868 Clear 11 1052 67 10000 0.51 0 08:33 06.05.2022
3869 Clouds 9 1025 64 10000 0.78 196 06:48 06.05.2022
3870 Clouds 6 1052 73 10000 1.03 90 05:37 06.05.2022
3871 Clouds 7 1052 71 10000 0 0 02:50 06.05.2022
3872 Clouds 9 1052 74 10000 0 0 00:26 06.05.2022
3873 Clear 12 1051 51 10000 1.03 0 22:28 05.05.2022
3874 Clouds 13 1023 65 10000 3.05 30 21:22 05.05.2022
3875 Clear 17 1021 39 10000 1.54 340 19:55 05.05.2022
3876 Clear 18 1021 38 10000 3.6 330 18:34 05.05.2022
3877 Clear 19 1050 40 10000 3.6 300 16:33 05.05.2022
3878 Clear 18 1051 41 10000 4.12 280 14:51 05.05.2022
3879 Clear 17 1051 44 10000 3.09 300 13:24 05.05.2022
3880 Clear 16 1051 44 10000 3.09 280 12:49 05.05.2022
3881 Clear 14 1050 47 10000 2.57 310 10:52 05.05.2022
3882 Clear 12 1050 52 10000 1.54 0 09:40 05.05.2022
3883 Clear 8 1050 71 10000 1.03 0 07:36 05.05.2022
3884 Clouds 8 1049 67 10000 2.57 290 05:19 05.05.2022
3885 Clouds 10 1049 62 10000 1.03 0 01:59 05.05.2022
3886 Clouds 11 1049 62 10000 1.54 360 01:29 05.05.2022
3887 Clouds 12 1049 62 10000 0 0 23:53 04.05.2022
3888 Clouds 12 1048 61 10000 1.54 340 22:46 04.05.2022
3889 Clouds 13 1048 71 10000 1.54 310 21:54 04.05.2022
3890 Clouds 13 1048 72 10000 0 0 21:29 04.05.2022
3891 Clear 15 1016 47 10000 0 0 20:30 04.05.2022
3892 Clouds 16 1017 62 10000 2.1 326 19:56 04.05.2022
3893 Clear 16 1016 57 10000 1.03 0 19:31 04.05.2022
3894 Clear 16 1048 49 10000 1.03 0 18:22 04.05.2022
3895 Clouds 17 1048 44 10000 1.79 358 17:59 04.05.2022
3896 Clear 17 1048 57 10000 1.54 0 15:57 04.05.2022
3897 Clouds 17 1048 57 10000 1.54 160 15:30 04.05.2022
3898 Clear 17 1048 55 10000 1.54 0 14:38 04.05.2022
3899 Clear 17 1049 48 10000 2.57 90 14:18 04.05.2022
3900 Clear 15 1049 58 10000 1.03 0 12:34 04.05.2022
3901 Clear 14 1049 52 10000 2.06 0 11:25 04.05.2022
3902 Clear 11 1049 57 10000 2.06 30 09:50 04.05.2022
3903 Clear 9 1049 65 10000 1.54 30 08:56 04.05.2022
3904 Clear 7 1049 75 10000 0.45 0 07:33 04.05.2022
3905 Clouds 6 1049 83 10000 0 0 04:34 04.05.2022
3906 Clouds 7 1019 64 10000 0 0 02:33 04.05.2022
3907 Clouds 10 1049 62 10000 0.45 335 22:59 03.05.2022
3908 Clear 11 1049 68 10000 0.89 0 21:47 03.05.2022
3909 Clear 12 1048 65 10000 2.57 340 21:21 03.05.2022
3910 Clear 13 1017 49 10000 3.09 340 20:39 03.05.2022
3911 Clouds 16 1049 55 10000 4.12 330 19:21 03.05.2022
3912 Clouds 16 1016 51 10000 4.12 340 18:42 03.05.2022
3913 Clear 17 1017 45 10000 3.09 340 17:21 03.05.2022
3914 Clouds 18 1017 48 10000 4.1 343 15:51 03.05.2022
3915 Clouds 17 1049 46 10000 3.6 310 14:23 03.05.2022
3916 Clear 16 1049 49 10000 3.6 270 12:35 03.05.2022
3917 Clear 14 1049 49 10000 2.57 330 11:35 03.05.2022
3918 Clear 14 1049 40 10000 1.54 0 10:44 03.05.2022
3919 Clear 9 1049 56 10000 1.54 280 08:19 03.05.2022
3920 Clouds 7 1048 60 10000 1.54 280 06:45 03.05.2022
3921 Clouds 9 1017 52 10000 0 0 02:39 03.05.2022
3922 Clouds 12 1018 62 10000 2.06 20 23:19 02.05.2022
3923 Clouds 13 1017 65 10000 1.03 330 22:29 02.05.2022
3924 Clouds 13 1017 65 10000 1.03 330 22:29 02.05.2022
3925 Clouds 13 1017 63 10000 1.54 350 21:47 02.05.2022
3926 Clear 18 1016 42 10000 2.57 320 19:30 02.05.2022
3927 Clear 18 1017 47 10000 2.06 280 18:26 02.05.2022
3928 Clear 19 1017 44 10000 1.03 0 17:41 02.05.2022
3929 Clear 19 1017 44 10000 1.03 0 17:41 02.05.2022
3930 Clear 19 1017 47 10000 1.54 0 16:43 02.05.2022
3931 Clear 19 1049 49 10000 1.03 0 15:44 02.05.2022
3932 Clear 18 1049 49 10000 2.57 0 14:51 02.05.2022
3933 Clear 18 1049 51 10000 3.09 0 13:45 02.05.2022
3934 Clear 16 1050 48 10000 2.06 0 11:41 02.05.2022
3935 Clear 13 1050 70 10000 1.54 0 09:59 02.05.2022
3936 Clear 11 1050 65 10000 2.06 110 08:31 02.05.2022
3937 Clear 9 1050 71 10000 0.45 0 07:23 02.05.2022
3938 Clouds 9 1051 61 10000 0.51 0 00:48 02.05.2022
3939 Clouds 9 1051 64 10000 0 0 00:22 02.05.2022
3940 Clouds 10 1051 60 10000 0 0 23:40 01.05.2022
3941 Clouds 11 1051 56 10000 0 0 21:46 01.05.2022
3942 Clear 13 1050 53 10000 0 0 20:50 01.05.2022
3943 Clear 14 1050 47 10000 1.03 0 19:40 01.05.2022
3944 Clear 14 1051 46 10000 1.03 0 18:53 01.05.2022
3945 Clear 14 1051 45 10000 1.54 350 17:57 01.05.2022
3946 Clear 14 1051 52 10000 2.06 270 16:46 01.05.2022
3947 Clear 15 1051 51 10000 1.34 339 16:23 01.05.2022
3948 Clouds 14 1051 43 10000 2.06 0 14:58 01.05.2022
3949 Clouds 13 1052 51 10000 1.03 0 13:23 01.05.2022
3950 Clouds 10 1052 68 10000 1.03 0 10:46 01.05.2022
3951 Clouds 9 1052 66 10000 1.03 0 08:51 01.05.2022
3952 Clouds 9 1051 66 10000 2.06 340 06:53 01.05.2022
3953 Clouds 10 1051 60 10000 2.06 340 02:51 01.05.2022
3954 Clear 11 1051 53 10000 0.89 0 22:58 30.04.2022
3955 Clear 12 1051 52 10000 1.54 330 21:35 30.04.2022
3956 Clear 12 1051 51 10000 2.06 320 20:35 30.04.2022
3957 Clear 13 1051 52 10000 3.09 300 19:33 30.04.2022
3958 Clear 14 1051 46 10000 2.57 320 17:38 30.04.2022
3959 Clear 15 1051 46 10000 4.12 290 16:34 30.04.2022
3960 Clear 15 1052 57 10000 3.6 0 15:19 30.04.2022
3961 Clear 14 1052 60 10000 3.09 310 14:31 30.04.2022
3962 Clouds 12 1052 67 10000 2.06 330 12:36 30.04.2022
3963 Clouds 12 1052 67 10000 2.06 330 12:36 30.04.2022
3964 Rain 10 1052 61 10000 1.54 310 11:33 30.04.2022
3965 Clouds 9 1052 63 10000 2.68 0 10:40 30.04.2022
3966 Clouds 8 1078 66 10000 1.34 0 08:54 30.04.2022
3967 Clouds 7 1078 67 10000 0.89 0 05:38 30.04.2022
3968 Clouds 10 1026 69 10000 2.83 310 00:35 30.04.2022
3969 Clouds 10 1026 42 10000 2.95 322 23:36 29.04.2022
3970 Clouds 12 1078 41 10000 1.34 0 22:31 29.04.2022
3971 Clouds 12 1078 59 10000 1.34 0 21:27 29.04.2022
3972 Clear 13 1025 50 10000 3.09 10 20:39 29.04.2022
3973 Clear 15 1025 47 10000 2.06 340 19:38 29.04.2022
3974 Clear 18 1052 38 10000 2.06 310 17:50 29.04.2022
3975 Clear 18 1052 43 10000 1.54 0 17:21 29.04.2022
3976 Clear 18 1053 41 10000 1.54 0 14:57 29.04.2022
3977 Clear 18 1053 43 10000 2.06 0 14:20 29.04.2022
3978 Clear 17 1054 49 10000 2.06 0 12:48 29.04.2022
3979 Clear 12 1054 56 10000 1.03 0 10:59 29.04.2022
3980 Clear 8 1054 63 10000 1.03 0 08:33 29.04.2022
3981 Clear 5 1054 69 10000 0 0 07:27 29.04.2022
3982 Clouds 5 1054 73 10000 1.54 290 06:38 29.04.2022
3983 Clouds 5 1054 82 10000 1.54 320 04:43 29.04.2022
3984 Clouds 8 1030 67 10000 2.06 350 00:39 29.04.2022
3985 Clouds 8 1054 71 10000 0 0 23:27 28.04.2022
3986 Clouds 9 1029 70 10000 0.51 0 22:41 28.04.2022
3987 Clouds 10 1029 63 10000 0.51 0 21:47 28.04.2022
3988 Clear 12 1028 57 10000 2.06 280 20:57 28.04.2022
3989 Clear 14 1028 49 10000 1.54 280 20:25 28.04.2022
3990 Clear 16 1028 36 10000 2.06 330 19:41 28.04.2022
3991 Clear 16 1054 38 10000 2.68 283 19:22 28.04.2022
3992 Clear 16 1028 45 10000 2.57 270 18:35 28.04.2022
3993 Clear 16 1054 44 10000 3.09 330 17:20 28.04.2022
3994 Clear 17 1054 46 10000 4.12 290 16:40 28.04.2022
3995 Clear 16 1054 47 10000 4.02 283 16:18 28.04.2022
3996 Clear 16 1054 48 10000 3.58 326 15:28 28.04.2022
3997 Clouds 15 1054 53 10000 2.57 280 13:44 28.04.2022
3998 Clear 14 1055 50 10000 2.57 0 12:44 28.04.2022
3999 Clear 13 1055 60 10000 2.57 290 11:58 28.04.2022
4000 Clear 12 1054 54 10000 1.03 0 10:46 28.04.2022
4001 Clear 10 1054 71 10000 1.54 340 09:56 28.04.2022
4002 Clear 7 1054 72 10000 1.54 290 08:31 28.04.2022
4003 Clear 5 1054 75 10000 1.54 300 07:19 28.04.2022
4004 Clouds 3 1054 87 10000 1.03 270 05:56 28.04.2022
4005 Clouds 4 1054 87 10000 1.03 270 05:38 28.04.2022
4006 Clouds 4 1054 73 10000 1.03 300 04:39 28.04.2022
4007 Clouds 8 1027 72 10000 1.03 0 00:30 28.04.2022
4008 Clouds 10 1026 55 10000 1.03 0 22:40 27.04.2022
4009 Clouds 11 1026 52 10000 1.54 340 21:56 27.04.2022
4010 Clouds 11 1025 64 10000 1.54 330 21:26 27.04.2022
4011 Clear 13 1025 54 10000 2.57 320 20:38 27.04.2022
4012 Clear 15 1024 51 10000 3.6 300 19:38 27.04.2022
4013 Clear 16 1052 51 10000 4.12 290 19:18 27.04.2022
4014 Clear 16 1052 52 10000 3.09 320 18:22 27.04.2022
4015 Clear 17 1052 48 10000 3.6 300 17:24 27.04.2022
4016 Clear 16 1024 47 10000 3.09 270 15:22 27.04.2022
4017 Clear 15 1052 46 10000 1.54 0 12:27 27.04.2022
4018 Clear 13 1052 53 10000 2.24 331 11:21 27.04.2022
4019 Clear 11 1052 72 10000 1.03 0 09:59 27.04.2022
4020 Clear 6 1051 75 10000 1.54 290 07:25 27.04.2022
4021 Clouds 5 1051 79 10000 1.54 270 05:50 27.04.2022
4022 Clouds 8 1050 71 10000 1.54 30 01:52 27.04.2022
4023 Clouds 9 1020 82 10000 1.54 310 00:52 27.04.2022
4024 Clouds 10 1049 79 10000 1.54 340 23:58 26.04.2022
4025 Clouds 10 1050 80 10000 0.89 0 23:23 26.04.2022
4026 Clouds 11 1049 75 10000 0 0 22:42 26.04.2022
4027 Clouds 11 1018 73 10000 0 0 21:49 26.04.2022
4028 Clear 12 1018 71 10000 0 0 20:56 26.04.2022
4029 Clear 12 1018 70 10000 0 0 20:35 26.04.2022
4030 Clear 13 1017 67 10000 0 0 19:34 26.04.2022
4031 Clear 14 1048 52 10000 0 0 18:51 26.04.2022
4032 Clear 14 1048 62 10000 0 0 18:18 26.04.2022
4033 Clear 14 1048 60 10000 1.03 320 17:33 26.04.2022
4034 Clouds 15 1078 50 10000 0.45 0 14:46 26.04.2022
4035 Rain 15 1078 48 9558 0.45 2 13:34 26.04.2022
4036 Clouds 15 1048 48 10000 2.06 130 12:34 26.04.2022
4037 Clear 14 1048 61 10000 1.54 120 10:46 26.04.2022
4038 Clear 12 1047 73 10000 2.06 130 09:50 26.04.2022
4039 Clouds 8 1047 78 5000 0.51 0 08:28 26.04.2022
4040 Clouds 5 1047 82 4600 1.03 0 04:37 26.04.2022
4041 Clouds 6 1047 82 10000 1.03 0 02:40 26.04.2022
4042 Clouds 8 1047 76 10000 0 0 00:28 26.04.2022
4043 Clouds 8 1047 76 10000 0 0 23:43 25.04.2022
4044 Clouds 10 1047 72 10000 0.45 0 21:44 25.04.2022
4045 Clouds 10 1047 72 10000 0.45 0 21:44 25.04.2022
4046 Clear 11 1046 67 10000 2.06 340 20:49 25.04.2022
4047 Clear 12 1046 60 10000 2.06 300 19:39 25.04.2022
4048 Clear 13 1047 71 10000 2.06 180 18:25 25.04.2022
4049 Clear 13 1046 73 10000 1.54 0 17:39 25.04.2022
4050 Clouds 12 1046 67 10000 2.06 210 15:51 25.04.2022
4051 Clouds 10 1046 70 10000 1.54 0 15:19 25.04.2022
4052 Clouds 9 1047 77 10000 1.54 30 14:22 25.04.2022
4053 Clouds 8 1046 89 10000 1.54 0 12:40 25.04.2022
4054 Clouds 7 1045 83 10000 2.06 70 10:29 25.04.2022
4055 Clouds 6 1045 87 10000 2.06 50 09:36 25.04.2022
4056 Rain 6 1045 85 10000 1.03 0 07:34 25.04.2022
4057 Rain 6 1045 90 10000 1.54 60 05:53 25.04.2022
4058 Clouds 8 1044 71 10000 2.24 0 01:27 25.04.2022
4059 Clouds 8 1043 67 10000 2.57 40 23:54 24.04.2022
4060 Clouds 9 1043 63 10000 3.13 33 23:20 24.04.2022
4061 Clouds 10 1006 56 10000 1.54 0 22:37 24.04.2022
4062 Clouds 11 1006 63 10000 2.57 50 21:54 24.04.2022
4063 Clouds 12 1005 61 10000 2.57 30 21:21 24.04.2022
4064 Clear 13 1005 50 10000 3.09 50 20:41 24.04.2022
4065 Clear 14 1004 47 10000 3.09 0 19:57 24.04.2022
4066 Clear 14 1042 47 10000 3.09 50 18:33 24.04.2022
4067 Clear 14 1042 47 10000 3.13 0 17:41 24.04.2022
4068 Clear 14 1042 49 10000 3.6 40 17:20 24.04.2022
4069 Clouds 15 1042 55 10000 4.02 0 16:51 24.04.2022
4070 Clear 15 1042 49 10000 4.12 50 16:22 24.04.2022
4071 Clear 15 1042 48 10000 5.36 0 15:36 24.04.2022
4072 Clear 15 1042 57 10000 4.12 50 14:31 24.04.2022
4073 Clear 14 1043 58 10000 4.12 30 13:26 24.04.2022
4074 Clear 14 1043 59 10000 4.12 40 12:46 24.04.2022
4075 Clear 13 1042 52 10000 4.63 50 11:46 24.04.2022
4076 Clouds 11 1078 52 10000 3.13 4 10:37 24.04.2022
4077 Clouds 10 1043 56 10000 3.13 0 09:42 24.04.2022
4078 Clear 6 1043 73 10000 3.09 70 07:41 24.04.2022
4079 Clear 6 1043 69 10000 2.68 11 05:38 24.04.2022
4080 Clouds 9 1043 54 10000 4.12 80 01:58 24.04.2022
4081 Clouds 10 1044 55 10000 4.12 80 00:45 24.04.2022
4082 Clouds 10 1044 54 10000 3.13 0 23:46 23.04.2022
4083 Clouds 11 1044 53 10000 3.6 90 23:25 23.04.2022
4084 Clouds 12 1043 56 10000 2.06 80 21:58 23.04.2022
4085 Clouds 12 1006 54 10000 2.06 80 21:36 23.04.2022
4086 Clear 13 1006 50 10000 3.09 80 20:59 23.04.2022
4087 Clear 15 1007 36 10000 6.17 100 19:56 23.04.2022
4088 Clear 16 1044 42 10000 6.17 90 19:20 23.04.2022
4089 Clear 16 1007 40 10000 6.69 100 18:53 23.04.2022
4090 Clear 17 1044 40 10000 6.69 110 18:31 23.04.2022
4091 Clear 17 1044 39 10000 6.69 100 17:44 23.04.2022
4092 Clear 17 1044 40 10000 7.2 100 16:45 23.04.2022
4093 Clear 17 1044 41 10000 6.26 82 15:36 23.04.2022
4094 Clear 16 1045 46 10000 6.69 90 13:24 23.04.2022
4095 Clear 14 1045 44 10000 7.2 110 11:29 23.04.2022
4096 Clear 11 1046 54 10000 5.14 90 09:39 23.04.2022
4097 Clouds 7 1045 75 10000 3.6 100 07:52 23.04.2022
4098 Clouds 8 1045 71 10000 4.12 80 03:57 23.04.2022
4099 Clouds 9 1045 56 10000 2.57 80 02:34 23.04.2022
4100 Clouds 12 1009 59 10000 5.14 90 23:34 22.04.2022
4101 Clouds 12 1009 71 10000 3.6 80 22:40 22.04.2022
4102 Clouds 12 1009 66 10000 3.09 80 21:56 22.04.2022
4103 Clouds 12 1009 66 10000 3.09 80 21:38 22.04.2022
4104 Clouds 13 1044 50 10000 6.17 90 20:30 22.04.2022
4105 Clouds 14 1044 53 10000 6.26 0 19:24 22.04.2022
4106 Clouds 14 1044 56 10000 4.12 80 18:56 22.04.2022
4107 Clouds 14 1044 49 10000 5.14 90 18:24 22.04.2022
4108 Clouds 14 1044 49 10000 5.66 80 16:54 22.04.2022
4109 Clouds 15 1044 47 10000 6.17 90 15:58 22.04.2022
4110 Clouds 15 1044 47 10000 6.17 100 15:23 22.04.2022
4111 Clouds 15 1045 49 10000 4.12 70 14:38 22.04.2022
4112 Clouds 13 1045 53 10000 5.14 100 13:41 22.04.2022
4113 Clouds 11 1045 64 10000 4.47 0 12:36 22.04.2022
4114 Clouds 10 1078 73 10000 2.24 0 11:23 22.04.2022
4115 Clouds 9 1045 77 10000 3.09 60 10:56 22.04.2022
4116 Clouds 8 1045 78 10000 3.6 90 10:32 22.04.2022
4117 Clouds 8 1045 82 10000 4.02 0 09:57 22.04.2022
4118 Clouds 7 1045 77 10000 3.6 90 09:21 22.04.2022
4119 Clouds 7 1045 77 10000 2.57 0 08:42 22.04.2022
4120 Clouds 7 1045 82 10000 3.09 70 06:38 22.04.2022
4121 Clouds 9 1046 87 6000 0 0 01:24 22.04.2022
4122 Clouds 9 1046 85 10000 1.54 90 23:33 21.04.2022
4123 Clouds 9 1046 84 10000 2.06 70 22:43 21.04.2022
4124 Rain 10 1046 92 10000 2.57 80 21:42 21.04.2022
4125 Drizzle 11 1047 70 10000 4.12 80 20:31 21.04.2022
4126 Clouds 12 1047 53 10000 4.63 100 18:49 21.04.2022
4127 Clouds 12 1047 54 10000 4.63 90 18:28 21.04.2022
4128 Clouds 12 1047 54 10000 3.6 80 17:20 21.04.2022
4129 Clouds 12 1046 60 10000 3.13 0 16:19 21.04.2022
4130 Clouds 12 1047 54 10000 2.57 40 15:19 21.04.2022
4131 Clear 11 1047 70 10000 2.06 110 14:28 21.04.2022
4132 Clear 10 1047 54 10000 2.06 90 13:21 21.04.2022
4133 Clear 10 1047 48 10000 2.06 30 12:25 21.04.2022
4134 Clouds 8 1047 57 10000 2.68 85 09:58 21.04.2022
4135 Clouds 7 1047 57 10000 1.54 80 08:47 21.04.2022
4136 Clouds 5 1047 75 10000 1.54 30 06:44 21.04.2022
4137 Clouds 5 1047 73 10000 2.06 20 03:42 21.04.2022
4138 Clouds 6 1047 68 10000 1.79 0 03:22 21.04.2022
4139 Clouds 6 1047 68 10000 2.24 33 02:44 21.04.2022
4140 Clouds 6 1047 68 10000 2.24 33 02:44 21.04.2022
4141 Clouds 8 1015 51 10000 2.06 350 00:35 21.04.2022
4142 Clouds 9 1015 41 10000 1.54 20 23:40 20.04.2022
4143 Clouds 9 1016 49 10000 2.06 360 23:18 20.04.2022
4144 Clouds 9 1016 53 10000 2.06 350 22:41 20.04.2022
4145 Clouds 11 1015 58 10000 1.03 0 21:57 20.04.2022
4146 Clear 11 1015 59 10000 1.03 0 20:50 20.04.2022
4147 Clear 13 1048 58 10000 1.54 40 20:21 20.04.2022
4148 Clear 13 1015 51 10000 2.06 60 19:47 20.04.2022
4149 Clear 14 1048 44 10000 2.06 50 18:52 20.04.2022
4150 Clear 14 1048 45 10000 2.06 40 17:53 20.04.2022
4151 Clear 14 1048 45 10000 3.09 60 16:39 20.04.2022
4152 Clear 14 1048 42 10000 3.13 14 15:39 20.04.2022
4153 Clouds 13 1049 48 10000 4.12 70 12:47 20.04.2022
4154 Clear 12 1049 52 10000 2.57 0 11:42 20.04.2022
4155 Clouds 10 1078 61 10000 0.89 0 10:53 20.04.2022
4156 Clear 8 1049 63 10000 2.06 110 09:45 20.04.2022
4157 Clear 7 1049 54 10000 2.06 60 08:54 20.04.2022
4158 Clear 6 1049 57 10000 1.79 0 08:20 20.04.2022
4159 Clouds 3 1049 75 10000 1.03 0 06:49 20.04.2022
4160 Clouds 4 1049 80 10000 1.03 0 03:33 20.04.2022
4161 Clouds 7 1048 59 10000 1.54 60 00:22 20.04.2022
4162 Clouds 8 1049 60 10000 1.54 60 23:31 19.04.2022
4163 Clouds 9 1049 57 10000 2.57 70 22:24 19.04.2022
4164 Clouds 9 1017 56 10000 2.57 70 21:55 19.04.2022
4165 Clouds 10 1048 52 10000 2.06 70 21:19 19.04.2022
4166 Clouds 12 1016 45 10000 3.09 70 20:41 19.04.2022
4167 Clear 14 1015 35 10000 3.6 70 19:43 19.04.2022
4168 Clear 14 1015 39 10000 3.09 50 18:47 19.04.2022
4169 Clear 15 1047 35 10000 3.09 60 17:28 19.04.2022
4170 Clear 15 1047 34 10000 3.6 70 16:43 19.04.2022
4171 Clear 15 1047 33 10000 4.02 89 16:21 19.04.2022
4172 Clear 14 1048 33 10000 3.6 0 14:48 19.04.2022
4173 Clear 14 1048 33 10000 5.36 0 13:35 19.04.2022
4174 Clear 13 1048 42 10000 3.09 50 12:50 19.04.2022
4175 Clear 12 1048 39 10000 4.02 0 11:55 19.04.2022
4176 Clouds 10 1078 42 10000 2.24 0 10:25 19.04.2022
4177 Clear 8 1048 57 10000 2.57 80 09:18 19.04.2022
4178 Clouds 4 1048 75 10000 2.06 60 04:56 19.04.2022
4179 Clouds 4 1048 75 10000 0.51 0 03:25 19.04.2022
4180 Clouds 6 1048 81 10000 0 0 00:54 19.04.2022
4181 Clouds 7 1048 66 10000 0 0 23:30 18.04.2022
4182 Clouds 10 1048 50 10000 1.54 70 21:30 18.04.2022
4183 Clouds 10 1048 50 10000 1.54 70 21:30 18.04.2022
4184 Clouds 11 1017 53 10000 1.54 70 20:55 18.04.2022
4185 Clouds 12 1017 52 10000 1.54 70 20:32 18.04.2022
4186 Clear 14 1017 36 10000 2.57 90 19:49 18.04.2022
4187 Clear 15 1049 41 10000 2.57 90 18:56 18.04.2022
4188 Clear 16 1049 39 10000 3.09 110 17:57 18.04.2022
4189 Clear 16 1049 40 10000 1.54 0 17:33 18.04.2022
4190 Clear 16 1049 38 10000 4.12 110 16:55 18.04.2022
4191 Clear 16 1049 39 10000 4.12 110 16:31 18.04.2022
4192 Clear 15 1050 37 10000 3.09 100 14:51 18.04.2022
4193 Clear 15 1050 40 10000 3.09 0 13:36 18.04.2022
4194 Clear 14 1050 47 10000 3.09 130 12:30 18.04.2022
4195 Clear 13 1051 51 10000 3.6 90 11:35 18.04.2022
4196 Clear 12 1051 49 10000 3.6 100 10:32 18.04.2022
4197 Clear 9 1078 65 10000 1.34 96 09:31 18.04.2022
4198 Clear 4 1051 75 10000 1.54 110 07:54 18.04.2022
4199 Clear 2 1051 68 10000 1.03 120 05:41 18.04.2022
4200 Clouds 4 1052 79 10000 1.03 110 00:49 18.04.2022
4201 Clouds 6 1052 51 10000 1.54 80 22:42 17.04.2022
4202 Clouds 8 1052 47 10000 0 0 21:49 17.04.2022
4203 Clouds 9 1052 42 10000 1.03 90 21:27 17.04.2022
4204 Clouds 10 1025 29 10000 1.54 100 20:41 17.04.2022
4205 Clear 13 1025 26 10000 4.63 110 19:40 17.04.2022
4206 Clear 14 1053 31 10000 4.63 90 18:21 17.04.2022
4207 Clear 15 1054 29 10000 5.14 100 16:27 17.04.2022
4208 Clear 14 1054 35 10000 4.63 100 15:26 17.04.2022
4209 Clear 14 1054 36 10000 4.12 100 14:25 17.04.2022
4210 Clear 13 1055 32 10000 4.63 120 13:18 17.04.2022
4211 Clear 12 1055 40 10000 6.69 110 12:28 17.04.2022
4212 Clear 10 1056 35 10000 3.13 109 10:46 17.04.2022
4213 Clear 10 1056 37 10000 3.09 120 10:28 17.04.2022
4214 Clear 8 1056 41 10000 3.13 144 09:37 17.04.2022
4215 Clouds 6 1056 48 10000 2.57 100 08:54 17.04.2022
4216 Clouds 2 1056 69 10000 2.06 90 07:53 17.04.2022
4217 Clouds 1 1056 80 10000 1.54 100 04:52 17.04.2022
4218 Clouds 4 1014 67 10000 2.06 110 01:39 17.04.2022
4219 Clouds 5 1015 58 10000 1.54 110 23:57 16.04.2022
4220 Clouds 6 1015 54 10000 1.54 90 22:41 16.04.2022
4221 Clouds 7 1034 57 10000 1.54 70 21:41 16.04.2022
4222 Clear 9 1033 54 10000 1.54 80 20:45 16.04.2022
4223 Clear 12 1014 38 10000 3.6 100 19:20 16.04.2022
4224 Clear 13 1014 40 10000 4.12 100 18:32 16.04.2022
4225 Clear 13 1015 41 10000 4.63 90 16:42 16.04.2022
4226 Clear 13 1015 41 10000 4.63 100 15:46 16.04.2022
4227 Clear 13 1015 39 10000 4.12 80 14:57 16.04.2022
4228 Clear 12 1015 39 10000 5.66 100 14:29 16.04.2022
4229 Clear 11 1015 50 10000 5.66 100 13:41 16.04.2022
4230 Clear 10 1015 57 10000 3.6 110 12:35 16.04.2022
4231 Clouds 8 1015 55 10000 5.14 100 11:24 16.04.2022
4232 Clouds 7 997 54 10000 3.58 85 10:25 16.04.2022
4233 Clouds 6 1015 62 10000 4.63 90 09:32 16.04.2022
4234 Clouds 4 1015 78 10000 3.09 100 08:41 16.04.2022
4235 Clouds 2 1015 82 10000 1.54 70 07:21 16.04.2022
4236 Clouds 3 1014 77 10000 3.09 70 04:54 16.04.2022
4237 Clouds 7 1013 80 10000 2.57 60 00:40 16.04.2022
4238 Clouds 8 1013 87 10000 3.6 80 23:40 15.04.2022
4239 Clouds 9 1013 79 10000 4.02 56 22:48 15.04.2022
4240 Clouds 9 1013 80 10000 1.54 0 22:28 15.04.2022
4241 Clouds 9 1012 80 10000 2.06 360 21:20 15.04.2022
4242 Clouds 9 1013 80 10000 1.54 360 20:36 15.04.2022
4243 Clouds 10 1012 78 10000 2.57 350 19:43 15.04.2022
4244 Clouds 10 1012 78 10000 2.57 350 19:43 15.04.2022
4245 Clouds 10 1012 75 10000 4.02 345 18:58 15.04.2022
4246 Clouds 10 1012 74 10000 3.6 350 18:26 15.04.2022
4247 Clouds 11 1012 73 10000 3.09 340 17:57 15.04.2022
4248 Clouds 11 1012 73 10000 3.09 330 17:24 15.04.2022
4249 Clouds 11 1012 70 10000 3.6 330 16:24 15.04.2022
4250 Clouds 11 1012 52 10000 4.12 330 15:42 15.04.2022
4251 Clouds 11 1012 52 10000 4.12 330 15:42 15.04.2022
4252 Clouds 11 1011 53 10000 4.12 320 13:55 15.04.2022
4253 Clouds 11 1011 61 10000 3.6 320 12:50 15.04.2022
4254 Clouds 10 1011 55 10000 4.12 290 12:24 15.04.2022
4255 Clouds 10 1011 74 10000 4.63 300 11:50 15.04.2022
4256 Clouds 9 1011 75 10000 4.12 300 10:46 15.04.2022
4257 Clouds 9 1010 79 10000 3.6 300 09:59 15.04.2022
4258 Clouds 9 997 91 10000 2.68 296 09:22 15.04.2022
4259 Clouds 8 1010 91 10000 2.57 290 08:40 15.04.2022
4260 Clouds 8 1010 79 10000 3.6 290 06:50 15.04.2022
4261 Clouds 8 1010 80 10000 4.12 290 04:49 15.04.2022
4262 Clouds 10 1022 80 10000 2.57 320 00:46 15.04.2022
4263 Clouds 10 1009 77 10000 2.57 300 23:26 14.04.2022
4264 Clouds 11 1009 76 10000 2.06 300 22:46 14.04.2022
4265 Clouds 11 1009 75 10000 2.06 290 22:27 14.04.2022
4266 Clear 12 1009 86 10000 2.06 300 21:50 14.04.2022
4267 Clear 14 1008 71 10000 2.06 290 19:51 14.04.2022
4268 Clouds 15 1008 68 10000 2.57 290 19:22 14.04.2022
4269 Clear 15 1008 74 10000 1.54 210 17:46 14.04.2022
4270 Rain 15 1008 73 8000 1.03 0 17:18 14.04.2022
4271 Clouds 17 1008 58 10000 2.57 260 16:21 14.04.2022
4272 Clouds 15 1008 78 10000 2.57 220 13:55 14.04.2022
4273 Clouds 14 1008 80 10000 2.57 220 13:26 14.04.2022
4274 Clouds 14 1008 87 10000 3.09 220 12:33 14.04.2022
4275 Rain 14 1008 84 10000 2.57 230 11:47 14.04.2022
4276 Clouds 13 997 81 10000 0.89 229 11:21 14.04.2022
4277 Clouds 13 1008 82 6000 2.06 240 10:36 14.04.2022
4278 Rain 12 1008 89 5000 1.54 280 09:52 14.04.2022
4279 Rain 12 1008 82 5000 1.54 260 08:39 14.04.2022
4280 Clouds 12 1008 81 10000 0 0 06:26 14.04.2022
4281 Clouds 14 1007 75 10000 3.6 330 01:50 14.04.2022
4282 Rain 15 1007 59 10000 0 0 22:45 13.04.2022
4283 Clouds 15 1007 51 10000 0 0 21:44 13.04.2022
4284 Clear 17 1006 52 10000 0 0 20:53 13.04.2022
4285 Clear 18 1006 58 10000 0 0 20:22 13.04.2022
4286 Clear 20 1006 43 10000 1.03 0 19:23 13.04.2022
4287 Clear 22 1009 38 10000 1.54 310 17:55 13.04.2022
4288 Clear 22 1009 38 10000 1.54 290 17:23 13.04.2022
4289 Clear 22 1009 38 10000 1.54 270 16:33 13.04.2022
4290 Clear 22 1008 37 10000 2.06 300 15:35 13.04.2022
4291 Clear 22 1009 38 10000 1.03 0 14:50 13.04.2022
4292 Clear 21 1009 38 10000 1.54 290 14:18 13.04.2022
4293 Clear 21 1009 40 10000 1.54 0 13:19 13.04.2022
4294 Clear 20 1009 44 10000 1.79 261 12:25 13.04.2022
4295 Clear 15 1006 47 10000 1.03 0 10:47 13.04.2022
4296 Clear 13 1015 51 10000 1.03 0 09:41 13.04.2022
4297 Clear 11 1015 61 10000 1.03 100 08:42 13.04.2022
4298 Clouds 8 1005 68 10000 0.45 158 06:51 13.04.2022
4299 Clouds 7 1005 59 10000 0.89 177 06:25 13.04.2022
4300 Clouds 8 1005 56 10000 2.24 168 05:20 13.04.2022
4301 Clouds 11 1014 44 10000 3.09 110 00:21 13.04.2022
4302 Clouds 12 1014 40 10000 3.6 90 23:45 12.04.2022
4303 Clouds 13 1014 31 10000 4.63 110 22:19 12.04.2022
4304 Clouds 14 1005 40 10000 4.63 100 21:18 12.04.2022
4305 Clear 15 1014 30 10000 4.63 110 20:41 12.04.2022
4306 Clear 16 1013 36 10000 5.14 120 19:50 12.04.2022
4307 Clear 16 1005 42 10000 5.14 120 19:31 12.04.2022
4308 Clear 18 1005 36 10000 6.17 110 18:31 12.04.2022
4309 Clear 18 1005 34 10000 6.69 110 17:28 12.04.2022
4310 Clear 18 1005 34 10000 6.69 110 17:28 12.04.2022
4311 Clear 19 1005 31 10000 7.2 110 16:23 12.04.2022
4312 Clear 18 1006 31 10000 7.72 120 15:33 12.04.2022
4313 Clear 17 1006 38 10000 8.23 110 14:29 12.04.2022
4314 Clear 16 1006 41 10000 7.2 110 13:37 12.04.2022
4315 Clouds 16 997 40 10000 4.47 116 12:52 12.04.2022
4316 Clear 14 1006 44 10000 6.17 100 11:47 12.04.2022
4317 Clear 13 1006 52 10000 6.17 100 11:20 12.04.2022
4318 Clear 8 1006 63 10000 4.02 126 09:24 12.04.2022
4319 Clear 5 1006 61 10000 3.6 100 07:59 12.04.2022
4320 Clouds 4 1006 61 10000 2.57 90 06:32 12.04.2022
4321 Clouds 4 1006 61 10000 2.57 90 06:32 12.04.2022
4322 Clouds 4 1006 65 10000 3.6 90 05:34 12.04.2022
4323 Clouds 5 1007 53 10000 2.57 90 00:46 12.04.2022
4324 Clouds 6 1007 58 10000 2.06 90 22:53 11.04.2022
4325 Clouds 7 1007 50 10000 0 0 21:49 11.04.2022
4326 Clouds 9 1007 50 10000 1.03 0 20:59 11.04.2022
4327 Clouds 10 997 57 10000 1.95 83 20:29 11.04.2022
4328 Clear 11 1017 46 10000 1.03 0 19:55 11.04.2022
4329 Clear 13 1007 39 10000 1.03 0 19:21 11.04.2022
4330 Clear 13 1007 38 10000 2.06 310 18:48 11.04.2022
4331 Clear 14 1007 39 10000 1.03 0 17:57 11.04.2022
4332 Clear 14 1007 41 10000 3.6 280 16:57 11.04.2022
4333 Clear 13 1007 40 10000 2.57 230 16:20 11.04.2022
4334 Clear 13 1007 43 10000 3.09 310 14:35 11.04.2022
4335 Clear 12 1008 41 10000 2.68 270 12:53 11.04.2022
4336 Clear 12 1008 41 10000 2.57 320 12:35 11.04.2022
4337 Clear 11 1008 46 10000 3.09 280 11:37 11.04.2022
4338 Clear 9 1008 51 10000 3.6 250 10:34 11.04.2022
4339 Clear 6 1008 63 10000 2.57 220 09:22 11.04.2022
4340 Clouds 0 1008 84 10000 1.03 100 06:51 11.04.2022
4341 Clouds 2 1008 82 10000 1.03 0 02:30 11.04.2022
4342 Rain 4 1008 57 10000 2.57 270 22:54 10.04.2022
4343 Clouds 4 1008 84 10000 2.57 260 22:26 10.04.2022
4344 Clouds 4 1008 59 10000 2.57 270 21:33 10.04.2022
4345 Clear 5 1008 59 10000 3.6 270 20:33 10.04.2022
4346 Clouds 7 1008 51 10000 5.36 272 19:45 10.04.2022
4347 Clear 7 1007 48 10000 4.12 290 19:23 10.04.2022
4348 Clear 8 1007 47 10000 6.17 290 18:45 10.04.2022
4349 Clouds 8 1007 44 10000 8.23 290 17:55 10.04.2022
4350 Clouds 8 1007 47 10000 8.23 290 17:35 10.04.2022
4351 Clouds 8 1007 48 10000 7.2 300 16:33 10.04.2022
4352 Clouds 7 1007 49 10000 7.2 290 15:30 10.04.2022
4353 Clouds 8 1007 44 10000 7.72 290 14:25 10.04.2022
4354 Clouds 7 997 52 10000 6.26 259 12:35 10.04.2022
4355 Clouds 7 997 52 10000 6.26 259 12:35 10.04.2022
4356 Clouds 6 1007 58 10000 5.66 280 11:56 10.04.2022
4357 Clouds 7 1007 55 10000 7.2 280 11:29 10.04.2022
4358 Clouds 6 1006 58 10000 6.69 280 10:56 10.04.2022
4359 Clouds 6 1006 59 10000 6.69 270 09:58 10.04.2022
4360 Clouds 5 1006 57 10000 6.69 270 09:38 10.04.2022
4361 Clouds 4 1006 87 10000 5.36 266 08:23 10.04.2022
4362 Clouds 3 1006 86 10000 4.63 270 07:35 10.04.2022
4363 Clouds 3 1005 79 10000 6.17 260 05:50 10.04.2022
4364 Clouds 3 1005 79 10000 5.14 260 02:34 10.04.2022
4365 Clouds 3 1004 84 10000 4.63 260 00:29 10.04.2022
4366 Clouds 3 1004 84 10000 4.63 260 23:49 09.04.2022
4367 Clouds 3 1004 82 10000 4.12 250 22:48 09.04.2022
4368 Clouds 3 1004 82 10000 6.17 260 21:35 09.04.2022
4369 Clear 4 1003 79 10000 6.17 270 20:50 09.04.2022
4370 Clear 4 1003 78 10000 6.17 260 20:26 09.04.2022
4371 Clear 4 1003 62 10000 6.17 270 19:42 09.04.2022
4372 Clouds 5 1003 61 10000 6.69 260 19:18 09.04.2022
4373 Rain 6 1003 59 10000 6.17 270 18:21 09.04.2022
4374 Clear 6 1002 59 10000 5.66 270 17:39 09.04.2022
4375 Clouds 7 1008 60 10000 7.2 270 16:53 09.04.2022
4376 Clouds 7 997 65 10000 4.02 282 15:57 09.04.2022
4377 Clouds 6 1002 71 10000 9.26 290 15:39 09.04.2022
4378 Clouds 7 997 56 10000 4.92 0 14:44 09.04.2022
4379 Clouds 8 1001 59 10000 9.26 270 14:23 09.04.2022
4380 Clouds 8 1001 51 10000 7.2 290 13:20 09.04.2022
4381 Clouds 9 1001 52 10000 9.26 280 12:50 09.04.2022
4382 Clouds 8 1001 57 10000 7.72 280 11:38 09.04.2022
4383 Clouds 6 1000 62 10000 7.2 280 10:21 09.04.2022
4384 Clouds 6 1000 66 10000 7.2 270 09:42 09.04.2022
4385 Clouds 5 1000 68 10000 6.17 280 08:56 09.04.2022
4386 Clouds 4 999 83 10000 6.17 280 07:29 09.04.2022
4387 Clouds 3 997 75 10000 4.02 0 02:53 09.04.2022
4388 Clouds 4 996 75 10000 2.57 260 23:53 08.04.2022
4389 Clouds 4 997 84 10000 1.34 0 22:57 08.04.2022
4390 Clouds 5 997 79 10000 4.63 300 21:32 08.04.2022
4391 Clear 6 996 69 10000 1.54 10 20:40 08.04.2022
4392 Clear 7 996 59 10000 4.12 250 19:32 08.04.2022
4393 Clouds 8 996 41 10000 6.69 260 18:31 08.04.2022
4394 Clouds 8 996 42 10000 6.17 270 17:53 08.04.2022
4395 Clouds 9 996 41 10000 6.17 260 17:26 08.04.2022
4396 Clouds 9 996 40 10000 5.14 270 16:51 08.04.2022
4397 Clouds 9 996 41 10000 5.14 270 15:59 08.04.2022
4398 Clouds 9 996 42 10000 5.66 270 15:27 08.04.2022
4399 Clouds 9 997 46 10000 4.63 280 14:39 08.04.2022
4400 Clouds 8 997 48 10000 5.66 290 13:48 08.04.2022
4401 Clouds 8 997 45 10000 6.17 260 13:29 08.04.2022
4402 Clouds 8 997 51 10000 6.17 260 12:32 08.04.2022
4403 Clouds 7 997 53 10000 6.17 260 10:38 08.04.2022
4404 Clouds 5 997 86 10000 5.66 270 09:41 08.04.2022
4405 Clear 5 997 79 10000 5.66 260 08:58 08.04.2022
4406 Clouds 4 996 84 10000 9.26 280 07:38 08.04.2022
4407 Clouds 5 995 80 10000 6.17 280 06:44 08.04.2022
4408 Clouds 6 993 78 10000 8.23 270 02:27 08.04.2022
4409 Clouds 7 991 59 10000 10.8 260 00:28 08.04.2022
4410 Clouds 7 991 58 10000 9.26 260 23:38 07.04.2022
4411 Clouds 6 991 77 10000 10.29 250 22:40 07.04.2022
4412 Clouds 7 991 73 10000 8.23 270 22:22 07.04.2022
4413 Clouds 7 991 73 10000 9.26 270 21:56 07.04.2022
4414 Clouds 7 991 86 10000 8.23 260 21:23 07.04.2022
4415 Clouds 6 991 88 10000 13.38 280 20:42 07.04.2022
4416 Clear 11 989 55 10000 12.86 260 18:58 07.04.2022
4417 Clouds 12 989 58 10000 10.28 259 17:28 07.04.2022
4418 Clouds 12 989 62 10000 8.75 260 16:45 07.04.2022
4419 Clouds 11 989 65 10000 9.26 250 16:25 07.04.2022
4420 Clouds 10 990 71 10000 8.23 250 15:39 07.04.2022
4421 Clouds 9 979 67 10000 10.29 210 13:52 07.04.2022
4422 Drizzle 12 989 59 10000 8.94 0 13:23 07.04.2022
4423 Clouds 12 990 55 10000 10.29 220 11:49 07.04.2022
4424 Clouds 12 991 54 10000 8.23 210 10:40 07.04.2022
4425 Clouds 10 992 58 10000 7.72 220 08:43 07.04.2022
4426 Clouds 9 993 75 10000 4.63 220 06:59 07.04.2022
4427 Clouds 9 994 76 10000 4.63 220 04:36 07.04.2022
4428 Clouds 10 995 58 10000 4.63 220 02:32 07.04.2022
4429 Clouds 10 996 59 10000 5.66 230 00:43 07.04.2022
4430 Clouds 10 996 64 10000 5.66 230 23:28 06.04.2022
4431 Clouds 10 996 64 10000 5.66 230 22:44 06.04.2022
4432 Clouds 11 997 56 10000 6.69 230 22:20 06.04.2022
4433 Clouds 11 997 56 10000 5.66 240 20:47 06.04.2022
4434 Clouds 11 997 57 10000 5.14 230 20:00 06.04.2022
4435 Clouds 11 997 56 10000 6.17 230 19:24 06.04.2022
4436 Clouds 11 997 56 10000 4.92 224 18:48 06.04.2022
4437 Clouds 11 997 56 10000 7.2 250 17:36 06.04.2022
4438 Clouds 11 997 57 10000 7.72 250 16:56 06.04.2022
4439 Clouds 11 997 56 10000 7.72 250 16:32 06.04.2022
4440 Clouds 11 998 56 10000 8.23 240 15:43 06.04.2022
4441 Clouds 11 998 58 10000 8.23 260 13:48 06.04.2022
4442 Clouds 11 998 56 10000 9.77 250 12:30 06.04.2022
4443 Clouds 10 998 57 10000 7.2 240 11:44 06.04.2022
4444 Clouds 11 998 56 10000 8.23 250 10:33 06.04.2022
4445 Clouds 11 998 56 10000 8.23 250 10:33 06.04.2022
4446 Clouds 11 998 56 10000 8.23 250 10:33 06.04.2022
4447 Clouds 10 998 74 10000 6.17 240 09:59 06.04.2022
4448 Clouds 10 998 81 10000 5.66 250 09:25 06.04.2022
4449 Clear 9 998 85 10000 6.17 250 08:18 06.04.2022
4450 Clouds 9 998 81 10000 6.17 240 06:40 06.04.2022
4451 Clouds 9 999 92 10000 6.69 270 01:44 06.04.2022
4452 Clouds 9 999 87 10000 5.66 260 23:50 05.04.2022
4453 Drizzle 10 999 85 10000 6.17 270 21:59 05.04.2022
4454 Clouds 9 999 85 10000 6.69 270 21:18 05.04.2022
4455 Clouds 10 999 89 10000 5.36 0 20:25 05.04.2022
4456 Clouds 10 999 82 10000 5.14 260 18:53 05.04.2022
4457 Clouds 9 999 84 9000 3.6 250 17:30 05.04.2022
4458 Clouds 8 999 85 7000 4.12 250 16:45 05.04.2022
4459 Rain 8 1000 94 2800 3.09 280 15:52 05.04.2022
4460 Clouds 8 1000 93 9000 3.09 270 15:31 05.04.2022
4461 Clouds 8 1000 80 7000 5.66 260 14:18 05.04.2022
4462 Drizzle 8 1000 74 10000 4.12 280 12:55 05.04.2022
4463 Clouds 7 1000 58 10000 4.63 290 11:49 05.04.2022
4464 Clouds 7 1000 57 10000 5.14 290 11:31 05.04.2022
4465 Clouds 6 1000 76 10000 5.14 290 09:49 05.04.2022
4466 Clouds 6 1000 80 10000 4.63 300 08:52 05.04.2022
4467 Clouds 6 999 88 10000 5.66 290 06:43 05.04.2022
4468 Clouds 6 998 84 10000 7.72 260 00:41 05.04.2022
4469 Clouds 6 998 80 10000 10.29 260 22:41 04.04.2022
4470 Clouds 6 998 86 10000 9.26 260 22:19 04.04.2022
4471 Clouds 5 998 78 10000 11.32 250 21:21 04.04.2022
4472 Clouds 5 998 78 10000 10.29 250 20:49 04.04.2022
4473 Clouds 5 998 77 10000 11.32 250 19:44 04.04.2022
4474 Clouds 5 998 77 10000 10.8 250 19:25 04.04.2022
4475 Clouds 5 998 79 9000 11.32 250 18:20 04.04.2022
4476 Drizzle 4 999 81 9000 10.29 240 16:36 04.04.2022
4477 Clouds 4 999 77 9000 10.29 240 15:43 04.04.2022
4478 Clouds 4 1000 77 9000 10.29 240 15:25 04.04.2022
4479 Clouds 4 1000 76 9000 11.32 240 14:46 04.04.2022
4480 Clouds 5 1001 54 10000 9.77 240 13:22 04.04.2022
4481 Clouds 5 1002 53 10000 9.26 240 11:55 04.04.2022
4482 Clouds 6 1002 55 10000 8.75 240 11:28 04.04.2022
4483 Clear 3 1004 64 10000 5.66 230 08:54 04.04.2022
4484 Clouds 2 1006 79 10000 5.14 250 04:18 04.04.2022
4485 Clouds 2 1007 80 10000 4.12 250 00:44 04.04.2022
4486 Clouds 3 1007 77 10000 3.6 250 22:43 03.04.2022
4487 Clouds 3 1007 77 10000 4.12 260 21:46 03.04.2022
4488 Clouds 3 1007 76 10000 3.09 240 20:56 03.04.2022
4489 Clouds 4 1007 75 10000 3.6 260 19:51 03.04.2022
4490 Clouds 5 1007 75 10000 4.63 270 18:33 03.04.2022
4491 Clouds 5 997 74 10000 1.34 0 17:48 03.04.2022
4492 Clouds 6 1007 59 10000 4.47 0 16:59 03.04.2022
4493 Clouds 6 1007 58 10000 4.12 290 16:41 03.04.2022
4494 Clouds 6 1007 55 10000 5.66 270 15:18 03.04.2022
4495 Clouds 6 1008 50 10000 6.17 290 13:57 03.04.2022
4496 Clouds 5 1008 50 10000 6.69 280 12:48 03.04.2022
4497 Clouds 5 1020 56 10000 5.66 290 11:33 03.04.2022
4498 Clear 2 1020 50 10000 3.6 260 09:40 03.04.2022
4499 Clear -1 1020 55 10000 2.06 230 08:50 03.04.2022
4500 Clouds -4 1020 51 10000 1.03 0 05:44 03.04.2022
4501 Clouds -3 1020 51 10000 0 0 02:55 03.04.2022
4502 Clouds 0 1019 49 10000 1.54 350 23:22 02.04.2022
4503 Clouds 0 1019 49 10000 1.54 350 23:22 02.04.2022
4504 Clouds 1 1019 46 10000 2.06 360 22:41 02.04.2022
4505 Clouds 2 1018 47 10000 2.06 360 21:55 02.04.2022
4506 Clouds 2 1018 54 10000 1.54 0 21:19 02.04.2022
4507 Clouds 3 1018 45 10000 2.06 30 20:35 02.04.2022
4508 Clouds 5 1016 42 10000 2.57 0 18:47 02.04.2022
4509 Clouds 5 1016 43 10000 2.57 0 18:19 02.04.2022
4510 Clouds 5 1006 45 10000 3.58 0 16:45 02.04.2022
4511 Clouds 5 1006 43 10000 4.02 0 15:42 02.04.2022
4512 Clouds 5 1006 51 10000 3.09 20 15:18 02.04.2022
4513 Clouds 5 1006 46 10000 3.58 0 14:26 02.04.2022
4514 Clouds 5 1006 47 10000 4.02 0 13:31 02.04.2022
4515 Clouds 4 1006 58 10000 3.13 0 12:21 02.04.2022
4516 Clouds 2 997 55 10000 3.13 0 10:31 02.04.2022
4517 Clouds -1 1005 61 10000 2.06 360 07:52 02.04.2022
4518 Clouds 0 1004 59 10000 2.68 0 04:34 02.04.2022
4519 Clouds 1 1004 57 10000 4.02 0 02:37 02.04.2022
4520 Clouds 2 1004 58 10000 3.6 50 23:54 01.04.2022
4521 Clouds 2 1004 49 10000 4.63 60 22:47 01.04.2022
4522 Clouds 3 1003 50 10000 3.6 50 21:22 01.04.2022
4523 Clouds 4 1003 50 10000 4.12 0 20:46 01.04.2022
4524 Clear 4 1002 46 10000 5.36 0 19:46 01.04.2022
4525 Clear 5 1002 44 10000 3.6 60 19:26 01.04.2022
4526 Clear 5 1002 44 10000 4.63 50 18:38 01.04.2022
4527 Clear 6 1002 42 10000 5.81 0 17:39 01.04.2022
4528 Clear 6 1002 41 10000 5.66 60 16:24 01.04.2022
4529 Clear 5 1002 38 10000 5.66 60 14:56 01.04.2022
4530 Clouds 4 1002 44 10000 4.12 50 13:56 01.04.2022
4531 Clear 4 1001 46 10000 4.63 0 13:31 01.04.2022
4532 Clear 3 1001 49 10000 4.92 33 12:26 01.04.2022
4533 Clear 1 1001 67 10000 3.6 40 10:54 01.04.2022
4534 Clouds 0 1001 74 10000 3.09 50 09:49 01.04.2022
4535 Mist -1 1001 90 3700 3.13 0 07:50 01.04.2022
4536 Clouds -1 1000 91 2500 3.09 50 06:30 01.04.2022
4537 Clouds 0 1000 93 3500 3.58 0 04:44 01.04.2022
4538 Clouds 0 1000 81 5000 3.6 60 03:21 01.04.2022
4539 Clouds 3 1000 55 10000 6.71 0 01:52 01.04.2022
4540 Clear 4 1000 43 10000 5.66 80 22:37 31.03.2022
4541 Clear 4 999 46 10000 5.66 80 21:49 31.03.2022
4542 Clear 4 999 53 10000 6.17 80 21:22 31.03.2022
4543 Clouds 4 999 58 10000 5.66 90 20:28 31.03.2022
4544 Clouds 4 999 56 10000 6.17 90 19:46 31.03.2022
4545 Clouds 5 999 53 10000 5.66 70 18:38 31.03.2022
4546 Clouds 6 999 51 10000 6.26 0 17:33 31.03.2022
4547 Clouds 6 999 47 10000 5.66 80 16:34 31.03.2022
4548 Clouds 6 999 52 10000 5.66 90 15:35 31.03.2022
4549 Clear 6 999 47 10000 6.17 90 14:54 31.03.2022
4550 Clear 6 999 47 10000 6.69 90 14:20 31.03.2022
4551 Clouds 4 999 57 10000 5.14 90 11:34 31.03.2022
4552 Clouds 4 999 59 10000 4.63 90 10:41 31.03.2022
4553 Clouds 3 999 58 10000 6.17 90 09:44 31.03.2022
4554 Clouds 3 999 66 10000 4.63 100 07:53 31.03.2022
4555 Clouds 3 999 75 10000 3.09 100 04:42 31.03.2022
4556 Clouds 4 1000 59 10000 3.09 90 23:37 30.03.2022
4557 Clouds 5 1000 57 10000 3.6 80 22:27 30.03.2022
4558 Clouds 5 1000 64 10000 3.09 70 21:37 30.03.2022
4559 Clouds 5 1000 57 10000 2.68 0 20:44 30.03.2022
4560 Clouds 6 1000 56 10000 3.09 80 19:59 30.03.2022
4561 Clouds 7 1000 63 10000 2.57 50 18:59 30.03.2022
4562 Clouds 7 1000 57 10000 3.13 47 18:18 30.03.2022
4563 Clouds 8 1000 56 10000 3.6 40 17:44 30.03.2022
4564 Clouds 9 1000 53 10000 3.09 30 16:54 30.03.2022
4565 Clouds 9 1000 50 10000 3.13 17 16:31 30.03.2022
4566 Clear 10 1000 48 10000 2.68 12 14:59 30.03.2022
4567 Clouds 9 1000 57 10000 3.09 330 13:35 30.03.2022
4568 Clear 8 1001 60 10000 2.06 0 12:42 30.03.2022
4569 Clear 6 1001 64 10000 1.03 0 10:58 30.03.2022
4570 Clear 4 1001 74 10000 1.54 120 09:59 30.03.2022
4571 Clear 3 1001 65 10000 1.03 100 09:20 30.03.2022
4572 Clear 0 1001 80 10000 1.03 90 07:32 30.03.2022
4573 Clouds -1 1002 80 10000 0 0 05:40 30.03.2022
4574 Clouds 0 1002 80 10000 0 0 03:39 30.03.2022
4575 Clouds 3 1002 68 10000 1.54 330 00:31 30.03.2022
4576 Clouds 5 1003 56 10000 2.57 320 22:25 29.03.2022
4577 Clouds 6 1003 58 10000 3.09 330 21:44 29.03.2022
4578 Clear 7 1003 58 10000 2.57 310 20:52 29.03.2022
4579 Clouds 9 1002 55 10000 4.63 300 19:53 29.03.2022
4580 Clouds 11 1002 55 10000 5.14 290 18:55 29.03.2022
4581 Clouds 11 1003 47 10000 5.14 290 18:19 29.03.2022
4582 Clouds 12 1003 48 10000 4.63 290 17:22 29.03.2022
4583 Clouds 12 1003 48 10000 5.66 290 16:56 29.03.2022
4584 Clouds 12 1003 49 10000 5.14 280 15:57 29.03.2022
4585 Clouds 11 1004 63 10000 5.14 270 14:52 29.03.2022
4586 Clouds 10 1004 56 10000 4.12 260 13:56 29.03.2022
4587 Clouds 9 1005 58 10000 4.12 300 12:51 29.03.2022
4588 Clouds 8 1005 57 10000 4.12 290 11:43 29.03.2022
4589 Clouds 7 1005 59 10000 4.12 310 10:30 29.03.2022
4590 Clouds 6 1005 61 10000 4.63 310 09:42 29.03.2022
4591 Clouds 6 1005 79 10000 3.6 290 06:58 29.03.2022
4592 Clouds 6 1006 79 10000 4.47 271 03:54 29.03.2022
4593 Clouds 5 1006 80 10000 2.06 280 00:35 29.03.2022
4594 Clouds 6 1007 76 10000 3.09 310 23:23 28.03.2022
4595 Clouds 6 1007 86 10000 4.12 320 22:52 28.03.2022
4596 Clear 7 1007 74 10000 3.6 320 22:26 28.03.2022
4597 Clear 9 1007 57 10000 3.09 310 20:56 28.03.2022
4598 Clear 9 1007 58 10000 3.09 290 20:21 28.03.2022
4599 Clear 11 1007 56 10000 3.6 290 19:41 28.03.2022
4600 Clear 13 1007 53 10000 4.12 290 18:56 28.03.2022
4601 Clear 13 1007 52 10000 4.12 290 18:36 28.03.2022
4602 Clear 14 1007 51 10000 4.63 290 17:39 28.03.2022
4603 Clouds 14 1008 54 10000 3.09 330 16:20 28.03.2022
4604 Clear 14 1009 62 10000 3.09 300 14:29 28.03.2022
4605 Clear 13 1009 59 10000 2.57 330 13:58 28.03.2022
4606 Clouds 9 1023 80 10000 3.09 280 12:20 28.03.2022
4607 Fog 7 1023 78 900 2.57 300 11:23 28.03.2022
4608 Fog 5 1024 79 300 2.06 330 09:43 28.03.2022
4609 Fog 5 1024 80 300 1.03 0 09:19 28.03.2022
4610 Fog 4 1010 82 200 1.54 300 08:22 28.03.2022
4611 Fog 4 1024 82 550 1.54 290 07:28 28.03.2022
4612 Clouds 5 1011 75 10000 0 0 03:43 28.03.2022
4613 Clear 7 1012 70 10000 0 0 23:29 27.03.2022
4614 Clear 8 1012 65 10000 0 0 22:24 27.03.2022
4615 Clear 8 1012 60 10000 0 0 21:41 27.03.2022
4616 Clear 10 1012 65 10000 0 0 20:54 27.03.2022
4617 Clear 10 1012 65 10000 0 0 20:54 27.03.2022
4618 Clear 10 1012 65 10000 0 0 20:54 27.03.2022
4619 Clear 12 1012 52 10000 2.06 300 19:48 27.03.2022
4620 Clear 13 1012 50 10000 2.06 270 19:20 27.03.2022
4621 Clear 15 1012 45 10000 1.03 0 18:27 27.03.2022
4622 Clear 15 1012 45 10000 1.03 0 18:27 27.03.2022
4623 Clear 15 1013 46 10000 2.06 330 17:38 27.03.2022
4624 Clear 15 1013 49 10000 2.57 300 16:21 27.03.2022
4625 Clear 14 1013 52 10000 2.06 280 15:18 27.03.2022
4626 Clouds 13 1031 55 10000 2.06 0 13:55 27.03.2022
4627 Clouds 11 1014 65 10000 1.54 360 12:24 27.03.2022
4628 Clouds 9 1014 80 10000 1.54 340 10:53 27.03.2022
4629 Clouds 7 1013 85 10000 1.54 270 08:51 27.03.2022
4630 Clouds 7 1013 87 10000 2.06 330 05:54 27.03.2022
4631 Clouds 7 1013 81 10000 1.54 330 00:48 27.03.2022
4632 Clouds 8 1013 80 10000 1.03 350 23:40 26.03.2022
4633 Clouds 9 1013 77 10000 2.06 340 22:36 26.03.2022
4634 Clouds 10 1031 85 10000 2.06 340 21:34 26.03.2022
4635 Clouds 10 1030 83 10000 1.54 300 20:52 26.03.2022
4636 Clouds 13 1029 52 10000 3.6 320 19:21 26.03.2022
4637 Clouds 15 1013 64 10000 5.66 300 17:53 26.03.2022
4638 Clouds 15 1029 62 10000 5.66 300 17:32 26.03.2022
4639 Clouds 16 1012 51 10000 6.17 310 16:27 26.03.2022
4640 Clouds 17 1013 46 10000 6.17 290 14:57 26.03.2022
4641 Clear 17 1013 43 10000 5.14 300 13:53 26.03.2022
4642 Clear 16 1013 50 10000 6.17 300 12:51 26.03.2022
4643 Clear 15 1013 48 10000 5.66 300 11:33 26.03.2022
4644 Clear 13 1013 53 10000 4.12 280 10:22 26.03.2022
4645 Clear 8 1013 56 9000 4.12 260 08:34 26.03.2022
4646 Clouds 5 1013 75 10000 2.57 260 05:54 26.03.2022
4647 Clouds 5 1013 65 10000 1.54 290 04:21 26.03.2022
4648 Clear 6 1013 63 10000 0 0 00:22 26.03.2022
4649 Clear 9 1013 56 10000 0 0 21:41 25.03.2022
4650 Clear 10 1013 51 10000 0 0 20:46 25.03.2022
4651 Clear 11 1013 50 10000 0 0 19:36 25.03.2022
4652 Clear 13 1013 52 10000 0 0 18:47 25.03.2022
4653 Clear 16 1013 42 10000 1.03 0 17:47 25.03.2022
4654 Clear 17 1012 40 10000 2.06 0 17:26 25.03.2022
4655 Clear 17 1013 35 10000 2.06 350 16:18 25.03.2022
4656 Clear 17 1013 40 10000 1.54 0 14:26 25.03.2022
4657 Clear 16 1013 42 10000 2.24 0 12:48 25.03.2022
4658 Clear 11 1013 47 10000 1.54 320 09:57 25.03.2022
4659 Clear 9 1013 60 10000 1.03 0 09:28 25.03.2022
4660 Clear 3 1029 68 10000 1.03 100 07:54 25.03.2022
4661 Clear 4 1030 71 10000 0.64 108 07:28 25.03.2022
4662 Clear 1 1029 86 10000 0.51 110 05:55 25.03.2022
4663 Clear 4 1029 69 10000 1.03 110 01:18 25.03.2022
4664 Clear 6 997 51 10000 1.49 124 22:51 24.03.2022
4665 Clear 7 997 57 10000 1.63 109 21:45 24.03.2022
4666 Clear 8 997 52 10000 0.45 58 20:26 24.03.2022
4667 Clear 10 1012 44 10000 1.54 30 19:47 24.03.2022
4668 Clear 15 1012 30 10000 1.03 0 17:48 24.03.2022
4669 Clear 16 1012 29 10000 2.06 350 17:19 24.03.2022
4670 Clear 17 1012 31 10000 2.57 330 15:45 24.03.2022
4671 Clear 17 1013 32 10000 2.57 10 14:50 24.03.2022
4672 Clear 16 1013 32 10000 2.57 0 14:19 24.03.2022
4673 Clear 16 1013 34 10000 2.06 80 13:23 24.03.2022
4674 Clear 14 1013 37 10000 3.09 110 11:47 24.03.2022
4675 Clear 10 1013 54 10000 3.09 100 09:55 24.03.2022
4676 Clear 8 1030 56 10000 2.06 120 08:42 24.03.2022
4677 Clear 2 1029 67 10000 1.54 90 06:49 24.03.2022
4678 Clear 4 1029 66 10000 0 0 03:57 24.03.2022
4679 Clear 8 1013 46 10000 2.57 70 23:20 23.03.2022
4680 Clear 8 1013 45 10000 1.03 0 21:45 23.03.2022
4681 Clear 8 1013 44 10000 1.03 0 21:20 23.03.2022
4682 Clear 10 1013 42 10000 1.03 0 19:46 23.03.2022
4683 Clear 13 1013 36 10000 1.03 0 18:55 23.03.2022
4684 Clear 17 1029 19 10000 2.06 10 17:37 23.03.2022
4685 Clear 17 1013 25 10000 2.06 0 16:50 23.03.2022
4686 Clear 18 1013 23 10000 2.06 0 14:51 23.03.2022
4687 Clear 18 1013 25 10000 2.68 340 14:32 23.03.2022
4688 Clear 17 1013 25 10000 2.57 360 13:21 23.03.2022
4689 Clear 11 1014 38 10000 2.06 320 10:20 23.03.2022
4690 Clear 4 1031 45 10000 1.25 85 06:55 23.03.2022
4691 Clear 4 1031 45 10000 1.38 70 05:27 23.03.2022
4692 Clear 5 1032 31 10000 0.98 86 01:18 23.03.2022
4693 Clear 5 1032 44 10000 1.29 110 00:23 23.03.2022
4694 Clear 7 997 43 10000 2.22 110 21:31 22.03.2022
4695 Clear 8 997 47 10000 2.46 111 20:51 22.03.2022
4696 Clear 10 1013 40 10000 1.54 110 19:52 22.03.2022
4697 Clear 11 1013 38 10000 1.54 100 19:25 22.03.2022
4698 Clear 12 1031 33 10000 2.57 110 18:45 22.03.2022
4699 Clear 16 1031 22 10000 3.6 120 17:42 22.03.2022
4700 Clear 17 1013 27 10000 2.57 120 16:32 22.03.2022
4701 Clear 18 1014 27 10000 2.06 0 15:37 22.03.2022
4702 Clear 18 1014 28 10000 2.57 170 15:18 22.03.2022
4703 Clear 18 1014 29 10000 2.57 170 14:41 22.03.2022
4704 Clear 17 1014 29 10000 2.06 0 13:37 22.03.2022
4705 Clear 15 1014 34 10000 1.54 0 11:52 22.03.2022
4706 Clear 13 1015 35 10000 1.54 0 10:51 22.03.2022
4707 Clear 5 1034 60 10000 2.57 100 08:40 22.03.2022
4708 Clear 4 1034 55 10000 1.51 144 07:21 22.03.2022
4709 Clear 4 997 57 10000 2.23 137 03:55 22.03.2022
4710 Clear 5 1014 52 10000 1.54 90 00:46 22.03.2022
4711 Clear 5 1014 50 10000 1.79 0 22:46 21.03.2022
4712 Clear 7 1014 43 10000 2.57 90 21:20 21.03.2022
4713 Clear 8 1014 44 10000 3.09 100 20:43 21.03.2022
4714 Clear 9 1014 38 10000 3.6 100 20:21 21.03.2022
4715 Clear 9 1014 38 10000 4.12 110 19:35 21.03.2022
4716 Clear 10 1032 38 10000 5.14 110 18:47 21.03.2022
4717 Clear 13 1032 35 10000 4.63 110 17:35 21.03.2022
4718 Clear 14 1014 34 10000 5.14 100 16:59 21.03.2022
4719 Clear 14 1014 36 10000 5.66 100 16:26 21.03.2022
4720 Clear 14 1014 33 10000 5.14 110 15:37 21.03.2022
4721 Clear 14 1014 34 10000 4.47 136 14:36 21.03.2022
4722 Clear 13 1014 35 10000 3.6 100 13:20 21.03.2022
4723 Clear 11 1015 43 10000 3.6 100 11:58 21.03.2022
4724 Clear 10 1015 39 10000 3.6 110 11:20 21.03.2022
4725 Clear 8 1015 46 10000 4.02 0 09:49 21.03.2022
4726 Clear 3 1014 55 10000 2.68 0 07:33 21.03.2022
4727 Clear 2 1014 60 10000 3.13 0 05:56 21.03.2022
4728 Clear 5 1014 44 10000 4.12 110 01:39 21.03.2022
4729 Clear 7 1014 36 10000 5.81 0 22:57 20.03.2022
4730 Clear 8 1014 35 10000 5.81 10 22:25 20.03.2022
4731 Clear 8 1014 34 10000 6.17 120 21:38 20.03.2022
4732 Clear 9 1014 32 10000 6.69 120 20:55 20.03.2022
4733 Clear 9 1014 32 10000 6.69 120 20:36 20.03.2022
4734 Clear 9 1014 32 10000 5.66 120 19:54 20.03.2022
4735 Clear 10 1014 32 10000 6.17 120 19:24 20.03.2022
4736 Clear 12 1014 30 10000 8.23 120 17:48 20.03.2022
4737 Clear 12 1014 29 10000 9.26 110 17:26 20.03.2022
4738 Clear 13 1014 26 10000 8.75 120 16:38 20.03.2022
4739 Clear 13 1014 29 10000 10.29 120 14:50 20.03.2022
4740 Clear 12 1014 30 10000 10.8 120 13:39 20.03.2022
4741 Clear 11 1015 31 10000 10.29 120 12:20 20.03.2022
4742 Clear 7 1015 39 10000 8.75 100 10:28 20.03.2022
4743 Clear 3 1015 48 10000 5.66 110 08:26 20.03.2022
4744 Clear 1 1015 59 10000 4.63 90 06:40 20.03.2022
4745 Clear 2 1016 53 10000 4.63 80 03:27 20.03.2022
4746 Clear 3 1017 61 10000 4.12 80 00:54 20.03.2022
4747 Clear 3 1017 61 10000 4.12 80 00:35 20.03.2022
4748 Clear 4 1017 56 10000 4.12 80 22:42 19.03.2022
4749 Clear 5 1018 63 10000 2.06 70 21:27 19.03.2022
4750 Clouds 7 1018 52 10000 4.12 90 19:42 19.03.2022
4751 Clouds 9 1017 49 10000 5.14 80 18:44 19.03.2022
4752 Clear 9 1017 46 10000 5.14 70 17:57 19.03.2022
4753 Clear 10 1017 45 10000 5.14 70 17:34 19.03.2022
4754 Clear 11 1018 41 10000 6.17 80 15:43 19.03.2022
4755 Clouds 10 1019 47 10000 4.12 60 14:21 19.03.2022
4756 Clouds 11 1019 55 10000 5.36 0 12:56 19.03.2022
4757 Clouds 10 1019 57 10000 5.36 0 12:38 19.03.2022
4758 Clear 9 1020 60 10000 4.47 0 11:49 19.03.2022
4759 Clear 7 1020 55 10000 4.12 90 10:44 19.03.2022
4760 Clear 1 1020 86 6000 1.03 0 06:27 19.03.2022
4761 Clear 3 1021 82 10000 1.54 60 03:21 19.03.2022
4762 Clear 3 1021 82 10000 1.54 40 01:41 19.03.2022
4763 Clear 5 1021 79 10000 2.06 60 23:36 18.03.2022
4764 Clear 6 1020 70 10000 1.54 40 22:26 18.03.2022
4765 Clear 6 1020 82 10000 1.03 0 21:19 18.03.2022
4766 Clear 8 1020 56 10000 1.03 0 19:50 18.03.2022
4767 Clear 9 1020 55 10000 1.03 0 19:21 18.03.2022
4768 Clear 9 1020 55 10000 1.03 0 19:21 18.03.2022
4769 Clouds 12 1043 42 10000 2.06 50 17:43 18.03.2022
4770 Clouds 13 1019 50 10000 2.24 49 16:47 18.03.2022
4771 Clear 12 1019 47 10000 2.24 15 14:51 18.03.2022
4772 Clear 12 1020 46 10000 2.57 0 14:21 18.03.2022
4773 Clear 10 1020 53 10000 2.57 340 12:26 18.03.2022
4774 Clouds 7 1019 82 10000 1.03 0 10:52 18.03.2022
4775 Clouds 3 1019 96 6000 0 0 09:29 18.03.2022
4776 Fog 0 1019 90 2500 1.03 110 08:30 18.03.2022
4777 Clouds -1 1018 91 400 1.03 0 06:35 18.03.2022
4778 Clouds 0 1017 84 450 0.51 0 02:57 18.03.2022
4779 Clouds 2 1016 84 10000 1.54 340 00:23 18.03.2022
4780 Clouds 3 1016 83 10000 0 0 23:24 17.03.2022
4781 Fog 3 1016 84 10000 0 0 22:24 17.03.2022
4782 Fog 3 1015 94 10000 0 0 21:48 17.03.2022
4783 Clear 4 1015 82 10000 0 0 21:23 17.03.2022
4784 Clear 4 1015 85 10000 0 0 20:45 17.03.2022
4785 Clear 5 1014 83 10000 1.03 330 19:50 17.03.2022
4786 Clouds 6 1014 80 10000 2.57 310 19:28 17.03.2022
4787 Clouds 7 1014 78 10000 3.09 300 18:46 17.03.2022
4788 Clouds 8 1013 83 10000 4.12 310 16:58 17.03.2022
4789 Clouds 8 1013 84 10000 3.6 290 15:44 17.03.2022
4790 Clouds 8 1013 84 9000 3.6 280 15:26 17.03.2022
4791 Drizzle 8 1013 86 4400 4.12 290 14:38 17.03.2022
4792 Clouds 8 1012 81 6000 2.57 230 12:55 17.03.2022
4793 Clouds 8 1012 81 6000 2.57 230 12:37 17.03.2022
4794 Clear 10 1011 63 10000 3.6 170 11:30 17.03.2022
4795 Clear 9 1011 64 10000 3.6 160 10:32 17.03.2022
4796 Clear 7 1010 65 10000 3.13 150 08:40 17.03.2022
4797 Clear 7 1010 63 10000 3.58 3 07:52 17.03.2022
4798 Clouds 6 1010 62 10000 4.02 141 05:48 17.03.2022
4799 Clouds 6 1010 66 10000 4.12 110 03:41 17.03.2022
4800 Clouds 7 1011 59 10000 5.14 100 23:57 16.03.2022
4801 Clear 7 1011 61 10000 4.12 100 22:51 16.03.2022
4802 Clear 7 1011 61 10000 4.12 100 22:33 16.03.2022
4803 Clear 7 1011 57 10000 2.57 100 21:52 16.03.2022
4804 Clear 8 1011 57 10000 3.09 90 20:28 16.03.2022
4805 Clear 9 1011 64 10000 3.6 100 19:22 16.03.2022
4806 Clear 10 1011 56 10000 4.12 100 18:40 16.03.2022
4807 Clear 11 1011 53 10000 5.66 110 17:44 16.03.2022
4808 Clear 12 1011 52 10000 5.66 110 17:26 16.03.2022
4809 Clear 13 1012 51 10000 5.66 100 15:56 16.03.2022
4810 Clouds 13 1012 52 10000 5.14 110 14:35 16.03.2022
4811 Clouds 12 1012 55 10000 3.58 90 13:34 16.03.2022
4812 Clear 11 1012 61 10000 2.57 130 12:18 16.03.2022
4813 Clear 10 1012 67 10000 2.24 79 11:23 16.03.2022
4814 Clear 8 1012 83 10000 0.45 137 10:28 16.03.2022
4815 Clouds 6 1012 86 9000 0 0 09:55 16.03.2022
4816 Fog 1 1026 83 450 2.06 110 06:47 16.03.2022
4817 Clouds 3 1026 86 250 1.54 290 02:44 16.03.2022
4818 Clouds 4 1010 81 6000 0 0 22:54 15.03.2022
4819 Clouds 5 1010 78 6000 0 0 22:35 15.03.2022
4820 Clouds 7 1010 80 10000 1.54 60 20:51 15.03.2022
4821 Clear 9 1010 76 10000 2.06 90 19:37 15.03.2022
4822 Clear 10 1010 61 10000 2.57 110 17:42 15.03.2022
4823 Clear 11 1009 62 10000 2.57 90 16:35 15.03.2022
4824 Clear 12 1010 64 10000 2.06 150 15:28 15.03.2022
4825 Clear 12 1010 59 10000 2.57 160 14:52 15.03.2022
4826 Clear 12 1011 59 10000 2.06 160 13:55 15.03.2022
4827 Clear 12 1011 60 10000 2.06 110 13:21 15.03.2022
4828 Clear 11 1012 66 10000 2.24 0 11:32 15.03.2022
4829 Clear 8 1012 86 10000 1.54 150 10:22 15.03.2022
4830 Clouds 6 1012 86 6000 1.54 100 09:20 15.03.2022
4831 Mist 4 1012 89 4400 1.03 90 08:21 15.03.2022
4832 Fog 3 1012 91 3900 1.03 90 07:36 15.03.2022
4833 Clouds 3 1012 85 5000 0.89 25 05:55 15.03.2022
4834 Clouds 4 1012 84 10000 2.06 260 00:31 15.03.2022
4835 Clouds 6 1012 84 10000 2.57 260 23:29 14.03.2022
4836 Clouds 6 1012 86 10000 2.57 260 22:49 14.03.2022
4837 Clouds 7 1012 92 10000 3.09 240 21:51 14.03.2022
4838 Clouds 8 1012 85 10000 3.09 230 20:55 14.03.2022
4839 Clouds 8 1012 86 10000 2.57 220 20:24 14.03.2022
4840 Clouds 8 1012 86 10000 2.06 220 19:24 14.03.2022
4841 Clouds 8 1011 86 10000 3.09 220 17:57 14.03.2022
4842 Clouds 8 1011 86 10000 3.09 220 17:39 14.03.2022
4843 Clouds 8 1011 92 9000 3.09 230 16:33 14.03.2022
4844 Clouds 8 1011 79 10000 2.57 220 14:48 14.03.2022
4845 Clouds 9 1010 62 10000 3.6 240 13:29 14.03.2022
4846 Clouds 9 1010 47 10000 3.6 280 11:26 14.03.2022
4847 Clear 7 1009 41 10000 2.06 240 09:57 14.03.2022
4848 Clear 6 1009 38 10000 2.06 240 09:34 14.03.2022
4849 Clear 4 1009 49 10000 1.54 160 08:57 14.03.2022
4850 Clear 2 1009 48 10000 1.54 110 08:26 14.03.2022
4851 Clear 0 1008 54 10000 0 0 06:47 14.03.2022
4852 Clear 2 1008 43 10000 3.09 100 02:59 14.03.2022
4853 Clear 3 1008 43 10000 3.6 100 01:39 14.03.2022
4854 Clear 4 1008 38 10000 3.09 110 23:41 13.03.2022
4855 Clear 7 1007 32 10000 5.66 110 21:49 13.03.2022
4856 Clear 7 1018 33 10000 5.66 110 21:21 13.03.2022
4857 Clear 8 1018 28 10000 5.66 120 20:46 13.03.2022
4858 Clear 9 1007 29 10000 6.26 127 20:22 13.03.2022
4859 Clear 9 1007 29 10000 5.36 128 19:42 13.03.2022
4860 Clear 9 1007 31 10000 4.47 119 19:22 13.03.2022
4861 Clear 9 1007 31 10000 4.47 119 19:22 13.03.2022
4862 Clear 10 1007 30 10000 4.63 110 18:45 13.03.2022
4863 Clear 10 1007 29 10000 5.14 120 18:25 13.03.2022
4864 Clear 12 1007 23 10000 6.17 120 17:36 13.03.2022
4865 Clear 13 1007 26 10000 7.72 110 16:45 13.03.2022
4866 Clear 13 1007 26 10000 6.69 110 16:23 13.03.2022
4867 Clear 13 1007 27 10000 6.69 110 15:42 13.03.2022
4868 Clear 13 1007 25 10000 8.23 110 14:37 13.03.2022
4869 Clear 12 1007 27 10000 5.14 120 13:28 13.03.2022
4870 Clear 11 1007 26 10000 5.14 110 12:23 13.03.2022
4871 Clear 10 1007 27 10000 4.63 90 11:39 13.03.2022
4872 Clear 8 1008 28 10000 5.14 100 10:50 13.03.2022
4873 Clear 7 1008 30 10000 4.63 100 10:29 13.03.2022
4874 Clear 5 1008 35 10000 4.12 120 09:42 13.03.2022
4875 Clear 4 1008 42 10000 3.6 90 08:50 13.03.2022
4876 Clear 1 1008 49 10000 3.09 100 08:30 13.03.2022
4877 Clouds -1 1008 54 10000 2.68 0 07:19 13.03.2022
4878 Clouds -1 1008 50 10000 2.68 135 04:59 13.03.2022
4879 Clouds 1 1008 45 10000 3.6 110 01:48 13.03.2022
4880 Clouds 3 1008 41 10000 3.09 110 23:28 12.03.2022
4881 Clear 4 1008 36 10000 3.6 100 21:39 12.03.2022
4882 Clear 6 1008 33 10000 4.12 110 20:20 12.03.2022
4883 Clear 7 1008 31 10000 4.63 110 19:46 12.03.2022
4884 Clouds 8 1020 29 10000 3.6 100 18:41 12.03.2022
4885 Clear 10 1008 25 10000 5.66 110 17:53 12.03.2022
4886 Clear 12 1008 26 10000 7.2 110 16:28 12.03.2022
4887 Clear 12 1008 26 10000 7.2 110 15:52 12.03.2022
4888 Clear 12 1008 26 10000 7.2 110 15:21 12.03.2022
4889 Clear 12 1009 25 10000 5.66 100 13:54 12.03.2022
4890 Clear 11 1009 26 10000 5.14 90 12:33 12.03.2022
4891 Clear 9 1009 26 10000 4.47 0 11:55 12.03.2022
4892 Clear 9 1009 27 10000 4.12 100 11:34 12.03.2022
4893 Clear 6 1009 28 10000 4.02 0 10:32 12.03.2022
4894 Clear 5 1009 29 10000 4.02 0 09:43 12.03.2022
4895 Clouds 2 1009 33 10000 4.47 0 08:24 12.03.2022
4896 Clear 0 1009 44 10000 4.47 0 06:44 12.03.2022
4897 Clear 2 1009 40 10000 6.69 100 00:55 12.03.2022
4898 Clear 3 1009 39 10000 5.81 113 23:46 11.03.2022
4899 Clear 4 1009 37 10000 6.69 130 22:36 11.03.2022
4900 Clear 5 1009 36 10000 10.29 120 21:24 11.03.2022
4901 Clear 5 1009 36 10000 11.32 120 20:48 11.03.2022
4902 Clear 5 1009 37 10000 10.29 120 20:26 11.03.2022
4903 Clear 6 1009 34 10000 10.29 120 19:35 11.03.2022
4904 Clear 7 1009 33 10000 10.8 110 18:33 11.03.2022
4905 Clear 8 1009 31 10000 8.23 110 17:26 11.03.2022
4906 Clear 9 1009 29 10000 9.26 120 16:26 11.03.2022
4907 Clear 9 1009 30 10000 10.29 120 15:51 11.03.2022
4908 Clear 8 1010 31 10000 10.29 110 13:45 11.03.2022
4909 Clear 8 1010 34 10000 9.26 110 12:43 11.03.2022
4910 Clear 7 1010 37 10000 9.77 110 12:20 11.03.2022
4911 Clear 5 1010 36 10000 9.77 110 11:28 11.03.2022
4912 Clear 2 1011 45 10000 7.72 100 09:36 11.03.2022
4913 Clear 0 1011 53 10000 8.23 100 08:29 11.03.2022
4914 Clear -1 1011 56 10000 6.69 110 07:48 11.03.2022
4915 Clouds -1 1010 65 10000 5.66 100 06:55 11.03.2022
4916 Clouds 0 1011 58 10000 5.66 100 05:20 11.03.2022
4917 Clouds 1 1011 62 10000 4.92 98 02:45 11.03.2022
4918 Clear 3 1011 54 10000 6.69 110 22:51 10.03.2022
4919 Clear 4 1011 56 10000 5.14 120 22:27 10.03.2022
4920 Clouds 5 1012 58 10000 6.17 110 21:26 10.03.2022
4921 Clouds 6 1012 58 10000 6.17 110 20:45 10.03.2022
4922 Clear 8 1012 53 10000 5.66 110 19:22 10.03.2022
4923 Clear 9 1011 57 10000 6.17 110 18:30 10.03.2022
4924 Clear 11 1011 47 10000 7.2 120 16:53 10.03.2022
4925 Clear 13 1012 37 10000 7.2 110 15:41 10.03.2022
4926 Clear 12 1012 34 10000 8.23 110 14:23 10.03.2022
4927 Clear 12 1012 37 10000 6.69 100 12:46 10.03.2022
4928 Clear 11 1012 39 10000 5.66 110 11:37 10.03.2022
4929 Clear 8 1012 46 10000 4.47 144 10:19 10.03.2022
4930 Clear 5 1012 59 10000 3.6 100 08:48 10.03.2022
4931 Clear -1 1027 55 10000 2.57 100 05:50 10.03.2022
4932 Clear 0 1027 75 10000 3.09 100 03:42 10.03.2022
4933 Clear 2 1011 52 10000 2.57 90 00:23 10.03.2022
4934 Clear 4 1011 58 10000 2.06 90 22:45 09.03.2022
4935 Clear 4 1011 55 10000 2.06 100 21:48 09.03.2022
4936 Clear 4 1011 52 10000 2.06 100 21:23 09.03.2022
4937 Clear 6 1011 48 10000 1.54 100 19:40 09.03.2022
4938 Clear 9 1010 47 10000 3.09 90 18:25 09.03.2022
4939 Clear 12 1010 37 10000 3.09 90 17:26 09.03.2022
4940 Clear 12 1010 37 10000 3.09 90 16:24 09.03.2022
4941 Clear 13 1011 34 10000 2.57 0 14:32 09.03.2022
4942 Clear 13 1011 31 10000 2.68 90 13:52 09.03.2022
4943 Clear 11 1011 33 10000 1.54 0 12:39 09.03.2022
4944 Clear 10 1011 35 10000 1.54 170 11:52 09.03.2022
4945 Clear 10 1011 36 10000 1.54 170 11:32 09.03.2022
4946 Clear 4 1011 66 10000 1.54 110 09:45 09.03.2022
4947 Clear 1 1011 71 10000 2.06 90 08:47 09.03.2022
4948 Clouds -3 1025 60 10000 1.54 100 06:51 09.03.2022
4949 Clouds 0 1010 65 10000 2.06 100 01:54 09.03.2022
4950 Clouds 0 1010 63 10000 1.34 102 00:27 09.03.2022
4951 Clear 1 1010 59 10000 2.06 120 22:47 08.03.2022
4952 Clear 2 1010 56 10000 2.06 90 21:52 08.03.2022
4953 Clear 2 1010 54 10000 1.54 100 21:22 08.03.2022
4954 Clear 3 1010 54 10000 2.57 110 20:24 08.03.2022
4955 Clear 5 1010 48 10000 3.6 100 19:30 08.03.2022
4956 Clear 6 1024 43 10000 3.6 100 18:41 08.03.2022
4957 Clear 9 1010 41 10000 3.6 130 16:59 08.03.2022
4958 Clear 10 1010 37 10000 5.14 120 14:58 08.03.2022
4959 Clear 10 1011 39 10000 5.66 120 14:18 08.03.2022
4960 Clear 9 1011 45 10000 4.63 110 12:41 08.03.2022
4961 Clear 7 1011 47 10000 2.06 110 11:44 08.03.2022
4962 Clear 6 1011 60 10000 2.68 24 10:41 08.03.2022
4963 Clear 4 1011 55 10000 2.06 100 09:37 08.03.2022
4964 Clouds -3 1011 74 10000 2.06 100 06:34 08.03.2022
4965 Clear -2 1011 74 10000 1.03 120 04:47 08.03.2022
4966 Clear -1 1012 63 10000 0 0 23:36 07.03.2022
4967 Clear 0 1011 68 10000 0 0 21:50 07.03.2022
4968 Clear 1 1011 67 10000 0 0 21:31 07.03.2022
4969 Clear 1 1011 59 10000 1.03 0 20:44 07.03.2022
4970 Clear 2 1011 57 10000 1.03 0 19:55 07.03.2022
4971 Clear 3 1011 55 10000 1.03 0 19:29 07.03.2022
4972 Clear 4 1027 49 10000 1.17 52 18:42 07.03.2022
4973 Clear 7 1025 36 10000 1.54 40 17:47 07.03.2022
4974 Clear 8 1011 47 10000 2.06 0 16:55 07.03.2022
4975 Clear 8 1011 49 10000 2.57 310 15:32 07.03.2022
4976 Clouds 7 1012 55 10000 2.24 23 13:24 07.03.2022
4977 Clear 6 1012 58 10000 3.09 270 12:23 07.03.2022
4978 Clear 4 1012 56 10000 2.06 270 10:38 07.03.2022
4979 Clear 1 1012 61 10000 1.03 0 08:48 07.03.2022
4980 Clouds 0 1011 61 10000 2.06 330 03:41 07.03.2022
4981 Clouds 0 1012 60 10000 1.03 0 00:22 07.03.2022
4982 Clouds 0 1012 59 10000 1.54 300 23:31 06.03.2022
4983 Clouds 0 1012 59 10000 1.03 0 22:40 06.03.2022
4984 Clouds 0 1012 67 10000 0 0 21:46 06.03.2022
4985 Clouds 0 1011 68 10000 0 0 20:31 06.03.2022
4986 Clouds 1 1011 59 10000 0 0 19:51 06.03.2022
4987 Clouds 1 1011 66 10000 1.03 0 18:52 06.03.2022
4988 Clouds 2 1011 64 10000 1.54 120 18:23 06.03.2022
4989 Clouds 2 1011 60 10000 2.24 0 17:21 06.03.2022
4990 Clouds 2 1011 54 10000 1.79 0 16:41 06.03.2022
4991 Clouds 2 1011 53 10000 2.57 60 15:49 06.03.2022
4992 Clouds 2 1011 53 10000 2.57 60 15:49 06.03.2022
4993 Clouds 2 1011 54 10000 2.68 38 14:49 06.03.2022
4994 Clouds 2 1011 54 10000 2.68 29 14:30 06.03.2022
4995 Clouds 2 1011 61 10000 2.68 39 13:18 06.03.2022
4996 Clouds 2 1011 60 10000 2.68 0 12:31 06.03.2022
4997 Clouds 2 1011 60 10000 2.24 0 10:59 06.03.2022
4998 Clouds 2 1011 61 10000 1.79 0 10:22 06.03.2022
4999 Clouds 1 1011 63 10000 1.54 70 08:29 06.03.2022
5000 Clouds 1 1011 63 10000 1.54 70 08:29 06.03.2022
5001 Clouds 1 1011 63 10000 1.54 70 08:29 06.03.2022
5002 Clouds 1 1011 63 10000 1.54 70 08:29 06.03.2022
5003 Clouds 0 1011 63 10000 1.54 70 07:34 06.03.2022
5004 Clouds 0 1011 70 10000 1.54 70 05:40 06.03.2022
5005 Clouds 1 1010 69 10000 3.09 90 00:51 06.03.2022
5006 Clouds 1 1010 69 10000 2.57 70 00:30 06.03.2022
5007 Clouds 1 1010 63 10000 1.54 90 23:21 05.03.2022
5008 Clouds 1 1010 70 10000 2.57 80 22:53 05.03.2022
5009 Clouds 2 1010 67 10000 1.54 100 21:56 05.03.2022
5010 Clouds 1 1010 58 10000 0.51 0 21:23 05.03.2022
5011 Clouds 2 1010 65 10000 1.03 70 19:44 05.03.2022
5012 Clouds 3 1010 60 10000 1.54 80 18:56 05.03.2022
5013 Clouds 3 1010 55 10000 1.03 120 18:27 05.03.2022
5014 Clouds 6 1010 49 10000 4.12 110 16:49 05.03.2022
5015 Clouds 6 1010 48 10000 4.12 110 15:31 05.03.2022
5016 Clouds 6 1010 48 10000 4.12 120 14:47 05.03.2022
5017 Clouds 7 1010 48 10000 4.63 110 14:29 05.03.2022
5018 Clouds 6 1010 50 10000 5.14 110 13:22 05.03.2022
5019 Clouds 5 1010 58 10000 4.12 120 11:48 05.03.2022
5020 Clear 4 1010 60 10000 4.63 100 11:19 05.03.2022
5021 Clear 3 1011 67 10000 4.12 120 10:20 05.03.2022
5022 Clear 2 1011 70 10000 2.57 100 09:22 05.03.2022
5023 Clear -2 1010 80 10000 2.06 80 07:51 05.03.2022
5024 Clouds -2 1010 67 10000 1.54 80 05:43 05.03.2022
5025 Clouds -1 1010 64 10000 1.79 0 03:49 05.03.2022
5026 Clouds 1 1010 65 10000 1.54 100 23:38 04.03.2022
5027 Clouds 1 1024 67 10000 2.06 140 22:44 04.03.2022
5028 Clouds 1 1024 66 10000 2.57 100 22:23 04.03.2022
5029 Clouds 2 1024 75 10000 1.54 70 20:57 04.03.2022
5030 Clouds 2 1024 78 10000 1.03 0 20:28 04.03.2022
5031 Clouds 2 1024 78 10000 0 0 19:36 04.03.2022
5032 Clouds 3 1010 65 10000 2.57 120 18:46 04.03.2022
5033 Clouds 3 1010 63 10000 2.57 100 18:20 04.03.2022
5034 Clouds 3 1010 61 10000 3.09 80 17:28 04.03.2022
5035 Clouds 4 1010 60 10000 4.12 100 15:31 04.03.2022
5036 Clouds 4 1024 48 10000 3.6 100 14:36 04.03.2022
5037 Clouds 4 1025 64 10000 2.57 140 13:27 04.03.2022
5038 Clouds 3 1025 74 10000 3.09 70 11:56 04.03.2022
5039 Clouds 2 1010 66 10000 3.13 0 10:58 04.03.2022
5040 Clouds 2 1010 65 10000 3.6 110 10:21 04.03.2022
5041 Clouds 1 1010 64 10000 2.06 100 09:27 04.03.2022
5042 Clouds 0 1010 64 10000 1.03 100 07:47 04.03.2022
5043 Clouds 0 1010 65 10000 3.09 110 05:44 04.03.2022
5044 Clouds 1 1010 87 10000 2.57 110 00:43 04.03.2022
5045 Clouds 0 1010 81 10000 3.09 90 23:28 03.03.2022
5046 Clouds 0 1010 81 10000 3.09 90 22:18 03.03.2022
5047 Clouds 0 1010 82 10000 3.09 90 21:36 03.03.2022
5048 Clouds 0 1009 80 10000 3.6 100 20:32 03.03.2022
5049 Clouds 1 1009 80 10000 4.12 90 19:22 03.03.2022
5050 Clouds 2 1021 70 10000 2.06 60 18:25 03.03.2022
5051 Clouds 3 1021 67 10000 4.12 80 17:31 03.03.2022
5052 Clear 6 1020 49 10000 3.46 62 16:41 03.03.2022
5053 Clear 7 1020 54 10000 4.31 60 15:44 03.03.2022
5054 Clear 7 1009 59 10000 2.57 50 14:44 03.03.2022
5055 Clear 7 1009 56 10000 3.09 30 14:25 03.03.2022
5056 Clear 7 1009 50 10000 2.06 30 12:33 03.03.2022
5057 Clear 5 1009 55 10000 1.03 0 11:26 03.03.2022
5058 Clear 4 1009 57 10000 1.03 0 10:38 03.03.2022
5059 Clear 1 1021 75 10000 0 0 08:42 03.03.2022
5060 Clouds -2 1021 68 10000 0 0 06:58 03.03.2022
5061 Clouds -2 1021 67 10000 0 0 05:44 03.03.2022
5062 Clouds 0 1010 67 10000 1.03 100 00:30 03.03.2022
5063 Clear 0 1010 61 10000 1.54 110 23:18 02.03.2022
5064 Clear 0 1010 65 10000 0 0 22:42 02.03.2022
5065 Clear 1 1010 63 10000 1.54 100 21:23 02.03.2022
5066 Clear 2 997 62 10000 2.14 106 20:30 02.03.2022
5067 Clear 2 1010 57 10000 1.03 100 19:45 02.03.2022
5068 Clear 3 1010 55 10000 1.03 70 19:26 02.03.2022
5069 Clear 4 1010 52 10000 1.03 80 18:39 02.03.2022
5070 Clear 4 1010 52 10000 1.03 80 18:39 02.03.2022
5071 Clear 4 1010 52 10000 1.03 80 18:39 02.03.2022
5072 Clear 6 1023 49 10000 2.06 90 17:45 02.03.2022
5073 Clear 8 1010 40 10000 3.09 110 16:56 02.03.2022
5074 Clear 8 1010 40 10000 3.09 110 16:36 02.03.2022
5075 Clear 9 1010 44 10000 2.06 0 14:42 02.03.2022
5076 Clear 8 1011 43 10000 2.57 120 13:24 02.03.2022
5077 Clear 7 1011 45 10000 1.54 0 12:41 02.03.2022
5078 Clear 6 1011 52 10000 2.06 140 11:39 02.03.2022
5079 Clear 4 1011 58 10000 1.54 100 11:18 02.03.2022
5080 Clear 2 1011 58 10000 1.54 90 09:41 02.03.2022
5081 Clear 1 1011 57 10000 1.03 90 08:52 02.03.2022
5082 Clear 0 1011 83 10000 0 0 07:28 02.03.2022
5083 Clouds 0 1011 69 10000 1.03 100 05:44 02.03.2022
5084 Clouds 1 1012 59 10000 2.06 100 00:58 02.03.2022
5085 Clouds 1 1012 59 10000 2.06 100 00:58 02.03.2022
5086 Clouds 1 1012 64 10000 0 0 23:47 01.03.2022
5087 Clouds 2 1012 55 10000 0 0 22:45 01.03.2022
5088 Clouds 2 1012 58 10000 0.45 156 21:57 01.03.2022
5089 Clouds 2 1012 57 10000 0 0 21:24 01.03.2022
5090 Clear 3 1012 55 10000 1.54 110 20:30 01.03.2022
5091 Clear 3 1012 55 10000 1.54 110 20:30 01.03.2022
5092 Clear 3 1013 54 10000 1.03 80 19:28 01.03.2022
5093 Clear 4 1013 54 10000 1.03 0 18:49 01.03.2022
5094 Clear 4 1012 56 10000 1.54 90 18:19 01.03.2022
5095 Clear 6 1013 43 10000 2.06 80 17:22 01.03.2022
5096 Clear 7 1013 44 10000 2.06 100 16:33 01.03.2022
5097 Clear 8 1013 39 10000 1.03 0 15:38 01.03.2022
5098 Clear 8 1013 40 10000 2.06 180 14:35 01.03.2022
5099 Clear 8 1013 41 10000 2.06 210 13:52 01.03.2022
5100 Clear 7 1013 43 10000 2.06 190 13:24 01.03.2022
5101 Clear 6 1013 41 10000 3.6 160 12:32 01.03.2022
5102 Clear 3 1014 52 10000 1.54 110 10:36 01.03.2022
5103 Clear 0 997 59 10000 1.79 0 08:45 01.03.2022
5104 Clear -1 997 76 10000 2.24 0 07:54 01.03.2022
5105 Clear -3 1014 74 10000 1.34 135 06:20 01.03.2022
5106 Clear -1 1014 69 10000 1.34 169 02:44 01.03.2022
5107 Clear 0 1014 67 10000 4.63 140 00:36 01.03.2022
5108 Clear 1 1015 62 10000 5.14 140 23:31 28.02.2022
5109 Clear 1 1015 66 10000 4.12 110 22:24 28.02.2022
5110 Clear 1 1015 66 10000 4.12 100 21:39 28.02.2022
5111 Clear 1 1015 66 10000 4.12 110 20:28 28.02.2022
5112 Clear 1 1015 65 10000 5.14 110 19:41 28.02.2022
5113 Clear 2 1015 66 10000 4.63 110 18:49 28.02.2022
5114 Clear 3 1015 63 10000 4.63 110 17:33 28.02.2022
5115 Clear 4 1015 62 10000 4.63 110 16:53 28.02.2022
5116 Clear 5 1034 70 10000 5.66 110 15:31 28.02.2022
5117 Clear 6 1034 63 10000 4.63 110 14:32 28.02.2022
5118 Clouds 5 1035 67 9000 4.12 90 13:48 28.02.2022
5119 Mist 4 1035 74 5000 3.09 110 12:53 28.02.2022
5120 Mist 2 1035 79 5000 3.6 130 11:59 28.02.2022
5121 Mist 2 1035 84 4100 3.6 120 11:19 28.02.2022
5122 Mist 1 1035 81 3100 2.57 110 10:22 28.02.2022
5123 Mist 0 1035 82 3200 2.57 140 09:43 28.02.2022
5124 Mist -1 1035 85 1200 3.09 140 08:52 28.02.2022
5125 Mist -1 1015 84 1900 4.12 120 07:58 28.02.2022
5126 Clear -2 1015 82 10000 2.24 134 05:54 28.02.2022
5127 Clear -1 1015 82 10000 2.24 132 04:30 28.02.2022
5128 Clear 0 1015 64 10000 2.06 110 00:53 28.02.2022
5129 Clear 1 1015 63 10000 3.09 90 22:53 27.02.2022
5130 Clear 1 1015 62 10000 3.09 100 22:32 27.02.2022
5131 Clear 2 1015 61 10000 2.57 90 21:42 27.02.2022
5132 Clear 2 1015 59 10000 3.6 100 20:44 27.02.2022
5133 Clear 3 1016 67 10000 3.09 100 20:18 27.02.2022
5134 Clear 3 1016 66 10000 3.09 110 19:49 27.02.2022
5135 Clear 3 1016 59 10000 2.57 110 19:22 27.02.2022
5136 Clear 4 1016 58 10000 2.57 110 18:37 27.02.2022
5137 Clear 5 1016 65 10000 4.12 110 17:52 27.02.2022
5138 Clear 7 1016 52 10000 5.66 110 16:30 27.02.2022
5139 Clear 8 1016 48 10000 5.66 130 15:24 27.02.2022
5140 Clouds 7 1016 60 10000 1.34 0 12:37 27.02.2022
5141 Clouds 6 1017 64 10000 2.24 0 11:54 27.02.2022
5142 Clouds 4 1017 75 10000 3.13 0 10:37 27.02.2022
5143 Clear 3 1016 85 10000 2.24 0 09:58 27.02.2022
5144 Clear 2 1016 86 10000 2.68 0 09:24 27.02.2022
5145 Clear 1 1016 87 10000 2.06 100 08:51 27.02.2022
5146 Clear -2 1016 90 10000 2.57 90 06:42 27.02.2022
5147 Clear -1 1016 84 10000 2.06 80 04:26 27.02.2022
5148 Clear 0 1016 79 10000 1.03 110 00:34 27.02.2022
5149 Clear 0 1016 75 10000 1.54 120 22:50 26.02.2022
5150 Clear 1 1015 70 10000 1.54 90 21:34 26.02.2022
5151 Clear 2 1016 76 10000 1.03 80 20:48 26.02.2022
5152 Clear 3 1015 67 10000 1.03 80 19:59 26.02.2022
5153 Clear 3 1015 68 10000 1.34 0 19:34 26.02.2022
5154 Clouds 5 1015 59 10000 1.34 0 18:46 26.02.2022
5155 Clear 7 1033 45 10000 1.54 30 17:40 26.02.2022
5156 Clear 8 1015 51 10000 2.06 360 16:48 26.02.2022
5157 Clouds 9 1015 58 10000 2.57 310 15:48 26.02.2022
5158 Clouds 9 1015 62 10000 3.6 290 15:20 26.02.2022
5159 Clouds 9 1015 66 10000 4.12 280 14:52 26.02.2022
5160 Clouds 9 1015 67 10000 4.12 280 14:33 26.02.2022
5161 Clouds 8 1015 63 10000 3.09 270 13:19 26.02.2022
5162 Clouds 7 1015 73 10000 3.6 270 12:20 26.02.2022
5163 Clouds 6 1015 73 10000 3.09 290 11:28 26.02.2022
5164 Clouds 5 1015 66 10000 3.09 310 10:40 26.02.2022
5165 Clouds 4 997 86 10000 2.68 295 08:53 26.02.2022
5166 Clouds 3 997 80 10000 2.68 0 06:51 26.02.2022
5167 Clouds 2 997 83 10000 3.13 0 00:56 26.02.2022
5168 Clouds 3 997 83 10000 2.24 269 22:49 25.02.2022
5169 Clouds 3 997 85 10000 2.24 289 21:43 25.02.2022
5170 Clouds 3 997 85 10000 3.13 278 21:25 25.02.2022
5171 Clouds 3 1009 86 10000 6.17 280 20:33 25.02.2022
5172 Clouds 3 1009 84 10000 7.72 280 19:18 25.02.2022
5173 Clouds 4 1007 82 10000 6.69 260 17:29 25.02.2022
5174 Clouds 4 1007 90 10000 7.2 250 16:35 25.02.2022
5175 Clouds 4 1007 81 7000 8.75 270 15:48 25.02.2022
5176 Clouds 5 1007 61 10000 8.75 250 15:22 25.02.2022
5177 Clouds 6 1006 63 10000 8.23 250 14:42 25.02.2022
5178 Clouds 6 1007 64 10000 9.26 250 13:51 25.02.2022
5179 Clouds 5 1016 66 10000 8.23 250 13:19 25.02.2022
5180 Clouds 6 1006 60 10000 9.77 250 11:28 25.02.2022
5181 Clouds 5 1006 60 10000 10.29 250 10:48 25.02.2022
5182 Clouds 5 1006 60 10000 10.29 250 10:22 25.02.2022
5183 Clouds 4 1006 69 10000 7.72 250 09:31 25.02.2022
5184 Clear 3 1006 65 10000 7.72 250 07:44 25.02.2022
5185 Clouds 3 1005 66 10000 7.2 250 05:58 25.02.2022
5186 Clouds 3 1005 66 10000 7.2 250 05:36 25.02.2022
5187 Clouds 3 1003 71 10000 6.69 270 00:30 25.02.2022
5188 Clouds 4 1002 79 10000 6.69 270 22:29 24.02.2022
5189 Clouds 4 1002 81 10000 8.23 260 21:43 24.02.2022
5190 Clouds 4 1002 81 10000 8.23 260 21:43 24.02.2022
5191 Clouds 4 1002 87 10000 8.75 270 21:21 24.02.2022
5192 Clouds 4 1002 83 10000 7.72 270 20:42 24.02.2022
5193 Clouds 5 1004 70 5712 11.4 248 19:19 24.02.2022
5194 Clouds 10 1000 60 10000 6.69 220 18:20 24.02.2022
5195 Clouds 10 1000 61 10000 6.69 220 17:51 24.02.2022
5196 Clouds 10 1000 60 10000 6.69 220 16:57 24.02.2022
5197 Clouds 11 1000 60 10000 7.2 220 16:25 24.02.2022
5198 Clouds 11 1001 57 10000 6.69 210 15:41 24.02.2022
5199 Clouds 11 1001 55 10000 6.69 220 14:44 24.02.2022
5200 Clouds 11 1002 55 10000 5.36 0 13:51 24.02.2022
5201 Clouds 11 1002 55 10000 5.66 210 13:30 24.02.2022
5202 Clouds 9 1004 60 10000 4.63 220 10:50 24.02.2022
5203 Clouds 8 1004 58 10000 4.63 220 10:31 24.02.2022
5204 Clouds 7 1004 60 10000 2.06 180 08:43 24.02.2022
5205 Clouds 7 1014 56 10000 4.63 220 06:28 24.02.2022
5206 Clouds 7 1014 53 10000 3.6 230 05:40 24.02.2022
5207 Clouds 5 1019 59 10000 3.09 200 00:30 24.02.2022
5208 Clouds 5 1008 59 10000 3.09 220 22:19 23.02.2022
5209 Clouds 5 1009 58 10000 2.06 180 20:45 23.02.2022
5210 Clear 6 1009 58 10000 2.57 190 20:26 23.02.2022
5211 Clear 6 1009 58 10000 2.06 180 19:35 23.02.2022
5212 Clear 7 1009 63 10000 3.6 250 18:26 23.02.2022
5213 Clouds 10 1010 50 10000 6.17 260 16:28 23.02.2022
5214 Clouds 10 1010 52 10000 6.69 260 13:58 23.02.2022
5215 Clouds 9 1010 58 10000 6.69 260 12:31 23.02.2022
5216 Clouds 7 1010 59 10000 6.17 260 10:58 23.02.2022
5217 Clouds 7 1010 66 10000 6.17 270 10:23 23.02.2022
5218 Clouds 6 1009 64 10000 5.14 270 08:55 23.02.2022
5219 Clouds 5 1009 63 10000 6.17 270 07:55 23.02.2022
5220 Clouds 6 1006 62 10000 6.17 280 02:58 23.02.2022
5221 Clouds 6 1005 78 10000 7.72 280 00:18 23.02.2022
5222 Clouds 6 1005 64 10000 7.72 290 23:34 22.02.2022
5223 Clouds 7 1003 82 10000 8.75 290 22:28 22.02.2022
5224 Clouds 8 1003 92 7000 7.72 240 21:48 22.02.2022
5225 Clouds 7 1003 86 10000 6.69 230 21:24 22.02.2022
5226 Clouds 7 1003 84 10000 6.69 240 20:47 22.02.2022
5227 Drizzle 7 1003 84 10000 7.2 230 20:28 22.02.2022
5228 Drizzle 7 1003 88 7000 6.69 220 19:34 22.02.2022
5229 Clouds 7 1003 82 10000 4.02 0 18:50 22.02.2022
5230 Clouds 6 1004 79 10000 4.12 220 17:36 22.02.2022
5231 Clouds 6 1004 79 10000 4.12 220 17:18 22.02.2022
5232 Clouds 7 1004 62 10000 6.17 240 16:36 22.02.2022
5233 Clouds 8 1005 67 10000 6.17 240 15:37 22.02.2022
5234 Clouds 8 1005 61 10000 5.66 250 14:42 22.02.2022
5235 Clouds 7 1006 59 10000 7.72 270 11:41 22.02.2022
5236 Clouds 5 1006 56 10000 7.2 280 10:24 22.02.2022
5237 Clouds 3 1005 78 10000 5.14 280 07:43 22.02.2022
5238 Clouds 3 1004 78 10000 6.17 290 07:25 22.02.2022
5239 Clouds 5 1002 80 10000 8.23 300 02:52 22.02.2022
5240 Clouds 5 1001 80 10000 6.17 280 00:48 22.02.2022
5241 Clouds 5 1000 80 10000 5.66 270 22:38 21.02.2022
5242 Clouds 5 999 82 10000 6.17 290 21:30 21.02.2022
5243 Clouds 4 998 82 10000 6.17 300 20:29 21.02.2022
5244 Clouds 4 997 90 10000 6.17 290 18:41 21.02.2022
5245 Drizzle 4 995 85 10000 7.2 230 16:48 21.02.2022
5246 Clouds 4 996 78 10000 8.23 230 14:24 21.02.2022
5247 Clouds 4 996 71 10000 7.72 230 13:59 21.02.2022
5248 Clouds 5 996 59 10000 8.23 240 12:59 21.02.2022
5249 Clouds 5 996 60 10000 10.8 240 12:23 21.02.2022
5250 Clouds 5 996 62 10000 9.77 250 10:45 21.02.2022
5251 Clouds 4 996 70 10000 7.15 257 09:30 21.02.2022
5252 Clouds 4 996 70 10000 7.15 257 09:30 21.02.2022
5253 Clouds 7 993 83 10000 10.8 270 02:58 21.02.2022
5254 Clouds 9 995 82 10000 8.23 220 23:29 20.02.2022
5255 Clouds 9 995 81 10000 7.72 220 22:19 20.02.2022
5256 Clouds 9 996 86 10000 7.72 220 21:42 20.02.2022
5257 Clouds 8 997 82 10000 7.2 220 20:52 20.02.2022
5258 Clouds 8 997 82 10000 7.2 230 20:23 20.02.2022
5259 Clouds 9 997 82 10000 7.2 230 19:30 20.02.2022
5260 Clouds 9 998 81 10000 7.2 230 18:49 20.02.2022
5261 Clouds 9 998 86 10000 8.23 240 18:31 20.02.2022
5262 Clouds 9 998 77 10000 7.72 240 17:34 20.02.2022
5263 Clouds 9 999 81 10000 7.2 240 15:31 20.02.2022
5264 Clouds 8 999 84 10000 7.2 230 14:41 20.02.2022
5265 Clouds 7 1000 84 10000 7.2 230 13:23 20.02.2022
5266 Clouds 6 1000 87 10000 6.69 210 12:22 20.02.2022
5267 Clouds 5 1002 78 10000 4.63 230 10:21 20.02.2022
5268 Clouds 5 1002 68 10000 7.2 240 09:53 20.02.2022
5269 Clouds 4 1002 88 10000 4.63 290 07:45 20.02.2022
5270 Clouds 3 1001 80 10000 4.63 180 00:54 20.02.2022
5271 Clouds 4 1001 86 10000 4.12 200 00:29 20.02.2022
5272 Clouds 5 1002 66 10000 5.66 220 22:44 19.02.2022
5273 Clouds 5 1003 58 10000 6.69 220 22:21 19.02.2022
5274 Clouds 6 1003 53 10000 5.66 230 20:51 19.02.2022
5275 Clear 6 1003 51 10000 5.14 240 19:48 19.02.2022
5276 Clear 6 1003 58 10000 4.63 250 19:25 19.02.2022
5277 Clear 6 1004 54 10000 5.14 250 18:32 19.02.2022
5278 Clear 6 1004 51 10000 6.17 260 17:33 19.02.2022
5279 Clouds 7 1004 51 10000 9.77 250 16:22 19.02.2022
5280 Clouds 7 1004 59 10000 10.8 260 14:56 19.02.2022
5281 Clouds 6 1004 60 10000 10.8 260 14:37 19.02.2022
5282 Clouds 6 1003 57 10000 11.32 260 12:50 19.02.2022
5283 Clouds 6 1003 57 10000 10.29 260 11:36 19.02.2022
5284 Clouds 5 1001 57 10000 10.8 260 09:36 19.02.2022
5285 Clouds 4 999 61 10000 12.35 260 06:54 19.02.2022
5286 Clouds 7 997 41 10000 16.46 260 02:52 19.02.2022
5287 Clouds 7 995 46 10000 13.38 250 23:28 18.02.2022
5288 Clouds 7 994 52 10000 14.4 260 21:49 18.02.2022
5289 Clouds 7 993 50 10000 15.95 250 20:42 18.02.2022
5290 Clear 10 993 42 10000 12.35 250 19:52 18.02.2022
5291 Clouds 10 993 54 10000 6.26 0 18:50 18.02.2022
5292 Clouds 10 997 58 10000 8.49 357 18:20 18.02.2022
5293 Clouds 12 993 59 10000 9.26 220 17:38 18.02.2022
5294 Clouds 10 996 76 10000 6.69 200 14:50 18.02.2022
5295 Clouds 8 997 79 10000 3.6 170 13:55 18.02.2022
5296 Clouds 7 998 79 9000 3.6 140 12:53 18.02.2022
5297 Clouds 7 999 74 10000 3.09 140 11:58 18.02.2022
5298 Clear 7 999 64 10000 3.6 140 11:22 18.02.2022
5299 Clouds 6 1001 62 10000 4.63 200 09:52 18.02.2022
5300 Clouds 5 1002 78 10000 3.6 250 06:56 18.02.2022
5301 Clouds 5 1002 77 10000 4.63 240 05:39 18.02.2022
5302 Clouds 6 1002 58 10000 8.23 270 23:24 17.02.2022
5303 Clouds 7 1001 57 10000 9.77 280 21:45 17.02.2022
5304 Clouds 6 1001 51 10000 8.23 280 21:19 17.02.2022
5305 Clouds 6 1001 53 10000 9.77 270 20:37 17.02.2022
5306 Clouds 6 1000 54 10000 8.23 270 19:48 17.02.2022
5307 Clouds 7 1000 50 10000 8.75 280 18:41 17.02.2022
5308 Clouds 7 999 49 10000 10.8 270 17:50 17.02.2022
5309 Clear 9 998 42 10000 12.35 280 16:29 17.02.2022
5310 Clouds 9 998 44 10000 13.89 270 15:32 17.02.2022
5311 Clouds 9 997 44 10000 13.38 280 14:26 17.02.2022
5312 Clouds 9 997 44 10000 13.89 280 12:36 17.02.2022
5313 Clouds 9 996 46 10000 14.4 280 11:23 17.02.2022
5314 Clouds 9 996 46 10000 14.4 280 11:23 17.02.2022
5315 Clouds 9 994 52 10000 15.43 280 08:52 17.02.2022
5316 Clouds 10 991 85 10000 13.89 300 02:26 17.02.2022
5317 Clouds 12 991 86 10000 9.26 230 23:21 16.02.2022
5318 Clouds 11 992 84 10000 7.2 220 21:40 16.02.2022
5319 Clouds 12 994 76 10000 6.69 240 19:47 16.02.2022
5320 Clouds 11 995 81 10000 6.17 230 18:39 16.02.2022
5321 Clouds 11 995 86 10000 6.17 230 17:53 16.02.2022
5322 Drizzle 10 995 81 2700 7.2 240 15:39 16.02.2022
5323 Clouds 10 995 79 10000 8.23 240 15:19 16.02.2022
5324 Clouds 10 995 62 10000 7.72 230 13:28 16.02.2022
5325 Clouds 9 996 61 10000 8.75 220 12:19 16.02.2022
5326 Drizzle 8 996 76 10000 9.26 220 11:26 16.02.2022
5327 Clouds 8 997 60 10000 7.2 210 10:33 16.02.2022
5328 Clouds 7 1010 63 10000 7.72 210 08:20 16.02.2022
5329 Clouds 6 1011 83 10000 7.2 220 06:29 16.02.2022
5330 Clouds 7 1013 61 10000 7.72 220 23:45 15.02.2022
5331 Clouds 7 1014 57 10000 5.66 220 22:30 15.02.2022
5332 Clouds 7 1014 58 10000 7.2 220 21:47 15.02.2022
5333 Clouds 7 1014 65 10000 6.17 210 21:27 15.02.2022
5334 Clouds 7 1014 60 10000 4.63 200 20:56 15.02.2022
5335 Clear 6 1014 67 10000 5.14 230 19:57 15.02.2022
5336 Clouds 6 1014 60 10000 4.12 220 19:21 15.02.2022
5337 Clouds 7 1015 61 10000 4.12 240 18:23 15.02.2022
5338 Clouds 7 1015 60 10000 3.09 240 17:50 15.02.2022
5339 Clouds 8 1015 60 10000 4.12 250 17:19 15.02.2022
5340 Clouds 9 1015 67 10000 5.14 260 15:30 15.02.2022
5341 Clouds 9 1015 66 10000 6.69 250 13:28 15.02.2022
5342 Clouds 9 1015 67 10000 3.13 0 12:53 15.02.2022
5343 Clouds 9 1015 59 10000 6.17 250 11:40 15.02.2022
5344 Clouds 7 1015 64 10000 4.63 250 09:47 15.02.2022
5345 Clouds 6 1014 67 10000 4.63 230 06:59 15.02.2022
5346 Clouds 6 1014 62 10000 4.63 230 05:32 15.02.2022
5347 Clouds 7 1013 59 10000 3.6 220 23:34 14.02.2022
5348 Clouds 8 1013 67 10000 3.09 220 21:54 14.02.2022
5349 Clouds 9 1004 53 10000 3.09 220 20:50 14.02.2022
5350 Clouds 9 1004 52 10000 2.57 240 19:45 14.02.2022
5351 Clouds 9 1004 52 10000 2.57 240 19:45 14.02.2022
5352 Clear 9 1012 59 10000 5.14 240 19:26 14.02.2022
5353 Clouds 10 1012 60 10000 4.63 240 18:23 14.02.2022
5354 Clouds 11 1011 58 10000 5.66 230 17:27 14.02.2022
5355 Clouds 12 1011 64 10000 6.69 210 16:26 14.02.2022
5356 Clouds 13 1011 52 10000 6.69 230 14:43 14.02.2022
5357 Clear 13 1011 49 10000 8.23 230 13:34 14.02.2022
5358 Clear 13 1011 51 10000 7.72 220 12:56 14.02.2022
5359 Clear 12 1011 52 10000 5.66 210 11:56 14.02.2022
5360 Clear 11 1011 53 10000 5.66 210 11:37 14.02.2022
5361 Clear 9 1011 54 10000 3.6 170 09:25 14.02.2022
5362 Clear 6 1011 62 10000 3.09 140 07:37 14.02.2022
5363 Clear 6 1011 62 10000 3.09 150 07:19 14.02.2022
5364 Clouds 6 1014 60 10000 4.63 170 22:48 13.02.2022
5365 Clouds 6 1014 60 10000 4.12 170 22:29 13.02.2022
5366 Clouds 6 1014 59 10000 3.09 170 21:48 13.02.2022
5367 Clouds 6 1014 59 10000 3.6 170 20:42 13.02.2022
5368 Clouds 6 1015 67 10000 3.58 144 19:57 13.02.2022
5369 Clouds 6 1015 56 10000 2.68 169 18:58 13.02.2022
5370 Clouds 7 1010 56 10000 2.57 160 18:40 13.02.2022
5371 Clear 8 1016 52 10000 4.63 200 16:53 13.02.2022
5372 Clear 9 1016 46 10000 4.12 200 15:51 13.02.2022
5373 Clear 9 1017 45 10000 5.36 0 14:50 13.02.2022
5374 Clear 8 1017 44 10000 3.13 0 13:27 13.02.2022
5375 Clear 7 1018 44 10000 5.14 210 12:42 13.02.2022
5376 Clear 4 1018 53 10000 5.14 230 10:43 13.02.2022
5377 Clear 4 1018 53 10000 4.02 0 10:23 13.02.2022
5378 Clouds 1 1018 58 10000 0.45 0 08:56 13.02.2022
5379 Clouds 2 1020 61 10000 2.57 200 02:49 13.02.2022
5380 Clouds 2 1020 70 10000 2.06 150 00:32 13.02.2022
5381 Clouds 1 1021 68 10000 2.06 140 22:56 12.02.2022
5382 Clouds 1 1021 73 10000 2.06 140 22:32 12.02.2022
5383 Clouds 1 1021 83 10000 2.06 120 21:18 12.02.2022
5384 Clouds 1 1022 76 10000 2.06 130 20:24 12.02.2022
5385 Clouds 2 1022 58 10000 2.57 140 18:54 12.02.2022
5386 Clouds 2 1022 58 10000 2.57 140 18:36 12.02.2022
5387 Clear 3 1022 59 10000 2.57 160 17:55 12.02.2022
5388 Clear 4 1023 64 10000 3.09 150 16:54 12.02.2022
5389 Clear 5 1023 60 10000 3.09 190 16:18 12.02.2022
5390 Clear 6 1023 58 10000 4.12 150 15:32 12.02.2022
5391 Clear 6 1024 51 10000 3.6 210 14:30 12.02.2022
5392 Clear 5 1025 58 10000 2.57 190 12:26 12.02.2022
5393 Clear 2 1026 72 10000 3.09 170 10:35 12.02.2022
5394 Clear 1 1026 71 10000 2.57 160 09:38 12.02.2022
5395 Clouds -1 1026 84 10000 2.57 170 08:48 12.02.2022
5396 Clouds -1 1026 84 10000 2.57 170 08:48 12.02.2022
5397 Clouds -2 1026 85 10000 2.57 170 07:50 12.02.2022
5398 Clear -2 1026 91 10000 1.03 0 05:33 12.02.2022
5399 Clear -1 1026 85 10000 0 0 02:20 12.02.2022
5400 Clear -1 1026 84 10000 0 0 01:44 12.02.2022
5401 Clear 0 1026 82 10000 2.06 270 22:27 11.02.2022
5402 Clear 0 1026 81 10000 2.57 290 21:45 11.02.2022
5403 Clear 1 1025 81 10000 2.57 290 20:39 11.02.2022
5404 Clear 2 1025 80 10000 3.09 290 19:35 11.02.2022
5405 Clouds 2 1024 81 10000 5.14 300 18:59 11.02.2022
5406 Clouds 3 1024 83 10000 6.17 320 17:41 11.02.2022
5407 Clouds 4 1023 84 10000 5.81 0 17:22 11.02.2022
5408 Clouds 4 1022 88 10000 5.14 320 15:56 11.02.2022
5409 Drizzle 5 1021 94 10000 5.14 330 14:43 11.02.2022
5410 Drizzle 5 1020 90 3800 6.17 300 14:21 11.02.2022
5411 Rain 5 1020 89 6000 5.66 280 13:57 11.02.2022
5412 Drizzle 5 1020 89 6000 5.66 280 13:39 11.02.2022
5413 Rain 4 1020 84 10000 7.72 250 11:41 11.02.2022
5414 Clouds 4 1019 85 10000 5.66 250 09:57 11.02.2022
5415 Clouds 3 1019 83 10000 4.63 240 08:49 11.02.2022
5416 Rain 3 1019 82 10000 3.6 220 08:26 11.02.2022
5417 Clear 2 1019 81 10000 4.63 230 07:18 11.02.2022
5418 Clouds 4 1020 67 10000 2.24 250 02:26 11.02.2022
5419 Clouds 4 1020 83 10000 4.63 240 00:52 11.02.2022
5420 Clear 5 1020 68 10000 4.12 250 22:51 10.02.2022
5421 Clouds 5 1020 68 10000 4.63 250 21:46 10.02.2022
5422 Clouds 6 1020 67 10000 5.14 240 20:59 10.02.2022
5423 Rain 6 1020 67 10000 5.14 240 20:38 10.02.2022
5424 Rain 6 1019 80 10000 3.6 240 19:26 10.02.2022
5425 Clear 6 1019 87 10000 4.12 240 18:46 10.02.2022
5426 Clouds 6 1019 81 10000 4.12 260 17:27 10.02.2022
5427 Clouds 7 1019 81 10000 4.63 260 16:55 10.02.2022
5428 Clouds 7 1019 87 10000 2.68 0 15:51 10.02.2022
5429 Clouds 7 1019 88 10000 2.57 220 15:31 10.02.2022
5430 Clouds 7 1019 81 10000 3.09 310 14:48 10.02.2022
5431 Clouds 7 1019 81 10000 4.63 310 14:24 10.02.2022
5432 Drizzle 7 1019 84 7000 5.14 260 13:29 10.02.2022
5433 Clouds 8 1019 82 9000 5.14 270 12:50 10.02.2022
5434 Clouds 8 1019 70 10000 4.63 240 11:34 10.02.2022
5435 Clouds 8 1019 66 10000 5.14 240 10:56 10.02.2022
5436 Clouds 8 1019 66 10000 4.63 240 10:18 10.02.2022
5437 Clouds 8 1019 70 10000 4.12 230 09:25 10.02.2022
5438 Clouds 7 1019 65 10000 0.51 0 07:36 10.02.2022
5439 Clouds 8 1019 70 10000 2.06 200 05:51 10.02.2022
5440 Clouds 8 1020 71 10000 3.6 230 01:52 10.02.2022
5441 Clouds 8 1020 67 10000 3.09 220 00:50 10.02.2022
5442 Clouds 8 1021 67 10000 3.09 240 00:28 10.02.2022
5443 Clouds 9 1021 67 10000 4.12 240 23:24 09.02.2022
5444 Clouds 9 1021 67 10000 3.6 250 22:36 09.02.2022
5445 Clouds 9 1021 70 10000 4.12 250 21:52 09.02.2022
5446 Clouds 9 1021 70 10000 4.12 250 21:29 09.02.2022
5447 Clouds 9 1021 70 10000 4.63 250 20:48 09.02.2022
5448 Clouds 9 1021 65 10000 4.63 250 20:29 09.02.2022
5449 Clouds 9 1020 64 10000 2.24 0 19:56 09.02.2022
5450 Clouds 9 1021 65 10000 5.66 250 19:32 09.02.2022
5451 Clouds 9 1021 64 10000 6.17 260 17:38 09.02.2022
5452 Clouds 9 1021 64 10000 7.2 260 16:52 09.02.2022
5453 Clouds 10 1021 69 10000 6.69 260 15:52 09.02.2022
5454 Clouds 10 1021 64 10000 7.72 260 14:42 09.02.2022
5455 Clouds 9 1021 66 10000 5.66 260 12:28 09.02.2022
5456 Clouds 9 1021 79 10000 7.2 260 10:55 09.02.2022
5457 Clouds 9 1021 79 10000 7.2 260 10:55 09.02.2022
5458 Clouds 9 1021 79 10000 6.17 250 10:30 09.02.2022
5459 Clouds 9 1021 70 10000 6.17 250 09:40 09.02.2022
5460 Clouds 9 1021 67 10000 5.66 250 09:19 09.02.2022
5461 Clouds 9 1021 66 10000 4.63 250 07:55 09.02.2022
5462 Clouds 9 1022 71 10000 4.63 240 05:30 09.02.2022
5463 Clouds 9 1022 81 10000 6.69 260 03:50 09.02.2022
5464 Clouds 8 1022 90 5000 7.2 260 01:27 09.02.2022
5465 Clouds 9 1022 89 5000 6.69 260 23:34 08.02.2022
5466 Clouds 9 1022 89 10000 6.69 260 22:50 08.02.2022
5467 Clouds 9 1022 87 10000 6.17 260 22:22 08.02.2022
5468 Clouds 9 1022 90 7000 7.2 260 21:50 08.02.2022
5469 Clouds 9 1022 84 10000 6.69 260 21:21 08.02.2022
5470 Drizzle 9 1022 85 4000 6.69 260 20:45 08.02.2022
5471 Drizzle 9 1021 83 6000 6.69 260 19:47 08.02.2022
5472 Clouds 9 1021 83 6000 4.02 0 18:52 08.02.2022
5473 Clouds 9 1021 83 10000 7.2 260 17:50 08.02.2022
5474 Drizzle 9 1021 83 8000 6.69 260 16:34 08.02.2022
5475 Drizzle 9 1020 86 10000 7.72 260 15:30 08.02.2022
5476 Clouds 9 1020 84 10000 8.75 260 14:44 08.02.2022
5477 Clouds 9 1021 78 10000 8.75 260 13:29 08.02.2022
5478 Clouds 9 1021 79 10000 8.75 250 11:55 08.02.2022
5479 Clouds 8 1021 84 10000 8.23 250 10:39 08.02.2022
5480 Drizzle 7 1021 87 10000 8.23 250 09:45 08.02.2022
5481 Drizzle 5 1020 87 9000 5.14 230 08:25 08.02.2022
5482 Clouds 4 1021 87 5000 4.63 230 05:41 08.02.2022
5483 Clouds 5 1021 66 10000 5.36 0 04:39 08.02.2022
5484 Clouds 4 1021 67 10000 6.69 250 04:21 08.02.2022
5485 Clouds 4 1021 67 10000 5.14 240 03:36 08.02.2022
5486 Clouds 4 1021 67 10000 5.14 250 03:18 08.02.2022
5487 Clouds 4 1022 68 10000 4.12 240 02:59 08.02.2022
5488 Clouds 4 1022 68 10000 4.12 240 02:36 08.02.2022
5489 Clouds 4 1022 69 10000 4.12 250 02:18 08.02.2022
5490 Clouds 3 1022 80 10000 4.63 240 01:44 08.02.2022
5491 Clouds 3 1022 86 10000 3.6 240 01:24 08.02.2022
5492 Clouds 3 1022 88 10000 4.12 250 00:55 08.02.2022
5493 Clouds 3 1022 82 10000 3.09 260 23:58 07.02.2022
5494 Clouds 3 1022 82 10000 3.09 260 23:40 07.02.2022
5495 Clouds 3 1022 82 10000 3.09 270 23:18 07.02.2022
5496 Clouds 3 1022 81 10000 4.12 270 22:56 07.02.2022
5497 Clouds 3 1022 82 10000 4.63 270 22:18 07.02.2022
5498 Clouds 3 1022 81 10000 5.14 280 21:47 07.02.2022
5499 Clouds 3 1021 82 10000 4.63 270 21:26 07.02.2022
5500 Clouds 4 1021 83 10000 3.6 270 20:41 07.02.2022
5501 Clouds 3 1021 82 10000 3.6 280 20:18 07.02.2022
5502 Clouds 3 1021 83 10000 5.14 290 19:46 07.02.2022
5503 Clouds 3 1020 91 10000 3.13 357 18:24 07.02.2022
5504 Rain 3 1020 86 10000 6.17 280 16:53 07.02.2022
5505 Clouds 4 1020 84 10000 7.2 300 16:21 07.02.2022
5506 Clouds 4 1020 68 10000 9.77 310 15:48 07.02.2022
5507 Rain 6 1018 69 10000 7.72 290 13:39 07.02.2022
5508 Clouds 6 1018 68 10000 8.23 290 13:21 07.02.2022
5509 Clouds 6 1018 62 10000 3.58 0 11:58 07.02.2022
5510 Clouds 5 1018 63 10000 5.36 0 11:38 07.02.2022
5511 Clouds 5 1017 77 10000 2.68 0 10:53 07.02.2022
5512 Clouds 4 1017 79 10000 2.68 0 10:33 07.02.2022
5513 Clouds 4 1016 85 10000 5.36 0 09:53 07.02.2022
5514 Clouds 3 1016 85 10000 2.68 0 09:18 07.02.2022
5515 Clouds 3 1015 84 10000 5.36 342 08:44 07.02.2022
5516 Clouds 3 1014 84 10000 3.13 305 07:34 07.02.2022
5517 Clouds 2 1013 85 7000 5.81 0 06:34 07.02.2022
5518 Clouds 2 1011 82 10000 5.36 0 04:18 07.02.2022
5519 Clouds 3 1009 83 10000 4.92 288 00:54 07.02.2022
5520 Clouds 3 1008 82 10000 5.81 284 23:50 06.02.2022
5521 Clouds 4 1008 82 10000 5.81 272 23:19 06.02.2022
5522 Clouds 4 1008 83 10000 4.47 279 22:38 06.02.2022
5523 Clouds 4 1007 89 10000 4.02 256 21:37 06.02.2022
5524 Rain 4 1007 82 10000 6.26 293 20:58 06.02.2022
5525 Rain 5 1007 81 10000 5.36 0 20:37 06.02.2022
5526 Clouds 5 1008 83 10000 4.92 241 19:50 06.02.2022
5527 Clouds 5 1008 90 10000 4.47 0 18:52 06.02.2022
5528 Clouds 5 1008 91 10000 5.36 0 18:27 06.02.2022
5529 Clouds 4 1007 85 10000 4.47 254 17:29 06.02.2022
5530 Clouds 5 1007 84 9000 4.47 262 16:50 06.02.2022
5531 Rain 6 1007 89 10000 7.6 0 15:51 06.02.2022
5532 Rain 6 1007 81 10000 4.92 0 15:28 06.02.2022
5533 Rain 6 1007 83 10000 5.36 0 14:59 06.02.2022
5534 Drizzle 7 1008 80 10000 4.47 0 13:59 06.02.2022
5535 Clouds 7 1009 80 10000 7.6 0 13:20 06.02.2022
5536 Clouds 7 1010 81 10000 5.36 0 12:19 06.02.2022
5537 Rain 6 1011 88 10000 6.71 0 10:33 06.02.2022
5538 Rain 6 1011 84 10000 5.36 0 09:43 06.02.2022
5539 Rain 6 1011 88 10000 5.81 0 08:41 06.02.2022
5540 Rain 5 1012 85 10000 5.36 0 06:34 06.02.2022
5541 Rain 5 1013 83 10000 4.47 0 05:28 06.02.2022
5542 Rain 5 1015 81 10000 6.71 234 02:25 06.02.2022
5543 Clouds 5 1015 65 10000 5.81 0 00:33 06.02.2022
5544 Clouds 6 1016 64 10000 5.36 0 23:39 05.02.2022
5545 Clouds 6 1017 68 10000 6.26 0 21:47 05.02.2022
5546 Clouds 6 1017 62 10000 4.47 0 20:47 05.02.2022
5547 Clouds 6 1017 62 10000 4.47 0 20:22 05.02.2022
5548 Clouds 5 1018 61 10000 5.36 0 19:42 05.02.2022
5549 Clouds 5 1018 68 10000 4.47 0 18:37 05.02.2022
5550 Clouds 5 1018 64 10000 3.13 0 17:35 05.02.2022
5551 Clouds 6 1018 67 10000 4.02 0 16:20 05.02.2022
5552 Clouds 6 1018 61 10000 4.92 0 15:31 05.02.2022
5553 Clouds 6 1018 60 10000 5.81 0 13:55 05.02.2022
5554 Clouds 6 1018 68 10000 5.36 0 12:46 05.02.2022
5555 Clouds 6 1018 64 10000 5.81 0 11:47 05.02.2022
5556 Clouds 4 1018 65 10000 4.47 274 10:44 05.02.2022
5557 Clouds 4 1018 64 10000 4.47 0 09:51 05.02.2022
5558 Clouds 4 1018 78 10000 5.36 0 08:51 05.02.2022
5559 Clouds 4 1017 77 10000 4.02 0 07:27 05.02.2022
5560 Clouds 4 1017 77 10000 5.36 0 06:55 05.02.2022
5561 Clouds 4 1016 67 10000 5.81 0 02:43 05.02.2022
5562 Clouds 4 1015 81 10000 4.92 0 01:18 05.02.2022
5563 Clouds 4 1015 81 10000 4.92 292 00:36 05.02.2022
5564 Clouds 3 1014 90 10000 4.47 297 23:33 04.02.2022
5565 Clouds 3 1014 86 10000 6.26 289 22:55 04.02.2022
5566 Rain 3 1013 85 10000 4.92 301 21:36 04.02.2022
5567 Rain 3 1013 84 10000 6.26 278 21:18 04.02.2022
5568 Clouds 5 1011 81 10000 9.39 0 20:40 04.02.2022
5569 Rain 7 1011 67 10000 6.71 0 19:29 04.02.2022
5570 Clouds 8 1012 64 10000 4.02 0 16:56 04.02.2022
5571 Clouds 8 1012 65 10000 4.02 0 15:34 04.02.2022
5572 Clouds 8 1013 65 10000 2.24 0 14:51 04.02.2022
5573 Clouds 8 1014 70 10000 4.02 0 12:43 04.02.2022
5574 Clouds 8 1014 66 10000 4.47 0 11:46 04.02.2022
5575 Clouds 7 1014 72 10000 4.02 0 11:18 04.02.2022
5576 Clouds 7 1015 68 10000 3.13 0 10:30 04.02.2022
5577 Clouds 6 1015 81 10000 2.68 0 08:33 04.02.2022
5578 Clouds 6 1015 83 10000 3.13 0 04:53 04.02.2022
5579 Clouds 6 1015 83 10000 2.24 0 02:39 04.02.2022
5580 Clouds 6 1016 83 10000 1.34 0 00:26 04.02.2022
5581 Clouds 6 1016 83 10000 2.24 0 22:55 03.02.2022
5582 Clouds 6 1016 83 10000 2.24 0 22:22 03.02.2022
5583 Clouds 6 1016 84 10000 2.24 0 21:41 03.02.2022
5584 Rain 6 1016 89 10000 1.34 0 20:26 03.02.2022
5585 Clouds 6 1016 90 10000 0.45 0 19:57 03.02.2022
5586 Clouds 7 1016 89 10000 2.24 0 19:26 03.02.2022
5587 Clouds 7 1016 88 8000 1.79 0 18:26 03.02.2022
5588 Clouds 7 1016 88 10000 2.24 0 17:27 03.02.2022
5589 Clouds 8 1017 88 10000 0.45 0 15:44 03.02.2022
5590 Clouds 8 1017 87 10000 1.79 0 14:26 03.02.2022
5591 Rain 7 1018 90 10000 1.34 0 12:37 03.02.2022
5592 Rain 6 1018 88 10000 0.89 0 09:29 03.02.2022
5593 Rain 5 1018 88 10000 0.89 0 08:19 03.02.2022
5594 Clouds 3 1020 80 10000 0.45 0 03:28 03.02.2022
5595 Clouds 2 1020 89 10000 0.89 208 00:30 03.02.2022
5596 Clouds 2 1020 81 10000 0.45 226 22:47 02.02.2022
5597 Clouds 2 1020 87 10000 1.54 270 21:53 02.02.2022
5598 Clouds 2 1020 79 10000 0.45 0 21:29 02.02.2022
5599 Clouds 3 1020 79 10000 0.89 359 20:33 02.02.2022
5600 Clear 3 1020 64 10000 2.24 280 19:51 02.02.2022
5601 Clouds 3 1020 60 10000 2.24 293 19:20 02.02.2022
5602 Clouds 4 1019 82 10000 1.34 327 18:27 02.02.2022
5603 Clear 5 1019 61 10000 3.13 295 17:38 02.02.2022
5604 Clear 5 1019 60 10000 2.68 305 17:19 02.02.2022
5605 Clouds 5 1018 62 10000 4.92 0 16:30 02.02.2022
5606 Clouds 6 1017 64 10000 5.81 0 12:54 02.02.2022
5607 Clouds 6 1016 56 10000 5.36 0 12:18 02.02.2022
5608 Clouds 6 1016 59 10000 3.58 0 11:31 02.02.2022
5609 Clouds 5 1015 83 10000 6.26 0 09:46 02.02.2022
5610 Clouds 5 1014 67 10000 6.26 0 07:32 02.02.2022
5611 Rain 6 1012 80 10000 4.47 0 22:46 01.02.2022
5612 Clouds 6 1011 87 10000 6.26 0 21:36 01.02.2022
5613 Rain 6 1011 84 10000 5.36 0 19:58 01.02.2022
5614 Drizzle 6 1011 90 10000 6.26 0 17:41 01.02.2022
5615 Drizzle 5 1011 89 6000 6.26 0 16:36 01.02.2022
5616 Mist 4 1013 86 3400 4.92 0 13:32 01.02.2022
5617 Mist 4 1014 83 4200 5.36 0 12:42 01.02.2022
5618 Clear 4 1016 66 10000 4.47 0 11:20 01.02.2022
5619 Clouds 2 1017 86 10000 0.89 255 02:34 01.02.2022
5620 Clouds 2 1017 91 10000 1.34 313 23:41 31.01.2022
5621 Clouds 2 1017 91 10000 1.34 308 22:57 31.01.2022
5622 Clouds 2 1016 95 10000 1.34 329 21:39 31.01.2022
5623 Clouds 2 1016 90 10000 1.79 329 21:19 31.01.2022
5624 Rain 2 1015 95 10000 1.34 325 20:29 31.01.2022
5625 Clouds 2 1014 88 10000 2.24 320 19:29 31.01.2022
5626 Clouds 2 1014 88 10000 0.89 351 18:26 31.01.2022
5627 Clouds 2 1013 88 10000 1.54 320 17:33 31.01.2022
5628 Mist 2 1012 88 5000 1.54 330 16:29 31.01.2022
5629 Mist 3 1012 87 2500 0.45 25 14:54 31.01.2022
5630 Mist 3 1011 87 5000 0.89 17 14:22 31.01.2022
5631 Mist 3 1011 87 5000 0 0 12:39 31.01.2022
5632 Clouds 3 1020 85 10000 4.47 266 11:55 31.01.2022
5633 Snow 2 1011 92 5000 1.03 0 10:50 31.01.2022
5634 Mist 2 1011 92 5000 1.03 0 10:50 31.01.2022
5635 Snow 2 1011 87 2000 1.54 160 10:25 31.01.2022
5636 Snow 1 1011 86 2600 0.45 174 09:26 31.01.2022
5637 Snow 1 1011 86 5000 1.34 169 08:50 31.01.2022
5638 Rain 1 1012 83 10000 1.34 179 08:20 31.01.2022
5639 Rain 3 1013 64 10000 0.89 0 06:18 31.01.2022
5640 Clouds 3 1019 63 10000 1.79 261 00:55 31.01.2022
5641 Clouds 4 1020 70 10000 2.68 251 23:18 30.01.2022
5642 Clouds 4 1020 62 10000 2.68 0 22:29 30.01.2022
5643 Clouds 4 1020 69 10000 3.58 0 21:42 30.01.2022
5644 Clouds 4 1020 68 10000 2.68 0 21:19 30.01.2022
5645 Clouds 5 1020 67 10000 3.13 0 20:47 30.01.2022
5646 Clouds 5 1020 61 10000 4.47 0 20:28 30.01.2022
5647 Clouds 5 1020 60 10000 3.13 0 19:52 30.01.2022
5648 Clouds 5 1020 60 10000 4.02 0 18:44 30.01.2022
5649 Clouds 5 1021 61 10000 4.02 0 18:20 30.01.2022
5650 Clouds 5 1020 58 10000 5.81 0 17:27 30.01.2022
5651 Clouds 6 1020 58 10000 5.36 0 16:40 30.01.2022
5652 Clouds 6 1020 58 10000 5.36 0 16:40 30.01.2022
5653 Clouds 6 1020 57 10000 4.92 0 16:22 30.01.2022
5654 Clouds 6 1020 56 10000 7.15 0 15:51 30.01.2022
5655 Clouds 6 1020 56 10000 5.36 358 15:32 30.01.2022
5656 Clouds 6 1020 63 10000 7.6 0 14:46 30.01.2022
5657 Clouds 6 1020 63 10000 5.36 0 12:54 30.01.2022
5658 Clouds 6 1020 64 10000 7.6 0 12:33 30.01.2022
5659 Clouds 6 1020 59 10000 6.26 0 10:36 30.01.2022
5660 Clouds 5 1019 62 10000 4.92 0 09:56 30.01.2022
5661 Clouds 5 1019 71 10000 7.6 0 08:58 30.01.2022
5662 Clouds 4 1019 73 10000 8.05 0 07:56 30.01.2022
5663 Clouds 6 1018 67 10000 8.94 0 02:42 30.01.2022
5664 Clouds 6 1018 74 10000 8.05 0 01:39 30.01.2022
5665 Clouds 7 1017 65 10000 7.15 0 23:30 29.01.2022
5666 Clouds 7 1017 64 10000 7.15 0 22:34 29.01.2022
5667 Rain 7 1017 72 10000 7.15 0 21:27 29.01.2022
5668 Clouds 8 1017 79 10000 8.94 0 20:38 29.01.2022
5669 Clouds 9 1016 70 10000 5.81 0 19:47 29.01.2022
5670 Clouds 9 1016 80 10000 5.81 0 19:25 29.01.2022
5671 Clouds 10 1016 80 10000 8.05 0 18:32 29.01.2022
5672 Clouds 9 1016 84 10000 6.26 0 17:41 29.01.2022
5673 Mist 9 1016 84 5000 5.81 0 16:42 29.01.2022
5674 Clouds 9 1017 80 10000 8.05 0 14:52 29.01.2022
5675 Clouds 9 1017 79 10000 5.81 0 13:46 29.01.2022
5676 Clouds 9 1018 81 10000 6.26 0 13:26 29.01.2022
5677 Clouds 8 1018 87 10000 6.26 0 12:40 29.01.2022
5678 Clouds 8 1019 82 10000 6.26 0 11:38 29.01.2022
5679 Clouds 7 1019 82 10000 4.92 0 10:25 29.01.2022
5680 Clouds 6 1020 85 10000 4.47 0 07:24 29.01.2022
5681 Clouds 4 1023 68 10000 3.58 0 01:35 29.01.2022
5682 Clouds 4 1024 67 10000 4.02 0 00:31 29.01.2022
5683 Clouds 4 1024 67 10000 2.68 0 23:22 28.01.2022
5684 Clouds 4 1024 66 10000 0.89 0 22:42 28.01.2022
5685 Clouds 3 1024 67 10000 0.89 0 22:18 28.01.2022
5686 Clouds 4 1025 66 10000 2.24 0 20:40 28.01.2022
5687 Clouds 4 1025 73 10000 2.24 0 19:53 28.01.2022
5688 Clouds 4 1025 74 10000 2.24 0 18:51 28.01.2022
5689 Clouds 4 1025 65 10000 0.89 0 17:52 28.01.2022
5690 Clouds 6 1024 61 10000 4.47 0 15:46 28.01.2022
5691 Clouds 6 1024 60 10000 4.47 0 14:20 28.01.2022
5692 Clouds 6 1024 68 10000 4.02 0 12:40 28.01.2022
5693 Clouds 5 1024 64 10000 5.36 0 11:38 28.01.2022
5694 Clouds 5 1024 64 10000 5.36 0 11:38 28.01.2022
5695 Clouds 4 1023 67 10000 4.02 0 10:26 28.01.2022
5696 Clouds 4 1023 65 10000 4.47 358 09:45 28.01.2022
5697 Clouds 3 1022 83 10000 5.36 327 07:40 28.01.2022
5698 Clouds 4 1021 86 6000 4.02 0 05:30 28.01.2022
5699 Clouds 4 1020 66 10000 5.36 0 03:48 28.01.2022
5700 Clouds 4 1020 64 10000 6.26 0 02:24 28.01.2022
5701 Clouds 4 1020 89 10000 5.36 0 01:35 28.01.2022
5702 Clouds 4 1020 70 10000 3.58 0 00:33 28.01.2022
5703 Clouds 5 1019 83 10000 5.81 0 21:58 27.01.2022
5704 Clouds 5 1019 83 10000 5.36 0 21:34 27.01.2022
5705 Clouds 5 1019 83 10000 5.36 0 21:34 27.01.2022
5706 Rain 5 1018 88 10000 3.58 0 20:58 27.01.2022
5707 Clouds 6 1018 82 10000 5.36 0 19:36 27.01.2022
5708 Clouds 6 1018 84 10000 5.36 0 17:58 27.01.2022
5709 Clouds 6 1018 86 10000 4.02 0 16:45 27.01.2022
5710 Clouds 5 1018 89 10000 6.26 0 13:48 27.01.2022
5711 Clouds 5 1018 90 6000 5.36 0 12:48 27.01.2022
5712 Mist 4 1019 86 2800 5.81 0 11:24 27.01.2022
5713 Clouds 3 1019 81 6000 7.6 249 09:47 27.01.2022
5714 Clouds 3 1020 89 10000 7.15 248 08:39 27.01.2022
5715 Clouds 3 1020 67 10000 5.36 246 07:23 27.01.2022
5716 Clouds 3 1021 85 10000 4.92 293 02:59 27.01.2022
5717 Clouds 3 1022 91 5000 4.02 259 00:23 27.01.2022
5718 Clouds 3 1023 86 10000 2.68 285 22:27 26.01.2022
5719 Clouds 3 1023 87 6000 3.13 246 21:42 26.01.2022
5720 Clouds 2 1023 89 4200 4.02 246 20:43 26.01.2022
5721 Clouds 2 1023 89 4900 4.02 254 20:24 26.01.2022
5722 Clouds 2 1023 93 4100 4.47 282 19:30 26.01.2022
5723 Clouds 2 1023 93 4700 3.13 339 18:46 26.01.2022
5724 Mist 2 1023 93 4400 4.92 258 17:53 26.01.2022
5725 Drizzle 2 1023 93 4400 3.13 256 17:32 26.01.2022
5726 Drizzle 2 1023 86 3000 4.47 267 16:46 26.01.2022
5727 Mist 2 1024 83 3600 4.02 354 15:56 26.01.2022
5728 Mist 2 1024 90 4700 4.02 251 14:30 26.01.2022
5729 Drizzle 2 1025 90 4500 2.24 290 12:18 26.01.2022
5730 Drizzle 2 1024 85 6000 3.13 269 10:50 26.01.2022
5731 Clouds 2 1024 85 7000 4.47 295 09:52 26.01.2022
5732 Clouds 2 1024 87 10000 2.24 308 08:46 26.01.2022
5733 Clouds 2 1025 87 8000 2.68 324 06:28 26.01.2022
5734 Clouds 2 1025 87 8000 2.68 324 06:28 26.01.2022
5735 Clouds 2 1025 87 8000 2.68 324 06:28 26.01.2022
5736 Clouds 2 1025 87 8000 2.68 324 06:28 26.01.2022
5737 Clouds 3 1025 85 7000 0.45 256 00:21 26.01.2022
5738 Clouds 3 1025 87 6000 1.34 248 23:37 25.01.2022
5739 Clouds 3 1025 87 5000 3.09 250 22:48 25.01.2022
5740 Clouds 3 1025 87 5000 2.57 260 22:18 25.01.2022
5741 Clouds 3 1025 93 6000 0.45 243 21:27 25.01.2022
5742 Clouds 3 1025 86 6000 0.89 261 20:45 25.01.2022
5743 Drizzle 3 1026 86 6000 1.34 293 19:54 25.01.2022
5744 Drizzle 3 1026 86 6000 0.45 257 19:23 25.01.2022
5745 Drizzle 4 1026 84 5000 1.34 340 17:56 25.01.2022
5746 Clouds 4 1026 83 7000 1.34 261 17:20 25.01.2022
5747 Clouds 4 1026 89 9000 2.24 0 16:34 25.01.2022
5748 Clouds 4 1025 71 10000 2.24 0 15:39 25.01.2022
5749 Clouds 4 1026 71 10000 2.24 0 15:19 25.01.2022
5750 Clouds 5 1026 67 10000 2.68 0 14:51 25.01.2022
5751 Clouds 4 1026 84 7000 0.89 267 12:20 25.01.2022
5752 Clouds 3 1026 69 10000 2.24 0 09:25 25.01.2022
5753 Clouds 3 1026 86 7000 0.89 0 07:52 25.01.2022
5754 Clouds 3 1026 87 7000 0.45 0 07:20 25.01.2022
5755 Clouds 4 1026 92 10000 1.34 0 05:23 25.01.2022
5756 Clouds 4 1027 87 10000 0.89 0 00:35 25.01.2022
5757 Clouds 4 1027 91 10000 1.79 0 23:36 24.01.2022
5758 Clouds 4 1027 91 10000 0.89 0 23:18 24.01.2022
5759 Clouds 4 1027 88 10000 0.89 0 22:42 24.01.2022
5760 Clouds 4 1026 90 10000 1.34 0 22:23 24.01.2022
5761 Clouds 5 1026 90 10000 0.45 0 21:42 24.01.2022
5762 Clouds 5 1026 89 10000 0.89 0 21:24 24.01.2022
5763 Clouds 5 1027 87 10000 1.34 0 20:27 24.01.2022
5764 Clouds 5 1027 89 10000 0.89 0 19:38 24.01.2022
5765 Clouds 5 1026 88 10000 0.89 0 18:50 24.01.2022
5766 Clouds 5 1026 92 10000 3.6 270 17:39 24.01.2022
5767 Clouds 5 1026 92 10000 1.34 0 17:21 24.01.2022
5768 Clouds 6 1026 89 10000 0.89 0 16:31 24.01.2022
5769 Clouds 6 1026 90 10000 2.57 250 15:25 24.01.2022
5770 Mist 6 1027 92 4500 0.45 0 13:59 24.01.2022
5771 Mist 6 1027 94 3500 0 0 12:34 24.01.2022
5772 Mist 6 1027 92 4100 1.54 130 11:41 24.01.2022
5773 Mist 6 1027 92 3100 0 0 10:19 24.01.2022
5774 Mist 5 1027 92 2300 0.51 0 09:45 24.01.2022
5775 Mist 5 1027 94 4800 0 0 08:18 24.01.2022
5776 Clouds 6 1020 94 10000 1.07 288 02:26 24.01.2022
5777 Clouds 6 1020 94 10000 1.27 274 01:26 24.01.2022
5778 Clouds 6 1020 93 10000 1.41 268 00:31 24.01.2022
5779 Clouds 6 1020 93 10000 0.45 0 23:40 23.01.2022
5780 Clouds 6 1020 96 10000 0.45 0 22:20 23.01.2022
5781 Clouds 6 1020 94 10000 0.45 0 21:40 23.01.2022
5782 Clouds 6 1020 94 10000 1.79 0 21:20 23.01.2022
5783 Clouds 6 1020 94 10000 0.45 0 20:22 23.01.2022
5784 Mist 6 1027 95 2800 0.45 0 18:56 23.01.2022
5785 Mist 6 1027 97 3900 0.45 0 18:24 23.01.2022
5786 Clouds 6 1027 94 5000 0.89 0 17:19 23.01.2022
5787 Clouds 6 1027 97 3600 1.79 0 15:59 23.01.2022
5788 Clouds 7 1027 95 7000 1.34 0 14:52 23.01.2022
5789 Mist 7 1027 91 3200 1.79 0 14:18 23.01.2022
5790 Mist 6 1027 94 3100 1.79 0 12:46 23.01.2022
5791 Mist 6 1027 94 4800 1.34 0 12:20 23.01.2022
5792 Drizzle 6 1027 95 4000 2.24 0 11:26 23.01.2022
5793 Drizzle 5 1027 96 2300 2.24 0 10:58 23.01.2022
5794 Drizzle 5 1027 94 3400 2.24 0 10:25 23.01.2022
5795 Drizzle 5 1026 93 4000 2.24 0 09:32 23.01.2022
5796 Clouds 5 1020 93 10000 0.89 0 08:50 23.01.2022
5797 Clouds 5 1020 90 10000 2.24 0 03:59 23.01.2022
5798 Clouds 5 1020 91 10000 1.34 0 01:40 23.01.2022
5799 Clouds 5 1020 93 10000 0.89 0 00:47 23.01.2022
5800 Clouds 5 1020 96 10000 1.34 0 00:22 23.01.2022
5801 Clouds 5 1020 90 10000 1.79 0 23:18 22.01.2022
5802 Clouds 5 1020 90 10000 0.89 0 22:33 22.01.2022
5803 Clouds 5 1020 93 10000 2.24 0 21:18 22.01.2022
5804 Clouds 5 1020 93 10000 0.89 0 19:46 22.01.2022
5805 Clouds 6 1020 96 10000 2.68 0 18:43 22.01.2022
5806 Clouds 6 1025 94 10000 2.24 0 17:56 22.01.2022
5807 Clouds 6 1025 94 10000 1.79 0 17:35 22.01.2022
5808 Clouds 6 1024 96 10000 2.68 0 16:55 22.01.2022
5809 Clouds 6 1024 94 5000 2.24 0 15:49 22.01.2022
5810 Clouds 7 1024 91 10000 2.68 0 14:57 22.01.2022
5811 Clouds 6 1020 94 7689 0.89 0 13:36 22.01.2022
5812 Clouds 6 1024 91 10000 2.68 0 12:48 22.01.2022
5813 Clouds 6 1024 91 10000 2.68 0 12:28 22.01.2022
5814 Drizzle 6 1024 94 2200 0.89 0 10:56 22.01.2022
5815 Clouds 6 1024 94 8000 2.24 0 10:28 22.01.2022
5816 Drizzle 6 1024 92 2200 1.34 0 09:57 22.01.2022
5817 Clouds 6 1020 92 10000 1.34 0 08:51 22.01.2022
5818 Clouds 6 1020 91 10000 0.89 0 07:34 22.01.2022
5819 Clouds 6 1020 94 10000 2.68 0 04:52 22.01.2022
5820 Clouds 6 1020 94 10000 2.68 0 04:52 22.01.2022
5821 Clouds 5 1020 94 5057 4.02 0 01:34 22.01.2022
5822 Clouds 5 1020 90 6674 4.02 0 23:35 21.01.2022
5823 Clouds 5 1020 91 10000 5.36 0 22:27 21.01.2022
5824 Mist 4 1023 87 4300 3.13 336 20:22 21.01.2022
5825 Clouds 3 1023 89 10000 2.68 355 18:39 21.01.2022
5826 Clouds 3 1023 83 10000 2.24 324 17:28 21.01.2022
5827 Clouds 3 1023 68 10000 3.58 0 15:30 21.01.2022
5828 Clouds 3 1024 68 10000 4.02 0 13:37 21.01.2022
5829 Clouds 3 1024 82 10000 4.47 0 12:38 21.01.2022
5830 Clouds 2 1020 70 10000 4.02 0 11:28 21.01.2022
5831 Clouds 1 1023 88 10000 2.68 0 10:19 21.01.2022
5832 Clouds 0 1020 84 10000 3.58 276 08:24 21.01.2022
5833 Clouds 0 1020 83 10000 2.68 268 06:57 21.01.2022
5834 Clear -1 1020 72 10000 2.24 299 23:36 20.01.2022
5835 Clear -1 1020 78 10000 1.34 307 22:41 20.01.2022
5836 Clear -1 1020 77 10000 2.24 302 21:43 20.01.2022
5837 Clear 0 1020 72 10000 3.13 299 20:53 20.01.2022
5838 Clouds 0 1020 73 10000 4.02 294 19:20 20.01.2022
5839 Clouds 0 1020 84 6000 3.58 305 18:50 20.01.2022
5840 Clouds 0 1020 70 8537 4.02 292 17:29 20.01.2022
5841 Clouds 1 1020 78 5000 4.02 293 15:44 20.01.2022
5842 Snow 1 1020 81 4200 4.02 317 15:22 20.01.2022
5843 Clouds 2 1020 68 10000 5.36 286 13:42 20.01.2022
5844 Clouds 2 1020 72 10000 3.58 349 12:35 20.01.2022
5845 Clouds 2 1020 66 10000 4.47 284 11:57 20.01.2022
5846 Clouds 2 1023 64 10000 4.92 0 10:40 20.01.2022
5847 Clouds 1 1023 66 10000 4.02 332 09:40 20.01.2022
5848 Clouds 1 1023 73 10000 4.02 325 08:34 20.01.2022
5849 Clouds 3 1021 83 10000 7.15 345 05:34 20.01.2022
5850 Clouds 4 1021 86 10000 5.36 0 23:35 19.01.2022
5851 Clouds 4 1021 85 9000 6.26 0 22:37 19.01.2022
5852 Clouds 4 1021 84 10000 5.36 0 21:24 19.01.2022
5853 Clouds 4 1021 86 10000 5.36 0 20:51 19.01.2022
5854 Clouds 3 1021 86 7000 4.92 0 19:58 19.01.2022
5855 Clouds 4 1022 73 10000 4.02 0 18:43 19.01.2022
5856 Clouds 4 1022 67 10000 4.47 0 17:49 19.01.2022
5857 Clouds 4 1023 67 10000 4.47 0 16:59 19.01.2022
5858 Clouds 4 1024 72 10000 4.47 0 14:42 19.01.2022
5859 Clouds 4 1025 68 10000 4.02 0 12:53 19.01.2022
5860 Clouds 4 1025 81 10000 4.92 0 11:42 19.01.2022
5861 Clouds 3 1026 91 10000 3.13 0 10:38 19.01.2022
5862 Clear 2 1026 84 10000 0.89 0 09:34 19.01.2022
5863 Mist 0 1027 86 4500 0.45 172 07:18 19.01.2022
5864 Clouds 1 1028 85 10000 1.03 0 05:19 19.01.2022
5865 Clouds 4 1030 81 10000 0.89 0 23:41 18.01.2022
5866 Clouds 5 1030 67 10000 1.79 0 23:18 18.01.2022
5867 Clouds 6 1031 67 10000 0.89 293 21:43 18.01.2022
5868 Clouds 6 1031 67 10000 1.79 272 19:57 18.01.2022
5869 Clouds 6 1031 66 10000 1.34 304 19:38 18.01.2022
5870 Clouds 6 1031 67 10000 0.45 342 19:18 18.01.2022
5871 Clouds 6 1031 70 10000 0.89 346 17:59 18.01.2022
5872 Clouds 7 1031 70 10000 0.89 0 17:29 18.01.2022
5873 Clouds 7 1031 71 10000 0.89 0 15:56 18.01.2022
5874 Clouds 7 1031 70 10000 0.89 0 15:24 18.01.2022
5875 Clouds 7 1031 70 10000 0.89 0 13:32 18.01.2022
5876 Clouds 6 1031 88 8000 0.89 0 11:20 18.01.2022
5877 Clouds 5 1031 91 10000 0.89 0 09:58 18.01.2022
5878 Clouds 5 1031 86 10000 0.89 0 08:19 18.01.2022
5879 Clouds 5 1031 86 10000 0.89 0 07:31 18.01.2022
5880 Clouds 3 1030 75 10000 1.34 266 00:22 18.01.2022
5881 Clouds 2 1030 66 10000 1.34 271 22:39 17.01.2022
5882 Clouds 3 1029 65 10000 2.24 284 21:41 17.01.2022
5883 Clouds 3 1029 70 10000 1.34 0 20:39 17.01.2022
5884 Clouds 5 1028 65 10000 3.58 0 18:46 17.01.2022
5885 Clouds 5 1028 68 10000 1.34 0 18:23 17.01.2022
5886 Clouds 5 1027 70 10000 2.24 0 17:19 17.01.2022
5887 Clouds 6 1027 71 10000 5.36 0 15:47 17.01.2022
5888 Clouds 7 1026 73 10000 3.58 0 14:58 17.01.2022
5889 Clouds 7 1026 87 6000 4.47 0 14:22 17.01.2022
5890 Rain 7 1025 84 10000 3.58 0 13:18 17.01.2022
5891 Drizzle 6 1025 84 9000 7.15 0 11:51 17.01.2022
5892 Drizzle 6 1025 86 8000 6.26 0 10:52 17.01.2022
5893 Drizzle 5 1025 68 10000 7.15 0 09:35 17.01.2022
5894 Clouds 5 1025 72 10000 7.15 0 08:43 17.01.2022
5895 Clouds 6 1025 67 10000 5.81 0 07:20 17.01.2022
5896 Clouds 6 1025 86 10000 4.92 0 00:59 17.01.2022
5897 Clouds 5 1025 86 8000 6.71 0 23:27 16.01.2022
5898 Clouds 5 1025 82 10000 4.92 0 20:50 16.01.2022
5899 Clouds 5 1024 67 10000 4.02 0 19:56 16.01.2022
5900 Clouds 5 1024 87 10000 4.02 0 18:45 16.01.2022
5901 Clouds 5 1024 88 9000 3.13 0 17:47 16.01.2022
5902 Clouds 5 1024 83 7000 3.13 0 16:53 16.01.2022
5903 Clouds 4 1024 84 6000 3.13 0 15:40 16.01.2022
5904 Clouds 4 1024 86 6000 3.58 0 14:29 16.01.2022
5905 Drizzle 3 1024 86 5000 2.24 0 13:21 16.01.2022
5906 Clouds 3 1024 84 9000 3.58 0 11:58 16.01.2022
5907 Clouds 3 1024 86 9000 5.81 0 11:27 16.01.2022
5908 Clouds 2 1024 89 10000 4.47 269 10:27 16.01.2022
5909 Clouds 2 1024 88 10000 2.68 279 09:57 16.01.2022
5910 Clouds 2 1024 91 10000 2.68 291 09:23 16.01.2022
5911 Clouds 2 1024 90 10000 3.13 259 08:53 16.01.2022
5912 Clouds 1 1020 86 7000 1.03 250 05:52 16.01.2022
5913 Clouds 2 1027 77 10000 0.89 137 00:19 16.01.2022
5914 Clouds 1 1026 96 8000 1.03 100 22:49 15.01.2022
5915 Clouds 1 1026 84 10000 0 0 21:21 15.01.2022
5916 Clouds 2 1027 82 10000 0 0 20:44 15.01.2022
5917 Clouds 2 1026 83 10000 0 0 20:18 15.01.2022
5918 Clouds 3 1027 71 10000 0 0 19:25 15.01.2022
5919 Clouds 4 1027 70 10000 0.45 354 17:58 15.01.2022
5920 Clouds 5 1027 71 10000 0.89 0 16:43 15.01.2022
5921 Clouds 5 1027 89 10000 0.45 0 14:32 15.01.2022
5922 Clouds 5 1028 91 7000 0.45 0 12:38 15.01.2022
5923 Mist 5 1028 91 4500 1.03 0 11:20 15.01.2022
5924 Fog 4 1028 93 300 0 0 09:45 15.01.2022
5925 Clouds 4 1029 90 350 1.54 300 01:27 15.01.2022
5926 Clouds 5 1029 93 4700 0.89 0 22:40 14.01.2022
5927 Clouds 6 1029 90 3100 1.34 0 20:57 14.01.2022
5928 Mist 6 1029 90 3900 1.79 0 20:24 14.01.2022
5929 Mist 5 1029 93 4200 2.24 0 19:49 14.01.2022
5930 Clouds 5 1029 88 4600 3.13 0 18:38 14.01.2022
5931 Drizzle 5 1029 89 5000 2.24 0 17:21 14.01.2022
5932 Drizzle 5 1029 87 6000 2.68 0 16:40 14.01.2022
5933 Clouds 6 1029 83 9000 4.02 0 14:50 14.01.2022
5934 Clouds 5 1029 83 9000 4.02 0 14:25 14.01.2022
5935 Clouds 5 1029 69 9000 2.68 0 12:47 14.01.2022
5936 Clouds 5 1029 90 9000 3.13 0 11:51 14.01.2022
5937 Clouds 4 1029 85 10000 4.47 0 10:30 14.01.2022
5938 Clouds 4 1029 86 8000 4.02 0 08:52 14.01.2022
5939 Clouds 4 1029 90 7000 3.13 257 07:30 14.01.2022
5940 Clouds 3 1030 85 7000 3.58 264 02:20 14.01.2022
5941 Clouds 3 1030 84 6000 4.47 256 00:21 14.01.2022
5942 Clouds 3 1031 84 6000 5.36 272 21:47 13.01.2022
5943 Clouds 3 1031 90 7000 4.02 260 21:29 13.01.2022
5944 Clouds 3 1031 86 6000 2.68 293 19:45 13.01.2022
5945 Clouds 3 1031 72 6000 2.68 0 19:23 13.01.2022
5946 Clouds 4 1031 70 6000 2.68 0 18:37 13.01.2022
5947 Clouds 4 1031 70 10000 3.13 0 16:52 13.01.2022
5948 Clouds 5 1031 74 10000 2.68 0 15:39 13.01.2022
5949 Clouds 5 1031 70 10000 4.02 0 15:20 13.01.2022
5950 Clouds 5 1031 72 10000 2.68 0 13:28 13.01.2022
5951 Mist 4 1032 87 5000 5.36 0 10:49 13.01.2022
5952 Mist 3 1032 89 4900 3.13 0 09:23 13.01.2022
5953 Mist 3 1031 86 5000 2.68 0 08:29 13.01.2022
5954 Mist 3 1032 90 5000 3.58 349 07:58 13.01.2022
5955 Mist 3 1032 93 5000 4.02 339 07:19 13.01.2022
5956 Clouds 2 1027 85 10000 3.13 289 05:21 13.01.2022
5957 Clouds 3 1032 72 10000 2.68 358 03:48 13.01.2022
5958 Clouds 3 1032 73 10000 3.58 258 01:39 13.01.2022
5959 Clouds 2 1032 87 9000 2.68 314 23:54 12.01.2022
5960 Clouds 3 1032 88 9000 2.24 252 23:34 12.01.2022
5961 Clouds 3 1032 86 9000 2.24 265 22:32 12.01.2022
5962 Clouds 3 1032 87 10000 1.34 265 21:43 12.01.2022
5963 Clouds 4 1032 86 10000 3.13 269 21:19 12.01.2022
5964 Clouds 4 1032 86 10000 2.24 269 20:47 12.01.2022
5965 Clouds 4 1032 92 10000 1.34 283 18:52 12.01.2022
5966 Clouds 4 1032 89 10000 2.24 333 18:25 12.01.2022
5967 Clouds 4 1032 85 10000 0.89 346 16:57 12.01.2022
5968 Clouds 4 1032 89 10000 3.13 272 15:38 12.01.2022
5969 Clouds 4 1032 87 7000 1.34 342 14:39 12.01.2022
5970 Drizzle 4 1032 86 4900 1.34 357 12:57 12.01.2022
5971 Clouds 3 1031 74 10000 2.68 358 09:57 12.01.2022
5972 Clouds 3 1031 77 10000 0.89 0 07:59 12.01.2022
5973 Clouds 3 1031 76 10000 1.34 351 07:33 12.01.2022
5974 Clouds 2 1031 88 10000 0.89 0 04:54 12.01.2022
5975 Clouds 1 1031 93 5000 0.89 182 23:27 11.01.2022
5976 Clouds 1 1031 93 4100 2.24 173 22:41 11.01.2022
5977 Clouds 1 1031 93 3900 1.79 172 22:20 11.01.2022
5978 Clouds 1 1031 92 2400 2.24 161 20:40 11.01.2022
5979 Fog 1 1030 93 650 1.34 173 19:41 11.01.2022
5980 Clear 1 1030 78 10000 1.34 157 18:22 11.01.2022
5981 Clear 2 1030 77 10000 0.89 164 17:18 11.01.2022
5982 Clouds 3 1030 77 10000 1.34 6 16:36 11.01.2022
5983 Clouds 4 1030 75 10000 0.45 0 14:59 11.01.2022
5984 Clouds 4 1030 75 10000 1.34 0 14:40 11.01.2022
5985 Clouds 4 1030 87 10000 0.45 0 13:54 11.01.2022
5986 Clouds 4 1030 88 10000 0.45 0 13:31 11.01.2022
5987 Clouds 4 1030 89 10000 2.06 140 12:37 11.01.2022
5988 Mist 3 1030 92 4500 1.34 0 10:59 11.01.2022
5989 Clouds 3 1030 91 6000 1.54 190 08:58 11.01.2022
5990 Clouds 3 1029 89 8000 0.89 0 06:28 11.01.2022
5991 Clouds 3 1028 91 4700 0.45 0 00:30 11.01.2022
5992 Clouds 3 1028 89 4100 2.06 100 23:41 10.01.2022
5993 Clouds 4 1028 87 1800 0.45 0 22:51 10.01.2022
5994 Clouds 4 1028 87 1000 1.54 60 22:19 10.01.2022
5995 Clouds 4 1028 89 1600 2.06 100 21:52 10.01.2022
5996 Clouds 4 1027 87 1100 0.89 0 21:19 10.01.2022
5997 Clouds 4 1027 87 2500 0.45 0 20:56 10.01.2022
5998 Mist 4 1027 90 3200 0 0 20:27 10.01.2022
5999 Mist 5 1027 86 3600 0 0 19:42 10.01.2022
6000 Mist 5 1027 86 4000 0 0 19:20 10.01.2022
6001 Mist 5 1027 86 4000 0.45 0 18:48 10.01.2022
6002 Clouds 5 1026 87 6000 0.89 0 17:41 10.01.2022
6003 Clouds 5 1026 85 10000 0.89 0 16:42 10.01.2022
6004 Clouds 5 1025 84 10000 0.45 0 15:45 10.01.2022
6005 Clouds 5 1025 84 10000 0.89 0 14:30 10.01.2022
6006 Clouds 5 1023 86 10000 1.34 0 11:58 10.01.2022
6007 Clouds 5 1023 87 10000 1.34 0 11:25 10.01.2022
6008 Clouds 4 1022 88 10000 2.68 0 09:52 10.01.2022
6009 Clouds 3 1021 89 10000 0.45 0 07:31 10.01.2022
6010 Clouds 3 1020 89 10000 0.89 0 05:49 10.01.2022
6011 Clouds 4 1018 85 10000 2.68 0 01:31 10.01.2022
6012 Clouds 4 1017 83 10000 2.68 0 00:25 10.01.2022
6013 Clouds 4 1017 83 10000 2.68 0 23:43 09.01.2022
6014 Clouds 4 1016 83 10000 2.68 0 22:40 09.01.2022
6015 Clouds 4 1016 83 10000 2.68 0 21:47 09.01.2022
6016 Clouds 4 1016 83 10000 3.13 0 21:24 09.01.2022
6017 Clouds 4 1016 83 10000 3.13 0 21:24 09.01.2022
6018 Clouds 4 1015 83 10000 3.13 0 20:54 09.01.2022
6019 Clouds 4 1015 83 10000 2.68 0 20:36 09.01.2022
6020 Clouds 4 1015 83 10000 2.68 0 20:18 09.01.2022
6021 Clouds 4 1015 84 10000 3.13 0 19:37 09.01.2022
6022 Clouds 4 1014 89 10000 2.68 0 19:18 09.01.2022
6023 Clouds 5 1014 89 10000 3.13 0 18:37 09.01.2022
6024 Clouds 5 1014 86 10000 3.13 0 17:48 09.01.2022
6025 Clouds 5 1013 89 10000 3.58 0 17:26 09.01.2022
6026 Rain 5 1013 90 10000 4.02 0 16:38 09.01.2022
6027 Rain 5 1013 87 10000 3.58 0 15:38 09.01.2022
6028 Rain 5 1012 91 10000 4.92 0 14:41 09.01.2022
6029 Rain 4 1027 88 934 4.92 0 14:23 09.01.2022
6030 Rain 4 1012 89 10000 3.13 331 13:48 09.01.2022
6031 Rain 3 1011 86 10000 2.24 242 11:56 09.01.2022
6032 Rain 3 1011 86 10000 2.24 287 11:25 09.01.2022
6033 Rain 2 1010 90 10000 3.58 234 09:55 09.01.2022
6034 Clouds 2 1010 72 10000 0.89 9 08:59 09.01.2022
6035 Rain 3 1009 71 10000 2.68 122 06:56 09.01.2022
6036 Clouds 3 1011 69 10000 2.68 0 01:29 09.01.2022
6037 Clouds 3 1011 68 10000 2.24 0 00:37 09.01.2022
6038 Clouds 2 1012 67 10000 1.34 0 23:34 08.01.2022
6039 Clouds 3 1012 66 10000 1.34 127 22:48 08.01.2022
6040 Clouds 2 1014 66 10000 2.24 0 21:28 08.01.2022
6041 Clouds 2 1014 69 10000 1.34 0 20:44 08.01.2022
6042 Clouds 2 1014 67 10000 2.24 0 20:22 08.01.2022
6043 Clouds 2 1015 67 10000 2.24 174 19:22 08.01.2022
6044 Clear 2 1016 73 10000 2.68 0 17:38 08.01.2022
6045 Clouds 3 1017 68 10000 1.34 0 16:45 08.01.2022
6046 Clouds 4 1017 74 10000 3.13 0 15:34 08.01.2022
6047 Clouds 4 1018 69 10000 3.58 0 14:25 08.01.2022
6048 Clouds 3 1018 70 10000 2.68 0 11:43 08.01.2022
6049 Clouds 2 1018 71 10000 2.24 0 10:43 08.01.2022
6050 Clouds 2 1018 71 10000 3.13 0 10:23 08.01.2022
6051 Clouds 2 1019 74 10000 1.79 0 09:34 08.01.2022
6052 Clouds 1 1018 89 10000 0.89 0 06:22 08.01.2022
6053 Clouds 1 1018 94 10000 2.24 0 01:49 08.01.2022
6054 Snow 2 1018 85 9000 2.24 0 00:22 08.01.2022
6055 Rain 2 1027 73 69 2.24 0 22:21 07.01.2022
6056 Clouds 3 1018 72 10000 3.58 0 20:35 07.01.2022
6057 Clouds 3 1018 72 10000 3.58 0 20:35 07.01.2022
6058 Clear 3 1018 71 10000 2.24 0 19:34 07.01.2022
6059 Clouds 3 1018 71 10000 1.34 0 18:50 07.01.2022
6060 Clouds 3 1019 76 10000 3.13 0 18:26 07.01.2022
6061 Clouds 3 1019 71 10000 2.24 0 17:24 07.01.2022
6062 Clouds 3 1019 76 10000 2.68 0 15:55 07.01.2022
6063 Clouds 3 1019 69 10000 3.58 0 13:52 07.01.2022
6064 Clouds 3 1019 69 10000 4.47 0 13:18 07.01.2022
6065 Clouds 3 1019 74 10000 3.13 0 12:25 07.01.2022
6066 Clouds 2 1020 73 10000 2.68 0 06:47 07.01.2022
6067 Clouds 0 1022 69 10000 1.34 0 02:54 07.01.2022
6068 Clouds 0 1022 70 10000 1.34 340 01:52 07.01.2022
6069 Clouds 0 1022 73 10000 3.6 200 01:27 07.01.2022
6070 Clouds 0 1022 74 10000 1.79 174 00:55 07.01.2022
6071 Clouds 0 1023 68 10000 2.24 353 22:46 06.01.2022
6072 Clear 0 1023 74 10000 0.89 209 21:23 06.01.2022
6073 Clear 0 1027 64 10000 0.89 220 20:20 06.01.2022
6074 Clouds 1 1023 68 10000 0.89 213 19:40 06.01.2022
6075 Clouds 2 1023 71 10000 0.45 229 17:53 06.01.2022
6076 Clouds 2 1023 71 10000 0.89 355 17:32 06.01.2022
6077 Clear 2 1023 70 10000 1.34 0 16:40 06.01.2022
6078 Clouds 3 1022 70 10000 3.13 0 15:45 06.01.2022
6079 Clouds 4 1022 68 10000 2.24 0 15:24 06.01.2022
6080 Clouds 4 1022 69 10000 3.13 0 14:21 06.01.2022
6081 Clouds 4 1022 70 10000 3.58 0 13:47 06.01.2022
6082 Clouds 3 1022 70 10000 2.68 0 12:43 06.01.2022
6083 Clear 3 1022 71 10000 2.24 0 11:42 06.01.2022
6084 Clear 3 1022 71 10000 2.24 0 11:42 06.01.2022
6085 Clear 2 1022 74 10000 2.24 0 11:22 06.01.2022
6086 Clear 0 1021 76 10000 0.89 0 08:51 06.01.2022
6087 Clouds 3 1017 71 10000 5.36 0 00:43 06.01.2022
6088 Clouds 3 1016 73 10000 4.92 0 23:37 05.01.2022
6089 Rain 4 1016 73 10000 1.79 0 22:56 05.01.2022
6090 Clouds 4 1016 73 10000 2.68 0 22:31 05.01.2022
6091 Rain 4 1015 72 10000 5.81 0 21:48 05.01.2022
6092 Rain 5 1015 70 10000 5.81 0 20:57 05.01.2022
6093 Clouds 5 1015 70 10000 5.81 0 20:18 05.01.2022
6094 Clouds 5 1014 72 10000 4.47 0 18:42 05.01.2022
6095 Clouds 4 1014 72 10000 4.92 0 17:26 05.01.2022
6096 Clouds 4 1013 72 10000 3.58 0 16:50 05.01.2022
6097 Clouds 4 1013 72 10000 5.81 0 15:26 05.01.2022
6098 Clouds 3 1013 73 5000 7.15 0 13:52 05.01.2022
6099 Rain 3 1013 72 10000 4.47 0 13:22 05.01.2022
6100 Clouds 3 1013 66 10000 4.92 0 10:34 05.01.2022
6101 Clouds 2 1012 70 10000 4.92 242 07:47 05.01.2022
6102 Clouds 3 1012 70 10000 4.92 256 06:25 05.01.2022
6103 Clouds 4 1012 69 10000 2.24 262 00:59 05.01.2022
6104 Clouds 4 1012 69 10000 1.34 279 23:28 04.01.2022
6105 Clouds 4 1012 69 10000 2.24 290 22:55 04.01.2022
6106 Clouds 4 1012 69 10000 1.34 265 21:31 04.01.2022
6107 Clouds 4 1012 69 10000 1.34 265 21:31 04.01.2022
6108 Clouds 6 1011 72 10000 2.24 274 19:20 04.01.2022
6109 Clouds 6 1011 70 10000 2.24 267 17:54 04.01.2022
6110 Clouds 7 1010 70 10000 3.13 0 16:53 04.01.2022
6111 Clouds 7 1010 70 10000 3.13 0 16:25 04.01.2022
6112 Clouds 8 1010 70 10000 2.68 0 14:54 04.01.2022
6113 Clouds 8 1010 70 10000 2.68 0 14:35 04.01.2022
6114 Clouds 8 1010 71 10000 2.68 0 13:40 04.01.2022
6115 Clouds 7 1011 72 10000 2.24 0 10:52 04.01.2022
6116 Clouds 7 1011 72 10000 2.24 0 09:58 04.01.2022
6117 Clouds 7 1012 72 10000 0.89 0 08:35 04.01.2022
6118 Clouds 7 1014 71 10000 0.45 0 03:39 04.01.2022
6119 Clouds 8 1015 75 10000 2.24 0 00:42 04.01.2022
6120 Clouds 8 1015 75 10000 1.79 0 23:41 03.01.2022
6121 Clouds 7 1015 69 10000 1.34 0 22:21 03.01.2022
6122 Clouds 7 1016 74 10000 1.34 0 21:35 03.01.2022
6123 Clouds 7 1016 69 10000 3.13 0 20:34 03.01.2022
6124 Clouds 8 1016 70 10000 3.13 0 18:54 03.01.2022
6125 Clear 8 1016 76 10000 4.02 0 18:29 03.01.2022
6126 Clear 9 1017 68 10000 3.13 0 17:20 03.01.2022
6127 Clouds 9 1017 66 10000 3.13 0 16:28 03.01.2022
6128 Clouds 11 1017 65 10000 4.47 0 14:31 03.01.2022
6129 Clouds 11 1018 70 10000 4.47 0 12:52 03.01.2022
6130 Clouds 11 1018 70 10000 4.47 0 11:50 03.01.2022
6131 Clouds 10 1018 72 10000 6.71 0 10:37 03.01.2022
6132 Clouds 9 1018 75 10000 2.68 0 09:27 03.01.2022
6133 Clouds 9 1018 76 10000 3.58 0 07:52 03.01.2022
6134 Clouds 10 1016 70 10000 6.71 0 02:56 03.01.2022
6135 Clouds 11 1017 69 10000 5.36 0 23:23 02.01.2022
6136 Clouds 11 1018 69 10000 5.81 0 22:56 02.01.2022
6137 Clouds 11 1018 76 10000 4.47 0 21:58 02.01.2022
6138 Clouds 11 1018 69 10000 4.92 0 20:50 02.01.2022
6139 Clouds 11 1018 69 10000 3.13 0 20:30 02.01.2022
6140 Clouds 12 1018 67 10000 3.58 0 19:31 02.01.2022
6141 Clouds 12 1018 73 10000 5.81 0 18:56 02.01.2022
6142 Clouds 12 1018 67 10000 5.36 0 17:58 02.01.2022
6143 Clouds 12 1018 67 10000 5.81 0 17:39 02.01.2022
6144 Clouds 12 1018 67 10000 4.02 0 17:21 02.01.2022
6145 Clouds 12 1018 68 10000 4.02 0 16:28 02.01.2022
6146 Clouds 13 1018 67 10000 5.81 0 14:44 02.01.2022
6147 Clear 13 1018 65 10000 5.36 0 13:38 02.01.2022
6148 Clear 12 1019 68 10000 3.13 0 12:32 02.01.2022
6149 Clear 12 1019 70 10000 4.47 0 11:49 02.01.2022
6150 Clear 12 1020 70 10000 1.34 0 10:55 02.01.2022
6151 Drizzle 11 1021 75 10000 3.13 0 09:58 02.01.2022
6152 Clouds 11 1021 71 10000 2.68 0 07:35 02.01.2022
6153 Clouds 10 1022 71 10000 0.45 0 02:57 02.01.2022
6154 Clouds 10 1024 71 10000 1.34 0 23:50 01.01.2022
6155 Clouds 10 1024 70 10000 0.89 0 23:27 01.01.2022
6156 Clouds 10 1024 71 10000 0.89 0 22:26 01.01.2022
6157 Clouds 10 1024 75 10000 1.34 188 21:54 01.01.2022
6158 Clouds 10 1024 75 10000 0.89 188 21:36 01.01.2022
6159 Clouds 11 1024 68 10000 1.34 180 20:36 01.01.2022
6160 Clouds 12 1025 69 10000 0.89 184 19:45 01.01.2022
6161 Clouds 12 1025 69 10000 1.79 216 18:52 01.01.2022
6162 Clouds 12 1025 69 10000 0.89 0 17:41 01.01.2022
6163 Clouds 13 1025 69 10000 0.89 0 16:35 01.01.2022
6164 Clouds 13 1025 74 10000 1.79 0 15:45 01.01.2022
6165 Clouds 14 1025 68 10000 0.89 0 14:40 01.01.2022
6166 Clouds 14 1025 68 10000 2.24 0 13:42 01.01.2022
6167 Clouds 13 1025 75 10000 2.68 0 12:26 01.01.2022
6168 Clouds 13 1025 69 10000 2.68 0 11:30 01.01.2022
6169 Clouds 13 1025 70 10000 2.24 0 10:59 01.01.2022
6170 Clouds 12 1025 71 10000 2.24 0 09:48 01.01.2022
6171 Clouds 12 1025 70 10000 1.34 0 08:49 01.01.2022
6172 Clouds 12 1025 71 10000 3.13 0 08:21 01.01.2022
6173 Clouds 12 1024 68 10000 2.68 0 07:40 01.01.2022
6174 Clouds 12 1024 70 10000 2.68 0 06:44 01.01.2022
6175 Clouds 12 1024 70 10000 2.68 0 05:25 01.01.2022
6176 Clouds 12 1024 71 10000 3.13 0 04:37 01.01.2022
6177 Clouds 12 1023 83 10000 4.47 0 00:37 01.01.2022
6178 Clouds 12 1023 90 10000 4.47 0 22:40 31.12.2021
6179 Clouds 12 1022 84 9000 5.36 0 21:51 31.12.2021
6180 Clouds 13 1022 69 10000 4.47 0 20:28 31.12.2021
6181 Clouds 13 1021 67 10000 5.81 0 19:28 31.12.2021
6182 Clouds 13 1015 82 10000 7.2 280 18:30 31.12.2021
6183 Clouds 13 1021 76 10000 5.36 0 17:37 31.12.2021
6184 Rain 13 1021 75 10000 5.36 0 17:18 31.12.2021
6185 Clouds 14 1020 67 10000 3.13 0 16:19 31.12.2021
6186 Clouds 14 1020 66 10000 4.02 0 15:53 31.12.2021
6187 Clouds 14 1020 67 10000 3.58 0 15:28 31.12.2021
6188 Clouds 14 1021 67 10000 3.13 0 14:43 31.12.2021
6189 Clouds 14 1021 67 10000 4.92 0 14:18 31.12.2021
6190 Clouds 14 1021 73 10000 4.47 0 13:36 31.12.2021
6191 Clouds 14 1021 74 10000 4.92 0 12:44 31.12.2021
6192 Clouds 14 1021 73 10000 5.36 0 11:43 31.12.2021
6193 Clouds 14 1021 68 10000 4.47 0 11:24 31.12.2021
6194 Clouds 14 1021 67 10000 3.58 0 10:34 31.12.2021
6195 Clouds 13 1021 73 10000 3.13 0 09:52 31.12.2021
6196 Clouds 13 1021 74 10000 2.68 0 09:32 31.12.2021
6197 Clouds 13 1021 69 10000 4.47 308 08:27 31.12.2021
6198 Clouds 13 1021 88 5000 4.47 349 07:30 31.12.2021
6199 Clouds 13 1021 91 10000 4.47 249 23:23 30.12.2021
6200 Clouds 13 1021 92 5000 3.13 253 22:33 30.12.2021
6201 Clouds 13 1021 92 5000 3.13 253 22:33 30.12.2021
6202 Clouds 12 1021 94 3400 1.79 0 21:56 30.12.2021
6203 Clouds 12 1021 94 3400 2.68 0 21:37 30.12.2021
6204 Clouds 12 1021 92 3700 2.68 0 20:46 30.12.2021
6205 Clouds 12 1021 92 3800 3.13 0 20:25 30.12.2021
6206 Clouds 12 1021 94 3800 2.68 0 19:47 30.12.2021
6207 Clouds 12 1021 94 3800 3.13 0 18:48 30.12.2021
6208 Clouds 13 1020 89 4200 2.68 0 18:19 30.12.2021
6209 Clouds 13 1020 88 6000 4.02 0 16:20 30.12.2021
6210 Clouds 13 1020 94 3400 3.13 0 15:52 30.12.2021
6211 Clouds 13 1019 94 10000 4.92 0 14:40 30.12.2021
6212 Mist 12 1019 94 3000 3.58 0 13:55 30.12.2021
6213 Clouds 12 1019 94 10000 2.68 0 12:44 30.12.2021
6214 Clouds 11 1019 90 10000 4.02 0 10:59 30.12.2021
6215 Clouds 11 1019 90 10000 2.24 0 09:59 30.12.2021
6216 Clouds 10 1019 92 10000 2.24 0 09:23 30.12.2021
6217 Clouds 9 1019 92 10000 3.13 0 06:54 30.12.2021
6218 Clouds 10 1018 93 10000 2.68 0 04:20 30.12.2021
6219 Clouds 10 1018 93 10000 2.68 0 04:20 30.12.2021
6220 Clouds 9 1018 98 10000 2.68 0 03:39 30.12.2021
6221 Clouds 7 1017 94 3900 1.34 0 00:35 30.12.2021
6222 Clouds 7 1017 93 3200 1.34 0 23:31 29.12.2021
6223 Clouds 7 1017 93 6000 0.45 0 22:30 29.12.2021
6224 Clouds 6 1017 93 10000 1.34 0 21:53 29.12.2021
6225 Clouds 7 1017 93 9000 0.89 0 20:56 29.12.2021
6226 Clouds 7 1017 91 9000 0.89 0 20:18 29.12.2021
6227 Clouds 7 1017 91 10000 0.45 0 19:31 29.12.2021
6228 Clouds 7 1017 91 10000 0.45 0 18:30 29.12.2021
6229 Clouds 7 1017 92 10000 0.89 0 17:30 29.12.2021
6230 Clouds 7 1017 92 10000 0.45 0 16:58 29.12.2021
6231 Clouds 7 1017 93 9000 0.89 0 16:19 29.12.2021
6232 Clouds 7 1017 94 8000 0.89 0 14:59 29.12.2021
6233 Drizzle 7 1016 92 6000 1.79 0 12:57 29.12.2021
6234 Drizzle 7 1016 92 3300 2.24 0 12:30 29.12.2021
6235 Drizzle 7 1016 93 1900 2.24 0 11:22 29.12.2021
6236 Drizzle 6 1015 92 2600 1.79 0 09:24 29.12.2021
6237 Clouds 6 1014 93 5000 0.89 0 06:59 29.12.2021
6238 Clouds 5 1014 94 7000 0.89 0 06:30 29.12.2021
6239 Clouds 5 1014 92 10000 0.89 0 05:55 29.12.2021
6240 Clouds 5 1013 92 10000 0.89 0 04:57 29.12.2021
6241 Clouds 4 1012 91 10000 1.54 220 00:43 29.12.2021
6242 Clouds 5 1011 89 10000 2.57 240 23:58 28.12.2021
6243 Clouds 5 1011 89 10000 2.24 0 22:57 28.12.2021
6244 Clouds 5 1011 90 10000 0.89 0 22:25 28.12.2021
6245 Clouds 5 1011 90 10000 0.89 0 22:25 28.12.2021
6246 Clouds 5 1011 88 10000 1.34 0 21:54 28.12.2021
6247 Clouds 5 1011 88 10000 1.34 0 21:35 28.12.2021
6248 Clouds 5 1010 90 5000 0.89 0 20:32 28.12.2021
6249 Clouds 5 1010 75 10000 0.89 0 18:54 28.12.2021
6250 Clouds 5 1010 76 10000 1.34 0 18:28 28.12.2021
6251 Clouds 5 1010 74 5000 1.34 0 17:42 28.12.2021
6252 Clouds 6 1010 74 10000 3.13 0 16:25 28.12.2021
6253 Clouds 6 1010 74 10000 2.68 0 15:41 28.12.2021
6254 Clouds 6 1010 76 10000 4.02 0 14:57 28.12.2021
6255 Clouds 6 1010 76 10000 4.02 0 14:57 28.12.2021
6256 Clouds 6 1010 76 10000 2.68 0 14:38 28.12.2021
6257 Clouds 6 1011 76 10000 4.02 0 14:20 28.12.2021
6258 Clouds 6 1011 76 10000 2.24 0 13:38 28.12.2021
6259 Clear 6 1011 76 10000 2.24 0 12:56 28.12.2021
6260 Clear 6 1011 76 10000 2.68 0 12:38 28.12.2021
6261 Clouds 4 1012 89 9000 4.02 0 10:52 28.12.2021
6262 Clouds 2 1012 77 5000 1.79 0 07:39 28.12.2021
6263 Clouds 2 1013 75 5000 1.79 0 06:40 28.12.2021
6264 Clouds 2 1014 77 10000 2.68 0 23:42 27.12.2021
6265 Clouds 1 1014 78 10000 2.68 0 22:53 27.12.2021
6266 Clouds 2 1014 78 10000 2.68 0 21:33 27.12.2021
6267 Clouds 2 1015 77 10000 2.24 0 20:45 27.12.2021
6268 Clouds 2 1015 76 10000 2.24 0 19:57 27.12.2021
6269 Clouds 2 1015 76 10000 2.68 0 19:39 27.12.2021
6270 Clouds 1 1015 76 10000 4.02 0 18:23 27.12.2021
6271 Clouds 1 1015 76 10000 2.24 0 17:46 27.12.2021
6272 Clouds 1 1015 77 10000 2.68 0 16:38 27.12.2021
6273 Clouds 1 1015 80 10000 2.24 0 15:51 27.12.2021
6274 Clouds 1 1015 76 10000 2.68 0 14:32 27.12.2021
6275 Clouds 1 1015 77 10000 0.89 0 13:39 27.12.2021
6276 Clouds 0 1015 76 10000 1.34 0 12:19 27.12.2021
6277 Clouds -1 1016 75 10000 2.68 0 10:31 27.12.2021
6278 Clouds -2 1016 74 10000 2.24 0 09:47 27.12.2021
6279 Clouds -2 1016 74 10000 0.89 0 07:38 27.12.2021
6280 Clouds -2 1016 78 10000 2.68 0 07:20 27.12.2021
6281 Clouds -3 1017 71 10000 2.24 0 02:19 27.12.2021
6282 Clouds -3 1018 71 10000 2.68 0 23:58 26.12.2021
6283 Clouds -3 1018 71 10000 1.34 0 23:36 26.12.2021
6284 Clouds -4 1018 70 10000 2.68 0 22:34 26.12.2021
6285 Clouds -4 1018 70 10000 3.13 0 20:59 26.12.2021
6286 Clouds -5 1019 71 10000 0.45 0 19:47 26.12.2021
6287 Clouds -5 1019 70 10000 3.13 0 18:24 26.12.2021
6288 Clear -5 1019 68 10000 2.24 0 17:24 26.12.2021
6289 Clear -3 1019 66 10000 4.02 0 14:29 26.12.2021
6290 Clear -3 1019 69 10000 3.13 0 13:41 26.12.2021
6291 Clear -3 1019 68 10000 3.58 0 13:20 26.12.2021
6292 Clear -4 1020 67 10000 2.68 0 12:33 26.12.2021
6293 Clear -4 1020 67 10000 2.68 0 12:33 26.12.2021
6294 Clear -7 1020 75 10000 2.24 0 10:43 26.12.2021
6295 Clear -8 1020 74 10000 1.79 0 09:28 26.12.2021
6296 Clear -9 1020 75 10000 1.34 136 08:44 26.12.2021
6297 Clear -9 1020 78 10000 1.79 137 07:59 26.12.2021
6298 Clear -9 1020 77 10000 2.24 127 01:36 26.12.2021
6299 Clear -8 1013 73 10000 1.54 90 23:58 25.12.2021
6300 Clear -8 1013 86 10000 1.54 130 23:28 25.12.2021
6301 Clear -8 1014 91 10000 1.54 100 22:28 25.12.2021
6302 Clear -7 1014 76 10000 1.54 100 21:25 25.12.2021
6303 Clear -7 1021 73 10000 1.54 100 19:28 25.12.2021
6304 Clear -7 1021 75 10000 1.54 100 18:57 25.12.2021
6305 Clear -6 1021 88 10000 0.45 66 18:25 25.12.2021
6306 Clear -5 1020 71 10000 2.06 80 16:49 25.12.2021
6307 Clear -3 1020 65 10000 1.34 0 15:30 25.12.2021
6308 Clear -3 1020 67 10000 2.68 0 13:47 25.12.2021
6309 Snow -4 1020 70 10000 1.79 0 12:19 25.12.2021
6310 Clouds -4 1020 72 10000 1.34 0 10:38 25.12.2021
6311 Clouds -5 1020 68 10000 2.24 0 09:48 25.12.2021
6312 Clouds -6 1019 73 10000 0.89 21 07:27 25.12.2021
6313 Clouds -3 1018 73 10000 4.47 0 01:36 25.12.2021
6314 Clouds -2 1018 81 10000 5.36 0 00:21 25.12.2021
6315 Snow -1 1017 81 10000 2.68 0 21:57 24.12.2021
6316 Snow 1 1016 78 8000 0.89 0 19:27 24.12.2021
6317 Snow 1 1016 78 5000 1.34 6 18:56 24.12.2021
6318 Rain 2 1015 76 6000 0.45 359 16:49 24.12.2021
6319 Clouds 3 1014 76 6000 2.24 349 15:50 24.12.2021
6320 Clouds 3 1014 76 6000 2.24 0 15:25 24.12.2021
6321 Clouds 4 1014 76 10000 1.34 348 14:35 24.12.2021
6322 Clouds 5 1013 74 9000 4.02 0 13:57 24.12.2021
6323 Clouds 6 999 55 9000 4.63 350 13:32 24.12.2021
6324 Clouds 8 1013 90 10000 6.26 0 12:45 24.12.2021
6325 Clouds 9 1013 90 10000 5.81 0 11:46 24.12.2021
6326 Clouds 9 1013 92 8000 5.36 0 11:24 24.12.2021
6327 Clouds 8 1013 93 5000 4.47 0 10:36 24.12.2021
6328 Clouds 8 1013 92 4600 4.02 0 09:22 24.12.2021
6329 Clouds 7 1013 93 6000 3.13 0 08:19 24.12.2021
6330 Clouds 7 1013 77 4200 3.13 0 07:44 24.12.2021
6331 Rain 4 1014 73 3800 3.13 0 00:48 24.12.2021
6332 Clouds 3 1014 72 4000 3.13 0 23:54 23.12.2021
6333 Rain 3 1014 74 5000 4.02 247 22:54 23.12.2021
6334 Rain 3 1015 73 7000 4.92 0 22:27 23.12.2021
6335 Clouds 3 1015 73 8000 3.13 0 21:59 23.12.2021
6336 Clouds 2 1015 76 9000 4.02 0 20:56 23.12.2021
6337 Rain 2 1015 71 10000 5.36 0 19:47 23.12.2021
6338 Rain 1 1016 75 10000 2.68 0 18:34 23.12.2021
6339 Rain 1 1016 70 10000 2.24 0 17:55 23.12.2021
6340 Rain 1 1017 71 10000 0.45 0 16:43 23.12.2021
6341 Rain 1 1017 76 10000 0.89 0 16:23 23.12.2021
6342 Snow 1 1017 75 10000 2.24 0 15:31 23.12.2021
6343 Snow 1 1017 75 10000 2.24 0 15:31 23.12.2021
6344 Snow 1 1017 69 10000 0.89 0 14:49 23.12.2021
6345 Snow 1 1018 70 10000 1.34 0 14:30 23.12.2021
6346 Snow 0 1018 70 10000 2.68 0 12:53 23.12.2021
6347 Clear -1 1019 81 10000 0.45 0 10:44 23.12.2021
6348 Clear -1 1020 76 10000 1.54 250 09:35 23.12.2021
6349 Snow -2 1020 77 10000 2.24 0 08:59 23.12.2021
6350 Clouds -1 1015 75 10000 2.44 213 06:51 23.12.2021
6351 Clouds -2 1016 76 10000 2.05 192 04:30 23.12.2021
6352 Clouds -3 1021 84 4200 1.54 110 23:20 22.12.2021
6353 Clouds -3 1021 84 3800 2.06 100 22:42 22.12.2021
6354 Mist -3 1025 86 4400 0.45 0 21:56 22.12.2021
6355 Clouds -3 1027 84 10000 2.14 160 21:29 22.12.2021
6356 Mist -4 1025 91 1700 0.89 0 20:47 22.12.2021
6357 Mist -4 1025 96 1700 0.45 0 20:26 22.12.2021
6358 Mist -3 1025 89 1300 0.45 0 19:28 22.12.2021
6359 Fog -3 1026 90 1000 3.09 120 17:42 22.12.2021
6360 Clouds -2 1026 79 9000 2.06 110 16:40 22.12.2021
6361 Clouds -1 1026 77 7000 0.89 0 15:40 22.12.2021
6362 Clouds 0 1026 85 10000 2.06 240 13:33 22.12.2021
6363 Mist -1 1026 86 5000 0.51 0 12:41 22.12.2021
6364 Mist -2 1026 81 2000 1.03 0 10:36 22.12.2021
6365 Mist -3 1027 89 2000 1.03 0 09:39 22.12.2021
6366 Fog -4 1027 78 700 1.54 160 07:30 22.12.2021
6367 Clouds -4 1027 76 700 0.45 0 05:50 22.12.2021
6368 Clouds -3 1027 79 700 0.45 0 05:26 22.12.2021
6369 Clouds -3 1027 80 600 0.89 0 04:52 22.12.2021
6370 Clouds -3 1027 80 700 2.06 160 04:29 22.12.2021
6371 Clouds -3 1027 79 750 0.45 0 03:33 22.12.2021
6372 Clouds -2 1027 80 650 0.89 0 00:57 22.12.2021
6373 Clouds -2 1027 78 550 0.45 0 23:32 21.12.2021
6374 Fog -2 1027 78 650 0.45 0 22:29 21.12.2021
6375 Fog -2 1027 78 600 2.06 200 21:44 21.12.2021
6376 Clear -2 1027 75 10000 0.45 0 21:24 21.12.2021
6377 Fog -2 1027 77 450 0 0 20:23 21.12.2021
6378 Fog -2 1027 79 500 1.03 0 19:46 21.12.2021
6379 Fog -2 1027 77 450 0.51 0 19:19 21.12.2021
6380 Fog -1 1027 79 450 0 0 18:22 21.12.2021
6381 Fog -1 1027 82 550 0 0 17:51 21.12.2021
6382 Fog -1 1027 81 350 0 0 16:39 21.12.2021
6383 Fog 0 1027 78 300 1.03 0 15:29 21.12.2021
6384 Mist 0 1027 78 1500 1.03 0 13:51 21.12.2021
6385 Mist 0 1027 79 1500 1.03 0 13:32 21.12.2021
6386 Fog 0 1027 78 800 0.45 0 12:20 21.12.2021
6387 Fog -1 1027 80 900 0.89 0 10:37 21.12.2021
6388 Fog -2 1027 78 300 1.03 220 09:35 21.12.2021
6389 Fog -2 1027 75 300 1.03 0 08:30 21.12.2021
6390 Fog -2 1027 78 300 1.03 0 07:32 21.12.2021
6391 Clouds -2 1027 72 300 0.89 323 06:56 21.12.2021
6392 Clouds -3 1027 73 10000 0 0 03:22 21.12.2021
6393 Clouds -2 1027 70 5000 0 0 01:18 21.12.2021
6394 Clouds -3 1027 76 7000 0 0 23:34 20.12.2021
6395 Clouds -2 1027 83 1100 0 0 22:35 20.12.2021
6396 Clear -2 1027 84 10000 1.54 280 21:48 20.12.2021
6397 Clear -2 1027 84 10000 1.03 280 21:24 20.12.2021
6398 Clear -2 1027 77 10000 1.03 270 20:50 20.12.2021
6399 Clear -2 1027 77 10000 0 0 19:55 20.12.2021
6400 Clear -2 1027 77 10000 0 0 19:55 20.12.2021
6401 Clear -2 1027 77 10000 0 0 19:55 20.12.2021
6402 Clear -1 1027 77 10000 0 0 19:34 20.12.2021
6403 Clear -1 1027 82 10000 1.54 290 18:55 20.12.2021
6404 Clear -1 1027 77 10000 0 0 18:28 20.12.2021
6405 Clear 0 1027 77 10000 1.54 310 17:49 20.12.2021
6406 Clear 1 1027 75 10000 0.45 354 16:44 20.12.2021
6407 Clear 2 1027 72 10000 0.89 298 15:52 20.12.2021
6408 Clear 3 1027 70 10000 1.34 0 15:31 20.12.2021
6409 Clear 3 1027 71 10000 1.79 0 13:31 20.12.2021
6410 Clear 2 1027 74 10000 0.45 0 11:47 20.12.2021
6411 Clear 0 1027 78 10000 0.89 296 10:35 20.12.2021
6412 Clear -1 1027 77 10000 0.89 315 09:38 20.12.2021
6413 Clear -2 1027 81 10000 1.34 0 08:44 20.12.2021
6414 Clear -2 1027 80 6000 0.89 0 08:00 20.12.2021
6415 Clear -1 1027 80 6000 0.89 0 07:32 20.12.2021
6416 Clear -1 1026 83 10000 0.89 0 06:32 20.12.2021
6417 Clear -1 1026 83 10000 0.89 0 06:32 20.12.2021
6418 Clouds 2 1026 83 10000 0.45 291 00:19 20.12.2021
6419 Clouds 4 1026 75 10000 2.24 318 22:56 19.12.2021
6420 Clouds 4 1026 75 10000 1.79 334 22:24 19.12.2021
6421 Clouds 4 1025 79 10000 1.79 0 21:32 19.12.2021
6422 Clouds 6 1025 72 10000 2.68 313 20:36 19.12.2021
6423 Clouds 6 1025 76 10000 3.58 317 19:53 19.12.2021
6424 Clouds 7 1025 77 10000 2.24 313 19:34 19.12.2021
6425 Clouds 7 1025 75 10000 3.13 0 18:35 19.12.2021
6426 Clouds 7 1025 80 10000 4.47 304 17:53 19.12.2021
6427 Clouds 7 1025 81 10000 3.58 311 17:28 19.12.2021
6428 Clouds 7 1025 81 10000 4.02 304 16:27 19.12.2021
6429 Clouds 7 1025 81 10000 4.02 304 16:27 19.12.2021
6430 Clouds 7 1025 80 10000 4.02 294 15:51 19.12.2021
6431 Clouds 7 1025 80 10000 5.36 289 15:23 19.12.2021
6432 Clouds 7 1025 80 8000 4.47 295 14:45 19.12.2021
6433 Clouds 7 1026 79 10000 4.02 300 13:26 19.12.2021
6434 Drizzle 7 1026 79 10000 4.92 306 12:50 19.12.2021
6435 Clouds 7 1026 77 10000 3.13 300 12:28 19.12.2021
6436 Drizzle 7 1026 77 10000 4.47 298 11:33 19.12.2021
6437 Drizzle 7 1027 75 10000 4.47 302 10:48 19.12.2021
6438 Clouds 7 1027 75 10000 5.36 288 10:21 19.12.2021
6439 Clouds 7 1027 76 10000 5.36 294 08:46 19.12.2021
6440 Clouds 7 1027 80 10000 5.36 295 06:30 19.12.2021
6441 Clouds 7 1028 76 10000 4.47 0 01:45 19.12.2021
6442 Clouds 7 1029 77 10000 4.02 0 00:54 19.12.2021
6443 Clouds 7 1029 80 10000 3.13 0 22:51 18.12.2021
6444 Clouds 7 1029 80 10000 2.24 0 22:24 18.12.2021
6445 Clouds 7 1029 80 10000 3.13 0 21:41 18.12.2021
6446 Clouds 8 1029 81 10000 2.24 0 21:22 18.12.2021
6447 Clouds 7 1030 83 10000 2.24 0 20:25 18.12.2021
6448 Clouds 7 1030 83 10000 2.24 0 19:34 18.12.2021
6449 Clouds 7 1030 82 10000 2.68 343 18:24 18.12.2021
6450 Clouds 7 1030 83 10000 3.13 333 17:49 18.12.2021
6451 Clouds 7 1030 82 5000 2.68 274 16:36 18.12.2021
6452 Clouds 7 1030 82 7000 2.24 275 16:18 18.12.2021
6453 Mist 7 1031 81 3800 2.68 272 14:54 18.12.2021
6454 Clouds 7 1031 81 10000 2.68 282 13:44 18.12.2021
6455 Drizzle 7 1031 82 2200 2.68 318 11:55 18.12.2021
6456 Drizzle 7 1032 82 2400 2.24 276 09:54 18.12.2021
6457 Clouds 6 1032 82 2300 2.24 274 09:31 18.12.2021
6458 Clouds 6 1032 82 2600 2.24 277 08:36 18.12.2021
6459 Clouds 6 1032 84 10000 2.24 290 06:28 18.12.2021
6460 Drizzle 7 1032 83 3900 0.89 0 01:45 18.12.2021
6461 Clouds 7 1032 81 2500 0.89 0 23:49 17.12.2021
6462 Clouds 7 1032 81 2500 1.34 0 22:39 17.12.2021
6463 Clouds 7 1032 79 2800 2.24 0 21:31 17.12.2021
6464 Clouds 7 1032 80 4700 0.45 0 20:43 17.12.2021
6465 Clouds 7 1032 82 10000 1.34 0 19:56 17.12.2021
6466 Clouds 7 1032 79 10000 2.24 0 18:40 17.12.2021
6467 Clouds 7 1032 80 10000 1.34 0 17:59 17.12.2021
6468 Clouds 7 1032 80 10000 1.34 0 16:53 17.12.2021
6469 Clouds 7 1032 80 10000 1.34 0 16:28 17.12.2021
6470 Clouds 7 1032 82 10000 2.68 0 15:49 17.12.2021
6471 Clouds 7 1032 80 10000 0.89 0 14:43 17.12.2021
6472 Clouds 7 1032 81 10000 2.24 0 13:51 17.12.2021
6473 Clouds 7 1032 81 10000 3.13 0 12:37 17.12.2021
6474 Drizzle 7 1032 80 10000 1.34 0 10:42 17.12.2021
6475 Drizzle 7 1032 80 10000 1.34 0 10:42 17.12.2021
6476 Clouds 7 1032 81 7000 0.89 0 09:47 17.12.2021
6477 Clouds 6 1032 83 6000 0.89 0 08:32 17.12.2021
6478 Clouds 6 1038 80 6000 2.06 300 07:38 17.12.2021
6479 Clouds 6 1038 77 10000 2.06 310 04:57 17.12.2021
6480 Clouds 5 1032 79 9000 0.89 351 00:57 17.12.2021
6481 Clouds 6 1032 82 10000 0.45 0 22:44 16.12.2021
6482 Clouds 7 1032 80 10000 0.89 0 22:22 16.12.2021
6483 Clouds 7 1032 80 10000 0.89 0 21:43 16.12.2021
6484 Clouds 7 1032 81 10000 2.24 0 20:40 16.12.2021
6485 Clouds 7 1032 81 10000 1.79 0 20:21 16.12.2021
6486 Clouds 7 1032 81 10000 1.79 0 20:21 16.12.2021
6487 Clouds 8 1032 79 10000 0.45 0 19:27 16.12.2021
6488 Clouds 8 1032 82 10000 1.34 0 18:31 16.12.2021
6489 Clouds 8 1032 82 10000 1.34 0 17:46 16.12.2021
6490 Clouds 9 1031 81 10000 1.34 0 16:24 16.12.2021
6491 Clouds 9 1031 81 10000 1.34 0 15:38 16.12.2021
6492 Mist 9 1031 82 5000 1.34 0 13:45 16.12.2021
6493 Drizzle 9 1031 83 2400 1.34 0 11:56 16.12.2021
6494 Mist 9 1031 82 1800 1.34 0 11:18 16.12.2021
6495 Drizzle 9 1031 82 1800 1.79 0 10:39 16.12.2021
6496 Drizzle 8 1030 82 2300 1.34 0 09:43 16.12.2021
6497 Clouds 7 1029 82 9000 1.79 0 06:23 16.12.2021
6498 Clouds 7 1029 83 9000 1.34 0 04:33 16.12.2021
6499 Clouds 8 1029 77 10000 2.24 0 23:47 15.12.2021
6500 Clouds 8 1029 77 10000 2.68 0 22:50 15.12.2021
6501 Clouds 9 1029 76 10000 2.24 0 22:21 15.12.2021
6502 Clouds 9 1029 79 10000 1.79 0 21:31 15.12.2021
6503 Clouds 9 1028 78 10000 2.68 0 20:51 15.12.2021
6504 Clouds 9 1028 80 10000 0.89 0 19:53 15.12.2021
6505 Clouds 9 1028 80 10000 2.24 0 19:18 15.12.2021
6506 Clouds 9 1028 80 10000 0.89 0 18:19 15.12.2021
6507 Clouds 9 1028 80 10000 3.13 0 17:45 15.12.2021
6508 Clouds 9 1028 80 10000 1.79 0 17:21 15.12.2021
6509 Clouds 9 1028 82 10000 2.24 0 15:49 15.12.2021
6510 Clouds 9 1028 81 10000 1.34 0 15:30 15.12.2021
6511 Drizzle 9 1028 81 9000 2.24 0 14:48 15.12.2021
6512 Clouds 9 1028 82 9000 3.13 0 13:34 15.12.2021
6513 Clouds 9 1028 80 10000 2.68 0 11:52 15.12.2021
6514 Drizzle 9 1028 81 5000 3.13 0 10:22 15.12.2021
6515 Mist 8 1027 81 5000 2.68 0 08:26 15.12.2021
6516 Clouds 8 1027 81 10000 0.89 0 05:53 15.12.2021
6517 Clouds 8 1027 82 8000 0.89 0 00:37 15.12.2021
6518 Clouds 8 1027 82 3200 1.34 0 23:31 14.12.2021
6519 Clouds 8 1027 83 3700 2.24 342 22:44 14.12.2021
6520 Clouds 8 1027 84 5000 2.68 0 21:43 14.12.2021
6521 Clouds 8 1027 84 5000 2.68 0 21:43 14.12.2021
6522 Drizzle 8 1027 81 5000 2.24 0 20:22 14.12.2021
6523 Drizzle 8 1027 80 3400 0.89 0 19:37 14.12.2021
6524 Drizzle 7 1027 84 3600 1.79 0 18:38 14.12.2021
6525 Clouds 8 1027 78 6000 0.45 0 17:56 14.12.2021
6526 Clouds 8 1027 78 7000 1.34 0 16:47 14.12.2021
6527 Drizzle 8 1027 77 4500 2.68 0 16:28 14.12.2021
6528 Clouds 9 1026 74 10000 2.68 0 14:32 14.12.2021
6529 Clouds 9 1026 79 10000 1.34 0 12:58 14.12.2021
6530 Clouds 9 1026 75 10000 2.68 0 11:51 14.12.2021
6531 Clouds 8 1026 76 10000 3.13 0 11:22 14.12.2021
6532 Clouds 8 1026 80 10000 2.68 0 09:55 14.12.2021
6533 Clouds 7 1026 77 10000 1.34 0 09:19 14.12.2021
6534 Clouds 7 1026 78 10000 2.68 0 08:22 14.12.2021
6535 Clouds 7 1026 78 10000 0.89 0 07:39 14.12.2021
6536 Clouds 8 1027 80 10000 0.89 0 23:59 13.12.2021
6537 Clouds 8 1027 80 10000 0.45 0 22:33 13.12.2021
6538 Clouds 8 1027 80 10000 0.89 0 21:49 13.12.2021
6539 Clouds 8 1027 80 10000 2.06 250 20:58 13.12.2021
6540 Clouds 8 1027 79 10000 0.45 0 20:29 13.12.2021
6541 Clouds 8 1027 79 10000 0.45 0 19:51 13.12.2021
6542 Clouds 9 1027 81 10000 0.45 0 17:55 13.12.2021
6543 Clouds 9 1027 81 10000 0.45 0 17:19 13.12.2021
6544 Clouds 9 1027 82 10000 2.24 0 15:49 13.12.2021
6545 Clouds 9 1027 82 10000 1.34 0 14:55 13.12.2021
6546 Clouds 10 1027 84 10000 2.24 0 13:38 13.12.2021
6547 Clouds 10 1027 86 10000 2.24 0 12:41 13.12.2021
6548 Drizzle 9 1027 86 5000 1.34 0 11:54 13.12.2021
6549 Mist 9 1027 86 5000 1.34 0 11:35 13.12.2021
6550 Drizzle 9 1027 88 3700 2.24 0 10:41 13.12.2021
6551 Mist 8 1026 86 4300 1.34 0 08:52 13.12.2021
6552 Clouds 8 1026 86 6000 1.34 0 07:37 13.12.2021
6553 Clouds 8 1026 87 2700 2.24 0 05:23 13.12.2021
6554 Clouds 7 1025 86 4200 1.34 0 00:43 13.12.2021
6555 Clouds 6 1025 86 3300 2.68 0 21:59 12.12.2021
6556 Clouds 6 1025 86 3300 2.24 0 21:33 12.12.2021
6557 Clouds 6 1025 85 5000 2.68 0 19:38 12.12.2021
6558 Clouds 5 1024 87 5000 2.68 0 18:35 12.12.2021
6559 Mist 5 1024 84 4100 4.02 0 16:58 12.12.2021
6560 Clouds 5 1024 82 10000 4.02 0 16:27 12.12.2021
6561 Clouds 5 1024 85 10000 3.58 0 15:41 12.12.2021
6562 Mist 5 1024 80 4200 4.02 0 15:21 12.12.2021
6563 Clouds 5 1024 80 10000 3.13 0 14:30 12.12.2021
6564 Clouds 5 1024 80 10000 3.13 0 14:30 12.12.2021
6565 Clouds 5 1024 82 10000 3.13 0 12:56 12.12.2021
6566 Clouds 4 1024 79 10000 4.02 0 12:26 12.12.2021
6567 Drizzle 4 1024 78 6000 2.68 358 11:44 12.12.2021
6568 Clouds 4 1024 76 10000 1.79 354 10:56 12.12.2021
6569 Clouds 3 1024 81 9000 0.45 0 10:22 12.12.2021
6570 Clouds 3 1024 74 10000 1.34 0 08:54 12.12.2021
6571 Clouds 3 1024 76 10000 1.34 0 07:31 12.12.2021
6572 Clouds 2 1025 78 10000 1.34 0 05:57 12.12.2021
6573 Clouds 2 1025 79 10000 0.89 160 04:55 12.12.2021
6574 Clouds 1 1025 81 10000 0.45 266 02:58 12.12.2021
6575 Clouds 1 1024 79 10000 3.13 354 23:31 11.12.2021
6576 Clouds 1 1024 78 10000 2.68 353 22:22 11.12.2021
6577 Clouds 1 1024 78 10000 2.24 331 21:51 11.12.2021
6578 Clouds 1 1023 78 10000 2.68 279 20:29 11.12.2021
6579 Clouds 1 1023 77 10000 2.24 326 19:21 11.12.2021
6580 Clear 1 1023 82 10000 2.24 296 18:52 11.12.2021
6581 Clear 1 1023 81 10000 0.89 304 18:19 11.12.2021
6582 Clear 2 1022 77 10000 2.24 345 17:20 11.12.2021
6583 Clear 3 1022 76 10000 0.89 212 15:52 11.12.2021
6584 Clear 3 1021 76 10000 0.89 0 15:27 11.12.2021
6585 Mist 2 1021 81 1500 0.89 0 12:50 11.12.2021
6586 Mist 2 1021 81 1500 0.89 0 12:50 11.12.2021
6587 Fog 1 1020 83 300 0.45 0 11:25 11.12.2021
6588 Mist 0 1019 90 4000 1.54 230 09:45 11.12.2021
6589 Clouds 0 1019 89 3600 0.45 0 08:23 11.12.2021
6590 Clouds 0 1016 86 750 0 0 02:23 11.12.2021
6591 Clouds 0 1015 83 750 2.06 70 23:58 10.12.2021
6592 Clouds 0 1014 84 900 0.45 0 23:20 10.12.2021
6593 Clouds 0 1014 83 600 0.45 0 21:56 10.12.2021
6594 Clouds 0 1013 83 550 0.45 0 21:28 10.12.2021
6595 Fog 0 1013 82 550 3.09 90 19:21 10.12.2021
6596 Clear 0 1012 80 10000 3.09 100 18:21 10.12.2021
6597 Clouds 2 1012 76 10000 0.45 0 16:56 10.12.2021
6598 Clouds 2 1012 74 10000 2.24 111 16:28 10.12.2021
6599 Clouds 3 1012 79 10000 0.89 141 15:41 10.12.2021
6600 Clouds 3 1012 79 10000 0.89 0 15:21 10.12.2021
6601 Clouds 4 1012 79 10000 1.79 122 13:52 10.12.2021
6602 Clouds 4 1012 74 10000 1.34 0 13:26 10.12.2021
6603 Clouds 4 1012 74 10000 0.89 0 12:45 10.12.2021
6604 Clouds 3 1012 77 10000 1.34 0 11:29 10.12.2021
6605 Clouds 2 1012 77 10000 2.24 0 10:38 10.12.2021
6606 Clouds 1 1012 83 10000 2.68 151 08:58 10.12.2021
6607 Clouds 2 1013 79 10000 1.34 9 06:56 10.12.2021
6608 Clouds 1 1014 83 10000 0.89 2 02:50 10.12.2021
6609 Clouds 1 1015 87 9000 0.89 0 00:55 10.12.2021
6610 Clouds 1 1015 84 6000 0.45 0 23:37 09.12.2021
6611 Clouds 2 1015 84 10000 0.45 0 22:40 09.12.2021
6612 Clouds 2 1016 82 9000 0.45 0 22:19 09.12.2021
6613 Clouds 2 1027 83 10000 1.34 200 21:20 09.12.2021
6614 Clouds 2 1016 82 5000 1.79 169 20:34 09.12.2021
6615 Clouds 2 1016 85 5000 0.45 0 19:22 09.12.2021
6616 Clouds 2 1016 85 5000 1.34 1 18:53 09.12.2021
6617 Clouds 2 1016 82 6000 1.34 1 17:57 09.12.2021
6618 Clouds 2 1016 82 6000 0.89 163 17:28 09.12.2021
6619 Mist 2 1016 81 5000 0.89 159 16:57 09.12.2021
6620 Clouds 2 1016 81 5000 1.79 168 16:20 09.12.2021
6621 Clouds 3 1016 81 6000 0.89 137 14:58 09.12.2021
6622 Clouds 3 1016 84 6000 1.34 45 13:52 09.12.2021
6623 Clouds 2 1016 82 7000 0.45 118 12:47 09.12.2021
6624 Clouds 2 1016 82 6000 1.34 136 11:29 09.12.2021
6625 Clouds 1 1016 82 6000 1.34 169 10:20 09.12.2021
6626 Clouds 1 1016 83 6000 1.34 18 06:53 09.12.2021
6627 Clouds 1 1015 84 6000 1.79 0 03:55 09.12.2021
6628 Clouds 2 1015 83 6000 2.68 148 00:25 09.12.2021
6629 Clouds 2 1015 83 6000 0.89 149 23:36 08.12.2021
6630 Clouds 2 1015 82 6000 2.24 11 22:57 08.12.2021
6631 Clouds 2 1015 82 7000 2.68 128 22:25 08.12.2021
6632 Clouds 2 1015 85 10000 2.68 137 21:33 08.12.2021
6633 Clear 2 1015 81 10000 2.24 72 20:48 08.12.2021
6634 Clouds 2 1015 80 10000 1.79 0 19:56 08.12.2021
6635 Clouds 2 1015 80 10000 1.34 5 19:20 08.12.2021
6636 Clear 2 1014 79 10000 1.34 0 18:22 08.12.2021
6637 Clear 3 1014 78 10000 2.24 5 16:53 08.12.2021
6638 Clear 3 1014 78 10000 0.89 2 15:42 08.12.2021
6639 Clouds 3 1014 82 10000 0.89 0 15:22 08.12.2021
6640 Clouds 4 1014 79 10000 2.68 0 13:26 08.12.2021
6641 Clouds 3 1014 82 10000 3.13 0 10:45 08.12.2021
6642 Clouds 3 1014 82 10000 3.13 0 10:45 08.12.2021
6643 Clouds 2 1014 84 10000 4.02 0 09:58 08.12.2021
6644 Rain 2 1014 85 10000 4.02 1 08:34 08.12.2021
6645 Snow 1 1014 78 9000 2.68 0 06:36 08.12.2021
6646 Clouds 2 1015 81 10000 4.92 0 01:20 08.12.2021
6647 Clouds 1 1016 84 10000 2.24 0 23:23 07.12.2021
6648 Clouds 1 1017 89 10000 2.68 0 21:26 07.12.2021
6649 Clouds 1 1017 85 10000 2.24 0 20:26 07.12.2021
6650 Clouds 2 1018 82 10000 2.24 140 19:23 07.12.2021
6651 Clouds 3 1018 84 10000 2.24 153 18:32 07.12.2021
6652 Clouds 3 1018 81 10000 2.24 143 17:27 07.12.2021
6653 Clouds 3 1018 80 10000 0.45 131 16:56 07.12.2021
6654 Clouds 3 1019 78 10000 0.89 133 16:26 07.12.2021
6655 Clouds 3 1018 73 10000 0.45 140 14:47 07.12.2021
6656 Clouds 4 1018 75 10000 0.89 0 13:45 07.12.2021
6657 Clouds 3 1018 77 10000 0.45 1 12:27 07.12.2021
6658 Clouds 2 1018 80 10000 0.89 0 11:23 07.12.2021
6659 Clouds 1 1018 80 10000 1.34 150 09:43 07.12.2021
6660 Clouds 1 1017 80 10000 2.24 143 07:52 07.12.2021
6661 Clouds 1 1017 84 10000 2.68 138 05:54 07.12.2021
6662 Clouds 1 1017 83 9000 1.79 139 05:27 07.12.2021
6663 Clouds 0 1019 82 10000 3.13 146 23:41 06.12.2021
6664 Clouds 1 1019 79 10000 2.68 0 22:44 06.12.2021
6665 Clouds 1 1019 82 10000 3.13 69 22:18 06.12.2021
6666 Clouds 1 1019 82 10000 4.02 158 21:37 06.12.2021
6667 Clouds 1 1020 83 10000 3.13 10 20:33 06.12.2021
6668 Clear 0 1020 80 10000 3.13 147 19:27 06.12.2021
6669 Clouds 0 1020 83 10000 4.02 4 18:57 06.12.2021
6670 Clouds 0 1020 82 10000 4.47 4 17:55 06.12.2021
6671 Clouds 0 1020 82 10000 2.68 0 17:36 06.12.2021